<?xml version='1.0' encoding='UTF-8'?><gpx version="1.1" creator="JPX - https://github.com/jenetics/jpx" xmlns="http://www.topografix.com/GPX/1/1"><trk><trkseg><trkpt lat="42.99445" lon="11.9548117"><ele>256.0</ele><time>2026-05-02T13:36:46.719Z</time></trkpt><trkpt lat="42.9943983" lon="11.9547517"><ele>256.0</ele><time>2026-05-02T13:36:47.719Z</time></trkpt><trkpt lat="42.994305" lon="11.9546833"><ele>256.0</ele><time>2026-05-02T13:36:48.72Z</time></trkpt><trkpt lat="42.9942" lon="11.954615"><ele>256.0</ele><time>2026-05-02T13:36:49.719Z</time></trkpt><trkpt lat="42.99409" lon="11.95454"><ele>256.0</ele><time>2026-05-02T13:36:50.719Z</time></trkpt><trkpt lat="42.99398" lon="11.9544733"><ele>255.75</ele><time>2026-05-02T13:36:51.719Z</time></trkpt><trkpt lat="42.9938667" lon="11.9543983"><ele>255.5</ele><time>2026-05-02T13:36:52.719Z</time></trkpt><trkpt lat="42.9937517" lon="11.9543083"><ele>255.25</ele><time>2026-05-02T13:36:53.719Z</time></trkpt><trkpt lat="42.9936267" lon="11.9542217"><ele>255.0</ele><time>2026-05-02T13:36:54.719Z</time></trkpt><trkpt lat="42.9934983" lon="11.9541417"><ele>255.0</ele><time>2026-05-02T13:36:55.719Z</time></trkpt><trkpt lat="42.99337" lon="11.95406"><ele>255.0</ele><time>2026-05-02T13:36:56.719Z</time></trkpt><trkpt lat="42.9932467" lon="11.9539783"><ele>255.0</ele><time>2026-05-02T13:36:57.719Z</time></trkpt><trkpt lat="42.9931267" lon="11.9538967"><ele>255.0</ele><time>2026-05-02T13:36:58.723Z</time></trkpt><trkpt lat="42.9930067" lon="11.9538183"><ele>255.0</ele><time>2026-05-02T13:36:59.721Z</time></trkpt><trkpt lat="42.9928883" lon="11.9537417"><ele>255.0</ele><time>2026-05-02T13:37:00.719Z</time></trkpt><trkpt lat="42.99277" lon="11.953665"><ele>255.0</ele><time>2026-05-02T13:37:01.722Z</time></trkpt><trkpt lat="42.9926517" lon="11.9535967"><ele>255.0</ele><time>2026-05-02T13:37:02.719Z</time></trkpt><trkpt lat="42.9925333" lon="11.9535183"><ele>254.75</ele><time>2026-05-02T13:37:03.719Z</time></trkpt><trkpt lat="42.992415" lon="11.953445"><ele>254.5</ele><time>2026-05-02T13:37:04.718Z</time></trkpt><trkpt lat="42.9922917" lon="11.9533667"><ele>254.25</ele><time>2026-05-02T13:37:05.718Z</time></trkpt><trkpt lat="42.992165" lon="11.9532933"><ele>254.0</ele><time>2026-05-02T13:37:06.718Z</time></trkpt><trkpt lat="42.9920333" lon="11.9532217"><ele>254.0</ele><time>2026-05-02T13:37:07.719Z</time></trkpt><trkpt lat="42.991895" lon="11.9531367"><ele>254.0</ele><time>2026-05-02T13:37:08.72Z</time></trkpt><trkpt lat="42.99175" lon="11.9530433"><ele>254.0</ele><time>2026-05-02T13:37:09.719Z</time></trkpt><trkpt lat="42.991595" lon="11.952945"><ele>253.33333333333334</ele><time>2026-05-02T13:37:10.72Z</time></trkpt><trkpt lat="42.991435" lon="11.952845"><ele>252.66666666666669</ele><time>2026-05-02T13:37:11.72Z</time></trkpt><trkpt lat="42.9912733" lon="11.952745"><ele>252.0</ele><time>2026-05-02T13:37:12.719Z</time></trkpt><trkpt lat="42.9911083" lon="11.9526383"><ele>252.0</ele><time>2026-05-02T13:37:13.718Z</time></trkpt><trkpt lat="42.9909383" lon="11.952545"><ele>252.0</ele><time>2026-05-02T13:37:14.718Z</time></trkpt><trkpt lat="42.99076" lon="11.9524417"><ele>252.0</ele><time>2026-05-02T13:37:15.718Z</time></trkpt><trkpt lat="42.990575" lon="11.95233"><ele>252.66666666666669</ele><time>2026-05-02T13:37:16.718Z</time></trkpt><trkpt lat="42.99039" lon="11.952215"><ele>253.33333333333334</ele><time>2026-05-02T13:37:17.718Z</time></trkpt><trkpt lat="42.990195" lon="11.9520967"><ele>254.0</ele><time>2026-05-02T13:37:18.718Z</time></trkpt><trkpt lat="42.989995" lon="11.951975"><ele>254.0</ele><time>2026-05-02T13:37:19.718Z</time></trkpt><trkpt lat="42.9897933" lon="11.9518617"><ele>254.0</ele><time>2026-05-02T13:37:20.718Z</time></trkpt><trkpt lat="42.989585" lon="11.9517467"><ele>254.0</ele><time>2026-05-02T13:37:21.718Z</time></trkpt><trkpt lat="42.98938" lon="11.951625"><ele>254.5</ele><time>2026-05-02T13:37:22.718Z</time></trkpt><trkpt lat="42.9891717" lon="11.951505"><ele>255.0</ele><time>2026-05-02T13:37:23.719Z</time></trkpt><trkpt lat="42.9889617" lon="11.951385"><ele>255.0</ele><time>2026-05-02T13:37:24.718Z</time></trkpt><trkpt lat="42.9887533" lon="11.951265"><ele>255.0</ele><time>2026-05-02T13:37:25.719Z</time></trkpt><trkpt lat="42.9885517" lon="11.9511417"><ele>255.0</ele><time>2026-05-02T13:37:26.719Z</time></trkpt><trkpt lat="42.988355" lon="11.951025"><ele>254.66666666666669</ele><time>2026-05-02T13:37:27.722Z</time></trkpt><trkpt lat="42.988155" lon="11.95091"><ele>254.33333333333334</ele><time>2026-05-02T13:37:28.721Z</time></trkpt><trkpt lat="42.9879533" lon="11.9507917"><ele>254.0</ele><time>2026-05-02T13:37:29.721Z</time></trkpt><trkpt lat="42.98775" lon="11.950675"><ele>254.33333333333334</ele><time>2026-05-02T13:37:30.721Z</time></trkpt><trkpt lat="42.9875433" lon="11.9505533"><ele>254.66666666666669</ele><time>2026-05-02T13:37:31.721Z</time></trkpt><trkpt lat="42.9873383" lon="11.95043"><ele>255.0</ele><time>2026-05-02T13:37:32.718Z</time></trkpt><trkpt lat="42.9871283" lon="11.9503067"><ele>255.0</ele><time>2026-05-02T13:37:33.718Z</time></trkpt><trkpt lat="42.9869167" lon="11.950195"><ele>255.0</ele><time>2026-05-02T13:37:34.718Z</time></trkpt><trkpt lat="42.9867117" lon="11.9500867"><ele>255.0</ele><time>2026-05-02T13:37:35.718Z</time></trkpt><trkpt lat="42.9865117" lon="11.949995"><ele>254.0</ele><time>2026-05-02T13:37:36.718Z</time></trkpt><trkpt lat="42.9863183" lon="11.94991"><ele>253.0</ele><time>2026-05-02T13:37:37.718Z</time></trkpt><trkpt lat="42.9861333" lon="11.9498467"><ele>252.0</ele><time>2026-05-02T13:37:38.718Z</time></trkpt><trkpt lat="42.9859617" lon="11.9498017"><ele>252.0</ele><time>2026-05-02T13:37:39.718Z</time></trkpt><trkpt lat="42.9858033" lon="11.94977"><ele>252.0</ele><time>2026-05-02T13:37:40.718Z</time></trkpt><trkpt lat="42.9856567" lon="11.949745"><ele>252.0</ele><time>2026-05-02T13:37:41.719Z</time></trkpt><trkpt lat="42.9855283" lon="11.949715"><ele>252.0</ele><time>2026-05-02T13:37:42.72Z</time></trkpt><trkpt lat="42.9854283" lon="11.9496767"><ele>252.0</ele><time>2026-05-02T13:37:43.719Z</time></trkpt><trkpt lat="42.9853583" lon="11.9496117"><ele>252.0</ele><time>2026-05-02T13:37:44.72Z</time></trkpt><trkpt lat="42.9853033" lon="11.9495333"><ele>252.0</ele><time>2026-05-02T13:37:45.718Z</time></trkpt><trkpt lat="42.98526" lon="11.9494433"><ele>252.0</ele><time>2026-05-02T13:37:46.719Z</time></trkpt><trkpt lat="42.985215" lon="11.94936"><ele>252.0</ele><time>2026-05-02T13:37:47.718Z</time></trkpt><trkpt lat="42.9851533" lon="11.9493133"><ele>252.0</ele><time>2026-05-02T13:37:48.718Z</time></trkpt><trkpt lat="42.9850533" lon="11.9493583"><ele>252.0</ele><time>2026-05-02T13:37:50.719Z</time></trkpt><trkpt lat="42.9850167" lon="11.9494783"><ele>252.0</ele><time>2026-05-02T13:37:51.718Z</time></trkpt><trkpt lat="42.9849767" lon="11.9495883"><ele>252.0</ele><time>2026-05-02T13:37:52.718Z</time></trkpt><trkpt lat="42.9849133" lon="11.9496633"><ele>252.0</ele><time>2026-05-02T13:37:53.718Z</time></trkpt><trkpt lat="42.9848033" lon="11.9496833"><ele>252.0</ele><time>2026-05-02T13:37:54.719Z</time></trkpt><trkpt lat="42.98468" lon="11.949685"><ele>252.75</ele><time>2026-05-02T13:37:55.719Z</time></trkpt><trkpt lat="42.9845517" lon="11.9496867"><ele>253.5</ele><time>2026-05-02T13:37:56.719Z</time></trkpt><trkpt lat="42.9844183" lon="11.9496917"><ele>254.25</ele><time>2026-05-02T13:37:57.72Z</time></trkpt><trkpt lat="42.984275" lon="11.9496983"><ele>255.0</ele><time>2026-05-02T13:37:58.719Z</time></trkpt><trkpt lat="42.9841217" lon="11.949705"><ele>255.33333333333331</ele><time>2026-05-02T13:37:59.719Z</time></trkpt><trkpt lat="42.9839667" lon="11.9497067"><ele>255.66666666666666</ele><time>2026-05-02T13:38:00.719Z</time></trkpt><trkpt lat="42.9838017" lon="11.949705"><ele>256.0</ele><time>2026-05-02T13:38:01.722Z</time></trkpt><trkpt lat="42.98363" lon="11.949705"><ele>256.0</ele><time>2026-05-02T13:38:02.718Z</time></trkpt><trkpt lat="42.9834533" lon="11.949705"><ele>256.0</ele><time>2026-05-02T13:38:03.718Z</time></trkpt><trkpt lat="42.983275" lon="11.9496883"><ele>256.0</ele><time>2026-05-02T13:38:04.719Z</time></trkpt><trkpt lat="42.98309" lon="11.949645"><ele>257.66666666666663</ele><time>2026-05-02T13:38:05.719Z</time></trkpt><trkpt lat="42.9829067" lon="11.9495683"><ele>259.3333333333333</ele><time>2026-05-02T13:38:06.719Z</time></trkpt><trkpt lat="42.98272" lon="11.94947"><ele>261.0</ele><time>2026-05-02T13:38:07.719Z</time></trkpt><trkpt lat="42.982535" lon="11.949365"><ele>260.0</ele><time>2026-05-02T13:38:08.721Z</time></trkpt><trkpt lat="42.982345" lon="11.94925"><ele>259.0</ele><time>2026-05-02T13:38:09.719Z</time></trkpt><trkpt lat="42.9821533" lon="11.949125"><ele>258.0</ele><time>2026-05-02T13:38:10.718Z</time></trkpt><trkpt lat="42.9819633" lon="11.948985"><ele>257.6666666666667</ele><time>2026-05-02T13:38:11.718Z</time></trkpt><trkpt lat="42.9817683" lon="11.9488467"><ele>257.33333333333337</ele><time>2026-05-02T13:38:12.719Z</time></trkpt><trkpt lat="42.9815683" lon="11.9487183"><ele>257.0</ele><time>2026-05-02T13:38:13.718Z</time></trkpt><trkpt lat="42.981365" lon="11.9485917"><ele>257.0</ele><time>2026-05-02T13:38:14.719Z</time></trkpt><trkpt lat="42.98117" lon="11.948465"><ele>257.0</ele><time>2026-05-02T13:38:15.719Z</time></trkpt><trkpt lat="42.98099" lon="11.948335"><ele>257.0</ele><time>2026-05-02T13:38:16.718Z</time></trkpt><trkpt lat="42.980815" lon="11.9482017"><ele>259.0</ele><time>2026-05-02T13:38:17.722Z</time></trkpt><trkpt lat="42.9806433" lon="11.9480617"><ele>261.0</ele><time>2026-05-02T13:38:18.718Z</time></trkpt><trkpt lat="42.9804767" lon="11.947905"><ele>263.0</ele><time>2026-05-02T13:38:19.719Z</time></trkpt><trkpt lat="42.9803183" lon="11.947745"><ele>263.0</ele><time>2026-05-02T13:38:20.719Z</time></trkpt><trkpt lat="42.9801767" lon="11.94758"><ele>263.0</ele><time>2026-05-02T13:38:21.718Z</time></trkpt><trkpt lat="42.98005" lon="11.9474317"><ele>263.0</ele><time>2026-05-02T13:38:22.718Z</time></trkpt><trkpt lat="42.9799367" lon="11.9472983"><ele>262.0</ele><time>2026-05-02T13:38:23.719Z</time></trkpt><trkpt lat="42.9798333" lon="11.94719"><ele>261.0</ele><time>2026-05-02T13:38:24.719Z</time></trkpt><trkpt lat="42.979735" lon="11.9471"><ele>260.0</ele><time>2026-05-02T13:38:25.719Z</time></trkpt><trkpt lat="42.9796433" lon="11.9470517"><ele>259.0</ele><time>2026-05-02T13:38:26.719Z</time></trkpt><trkpt lat="42.9795567" lon="11.947025"><ele>258.0</ele><time>2026-05-02T13:38:27.719Z</time></trkpt><trkpt lat="42.9794783" lon="11.9469917"><ele>258.0</ele><time>2026-05-02T13:38:28.718Z</time></trkpt><trkpt lat="42.9794067" lon="11.9469267"><ele>258.0</ele><time>2026-05-02T13:38:29.719Z</time></trkpt><trkpt lat="42.979345" lon="11.9468017"><ele>258.0</ele><time>2026-05-02T13:38:30.719Z</time></trkpt><trkpt lat="42.9792733" lon="11.94667"><ele>258.0</ele><time>2026-05-02T13:38:31.722Z</time></trkpt><trkpt lat="42.9791817" lon="11.9465317"><ele>258.6666666666667</ele><time>2026-05-02T13:38:32.719Z</time></trkpt><trkpt lat="42.9790783" lon="11.9463917"><ele>259.33333333333337</ele><time>2026-05-02T13:38:33.718Z</time></trkpt><trkpt lat="42.9789667" lon="11.94625"><ele>260.0</ele><time>2026-05-02T13:38:34.719Z</time></trkpt><trkpt lat="42.97885" lon="11.9461"><ele>260.0</ele><time>2026-05-02T13:38:35.719Z</time></trkpt><trkpt lat="42.9787383" lon="11.9459367"><ele>260.0</ele><time>2026-05-02T13:38:36.719Z</time></trkpt><trkpt lat="42.9786467" lon="11.9457533"><ele>260.0</ele><time>2026-05-02T13:38:37.719Z</time></trkpt><trkpt lat="42.978575" lon="11.9455483"><ele>263.0</ele><time>2026-05-02T13:38:38.719Z</time></trkpt><trkpt lat="42.9785133" lon="11.9453183"><ele>266.0</ele><time>2026-05-02T13:38:39.719Z</time></trkpt><trkpt lat="42.9784583" lon="11.94506"><ele>269.0</ele><time>2026-05-02T13:38:40.719Z</time></trkpt><trkpt lat="42.9784067" lon="11.9447983"><ele>269.6666666666667</ele><time>2026-05-02T13:38:41.718Z</time></trkpt><trkpt lat="42.9783567" lon="11.9445433"><ele>270.3333333333333</ele><time>2026-05-02T13:38:42.719Z</time></trkpt><trkpt lat="42.9782967" lon="11.94429"><ele>271.0</ele><time>2026-05-02T13:38:43.719Z</time></trkpt><trkpt lat="42.9782183" lon="11.9440467"><ele>269.66666666666663</ele><time>2026-05-02T13:38:44.719Z</time></trkpt><trkpt lat="42.9781167" lon="11.94382"><ele>268.3333333333333</ele><time>2026-05-02T13:38:45.718Z</time></trkpt><trkpt lat="42.9779933" lon="11.9436167"><ele>267.0</ele><time>2026-05-02T13:38:46.72Z</time></trkpt><trkpt lat="42.97784" lon="11.9434583"><ele>267.0</ele><time>2026-05-02T13:38:47.72Z</time></trkpt><trkpt lat="42.9776617" lon="11.9433283"><ele>267.0</ele><time>2026-05-02T13:38:48.719Z</time></trkpt><trkpt lat="42.9774683" lon="11.9432283"><ele>267.0</ele><time>2026-05-02T13:38:49.719Z</time></trkpt><trkpt lat="42.97727" lon="11.94313"><ele>267.0</ele><time>2026-05-02T13:38:50.719Z</time></trkpt><trkpt lat="42.9770717" lon="11.9430333"><ele>267.0</ele><time>2026-05-02T13:38:51.719Z</time></trkpt><trkpt lat="42.976885" lon="11.94292"><ele>267.0</ele><time>2026-05-02T13:38:52.718Z</time></trkpt><trkpt lat="42.9767167" lon="11.9427717"><ele>266.6666666666667</ele><time>2026-05-02T13:38:53.719Z</time></trkpt><trkpt lat="42.97657" lon="11.9425883"><ele>266.33333333333337</ele><time>2026-05-02T13:38:54.719Z</time></trkpt><trkpt lat="42.9764433" lon="11.9423767"><ele>266.0</ele><time>2026-05-02T13:38:55.719Z</time></trkpt><trkpt lat="42.9763417" lon="11.9421467"><ele>268.6666666666667</ele><time>2026-05-02T13:38:56.719Z</time></trkpt><trkpt lat="42.9762583" lon="11.9419167"><ele>271.3333333333333</ele><time>2026-05-02T13:38:57.719Z</time></trkpt><trkpt lat="42.9761867" lon="11.941695"><ele>274.0</ele><time>2026-05-02T13:38:58.718Z</time></trkpt><trkpt lat="42.97614" lon="11.9414817"><ele>276.75</ele><time>2026-05-02T13:38:59.719Z</time></trkpt><trkpt lat="42.9761317" lon="11.9412783"><ele>279.5</ele><time>2026-05-02T13:39:00.719Z</time></trkpt><trkpt lat="42.97619" lon="11.9411033"><ele>282.25</ele><time>2026-05-02T13:39:01.719Z</time></trkpt><trkpt lat="42.97629" lon="11.94098"><ele>285.0</ele><time>2026-05-02T13:39:02.719Z</time></trkpt><trkpt lat="42.976405" lon="11.9408883"><ele>284.75</ele><time>2026-05-02T13:39:03.719Z</time></trkpt><trkpt lat="42.9765317" lon="11.9408133"><ele>284.5</ele><time>2026-05-02T13:39:04.718Z</time></trkpt><trkpt lat="42.9766683" lon="11.9407183"><ele>284.25</ele><time>2026-05-02T13:39:05.719Z</time></trkpt><trkpt lat="42.9767833" lon="11.9405783"><ele>284.0</ele><time>2026-05-02T13:39:06.719Z</time></trkpt><trkpt lat="42.97687" lon="11.9404017"><ele>290.33333333333337</ele><time>2026-05-02T13:39:07.719Z</time></trkpt><trkpt lat="42.97692" lon="11.9401817"><ele>296.6666666666667</ele><time>2026-05-02T13:39:08.719Z</time></trkpt><trkpt lat="42.97692" lon="11.9399517"><ele>303.0</ele><time>2026-05-02T13:39:09.719Z</time></trkpt><trkpt lat="42.9768767" lon="11.939715"><ele>304.6666666666667</ele><time>2026-05-02T13:39:10.719Z</time></trkpt><trkpt lat="42.9768167" lon="11.93946"><ele>306.33333333333337</ele><time>2026-05-02T13:39:11.719Z</time></trkpt><trkpt lat="42.9767483" lon="11.9392067"><ele>308.0</ele><time>2026-05-02T13:39:12.721Z</time></trkpt><trkpt lat="42.9766533" lon="11.93898"><ele>302.33333333333337</ele><time>2026-05-02T13:39:13.719Z</time></trkpt><trkpt lat="42.9765317" lon="11.938775"><ele>296.6666666666667</ele><time>2026-05-02T13:39:14.719Z</time></trkpt><trkpt lat="42.9763983" lon="11.9385917"><ele>291.0</ele><time>2026-05-02T13:39:15.719Z</time></trkpt><trkpt lat="42.9762767" lon="11.9384133"><ele>295.3333333333333</ele><time>2026-05-02T13:39:16.719Z</time></trkpt><trkpt lat="42.9761767" lon="11.938235"><ele>299.66666666666663</ele><time>2026-05-02T13:39:17.719Z</time></trkpt><trkpt lat="42.9761017" lon="11.93805"><ele>304.0</ele><time>2026-05-02T13:39:18.719Z</time></trkpt><trkpt lat="42.9760567" lon="11.9378467"><ele>304.0</ele><time>2026-05-02T13:39:19.719Z</time></trkpt><trkpt lat="42.9760483" lon="11.9376267"><ele>304.0</ele><time>2026-05-02T13:39:20.719Z</time></trkpt><trkpt lat="42.9760717" lon="11.9374017"><ele>304.0</ele><time>2026-05-02T13:39:21.719Z</time></trkpt><trkpt lat="42.9761267" lon="11.9371867"><ele>304.3333333333333</ele><time>2026-05-02T13:39:22.719Z</time></trkpt><trkpt lat="42.9761867" lon="11.936985"><ele>304.6666666666667</ele><time>2026-05-02T13:39:23.719Z</time></trkpt><trkpt lat="42.9762317" lon="11.9367867"><ele>305.0</ele><time>2026-05-02T13:39:24.719Z</time></trkpt><trkpt lat="42.9762333" lon="11.936575"><ele>304.33333333333337</ele><time>2026-05-02T13:39:25.72Z</time></trkpt><trkpt lat="42.9761933" lon="11.93636"><ele>303.6666666666667</ele><time>2026-05-02T13:39:26.719Z</time></trkpt><trkpt lat="42.97611" lon="11.9361517"><ele>303.0</ele><time>2026-05-02T13:39:27.719Z</time></trkpt><trkpt lat="42.9759883" lon="11.93597"><ele>303.3333333333333</ele><time>2026-05-02T13:39:28.719Z</time></trkpt><trkpt lat="42.97586" lon="11.9357983"><ele>303.66666666666663</ele><time>2026-05-02T13:39:29.719Z</time></trkpt><trkpt lat="42.975745" lon="11.9356233"><ele>304.0</ele><time>2026-05-02T13:39:30.719Z</time></trkpt><trkpt lat="42.9756433" lon="11.93544"><ele>300.66666666666663</ele><time>2026-05-02T13:39:31.722Z</time></trkpt><trkpt lat="42.9755683" lon="11.9352433"><ele>297.3333333333333</ele><time>2026-05-02T13:39:32.719Z</time></trkpt><trkpt lat="42.9755217" lon="11.935025"><ele>294.0</ele><time>2026-05-02T13:39:33.721Z</time></trkpt><trkpt lat="42.9754917" lon="11.9348067"><ele>294.0</ele><time>2026-05-02T13:39:34.719Z</time></trkpt><trkpt lat="42.97548" lon="11.9346017"><ele>294.0</ele><time>2026-05-02T13:39:35.719Z</time></trkpt><trkpt lat="42.9754867" lon="11.9344117"><ele>294.0</ele><time>2026-05-02T13:39:36.719Z</time></trkpt><trkpt lat="42.97553" lon="11.9342333"><ele>294.0</ele><time>2026-05-02T13:39:37.719Z</time></trkpt><trkpt lat="42.97561" lon="11.9340933"><ele>293.0</ele><time>2026-05-02T13:39:38.722Z</time></trkpt><trkpt lat="42.97572" lon="11.9339967"><ele>292.0</ele><time>2026-05-02T13:39:39.72Z</time></trkpt><trkpt lat="42.9758283" lon="11.9339217"><ele>291.0</ele><time>2026-05-02T13:39:40.721Z</time></trkpt><trkpt lat="42.975925" lon="11.93387"><ele>290.0</ele><time>2026-05-02T13:39:41.719Z</time></trkpt><trkpt lat="42.976005" lon="11.9338233"><ele>289.0</ele><time>2026-05-02T13:39:42.72Z</time></trkpt><trkpt lat="42.9760683" lon="11.933785"><ele>289.0</ele><time>2026-05-02T13:39:43.72Z</time></trkpt><trkpt lat="42.9761167" lon="11.9337217"><ele>289.0</ele><time>2026-05-02T13:39:45.72Z</time></trkpt><trkpt lat="42.97602" lon="11.9337167"><ele>289.0</ele><time>2026-05-02T13:39:47.72Z</time></trkpt><trkpt lat="42.97593" lon="11.9337367"><ele>289.0</ele><time>2026-05-02T13:39:48.721Z</time></trkpt><trkpt lat="42.9758067" lon="11.9337917"><ele>289.0</ele><time>2026-05-02T13:39:49.721Z</time></trkpt><trkpt lat="42.9756817" lon="11.933875"><ele>288.25</ele><time>2026-05-02T13:39:50.72Z</time></trkpt><trkpt lat="42.975565" lon="11.9339383"><ele>287.5</ele><time>2026-05-02T13:39:51.72Z</time></trkpt><trkpt lat="42.97544" lon="11.9340133"><ele>286.75</ele><time>2026-05-02T13:39:52.719Z</time></trkpt><trkpt lat="42.9753217" lon="11.934095"><ele>286.0</ele><time>2026-05-02T13:39:53.719Z</time></trkpt><trkpt lat="42.9752067" lon="11.9341933"><ele>288.0</ele><time>2026-05-02T13:39:54.72Z</time></trkpt><trkpt lat="42.975105" lon="11.9343183"><ele>290.0</ele><time>2026-05-02T13:39:55.721Z</time></trkpt><trkpt lat="42.9750117" lon="11.934475"><ele>292.0</ele><time>2026-05-02T13:39:56.72Z</time></trkpt><trkpt lat="42.9749217" lon="11.93465"><ele>294.0</ele><time>2026-05-02T13:39:57.719Z</time></trkpt><trkpt lat="42.9748317" lon="11.934835"><ele>288.6666666666667</ele><time>2026-05-02T13:39:58.72Z</time></trkpt><trkpt lat="42.9747467" lon="11.9350183"><ele>283.33333333333337</ele><time>2026-05-02T13:39:59.72Z</time></trkpt><trkpt lat="42.9746633" lon="11.9351917"><ele>278.0</ele><time>2026-05-02T13:40:00.719Z</time></trkpt><trkpt lat="42.9745733" lon="11.9353467"><ele>278.0</ele><time>2026-05-02T13:40:01.722Z</time></trkpt><trkpt lat="42.974475" lon="11.935495"><ele>278.0</ele><time>2026-05-02T13:40:02.72Z</time></trkpt><trkpt lat="42.97436" lon="11.9356267"><ele>278.0</ele><time>2026-05-02T13:40:03.719Z</time></trkpt><trkpt lat="42.974235" lon="11.9357533"><ele>276.33333333333337</ele><time>2026-05-02T13:40:04.719Z</time></trkpt><trkpt lat="42.9741" lon="11.93588"><ele>274.6666666666667</ele><time>2026-05-02T13:40:05.719Z</time></trkpt><trkpt lat="42.9739633" lon="11.93601"><ele>273.0</ele><time>2026-05-02T13:40:06.719Z</time></trkpt><trkpt lat="42.9738233" lon="11.936135"><ele>279.0</ele><time>2026-05-02T13:40:07.719Z</time></trkpt><trkpt lat="42.9736883" lon="11.9362633"><ele>285.0</ele><time>2026-05-02T13:40:08.719Z</time></trkpt><trkpt lat="42.9735533" lon="11.9363933"><ele>291.0</ele><time>2026-05-02T13:40:09.722Z</time></trkpt><trkpt lat="42.9734183" lon="11.9365217"><ele>291.3333333333333</ele><time>2026-05-02T13:40:10.719Z</time></trkpt><trkpt lat="42.973285" lon="11.9366467"><ele>291.66666666666663</ele><time>2026-05-02T13:40:11.72Z</time></trkpt><trkpt lat="42.973155" lon="11.9367767"><ele>292.0</ele><time>2026-05-02T13:40:12.72Z</time></trkpt><trkpt lat="42.9730267" lon="11.93691"><ele>292.0</ele><time>2026-05-02T13:40:13.72Z</time></trkpt><trkpt lat="42.9729" lon="11.9370383"><ele>292.0</ele><time>2026-05-02T13:40:14.72Z</time></trkpt><trkpt lat="42.972775" lon="11.9371567"><ele>292.0</ele><time>2026-05-02T13:40:15.719Z</time></trkpt><trkpt lat="42.97265" lon="11.9372767"><ele>292.0</ele><time>2026-05-02T13:40:16.721Z</time></trkpt><trkpt lat="42.9725317" lon="11.937395"><ele>292.0</ele><time>2026-05-02T13:40:17.719Z</time></trkpt><trkpt lat="42.97241" lon="11.9375167"><ele>292.0</ele><time>2026-05-02T13:40:18.72Z</time></trkpt><trkpt lat="42.9722883" lon="11.9376483"><ele>288.3333333333333</ele><time>2026-05-02T13:40:19.72Z</time></trkpt><trkpt lat="42.9721667" lon="11.9377867"><ele>284.6666666666667</ele><time>2026-05-02T13:40:20.719Z</time></trkpt><trkpt lat="42.9720417" lon="11.9379267"><ele>281.0</ele><time>2026-05-02T13:40:21.72Z</time></trkpt><trkpt lat="42.9719083" lon="11.938065"><ele>281.0</ele><time>2026-05-02T13:40:22.719Z</time></trkpt><trkpt lat="42.971775" lon="11.9381983"><ele>281.0</ele><time>2026-05-02T13:40:23.721Z</time></trkpt><trkpt lat="42.9716367" lon="11.938335"><ele>281.0</ele><time>2026-05-02T13:40:24.721Z</time></trkpt><trkpt lat="42.9715" lon="11.938475"><ele>277.33333333333337</ele><time>2026-05-02T13:40:25.72Z</time></trkpt><trkpt lat="42.9713633" lon="11.9386117"><ele>273.6666666666667</ele><time>2026-05-02T13:40:26.721Z</time></trkpt><trkpt lat="42.9712333" lon="11.9387433"><ele>270.0</ele><time>2026-05-02T13:40:27.72Z</time></trkpt><trkpt lat="42.9711117" lon="11.9388767"><ele>270.0</ele><time>2026-05-02T13:40:28.72Z</time></trkpt><trkpt lat="42.971" lon="11.939015"><ele>270.0</ele><time>2026-05-02T13:40:29.72Z</time></trkpt><trkpt lat="42.9709" lon="11.9391633"><ele>270.0</ele><time>2026-05-02T13:40:30.72Z</time></trkpt><trkpt lat="42.9708133" lon="11.9393217"><ele>270.0</ele><time>2026-05-02T13:40:31.722Z</time></trkpt><trkpt lat="42.9707267" lon="11.93948"><ele>268.0</ele><time>2026-05-02T13:40:32.719Z</time></trkpt><trkpt lat="42.9706367" lon="11.9396417"><ele>266.0</ele><time>2026-05-02T13:40:33.719Z</time></trkpt><trkpt lat="42.970545" lon="11.9398017"><ele>264.0</ele><time>2026-05-02T13:40:34.719Z</time></trkpt><trkpt lat="42.9704517" lon="11.9399567"><ele>262.0</ele><time>2026-05-02T13:40:35.72Z</time></trkpt><trkpt lat="42.9703583" lon="11.94011"><ele>260.5</ele><time>2026-05-02T13:40:36.72Z</time></trkpt><trkpt lat="42.9702667" lon="11.9402567"><ele>259.0</ele><time>2026-05-02T13:40:37.72Z</time></trkpt><trkpt lat="42.9701783" lon="11.9403933"><ele>257.5</ele><time>2026-05-02T13:40:38.72Z</time></trkpt><trkpt lat="42.97009" lon="11.94052"><ele>256.0</ele><time>2026-05-02T13:40:39.721Z</time></trkpt><trkpt lat="42.9700067" lon="11.9406283"><ele>255.83333333333331</ele><time>2026-05-02T13:40:40.721Z</time></trkpt><trkpt lat="42.96993" lon="11.94071"><ele>255.66666666666666</ele><time>2026-05-02T13:40:41.72Z</time></trkpt><trkpt lat="42.969855" lon="11.94077"><ele>255.5</ele><time>2026-05-02T13:40:42.719Z</time></trkpt><trkpt lat="42.9697783" lon="11.940805"><ele>255.33333333333331</ele><time>2026-05-02T13:40:43.719Z</time></trkpt><trkpt lat="42.9697017" lon="11.9408"><ele>255.16666666666666</ele><time>2026-05-02T13:40:44.72Z</time></trkpt><trkpt lat="42.9696283" lon="11.940765"><ele>255.0</ele><time>2026-05-02T13:40:45.721Z</time></trkpt><trkpt lat="42.9695567" lon="11.94069"><ele>255.0</ele><time>2026-05-02T13:40:46.719Z</time></trkpt><trkpt lat="42.9694767" lon="11.9405883"><ele>255.0</ele><time>2026-05-02T13:40:47.719Z</time></trkpt><trkpt lat="42.9693917" lon="11.940495"><ele>255.0</ele><time>2026-05-02T13:40:48.718Z</time></trkpt><trkpt lat="42.9692967" lon="11.94041"><ele>255.0</ele><time>2026-05-02T13:40:49.718Z</time></trkpt><trkpt lat="42.9691983" lon="11.9403233"><ele>255.0</ele><time>2026-05-02T13:40:50.718Z</time></trkpt><trkpt lat="42.9690917" lon="11.9402383"><ele>255.5</ele><time>2026-05-02T13:40:51.718Z</time></trkpt><trkpt lat="42.968985" lon="11.940155"><ele>256.0</ele><time>2026-05-02T13:40:52.718Z</time></trkpt><trkpt lat="42.96888" lon="11.940075"><ele>256.5</ele><time>2026-05-02T13:40:53.718Z</time></trkpt><trkpt lat="42.9687733" lon="11.9400167"><ele>257.0</ele><time>2026-05-02T13:40:54.718Z</time></trkpt><trkpt lat="42.9686633" lon="11.9399833"><ele>257.0</ele><time>2026-05-02T13:40:55.718Z</time></trkpt><trkpt lat="42.968545" lon="11.939975"><ele>257.0</ele><time>2026-05-02T13:40:56.718Z</time></trkpt><trkpt lat="42.96842" lon="11.939995"><ele>257.0</ele><time>2026-05-02T13:40:57.718Z</time></trkpt><trkpt lat="42.9682883" lon="11.940035"><ele>257.0</ele><time>2026-05-02T13:40:58.718Z</time></trkpt><trkpt lat="42.9681467" lon="11.9400817"><ele>258.25</ele><time>2026-05-02T13:40:59.718Z</time></trkpt><trkpt lat="42.9680017" lon="11.9401183"><ele>259.5</ele><time>2026-05-02T13:41:00.718Z</time></trkpt><trkpt lat="42.967855" lon="11.9401517"><ele>260.75</ele><time>2026-05-02T13:41:01.721Z</time></trkpt><trkpt lat="42.967705" lon="11.9401767"><ele>262.0</ele><time>2026-05-02T13:41:02.718Z</time></trkpt><trkpt lat="42.9675533" lon="11.9401817"><ele>261.3333333333333</ele><time>2026-05-02T13:41:03.719Z</time></trkpt><trkpt lat="42.9674017" lon="11.9401783"><ele>260.6666666666667</ele><time>2026-05-02T13:41:04.72Z</time></trkpt><trkpt lat="42.9672483" lon="11.9401717"><ele>260.0</ele><time>2026-05-02T13:41:05.719Z</time></trkpt><trkpt lat="42.9671" lon="11.9401617"><ele>260.0</ele><time>2026-05-02T13:41:06.719Z</time></trkpt><trkpt lat="42.9669533" lon="11.940155"><ele>260.0</ele><time>2026-05-02T13:41:07.719Z</time></trkpt><trkpt lat="42.9668033" lon="11.9401517"><ele>260.0</ele><time>2026-05-02T13:41:08.719Z</time></trkpt><trkpt lat="42.966655" lon="11.9401717"><ele>260.0</ele><time>2026-05-02T13:41:09.718Z</time></trkpt><trkpt lat="42.96651" lon="11.9402067"><ele>259.0</ele><time>2026-05-02T13:41:10.718Z</time></trkpt><trkpt lat="42.966365" lon="11.9402683"><ele>258.0</ele><time>2026-05-02T13:41:11.718Z</time></trkpt><trkpt lat="42.9662183" lon="11.9403517"><ele>257.0</ele><time>2026-05-02T13:41:12.718Z</time></trkpt><trkpt lat="42.9660683" lon="11.9404417"><ele>257.0</ele><time>2026-05-02T13:41:13.718Z</time></trkpt><trkpt lat="42.9659133" lon="11.9405317"><ele>257.0</ele><time>2026-05-02T13:41:14.718Z</time></trkpt><trkpt lat="42.965755" lon="11.94062"><ele>257.0</ele><time>2026-05-02T13:41:15.718Z</time></trkpt><trkpt lat="42.9655983" lon="11.9407183"><ele>256.6666666666667</ele><time>2026-05-02T13:41:16.72Z</time></trkpt><trkpt lat="42.9654383" lon="11.9408183"><ele>256.3333333333333</ele><time>2026-05-02T13:41:17.718Z</time></trkpt><trkpt lat="42.96528" lon="11.940915"><ele>256.0</ele><time>2026-05-02T13:41:18.718Z</time></trkpt><trkpt lat="42.965125" lon="11.9410167"><ele>256.66666666666663</ele><time>2026-05-02T13:41:19.718Z</time></trkpt><trkpt lat="42.96497" lon="11.9411183"><ele>257.3333333333333</ele><time>2026-05-02T13:41:20.718Z</time></trkpt><trkpt lat="42.9648117" lon="11.941225"><ele>258.0</ele><time>2026-05-02T13:41:21.718Z</time></trkpt><trkpt lat="42.9646583" lon="11.94134"><ele>258.0</ele><time>2026-05-02T13:41:22.718Z</time></trkpt><trkpt lat="42.964505" lon="11.9414683"><ele>258.0</ele><time>2026-05-02T13:41:23.719Z</time></trkpt><trkpt lat="42.96435" lon="11.941595"><ele>258.0</ele><time>2026-05-02T13:41:24.719Z</time></trkpt><trkpt lat="42.96419" lon="11.9417233"><ele>261.0</ele><time>2026-05-02T13:41:25.72Z</time></trkpt><trkpt lat="42.9640317" lon="11.94185"><ele>264.0</ele><time>2026-05-02T13:41:26.719Z</time></trkpt><trkpt lat="42.963875" lon="11.9419767"><ele>267.0</ele><time>2026-05-02T13:41:27.719Z</time></trkpt><trkpt lat="42.9637267" lon="11.9420983"><ele>267.0</ele><time>2026-05-02T13:41:28.718Z</time></trkpt><trkpt lat="42.9635867" lon="11.9422067"><ele>267.0</ele><time>2026-05-02T13:41:29.718Z</time></trkpt><trkpt lat="42.96345" lon="11.9423033"><ele>267.0</ele><time>2026-05-02T13:41:30.718Z</time></trkpt><trkpt lat="42.9633083" lon="11.9423917"><ele>265.3333333333333</ele><time>2026-05-02T13:41:31.719Z</time></trkpt><trkpt lat="42.96316" lon="11.9424733"><ele>263.66666666666663</ele><time>2026-05-02T13:41:32.718Z</time></trkpt><trkpt lat="42.9630117" lon="11.94256"><ele>262.0</ele><time>2026-05-02T13:41:33.718Z</time></trkpt><trkpt lat="42.9628617" lon="11.9426533"><ele>262.66666666666663</ele><time>2026-05-02T13:41:34.719Z</time></trkpt><trkpt lat="42.9627083" lon="11.9427483"><ele>263.3333333333333</ele><time>2026-05-02T13:41:35.718Z</time></trkpt><trkpt lat="42.9625517" lon="11.942845"><ele>264.0</ele><time>2026-05-02T13:41:36.718Z</time></trkpt><trkpt lat="42.962395" lon="11.9429533"><ele>264.0</ele><time>2026-05-02T13:41:37.718Z</time></trkpt><trkpt lat="42.9622383" lon="11.9430667"><ele>264.0</ele><time>2026-05-02T13:41:38.718Z</time></trkpt><trkpt lat="42.9620817" lon="11.9431783"><ele>264.0</ele><time>2026-05-02T13:41:39.719Z</time></trkpt><trkpt lat="42.9619217" lon="11.943285"><ele>263.3333333333333</ele><time>2026-05-02T13:41:40.718Z</time></trkpt><trkpt lat="42.961765" lon="11.94339"><ele>262.66666666666663</ele><time>2026-05-02T13:41:41.718Z</time></trkpt><trkpt lat="42.9616117" lon="11.9434867"><ele>262.0</ele><time>2026-05-02T13:41:42.718Z</time></trkpt><trkpt lat="42.96147" lon="11.9435767"><ele>262.0</ele><time>2026-05-02T13:41:43.718Z</time></trkpt><trkpt lat="42.9613317" lon="11.9436567"><ele>262.0</ele><time>2026-05-02T13:41:44.718Z</time></trkpt><trkpt lat="42.9611967" lon="11.9437183"><ele>262.0</ele><time>2026-05-02T13:41:45.718Z</time></trkpt><trkpt lat="42.9610567" lon="11.943755"><ele>262.0</ele><time>2026-05-02T13:41:46.718Z</time></trkpt><trkpt lat="42.96091" lon="11.943765"><ele>263.0</ele><time>2026-05-02T13:41:47.72Z</time></trkpt><trkpt lat="42.9607567" lon="11.94376"><ele>264.0</ele><time>2026-05-02T13:41:48.718Z</time></trkpt><trkpt lat="42.9606" lon="11.9437567"><ele>265.0</ele><time>2026-05-02T13:41:49.718Z</time></trkpt><trkpt lat="42.9604383" lon="11.94376"><ele>265.0</ele><time>2026-05-02T13:41:50.718Z</time></trkpt><trkpt lat="42.9602767" lon="11.9437617"><ele>265.0</ele><time>2026-05-02T13:41:51.718Z</time></trkpt><trkpt lat="42.9601217" lon="11.943765"><ele>265.0</ele><time>2026-05-02T13:41:52.718Z</time></trkpt><trkpt lat="42.9599783" lon="11.9437617"><ele>264.75</ele><time>2026-05-02T13:41:53.719Z</time></trkpt><trkpt lat="42.9598533" lon="11.9437517"><ele>264.5</ele><time>2026-05-02T13:41:54.718Z</time></trkpt><trkpt lat="42.959735" lon="11.9437217"><ele>264.25</ele><time>2026-05-02T13:41:55.718Z</time></trkpt><trkpt lat="42.9596217" lon="11.9436633"><ele>264.0</ele><time>2026-05-02T13:41:56.718Z</time></trkpt><trkpt lat="42.9595133" lon="11.94357"><ele>264.0</ele><time>2026-05-02T13:41:57.722Z</time></trkpt><trkpt lat="42.95941" lon="11.9434567"><ele>264.0</ele><time>2026-05-02T13:41:58.718Z</time></trkpt><trkpt lat="42.95931" lon="11.94335"><ele>264.0</ele><time>2026-05-02T13:41:59.718Z</time></trkpt><trkpt lat="42.95921" lon="11.9432617"><ele>264.0</ele><time>2026-05-02T13:42:00.718Z</time></trkpt><trkpt lat="42.9591067" lon="11.94321"><ele>262.2</ele><time>2026-05-02T13:42:01.718Z</time></trkpt><trkpt lat="42.959" lon="11.943195"><ele>260.4</ele><time>2026-05-02T13:42:02.72Z</time></trkpt><trkpt lat="42.9588917" lon="11.9432183"><ele>258.6</ele><time>2026-05-02T13:42:03.719Z</time></trkpt><trkpt lat="42.95878" lon="11.9432617"><ele>256.8</ele><time>2026-05-02T13:42:04.72Z</time></trkpt><trkpt lat="42.958675" lon="11.9433067"><ele>255.0</ele><time>2026-05-02T13:42:05.719Z</time></trkpt><trkpt lat="42.95858" lon="11.943345"><ele>255.0</ele><time>2026-05-02T13:42:06.719Z</time></trkpt><trkpt lat="42.9585" lon="11.9433683"><ele>255.0</ele><time>2026-05-02T13:42:07.719Z</time></trkpt><trkpt lat="42.958395" lon="11.9433367"><ele>255.0</ele><time>2026-05-02T13:42:09.718Z</time></trkpt><trkpt lat="42.9583317" lon="11.9432067"><ele>255.0</ele><time>2026-05-02T13:42:11.718Z</time></trkpt><trkpt lat="42.9582717" lon="11.9430233"><ele>254.75</ele><time>2026-05-02T13:42:13.718Z</time></trkpt><trkpt lat="42.9582333" lon="11.9428583"><ele>254.5</ele><time>2026-05-02T13:42:14.719Z</time></trkpt><trkpt lat="42.9581783" lon="11.9426633"><ele>254.25</ele><time>2026-05-02T13:42:15.718Z</time></trkpt><trkpt lat="42.95811" lon="11.9424683"><ele>254.0</ele><time>2026-05-02T13:42:16.718Z</time></trkpt><trkpt lat="42.9580283" lon="11.9422867"><ele>254.0</ele><time>2026-05-02T13:42:17.718Z</time></trkpt><trkpt lat="42.9579383" lon="11.9421117"><ele>254.0</ele><time>2026-05-02T13:42:18.718Z</time></trkpt><trkpt lat="42.95786" lon="11.9419217"><ele>254.0</ele><time>2026-05-02T13:42:19.721Z</time></trkpt><trkpt lat="42.957785" lon="11.9417133"><ele>253.33333333333334</ele><time>2026-05-02T13:42:20.719Z</time></trkpt><trkpt lat="42.9577183" lon="11.9414967"><ele>252.66666666666669</ele><time>2026-05-02T13:42:21.719Z</time></trkpt><trkpt lat="42.9576633" lon="11.94127"><ele>252.0</ele><time>2026-05-02T13:42:22.718Z</time></trkpt><trkpt lat="42.95762" lon="11.94103"><ele>252.0</ele><time>2026-05-02T13:42:23.72Z</time></trkpt><trkpt lat="42.9575833" lon="11.9407867"><ele>252.0</ele><time>2026-05-02T13:42:24.719Z</time></trkpt><trkpt lat="42.957555" lon="11.9405433"><ele>252.0</ele><time>2026-05-02T13:42:25.718Z</time></trkpt><trkpt lat="42.957545" lon="11.940295"><ele>252.0</ele><time>2026-05-02T13:42:26.721Z</time></trkpt><trkpt lat="42.9575667" lon="11.9400417"><ele>252.0</ele><time>2026-05-02T13:42:27.721Z</time></trkpt><trkpt lat="42.9576017" lon="11.9397867"><ele>252.0</ele><time>2026-05-02T13:42:28.721Z</time></trkpt><trkpt lat="42.957645" lon="11.9395317"><ele>252.0</ele><time>2026-05-02T13:42:29.721Z</time></trkpt><trkpt lat="42.9576933" lon="11.9392767"><ele>252.0</ele><time>2026-05-02T13:42:30.721Z</time></trkpt><trkpt lat="42.957745" lon="11.9390233"><ele>252.0</ele><time>2026-05-02T13:42:31.722Z</time></trkpt><trkpt lat="42.9577983" lon="11.9387717"><ele>252.33333333333331</ele><time>2026-05-02T13:42:32.719Z</time></trkpt><trkpt lat="42.95785" lon="11.9385167"><ele>252.66666666666666</ele><time>2026-05-02T13:42:33.723Z</time></trkpt><trkpt lat="42.9579033" lon="11.9382567"><ele>253.0</ele><time>2026-05-02T13:42:34.72Z</time></trkpt><trkpt lat="42.9579583" lon="11.937995"><ele>253.0</ele><time>2026-05-02T13:42:35.718Z</time></trkpt><trkpt lat="42.958015" lon="11.93773"><ele>253.0</ele><time>2026-05-02T13:42:36.719Z</time></trkpt><trkpt lat="42.9580733" lon="11.9374617"><ele>253.0</ele><time>2026-05-02T13:42:37.721Z</time></trkpt><trkpt lat="42.9581267" lon="11.9371933"><ele>252.66666666666666</ele><time>2026-05-02T13:42:38.723Z</time></trkpt><trkpt lat="42.9581717" lon="11.93693"><ele>252.33333333333331</ele><time>2026-05-02T13:42:39.719Z</time></trkpt><trkpt lat="42.9581983" lon="11.936675"><ele>252.0</ele><time>2026-05-02T13:42:40.718Z</time></trkpt><trkpt lat="42.9582067" lon="11.9364267"><ele>252.0</ele><time>2026-05-02T13:42:41.722Z</time></trkpt><trkpt lat="42.9582" lon="11.9361883"><ele>252.0</ele><time>2026-05-02T13:42:42.722Z</time></trkpt><trkpt lat="42.9581883" lon="11.9359583"><ele>252.0</ele><time>2026-05-02T13:42:43.721Z</time></trkpt><trkpt lat="42.9581817" lon="11.9357333"><ele>252.33333333333331</ele><time>2026-05-02T13:42:44.721Z</time></trkpt><trkpt lat="42.958185" lon="11.9355133"><ele>252.66666666666666</ele><time>2026-05-02T13:42:45.721Z</time></trkpt><trkpt lat="42.958205" lon="11.9352933"><ele>253.0</ele><time>2026-05-02T13:42:46.719Z</time></trkpt><trkpt lat="42.958245" lon="11.9350717"><ele>253.0</ele><time>2026-05-02T13:42:47.721Z</time></trkpt><trkpt lat="42.9582917" lon="11.9348433"><ele>253.0</ele><time>2026-05-02T13:42:48.721Z</time></trkpt><trkpt lat="42.9583333" lon="11.9346067"><ele>253.0</ele><time>2026-05-02T13:42:49.721Z</time></trkpt><trkpt lat="42.9583683" lon="11.9343633"><ele>252.66666666666666</ele><time>2026-05-02T13:42:50.72Z</time></trkpt><trkpt lat="42.9584083" lon="11.934115"><ele>252.33333333333331</ele><time>2026-05-02T13:42:51.718Z</time></trkpt><trkpt lat="42.9584617" lon="11.9338683"><ele>252.0</ele><time>2026-05-02T13:42:52.719Z</time></trkpt><trkpt lat="42.958535" lon="11.933625"><ele>252.0</ele><time>2026-05-02T13:42:53.718Z</time></trkpt><trkpt lat="42.9586217" lon="11.9333917"><ele>252.0</ele><time>2026-05-02T13:42:54.719Z</time></trkpt><trkpt lat="42.9587167" lon="11.9331583"><ele>252.0</ele><time>2026-05-02T13:42:55.718Z</time></trkpt><trkpt lat="42.9588083" lon="11.932925"><ele>252.0</ele><time>2026-05-02T13:42:56.719Z</time></trkpt><trkpt lat="42.9589017" lon="11.9326883"><ele>252.0</ele><time>2026-05-02T13:42:57.718Z</time></trkpt><trkpt lat="42.958995" lon="11.9324483"><ele>252.0</ele><time>2026-05-02T13:42:58.718Z</time></trkpt><trkpt lat="42.959085" lon="11.9322067"><ele>252.33333333333331</ele><time>2026-05-02T13:42:59.718Z</time></trkpt><trkpt lat="42.9591733" lon="11.9319717"><ele>252.66666666666666</ele><time>2026-05-02T13:43:00.72Z</time></trkpt><trkpt lat="42.9592583" lon="11.9317533"><ele>253.0</ele><time>2026-05-02T13:43:01.721Z</time></trkpt><trkpt lat="42.959335" lon="11.9315433"><ele>253.33333333333331</ele><time>2026-05-02T13:43:02.719Z</time></trkpt><trkpt lat="42.9593983" lon="11.931335"><ele>253.66666666666669</ele><time>2026-05-02T13:43:03.72Z</time></trkpt><trkpt lat="42.9594367" lon="11.9311233"><ele>254.0</ele><time>2026-05-02T13:43:04.719Z</time></trkpt><trkpt lat="42.9594467" lon="11.9309"><ele>253.66666666666669</ele><time>2026-05-02T13:43:05.718Z</time></trkpt><trkpt lat="42.9594233" lon="11.9306717"><ele>253.33333333333331</ele><time>2026-05-02T13:43:06.718Z</time></trkpt><trkpt lat="42.959385" lon="11.9304367"><ele>253.0</ele><time>2026-05-02T13:43:07.718Z</time></trkpt><trkpt lat="42.9593467" lon="11.9301883"><ele>253.0</ele><time>2026-05-02T13:43:08.719Z</time></trkpt><trkpt lat="42.9593133" lon="11.929935"><ele>253.0</ele><time>2026-05-02T13:43:09.719Z</time></trkpt><trkpt lat="42.9592867" lon="11.9296733"><ele>253.0</ele><time>2026-05-02T13:43:10.719Z</time></trkpt><trkpt lat="42.95927" lon="11.9294017"><ele>254.0</ele><time>2026-05-02T13:43:11.718Z</time></trkpt><trkpt lat="42.959265" lon="11.9291267"><ele>255.0</ele><time>2026-05-02T13:43:12.719Z</time></trkpt><trkpt lat="42.9592667" lon="11.9288467"><ele>256.0</ele><time>2026-05-02T13:43:13.718Z</time></trkpt><trkpt lat="42.9592683" lon="11.9285633"><ele>257.3333333333333</ele><time>2026-05-02T13:43:14.719Z</time></trkpt><trkpt lat="42.959275" lon="11.9282833"><ele>258.6666666666667</ele><time>2026-05-02T13:43:15.718Z</time></trkpt><trkpt lat="42.95928" lon="11.9280133"><ele>260.0</ele><time>2026-05-02T13:43:16.719Z</time></trkpt><trkpt lat="42.959285" lon="11.927755"><ele>260.6666666666667</ele><time>2026-05-02T13:43:17.719Z</time></trkpt><trkpt lat="42.95928" lon="11.9275"><ele>261.3333333333333</ele><time>2026-05-02T13:43:18.719Z</time></trkpt><trkpt lat="42.959265" lon="11.927245"><ele>262.0</ele><time>2026-05-02T13:43:19.721Z</time></trkpt><trkpt lat="42.95924" lon="11.92699"><ele>262.0</ele><time>2026-05-02T13:43:20.719Z</time></trkpt><trkpt lat="42.9592033" lon="11.92675"><ele>262.0</ele><time>2026-05-02T13:43:21.718Z</time></trkpt><trkpt lat="42.9591667" lon="11.9265267"><ele>262.0</ele><time>2026-05-02T13:43:22.719Z</time></trkpt><trkpt lat="42.95913" lon="11.92634"><ele>261.6</ele><time>2026-05-02T13:43:23.722Z</time></trkpt><trkpt lat="42.9590883" lon="11.926185"><ele>261.2</ele><time>2026-05-02T13:43:24.718Z</time></trkpt><trkpt lat="42.9590267" lon="11.926065"><ele>260.8</ele><time>2026-05-02T13:43:25.719Z</time></trkpt><trkpt lat="42.95895" lon="11.9259867"><ele>260.4</ele><time>2026-05-02T13:43:26.719Z</time></trkpt><trkpt lat="42.95886" lon="11.9259533"><ele>260.0</ele><time>2026-05-02T13:43:27.718Z</time></trkpt><trkpt lat="42.9587633" lon="11.9259183"><ele>260.0</ele><time>2026-05-02T13:43:28.718Z</time></trkpt><trkpt lat="42.9586783" lon="11.9258417"><ele>260.0</ele><time>2026-05-02T13:43:29.718Z</time></trkpt><trkpt lat="42.9586033" lon="11.9257283"><ele>260.0</ele><time>2026-05-02T13:43:30.719Z</time></trkpt><trkpt lat="42.9585467" lon="11.92556"><ele>260.0</ele><time>2026-05-02T13:43:31.719Z</time></trkpt><trkpt lat="42.958485" lon="11.9253783"><ele>260.0</ele><time>2026-05-02T13:43:32.718Z</time></trkpt><trkpt lat="42.9584167" lon="11.925185"><ele>260.0</ele><time>2026-05-02T13:43:33.719Z</time></trkpt><trkpt lat="42.958345" lon="11.924985"><ele>260.0</ele><time>2026-05-02T13:43:34.718Z</time></trkpt><trkpt lat="42.9582683" lon="11.924775"><ele>260.33333333333337</ele><time>2026-05-02T13:43:35.718Z</time></trkpt><trkpt lat="42.95819" lon="11.924555"><ele>260.6666666666667</ele><time>2026-05-02T13:43:36.718Z</time></trkpt><trkpt lat="42.9581167" lon="11.92433"><ele>261.0</ele><time>2026-05-02T13:43:37.718Z</time></trkpt><trkpt lat="42.9580517" lon="11.9240967"><ele>261.3333333333333</ele><time>2026-05-02T13:43:38.719Z</time></trkpt><trkpt lat="42.9580033" lon="11.9238567"><ele>261.66666666666663</ele><time>2026-05-02T13:43:39.719Z</time></trkpt><trkpt lat="42.957965" lon="11.9236083"><ele>262.0</ele><time>2026-05-02T13:43:40.718Z</time></trkpt><trkpt lat="42.957925" lon="11.9233567"><ele>262.0</ele><time>2026-05-02T13:43:41.718Z</time></trkpt><trkpt lat="42.9578783" lon="11.9231"><ele>262.0</ele><time>2026-05-02T13:43:42.719Z</time></trkpt><trkpt lat="42.9578233" lon="11.9228517"><ele>262.0</ele><time>2026-05-02T13:43:43.718Z</time></trkpt><trkpt lat="42.95776" lon="11.92261"><ele>263.0</ele><time>2026-05-02T13:43:44.72Z</time></trkpt><trkpt lat="42.9576967" lon="11.9223767"><ele>264.0</ele><time>2026-05-02T13:43:45.719Z</time></trkpt><trkpt lat="42.9576417" lon="11.922145"><ele>265.0</ele><time>2026-05-02T13:43:46.719Z</time></trkpt><trkpt lat="42.9575983" lon="11.9219067"><ele>265.3333333333333</ele><time>2026-05-02T13:43:47.719Z</time></trkpt><trkpt lat="42.957565" lon="11.9216633"><ele>265.6666666666667</ele><time>2026-05-02T13:43:48.719Z</time></trkpt><trkpt lat="42.9575383" lon="11.92142"><ele>266.0</ele><time>2026-05-02T13:43:49.718Z</time></trkpt><trkpt lat="42.957525" lon="11.9211817"><ele>265.33333333333337</ele><time>2026-05-02T13:43:50.719Z</time></trkpt><trkpt lat="42.9575283" lon="11.9209517"><ele>264.6666666666667</ele><time>2026-05-02T13:43:51.718Z</time></trkpt><trkpt lat="42.9575567" lon="11.9207283"><ele>264.0</ele><time>2026-05-02T13:43:52.718Z</time></trkpt><trkpt lat="42.9576017" lon="11.9205133"><ele>264.0</ele><time>2026-05-02T13:43:53.718Z</time></trkpt><trkpt lat="42.9576567" lon="11.9203017"><ele>264.0</ele><time>2026-05-02T13:43:54.719Z</time></trkpt><trkpt lat="42.95772" lon="11.92009"><ele>264.0</ele><time>2026-05-02T13:43:55.718Z</time></trkpt><trkpt lat="42.9577933" lon="11.9198733"><ele>264.0</ele><time>2026-05-02T13:43:56.719Z</time></trkpt><trkpt lat="42.9578617" lon="11.9196533"><ele>264.0</ele><time>2026-05-02T13:43:57.718Z</time></trkpt><trkpt lat="42.9579217" lon="11.91942"><ele>264.0</ele><time>2026-05-02T13:43:58.718Z</time></trkpt><trkpt lat="42.957965" lon="11.9191767"><ele>264.3333333333333</ele><time>2026-05-02T13:43:59.719Z</time></trkpt><trkpt lat="42.9579967" lon="11.9189267"><ele>264.66666666666663</ele><time>2026-05-02T13:44:00.719Z</time></trkpt><trkpt lat="42.9580067" lon="11.91867"><ele>265.0</ele><time>2026-05-02T13:44:01.719Z</time></trkpt><trkpt lat="42.9579917" lon="11.9184117"><ele>265.3333333333333</ele><time>2026-05-02T13:44:02.72Z</time></trkpt><trkpt lat="42.9579583" lon="11.91815"><ele>265.6666666666667</ele><time>2026-05-02T13:44:03.718Z</time></trkpt><trkpt lat="42.9579183" lon="11.917885"><ele>266.0</ele><time>2026-05-02T13:44:04.718Z</time></trkpt><trkpt lat="42.957875" lon="11.9176167"><ele>266.0</ele><time>2026-05-02T13:44:05.718Z</time></trkpt><trkpt lat="42.9578333" lon="11.9173417"><ele>266.0</ele><time>2026-05-02T13:44:06.719Z</time></trkpt><trkpt lat="42.9577917" lon="11.9170667"><ele>266.0</ele><time>2026-05-02T13:44:07.719Z</time></trkpt><trkpt lat="42.9577483" lon="11.9167917"><ele>266.0</ele><time>2026-05-02T13:44:08.719Z</time></trkpt><trkpt lat="42.957725" lon="11.91652"><ele>266.0</ele><time>2026-05-02T13:44:09.719Z</time></trkpt><trkpt lat="42.9577267" lon="11.9162483"><ele>266.0</ele><time>2026-05-02T13:44:10.721Z</time></trkpt><trkpt lat="42.9577433" lon="11.91598"><ele>266.6666666666667</ele><time>2026-05-02T13:44:11.719Z</time></trkpt><trkpt lat="42.9577667" lon="11.9157117"><ele>267.3333333333333</ele><time>2026-05-02T13:44:12.718Z</time></trkpt><trkpt lat="42.957785" lon="11.91544"><ele>268.0</ele><time>2026-05-02T13:44:13.718Z</time></trkpt><trkpt lat="42.9577883" lon="11.91517"><ele>268.0</ele><time>2026-05-02T13:44:14.719Z</time></trkpt><trkpt lat="42.9577817" lon="11.9149"><ele>268.0</ele><time>2026-05-02T13:44:15.719Z</time></trkpt><trkpt lat="42.9577633" lon="11.91463"><ele>268.0</ele><time>2026-05-02T13:44:16.719Z</time></trkpt><trkpt lat="42.95774" lon="11.91436"><ele>268.3333333333333</ele><time>2026-05-02T13:44:17.719Z</time></trkpt><trkpt lat="42.9577183" lon="11.9140883"><ele>268.6666666666667</ele><time>2026-05-02T13:44:18.719Z</time></trkpt><trkpt lat="42.957715" lon="11.9138183"><ele>269.0</ele><time>2026-05-02T13:44:19.718Z</time></trkpt><trkpt lat="42.9577317" lon="11.9135567"><ele>269.33333333333337</ele><time>2026-05-02T13:44:20.719Z</time></trkpt><trkpt lat="42.9577683" lon="11.9133033"><ele>269.6666666666667</ele><time>2026-05-02T13:44:21.718Z</time></trkpt><trkpt lat="42.9578083" lon="11.9130533"><ele>270.0</ele><time>2026-05-02T13:44:22.718Z</time></trkpt><trkpt lat="42.9578467" lon="11.9128017"><ele>270.3333333333333</ele><time>2026-05-02T13:44:23.719Z</time></trkpt><trkpt lat="42.9578817" lon="11.9125517"><ele>270.66666666666663</ele><time>2026-05-02T13:44:24.719Z</time></trkpt><trkpt lat="42.9579117" lon="11.9123117"><ele>271.0</ele><time>2026-05-02T13:44:25.719Z</time></trkpt><trkpt lat="42.9579417" lon="11.9120817"><ele>271.0</ele><time>2026-05-02T13:44:26.719Z</time></trkpt><trkpt lat="42.9579667" lon="11.9118633"><ele>271.0</ele><time>2026-05-02T13:44:27.722Z</time></trkpt><trkpt lat="42.957985" lon="11.9116583"><ele>271.0</ele><time>2026-05-02T13:44:28.722Z</time></trkpt><trkpt lat="42.957995" lon="11.9114733"><ele>271.0</ele><time>2026-05-02T13:44:29.722Z</time></trkpt><trkpt lat="42.9580033" lon="11.9113067"><ele>271.2</ele><time>2026-05-02T13:44:30.721Z</time></trkpt><trkpt lat="42.9580083" lon="11.9111567"><ele>271.40000000000003</ele><time>2026-05-02T13:44:31.722Z</time></trkpt><trkpt lat="42.9580183" lon="11.91103"><ele>271.6</ele><time>2026-05-02T13:44:32.719Z</time></trkpt><trkpt lat="42.95802" lon="11.9109317"><ele>271.8</ele><time>2026-05-02T13:44:33.719Z</time></trkpt><trkpt lat="42.9580383" lon="11.9108033"><ele>272.0</ele><time>2026-05-02T13:44:35.719Z</time></trkpt><trkpt lat="42.9580833" lon="11.9106917"><ele>272.0</ele><time>2026-05-02T13:44:37.719Z</time></trkpt><trkpt lat="42.9581383" lon="11.9106283"><ele>272.0</ele><time>2026-05-02T13:44:38.719Z</time></trkpt><trkpt lat="42.9582" lon="11.91055"><ele>272.0</ele><time>2026-05-02T13:44:39.718Z</time></trkpt><trkpt lat="42.9582717" lon="11.9104467"><ele>272.0</ele><time>2026-05-02T13:44:40.719Z</time></trkpt><trkpt lat="42.9583583" lon="11.9103267"><ele>272.0</ele><time>2026-05-02T13:44:41.719Z</time></trkpt><trkpt lat="42.9584467" lon="11.910205"><ele>273.5</ele><time>2026-05-02T13:44:42.719Z</time></trkpt><trkpt lat="42.9585467" lon="11.91007"><ele>275.0</ele><time>2026-05-02T13:44:43.718Z</time></trkpt><trkpt lat="42.958645" lon="11.909935"><ele>276.5</ele><time>2026-05-02T13:44:44.719Z</time></trkpt><trkpt lat="42.9587433" lon="11.909795"><ele>278.0</ele><time>2026-05-02T13:44:45.719Z</time></trkpt><trkpt lat="42.958835" lon="11.909665"><ele>278.0</ele><time>2026-05-02T13:44:46.719Z</time></trkpt><trkpt lat="42.9589233" lon="11.909545"><ele>278.0</ele><time>2026-05-02T13:44:47.718Z</time></trkpt><trkpt lat="42.959" lon="11.9094383"><ele>278.0</ele><time>2026-05-02T13:44:48.719Z</time></trkpt><trkpt lat="42.95906" lon="11.90935"><ele>278.0</ele><time>2026-05-02T13:44:49.719Z</time></trkpt><trkpt lat="42.9591083" lon="11.9092683"><ele>278.0</ele><time>2026-05-02T13:44:50.719Z</time></trkpt><trkpt lat="42.9591417" lon="11.9091883"><ele>277.4</ele><time>2026-05-02T13:44:51.719Z</time></trkpt><trkpt lat="42.9591217" lon="11.90903"><ele>276.8</ele><time>2026-05-02T13:44:53.719Z</time></trkpt><trkpt lat="42.9590567" lon="11.908965"><ele>276.2</ele><time>2026-05-02T13:44:54.718Z</time></trkpt><trkpt lat="42.95899" lon="11.90889"><ele>275.6</ele><time>2026-05-02T13:44:55.719Z</time></trkpt><trkpt lat="42.9588817" lon="11.90883"><ele>275.0</ele><time>2026-05-02T13:44:56.719Z</time></trkpt><trkpt lat="42.958745" lon="11.90876"><ele>275.0</ele><time>2026-05-02T13:44:57.722Z</time></trkpt><trkpt lat="42.9586217" lon="11.9086867"><ele>275.0</ele><time>2026-05-02T13:44:58.718Z</time></trkpt><trkpt lat="42.9585083" lon="11.908595"><ele>275.0</ele><time>2026-05-02T13:44:59.721Z</time></trkpt><trkpt lat="42.958395" lon="11.9084867"><ele>275.0</ele><time>2026-05-02T13:45:00.722Z</time></trkpt><trkpt lat="42.958285" lon="11.908355"><ele>274.6666666666667</ele><time>2026-05-02T13:45:01.722Z</time></trkpt><trkpt lat="42.9581733" lon="11.9082033"><ele>274.3333333333333</ele><time>2026-05-02T13:45:02.72Z</time></trkpt><trkpt lat="42.9580683" lon="11.9080317"><ele>274.0</ele><time>2026-05-02T13:45:03.719Z</time></trkpt><trkpt lat="42.957965" lon="11.9078433"><ele>274.0</ele><time>2026-05-02T13:45:04.719Z</time></trkpt><trkpt lat="42.9578633" lon="11.90765"><ele>274.0</ele><time>2026-05-02T13:45:05.719Z</time></trkpt><trkpt lat="42.9577667" lon="11.9074417"><ele>274.0</ele><time>2026-05-02T13:45:06.719Z</time></trkpt><trkpt lat="42.95767" lon="11.907225"><ele>276.3333333333333</ele><time>2026-05-02T13:45:07.719Z</time></trkpt><trkpt lat="42.9575733" lon="11.9070067"><ele>278.6666666666667</ele><time>2026-05-02T13:45:08.719Z</time></trkpt><trkpt lat="42.9574783" lon="11.90679"><ele>281.0</ele><time>2026-05-02T13:45:09.718Z</time></trkpt><trkpt lat="42.957385" lon="11.9065733"><ele>281.0</ele><time>2026-05-02T13:45:10.719Z</time></trkpt><trkpt lat="42.957295" lon="11.906365"><ele>281.0</ele><time>2026-05-02T13:45:11.722Z</time></trkpt><trkpt lat="42.95721" lon="11.9061667"><ele>281.0</ele><time>2026-05-02T13:45:12.718Z</time></trkpt><trkpt lat="42.9571333" lon="11.905985"><ele>280.5</ele><time>2026-05-02T13:45:13.722Z</time></trkpt><trkpt lat="42.95706" lon="11.9058183"><ele>280.0</ele><time>2026-05-02T13:45:14.719Z</time></trkpt><trkpt lat="42.9569933" lon="11.90567"><ele>279.5</ele><time>2026-05-02T13:45:15.718Z</time></trkpt><trkpt lat="42.9569383" lon="11.90555"><ele>279.0</ele><time>2026-05-02T13:45:16.719Z</time></trkpt><trkpt lat="42.9568967" lon="11.9054583"><ele>279.0</ele><time>2026-05-02T13:45:17.722Z</time></trkpt><trkpt lat="42.9568667" lon="11.9053817"><ele>279.0</ele><time>2026-05-02T13:45:18.718Z</time></trkpt><trkpt lat="42.9568167" lon="11.90531"><ele>279.0</ele><time>2026-05-02T13:45:20.719Z</time></trkpt><trkpt lat="42.95674" lon="11.90528"><ele>279.0</ele><time>2026-05-02T13:45:22.719Z</time></trkpt><trkpt lat="42.9566467" lon="11.905335"><ele>279.0</ele><time>2026-05-02T13:45:24.719Z</time></trkpt><trkpt lat="42.9565883" lon="11.9054033"><ele>279.0</ele><time>2026-05-02T13:45:25.719Z</time></trkpt><trkpt lat="42.9565167" lon="11.9055017"><ele>280.5</ele><time>2026-05-02T13:45:26.719Z</time></trkpt><trkpt lat="42.9564317" lon="11.9056233"><ele>282.0</ele><time>2026-05-02T13:45:27.719Z</time></trkpt><trkpt lat="42.956345" lon="11.9057333"><ele>283.5</ele><time>2026-05-02T13:45:28.719Z</time></trkpt><trkpt lat="42.9562583" lon="11.9058517"><ele>285.0</ele><time>2026-05-02T13:45:29.719Z</time></trkpt><trkpt lat="42.9561733" lon="11.90596"><ele>288.0</ele><time>2026-05-02T13:45:30.72Z</time></trkpt><trkpt lat="42.9560833" lon="11.9060667"><ele>291.0</ele><time>2026-05-02T13:45:31.719Z</time></trkpt><trkpt lat="42.955995" lon="11.9061683"><ele>294.0</ele><time>2026-05-02T13:45:32.719Z</time></trkpt><trkpt lat="42.9559083" lon="11.90626"><ele>297.0</ele><time>2026-05-02T13:45:33.718Z</time></trkpt><trkpt lat="42.9558183" lon="11.90634"><ele>298.4</ele><time>2026-05-02T13:45:34.719Z</time></trkpt><trkpt lat="42.9557217" lon="11.9064117"><ele>299.79999999999995</ele><time>2026-05-02T13:45:35.719Z</time></trkpt><trkpt lat="42.955625" lon="11.9064733"><ele>301.2</ele><time>2026-05-02T13:45:36.719Z</time></trkpt><trkpt lat="42.955525" lon="11.906525"><ele>302.59999999999997</ele><time>2026-05-02T13:45:37.721Z</time></trkpt><trkpt lat="42.955425" lon="11.9065517"><ele>304.0</ele><time>2026-05-02T13:45:38.722Z</time></trkpt><trkpt lat="42.9553317" lon="11.9065667"><ele>304.0</ele><time>2026-05-02T13:45:39.719Z</time></trkpt><trkpt lat="42.955245" lon="11.9065717"><ele>304.0</ele><time>2026-05-02T13:45:40.719Z</time></trkpt><trkpt lat="42.9551617" lon="11.906565"><ele>304.0</ele><time>2026-05-02T13:45:41.719Z</time></trkpt><trkpt lat="42.9550783" lon="11.9065433"><ele>304.0</ele><time>2026-05-02T13:45:42.719Z</time></trkpt><trkpt lat="42.9549917" lon="11.9065183"><ele>304.0</ele><time>2026-05-02T13:45:43.719Z</time></trkpt><trkpt lat="42.9549033" lon="11.9064933"><ele>304.0</ele><time>2026-05-02T13:45:44.721Z</time></trkpt><trkpt lat="42.9548133" lon="11.9064817"><ele>304.2</ele><time>2026-05-02T13:45:45.72Z</time></trkpt><trkpt lat="42.9547167" lon="11.90647"><ele>304.4</ele><time>2026-05-02T13:45:46.719Z</time></trkpt><trkpt lat="42.954615" lon="11.906465"><ele>304.6</ele><time>2026-05-02T13:45:47.719Z</time></trkpt><trkpt lat="42.9545133" lon="11.9064733"><ele>304.8</ele><time>2026-05-02T13:45:48.719Z</time></trkpt><trkpt lat="42.9544133" lon="11.906485"><ele>305.0</ele><time>2026-05-02T13:45:49.719Z</time></trkpt><trkpt lat="42.9543167" lon="11.90649"><ele>305.0</ele><time>2026-05-02T13:45:50.719Z</time></trkpt><trkpt lat="42.95423" lon="11.90649"><ele>305.0</ele><time>2026-05-02T13:45:51.719Z</time></trkpt><trkpt lat="42.95414" lon="11.9064817"><ele>305.0</ele><time>2026-05-02T13:45:52.719Z</time></trkpt><trkpt lat="42.9540483" lon="11.906455"><ele>305.0</ele><time>2026-05-02T13:45:53.719Z</time></trkpt><trkpt lat="42.9539667" lon="11.9064167"><ele>305.0</ele><time>2026-05-02T13:45:54.719Z</time></trkpt><trkpt lat="42.9538867" lon="11.906365"><ele>305.0</ele><time>2026-05-02T13:45:55.719Z</time></trkpt><trkpt lat="42.9538067" lon="11.9062967"><ele>306.4</ele><time>2026-05-02T13:45:56.719Z</time></trkpt><trkpt lat="42.9537317" lon="11.9062017"><ele>307.8</ele><time>2026-05-02T13:45:57.722Z</time></trkpt><trkpt lat="42.9536567" lon="11.906105"><ele>309.2</ele><time>2026-05-02T13:45:58.719Z</time></trkpt><trkpt lat="42.95358" lon="11.9060183"><ele>310.6</ele><time>2026-05-02T13:45:59.719Z</time></trkpt><trkpt lat="42.9535017" lon="11.90594"><ele>312.0</ele><time>2026-05-02T13:46:00.719Z</time></trkpt><trkpt lat="42.9534217" lon="11.9058733"><ele>312.8333333333333</ele><time>2026-05-02T13:46:01.72Z</time></trkpt><trkpt lat="42.953345" lon="11.905815"><ele>313.6666666666667</ele><time>2026-05-02T13:46:02.719Z</time></trkpt><trkpt lat="42.95327" lon="11.9057683"><ele>314.5</ele><time>2026-05-02T13:46:03.72Z</time></trkpt><trkpt lat="42.95319" lon="11.9057383"><ele>315.33333333333337</ele><time>2026-05-02T13:46:04.72Z</time></trkpt><trkpt lat="42.9531067" lon="11.9057133"><ele>316.1666666666667</ele><time>2026-05-02T13:46:05.72Z</time></trkpt><trkpt lat="42.9530317" lon="11.9056917"><ele>317.0</ele><time>2026-05-02T13:46:06.72Z</time></trkpt><trkpt lat="42.952955" lon="11.9056817"><ele>317.0</ele><time>2026-05-02T13:46:07.72Z</time></trkpt><trkpt lat="42.9528733" lon="11.9056767"><ele>317.0</ele><time>2026-05-02T13:46:08.721Z</time></trkpt><trkpt lat="42.9527883" lon="11.9056767"><ele>317.0</ele><time>2026-05-02T13:46:09.72Z</time></trkpt><trkpt lat="42.9526967" lon="11.9056833"><ele>317.0</ele><time>2026-05-02T13:46:10.719Z</time></trkpt><trkpt lat="42.9525967" lon="11.905695"><ele>317.0</ele><time>2026-05-02T13:46:11.719Z</time></trkpt><trkpt lat="42.95249" lon="11.905705"><ele>315.8</ele><time>2026-05-02T13:46:12.721Z</time></trkpt><trkpt lat="42.9523817" lon="11.9057217"><ele>314.6</ele><time>2026-05-02T13:46:13.72Z</time></trkpt><trkpt lat="42.952275" lon="11.90573"><ele>313.40000000000003</ele><time>2026-05-02T13:46:14.721Z</time></trkpt><trkpt lat="42.95217" lon="11.9057367"><ele>312.2</ele><time>2026-05-02T13:46:15.72Z</time></trkpt><trkpt lat="42.9520683" lon="11.90573"><ele>311.0</ele><time>2026-05-02T13:46:16.72Z</time></trkpt><trkpt lat="42.95197" lon="11.90572"><ele>311.0</ele><time>2026-05-02T13:46:17.719Z</time></trkpt><trkpt lat="42.951875" lon="11.9057"><ele>311.0</ele><time>2026-05-02T13:46:18.719Z</time></trkpt><trkpt lat="42.95178" lon="11.9056667"><ele>311.0</ele><time>2026-05-02T13:46:19.719Z</time></trkpt><trkpt lat="42.9516783" lon="11.9056233"><ele>311.0</ele><time>2026-05-02T13:46:20.722Z</time></trkpt><trkpt lat="42.9515733" lon="11.9055783"><ele>311.0</ele><time>2026-05-02T13:46:21.719Z</time></trkpt><trkpt lat="42.9514683" lon="11.90553"><ele>309.40000000000003</ele><time>2026-05-02T13:46:22.72Z</time></trkpt><trkpt lat="42.9513633" lon="11.905475"><ele>307.8</ele><time>2026-05-02T13:46:23.721Z</time></trkpt><trkpt lat="42.951265" lon="11.90542"><ele>306.20000000000005</ele><time>2026-05-02T13:46:24.72Z</time></trkpt><trkpt lat="42.951175" lon="11.9053767"><ele>304.6</ele><time>2026-05-02T13:46:25.719Z</time></trkpt><trkpt lat="42.9510967" lon="11.905315"><ele>303.0</ele><time>2026-05-02T13:46:26.72Z</time></trkpt><trkpt lat="42.9510333" lon="11.9052517"><ele>303.0</ele><time>2026-05-02T13:46:27.72Z</time></trkpt><trkpt lat="42.9509767" lon="11.9051883"><ele>303.0</ele><time>2026-05-02T13:46:28.718Z</time></trkpt><trkpt lat="42.9509333" lon="11.90508"><ele>303.0</ele><time>2026-05-02T13:46:29.718Z</time></trkpt><trkpt lat="42.950905" lon="11.904935"><ele>303.0</ele><time>2026-05-02T13:46:30.718Z</time></trkpt><trkpt lat="42.9508867" lon="11.9047533"><ele>303.0</ele><time>2026-05-02T13:46:31.721Z</time></trkpt><trkpt lat="42.9508483" lon="11.9045917"><ele>304.5</ele><time>2026-05-02T13:46:32.718Z</time></trkpt><trkpt lat="42.95081" lon="11.9044233"><ele>306.0</ele><time>2026-05-02T13:46:33.718Z</time></trkpt><trkpt lat="42.950765" lon="11.9042633"><ele>307.5</ele><time>2026-05-02T13:46:34.718Z</time></trkpt><trkpt lat="42.950725" lon="11.9041017"><ele>309.0</ele><time>2026-05-02T13:46:35.718Z</time></trkpt><trkpt lat="42.950685" lon="11.9039483"><ele>310.25</ele><time>2026-05-02T13:46:36.718Z</time></trkpt><trkpt lat="42.9506317" lon="11.903805"><ele>311.5</ele><time>2026-05-02T13:46:37.718Z</time></trkpt><trkpt lat="42.9505683" lon="11.90367"><ele>312.75</ele><time>2026-05-02T13:46:38.721Z</time></trkpt><trkpt lat="42.9504917" lon="11.9035467"><ele>314.0</ele><time>2026-05-02T13:46:39.717Z</time></trkpt><trkpt lat="42.9504083" lon="11.9034167"><ele>315.5</ele><time>2026-05-02T13:46:40.718Z</time></trkpt><trkpt lat="42.9503133" lon="11.9032917"><ele>317.0</ele><time>2026-05-02T13:46:41.72Z</time></trkpt><trkpt lat="42.9502217" lon="11.9031733"><ele>318.5</ele><time>2026-05-02T13:46:42.718Z</time></trkpt><trkpt lat="42.95015" lon="11.9030567"><ele>320.0</ele><time>2026-05-02T13:46:43.718Z</time></trkpt><trkpt lat="42.9500883" lon="11.9029317"><ele>321.75</ele><time>2026-05-02T13:46:44.718Z</time></trkpt><trkpt lat="42.9500383" lon="11.9027917"><ele>323.5</ele><time>2026-05-02T13:46:45.718Z</time></trkpt><trkpt lat="42.9499917" lon="11.9026417"><ele>325.25</ele><time>2026-05-02T13:46:46.719Z</time></trkpt><trkpt lat="42.9499383" lon="11.90249"><ele>327.0</ele><time>2026-05-02T13:46:47.718Z</time></trkpt><trkpt lat="42.9498767" lon="11.9023317"><ele>329.3333333333333</ele><time>2026-05-02T13:46:48.719Z</time></trkpt><trkpt lat="42.9498083" lon="11.9021667"><ele>331.66666666666663</ele><time>2026-05-02T13:46:49.718Z</time></trkpt><trkpt lat="42.94973" lon="11.90199"><ele>334.0</ele><time>2026-05-02T13:46:50.718Z</time></trkpt><trkpt lat="42.9496433" lon="11.9018017"><ele>335.66666666666663</ele><time>2026-05-02T13:46:51.718Z</time></trkpt><trkpt lat="42.9495533" lon="11.90161"><ele>337.3333333333333</ele><time>2026-05-02T13:46:52.718Z</time></trkpt><trkpt lat="42.9494617" lon="11.901425"><ele>339.0</ele><time>2026-05-02T13:46:53.718Z</time></trkpt><trkpt lat="42.949375" lon="11.9012433"><ele>339.0</ele><time>2026-05-02T13:46:54.719Z</time></trkpt><trkpt lat="42.94929" lon="11.901065"><ele>339.0</ele><time>2026-05-02T13:46:55.718Z</time></trkpt><trkpt lat="42.9492117" lon="11.9008917"><ele>339.0</ele><time>2026-05-02T13:46:56.721Z</time></trkpt><trkpt lat="42.94914" lon="11.9007233"><ele>339.0</ele><time>2026-05-02T13:46:57.721Z</time></trkpt><trkpt lat="42.949075" lon="11.9005567"><ele>343.0</ele><time>2026-05-02T13:46:58.721Z</time></trkpt><trkpt lat="42.9490117" lon="11.9003967"><ele>347.0</ele><time>2026-05-02T13:46:59.721Z</time></trkpt><trkpt lat="42.9489517" lon="11.9002433"><ele>351.0</ele><time>2026-05-02T13:47:00.721Z</time></trkpt><trkpt lat="42.9488933" lon="11.9000967"><ele>355.0</ele><time>2026-05-02T13:47:01.718Z</time></trkpt><trkpt lat="42.9488383" lon="11.8999717"><ele>357.0</ele><time>2026-05-02T13:47:02.719Z</time></trkpt><trkpt lat="42.9487733" lon="11.89986"><ele>359.0</ele><time>2026-05-02T13:47:03.721Z</time></trkpt><trkpt lat="42.9486917" lon="11.8997467"><ele>361.0</ele><time>2026-05-02T13:47:04.718Z</time></trkpt><trkpt lat="42.94859" lon="11.8996383"><ele>363.0</ele><time>2026-05-02T13:47:05.718Z</time></trkpt><trkpt lat="42.9484817" lon="11.8995367"><ele>363.0</ele><time>2026-05-02T13:47:06.718Z</time></trkpt><trkpt lat="42.9483783" lon="11.8994383"><ele>363.0</ele><time>2026-05-02T13:47:07.718Z</time></trkpt><trkpt lat="42.94828" lon="11.8993367"><ele>363.0</ele><time>2026-05-02T13:47:08.719Z</time></trkpt><trkpt lat="42.9481917" lon="11.8992217"><ele>363.0</ele><time>2026-05-02T13:47:09.718Z</time></trkpt><trkpt lat="42.9481017" lon="11.8991017"><ele>365.75</ele><time>2026-05-02T13:47:10.718Z</time></trkpt><trkpt lat="42.94801" lon="11.8989817"><ele>368.5</ele><time>2026-05-02T13:47:11.718Z</time></trkpt><trkpt lat="42.947915" lon="11.898865"><ele>371.25</ele><time>2026-05-02T13:47:12.718Z</time></trkpt><trkpt lat="42.947815" lon="11.8987533"><ele>374.0</ele><time>2026-05-02T13:47:13.718Z</time></trkpt><trkpt lat="42.9477217" lon="11.8986433"><ele>374.0</ele><time>2026-05-02T13:47:14.718Z</time></trkpt><trkpt lat="42.9476333" lon="11.8985367"><ele>374.0</ele><time>2026-05-02T13:47:15.72Z</time></trkpt><trkpt lat="42.94755" lon="11.8984433"><ele>374.0</ele><time>2026-05-02T13:47:16.718Z</time></trkpt><trkpt lat="42.94748" lon="11.8983667"><ele>374.0</ele><time>2026-05-02T13:47:17.719Z</time></trkpt><trkpt lat="42.94742" lon="11.898305"><ele>374.0</ele><time>2026-05-02T13:47:18.718Z</time></trkpt><trkpt lat="42.9473633" lon="11.898265"><ele>378.6666666666667</ele><time>2026-05-02T13:47:19.718Z</time></trkpt><trkpt lat="42.9472633" lon="11.8982317"><ele>383.33333333333337</ele><time>2026-05-02T13:47:21.718Z</time></trkpt><trkpt lat="42.9471967" lon="11.8982333"><ele>388.0</ele><time>2026-05-02T13:47:22.718Z</time></trkpt><trkpt lat="42.94712" lon="11.8982133"><ele>392.6666666666667</ele><time>2026-05-02T13:47:23.718Z</time></trkpt><trkpt lat="42.9470417" lon="11.8981733"><ele>397.3333333333333</ele><time>2026-05-02T13:47:24.718Z</time></trkpt><trkpt lat="42.9469583" lon="11.8981217"><ele>402.0</ele><time>2026-05-02T13:47:25.718Z</time></trkpt><trkpt lat="42.9468683" lon="11.8980617"><ele>402.0</ele><time>2026-05-02T13:47:26.719Z</time></trkpt><trkpt lat="42.946775" lon="11.8979717"><ele>402.0</ele><time>2026-05-02T13:47:27.721Z</time></trkpt><trkpt lat="42.9466917" lon="11.8978483"><ele>402.0</ele><time>2026-05-02T13:47:28.722Z</time></trkpt><trkpt lat="42.9466117" lon="11.897735"><ele>402.0</ele><time>2026-05-02T13:47:29.722Z</time></trkpt><trkpt lat="42.9465433" lon="11.897615"><ele>405.0</ele><time>2026-05-02T13:47:30.721Z</time></trkpt><trkpt lat="42.946485" lon="11.8975"><ele>408.0</ele><time>2026-05-02T13:47:31.722Z</time></trkpt><trkpt lat="42.946435" lon="11.8974017"><ele>411.0</ele><time>2026-05-02T13:47:32.718Z</time></trkpt><trkpt lat="42.94638" lon="11.8973217"><ele>414.0</ele><time>2026-05-02T13:47:33.719Z</time></trkpt><trkpt lat="42.9463133" lon="11.8972533"><ele>417.0</ele><time>2026-05-02T13:47:34.718Z</time></trkpt><trkpt lat="42.946255" lon="11.8971767"><ele>420.0</ele><time>2026-05-02T13:47:35.719Z</time></trkpt><trkpt lat="42.946205" lon="11.8971"><ele>420.0</ele><time>2026-05-02T13:47:36.719Z</time></trkpt><trkpt lat="42.9461633" lon="11.8970083"><ele>420.0</ele><time>2026-05-02T13:47:37.718Z</time></trkpt><trkpt lat="42.94613" lon="11.8968983"><ele>420.0</ele><time>2026-05-02T13:47:38.719Z</time></trkpt><trkpt lat="42.9461033" lon="11.8967583"><ele>420.0</ele><time>2026-05-02T13:47:39.717Z</time></trkpt><trkpt lat="42.9460783" lon="11.8966333"><ele>420.0</ele><time>2026-05-02T13:47:40.718Z</time></trkpt><trkpt lat="42.94606" lon="11.8965017"><ele>421.8</ele><time>2026-05-02T13:47:41.718Z</time></trkpt><trkpt lat="42.9460633" lon="11.89639"><ele>423.6</ele><time>2026-05-02T13:47:42.72Z</time></trkpt><trkpt lat="42.946085" lon="11.8962667"><ele>425.4</ele><time>2026-05-02T13:47:43.72Z</time></trkpt><trkpt lat="42.946125" lon="11.8961417"><ele>427.2</ele><time>2026-05-02T13:47:44.72Z</time></trkpt><trkpt lat="42.9461767" lon="11.8960083"><ele>429.0</ele><time>2026-05-02T13:47:45.72Z</time></trkpt><trkpt lat="42.946225" lon="11.8958783"><ele>430.2</ele><time>2026-05-02T13:47:46.721Z</time></trkpt><trkpt lat="42.9462683" lon="11.8957483"><ele>431.4</ele><time>2026-05-02T13:47:47.721Z</time></trkpt><trkpt lat="42.9462983" lon="11.895615"><ele>432.6</ele><time>2026-05-02T13:47:48.721Z</time></trkpt><trkpt lat="42.9463167" lon="11.89547"><ele>433.8</ele><time>2026-05-02T13:47:49.722Z</time></trkpt><trkpt lat="42.94633" lon="11.8953217"><ele>435.0</ele><time>2026-05-02T13:47:50.719Z</time></trkpt><trkpt lat="42.946335" lon="11.89517"><ele>436.5</ele><time>2026-05-02T13:47:51.718Z</time></trkpt><trkpt lat="42.9463383" lon="11.895005"><ele>438.0</ele><time>2026-05-02T13:47:52.718Z</time></trkpt><trkpt lat="42.9463333" lon="11.8948433"><ele>439.5</ele><time>2026-05-02T13:47:53.718Z</time></trkpt><trkpt lat="42.94633" lon="11.8946783"><ele>441.0</ele><time>2026-05-02T13:47:54.718Z</time></trkpt><trkpt lat="42.946325" lon="11.8945083"><ele>441.0</ele><time>2026-05-02T13:47:55.718Z</time></trkpt><trkpt lat="42.9463133" lon="11.8943367"><ele>441.0</ele><time>2026-05-02T13:47:56.719Z</time></trkpt><trkpt lat="42.9463033" lon="11.8941617"><ele>441.0</ele><time>2026-05-02T13:47:57.72Z</time></trkpt><trkpt lat="42.9462883" lon="11.8939867"><ele>441.0</ele><time>2026-05-02T13:47:58.718Z</time></trkpt><trkpt lat="42.94627" lon="11.8938083"><ele>442.0</ele><time>2026-05-02T13:47:59.718Z</time></trkpt><trkpt lat="42.9462467" lon="11.893635"><ele>443.0</ele><time>2026-05-02T13:48:00.718Z</time></trkpt><trkpt lat="42.9462217" lon="11.8934617"><ele>444.0</ele><time>2026-05-02T13:48:01.722Z</time></trkpt><trkpt lat="42.9461967" lon="11.8932867"><ele>445.0</ele><time>2026-05-02T13:48:02.718Z</time></trkpt><trkpt lat="42.946165" lon="11.893115"><ele>446.75</ele><time>2026-05-02T13:48:03.718Z</time></trkpt><trkpt lat="42.9461283" lon="11.89295"><ele>448.5</ele><time>2026-05-02T13:48:04.718Z</time></trkpt><trkpt lat="42.94609" lon="11.8927917"><ele>450.25</ele><time>2026-05-02T13:48:05.718Z</time></trkpt><trkpt lat="42.9460517" lon="11.8926333"><ele>452.0</ele><time>2026-05-02T13:48:06.719Z</time></trkpt><trkpt lat="42.9460117" lon="11.89249"><ele>452.20000000000005</ele><time>2026-05-02T13:48:07.718Z</time></trkpt><trkpt lat="42.9459733" lon="11.89236"><ele>452.40000000000003</ele><time>2026-05-02T13:48:08.718Z</time></trkpt><trkpt lat="42.945925" lon="11.8922483"><ele>452.59999999999997</ele><time>2026-05-02T13:48:09.718Z</time></trkpt><trkpt lat="42.9458717" lon="11.892135"><ele>452.79999999999995</ele><time>2026-05-02T13:48:10.719Z</time></trkpt><trkpt lat="42.9458167" lon="11.8920217"><ele>453.0</ele><time>2026-05-02T13:48:11.721Z</time></trkpt><trkpt lat="42.9457583" lon="11.89191"><ele>456.79999999999995</ele><time>2026-05-02T13:48:12.718Z</time></trkpt><trkpt lat="42.9456967" lon="11.8917917"><ele>460.59999999999997</ele><time>2026-05-02T13:48:13.719Z</time></trkpt><trkpt lat="42.9456317" lon="11.8916783"><ele>464.40000000000003</ele><time>2026-05-02T13:48:14.719Z</time></trkpt><trkpt lat="42.9455733" lon="11.8915683"><ele>468.20000000000005</ele><time>2026-05-02T13:48:15.719Z</time></trkpt><trkpt lat="42.9455183" lon="11.8914717"><ele>472.0</ele><time>2026-05-02T13:48:16.719Z</time></trkpt><trkpt lat="42.94546" lon="11.89139"><ele>473.40000000000003</ele><time>2026-05-02T13:48:17.719Z</time></trkpt><trkpt lat="42.9453933" lon="11.8913233"><ele>474.80000000000007</ele><time>2026-05-02T13:48:18.719Z</time></trkpt><trkpt lat="42.9453133" lon="11.891265"><ele>476.2</ele><time>2026-05-02T13:48:19.721Z</time></trkpt><trkpt lat="42.9452317" lon="11.8912083"><ele>477.6</ele><time>2026-05-02T13:48:20.721Z</time></trkpt><trkpt lat="42.94514" lon="11.8911467"><ele>479.0</ele><time>2026-05-02T13:48:21.721Z</time></trkpt><trkpt lat="42.9450467" lon="11.89108"><ele>482.2</ele><time>2026-05-02T13:48:22.721Z</time></trkpt><trkpt lat="42.9449483" lon="11.8910033"><ele>485.4</ele><time>2026-05-02T13:48:23.721Z</time></trkpt><trkpt lat="42.9448517" lon="11.8909333"><ele>488.6</ele><time>2026-05-02T13:48:24.718Z</time></trkpt><trkpt lat="42.9447617" lon="11.89088"><ele>491.8</ele><time>2026-05-02T13:48:25.718Z</time></trkpt><trkpt lat="42.94468" lon="11.8908533"><ele>495.0</ele><time>2026-05-02T13:48:26.719Z</time></trkpt><trkpt lat="42.9446017" lon="11.8908483"><ele>495.3333333333333</ele><time>2026-05-02T13:48:27.718Z</time></trkpt><trkpt lat="42.9445283" lon="11.8908483"><ele>495.66666666666663</ele><time>2026-05-02T13:48:28.719Z</time></trkpt><trkpt lat="42.9444233" lon="11.8908083"><ele>496.0</ele><time>2026-05-02T13:48:30.719Z</time></trkpt><trkpt lat="42.9443567" lon="11.8906833"><ele>496.3333333333333</ele><time>2026-05-02T13:48:32.718Z</time></trkpt><trkpt lat="42.9443133" lon="11.8906017"><ele>496.66666666666663</ele><time>2026-05-02T13:48:33.718Z</time></trkpt><trkpt lat="42.9442667" lon="11.8905267"><ele>497.0</ele><time>2026-05-02T13:48:34.718Z</time></trkpt><trkpt lat="42.9442117" lon="11.8904467"><ele>498.8</ele><time>2026-05-02T13:48:35.718Z</time></trkpt><trkpt lat="42.944135" lon="11.89036"><ele>500.6</ele><time>2026-05-02T13:48:36.718Z</time></trkpt><trkpt lat="42.9440467" lon="11.8902817"><ele>502.40000000000003</ele><time>2026-05-02T13:48:37.718Z</time></trkpt><trkpt lat="42.94396" lon="11.8902067"><ele>504.20000000000005</ele><time>2026-05-02T13:48:38.72Z</time></trkpt><trkpt lat="42.94386" lon="11.8901317"><ele>506.0</ele><time>2026-05-02T13:48:39.718Z</time></trkpt><trkpt lat="42.9437533" lon="11.890045"><ele>507.75</ele><time>2026-05-02T13:48:40.718Z</time></trkpt><trkpt lat="42.943635" lon="11.88996"><ele>509.5</ele><time>2026-05-02T13:48:41.72Z</time></trkpt><trkpt lat="42.943515" lon="11.8898733"><ele>511.25</ele><time>2026-05-02T13:48:42.719Z</time></trkpt><trkpt lat="42.9433933" lon="11.8897883"><ele>513.0</ele><time>2026-05-02T13:48:43.719Z</time></trkpt><trkpt lat="42.9432767" lon="11.8897033"><ele>514.1999999999999</ele><time>2026-05-02T13:48:44.719Z</time></trkpt><trkpt lat="42.94317" lon="11.8896183"><ele>515.4</ele><time>2026-05-02T13:48:45.719Z</time></trkpt><trkpt lat="42.9430733" lon="11.8895433"><ele>516.5999999999999</ele><time>2026-05-02T13:48:46.718Z</time></trkpt><trkpt lat="42.9429867" lon="11.889485"><ele>517.8</ele><time>2026-05-02T13:48:47.719Z</time></trkpt><trkpt lat="42.9429117" lon="11.88944"><ele>519.0</ele><time>2026-05-02T13:48:48.718Z</time></trkpt><trkpt lat="42.9428383" lon="11.8894233"><ele>519.0</ele><time>2026-05-02T13:48:49.718Z</time></trkpt><trkpt lat="42.94277" lon="11.8894117"><ele>519.0</ele><time>2026-05-02T13:48:50.721Z</time></trkpt><trkpt lat="42.9426533" lon="11.88936"><ele>519.0</ele><time>2026-05-02T13:48:52.718Z</time></trkpt><trkpt lat="42.9426" lon="11.8892967"><ele>519.0</ele><time>2026-05-02T13:48:53.719Z</time></trkpt><trkpt lat="42.9425417" lon="11.8892317"><ele>519.0</ele><time>2026-05-02T13:48:54.718Z</time></trkpt><trkpt lat="42.942465" lon="11.8891683"><ele>519.0</ele><time>2026-05-02T13:48:55.718Z</time></trkpt><trkpt lat="42.9423833" lon="11.8891117"><ele>522.8</ele><time>2026-05-02T13:48:56.721Z</time></trkpt><trkpt lat="42.9423033" lon="11.8890433"><ele>526.5999999999999</ele><time>2026-05-02T13:48:57.718Z</time></trkpt><trkpt lat="42.9422317" lon="11.88896"><ele>530.4</ele><time>2026-05-02T13:48:58.719Z</time></trkpt><trkpt lat="42.9421667" lon="11.8888583"><ele>534.1999999999999</ele><time>2026-05-02T13:48:59.718Z</time></trkpt><trkpt lat="42.942105" lon="11.888735"><ele>538.0</ele><time>2026-05-02T13:49:00.718Z</time></trkpt><trkpt lat="42.942045" lon="11.88861"><ele>538.0</ele><time>2026-05-02T13:49:01.723Z</time></trkpt><trkpt lat="42.9419867" lon="11.888495"><ele>538.0</ele><time>2026-05-02T13:49:02.718Z</time></trkpt><trkpt lat="42.9419267" lon="11.8883867"><ele>538.0</ele><time>2026-05-02T13:49:03.718Z</time></trkpt><trkpt lat="42.941865" lon="11.8882783"><ele>538.0</ele><time>2026-05-02T13:49:04.718Z</time></trkpt><trkpt lat="42.941805" lon="11.8881717"><ele>538.0</ele><time>2026-05-02T13:49:05.718Z</time></trkpt><trkpt lat="42.9417483" lon="11.8880683"><ele>539.3333333333334</ele><time>2026-05-02T13:49:06.719Z</time></trkpt><trkpt lat="42.941695" lon="11.8879683"><ele>540.6666666666667</ele><time>2026-05-02T13:49:07.718Z</time></trkpt><trkpt lat="42.9416467" lon="11.8878783"><ele>542.0</ele><time>2026-05-02T13:49:08.721Z</time></trkpt><trkpt lat="42.941605" lon="11.8878"><ele>543.3333333333334</ele><time>2026-05-02T13:49:09.718Z</time></trkpt><trkpt lat="42.94154" lon="11.8877"><ele>544.6666666666666</ele><time>2026-05-02T13:49:11.719Z</time></trkpt><trkpt lat="42.9414867" lon="11.88764"><ele>546.0</ele><time>2026-05-02T13:49:13.718Z</time></trkpt><trkpt lat="42.94138" lon="11.887595"><ele>546.0</ele><time>2026-05-02T13:49:15.718Z</time></trkpt><trkpt lat="42.9412883" lon="11.887605"><ele>546.0</ele><time>2026-05-02T13:49:16.718Z</time></trkpt><trkpt lat="42.9411717" lon="11.8876283"><ele>546.0</ele><time>2026-05-02T13:49:17.719Z</time></trkpt><trkpt lat="42.94105" lon="11.8876417"><ele>546.0</ele><time>2026-05-02T13:49:18.718Z</time></trkpt><trkpt lat="42.94091" lon="11.8876567"><ele>545.3333333333334</ele><time>2026-05-02T13:49:19.718Z</time></trkpt><trkpt lat="42.940765" lon="11.8876717"><ele>544.6666666666667</ele><time>2026-05-02T13:49:20.718Z</time></trkpt><trkpt lat="42.940615" lon="11.8876883"><ele>544.0</ele><time>2026-05-02T13:49:21.718Z</time></trkpt><trkpt lat="42.9404617" lon="11.8877083"><ele>544.0</ele><time>2026-05-02T13:49:22.718Z</time></trkpt><trkpt lat="42.940305" lon="11.88774"><ele>544.0</ele><time>2026-05-02T13:49:23.721Z</time></trkpt><trkpt lat="42.94015" lon="11.8877833"><ele>544.0</ele><time>2026-05-02T13:49:24.721Z</time></trkpt><trkpt lat="42.939985" lon="11.88784"><ele>545.0</ele><time>2026-05-02T13:49:25.721Z</time></trkpt><trkpt lat="42.93981" lon="11.8879083"><ele>546.0</ele><time>2026-05-02T13:49:26.722Z</time></trkpt><trkpt lat="42.9396283" lon="11.8879767"><ele>547.0</ele><time>2026-05-02T13:49:27.721Z</time></trkpt><trkpt lat="42.939445" lon="11.8880467"><ele>547.0</ele><time>2026-05-02T13:49:28.721Z</time></trkpt><trkpt lat="42.9392567" lon="11.8881217"><ele>547.0</ele><time>2026-05-02T13:49:29.721Z</time></trkpt><trkpt lat="42.93907" lon="11.888205"><ele>547.0</ele><time>2026-05-02T13:49:30.721Z</time></trkpt><trkpt lat="42.9388817" lon="11.8882917"><ele>548.6666666666667</ele><time>2026-05-02T13:49:31.722Z</time></trkpt><trkpt lat="42.93869" lon="11.8883783"><ele>550.3333333333334</ele><time>2026-05-02T13:49:32.72Z</time></trkpt><trkpt lat="42.9385" lon="11.8884633"><ele>552.0</ele><time>2026-05-02T13:49:33.718Z</time></trkpt><trkpt lat="42.9383083" lon="11.8885483"><ele>556.0</ele><time>2026-05-02T13:49:34.718Z</time></trkpt><trkpt lat="42.9381183" lon="11.8886317"><ele>560.0</ele><time>2026-05-02T13:49:35.718Z</time></trkpt><trkpt lat="42.93793" lon="11.8887133"><ele>564.0</ele><time>2026-05-02T13:49:36.718Z</time></trkpt><trkpt lat="42.937745" lon="11.8887917"><ele>564.0</ele><time>2026-05-02T13:49:37.719Z</time></trkpt><trkpt lat="42.93756" lon="11.88887"><ele>564.0</ele><time>2026-05-02T13:49:38.719Z</time></trkpt><trkpt lat="42.9373867" lon="11.8889417"><ele>564.0</ele><time>2026-05-02T13:49:39.719Z</time></trkpt><trkpt lat="42.9372217" lon="11.8890133"><ele>568.75</ele><time>2026-05-02T13:49:40.718Z</time></trkpt><trkpt lat="42.9370733" lon="11.8890783"><ele>573.5</ele><time>2026-05-02T13:49:41.722Z</time></trkpt><trkpt lat="42.9369367" lon="11.8891517"><ele>578.25</ele><time>2026-05-02T13:49:42.718Z</time></trkpt><trkpt lat="42.936815" lon="11.8892483"><ele>583.0</ele><time>2026-05-02T13:49:43.718Z</time></trkpt><trkpt lat="42.9367133" lon="11.8893733"><ele>586.5</ele><time>2026-05-02T13:49:44.72Z</time></trkpt><trkpt lat="42.936635" lon="11.8895283"><ele>590.0</ele><time>2026-05-02T13:49:45.718Z</time></trkpt><trkpt lat="42.93659" lon="11.889705"><ele>593.5</ele><time>2026-05-02T13:49:46.72Z</time></trkpt><trkpt lat="42.9365817" lon="11.88988"><ele>597.0</ele><time>2026-05-02T13:49:47.719Z</time></trkpt><trkpt lat="42.9365783" lon="11.890045"><ele>596.6666666666666</ele><time>2026-05-02T13:49:48.719Z</time></trkpt><trkpt lat="42.9365767" lon="11.890195"><ele>596.3333333333334</ele><time>2026-05-02T13:49:49.718Z</time></trkpt><trkpt lat="42.93655" lon="11.8903167"><ele>596.0</ele><time>2026-05-02T13:49:50.718Z</time></trkpt><trkpt lat="42.9365117" lon="11.89041"><ele>595.6666666666667</ele><time>2026-05-02T13:49:51.718Z</time></trkpt><trkpt lat="42.936455" lon="11.8904733"><ele>595.3333333333334</ele><time>2026-05-02T13:49:52.718Z</time></trkpt><trkpt lat="42.93638" lon="11.8904783"><ele>595.0</ele><time>2026-05-02T13:49:53.719Z</time></trkpt><trkpt lat="42.9362917" lon="11.8904233"><ele>595.0</ele><time>2026-05-02T13:49:54.72Z</time></trkpt><trkpt lat="42.9362233" lon="11.8902767"><ele>595.0</ele><time>2026-05-02T13:49:55.718Z</time></trkpt><trkpt lat="42.9361833" lon="11.8900917"><ele>595.0</ele><time>2026-05-02T13:49:56.718Z</time></trkpt><trkpt lat="42.9361317" lon="11.889955"><ele>595.0</ele><time>2026-05-02T13:49:57.718Z</time></trkpt><trkpt lat="42.9360717" lon="11.8898267"><ele>595.4</ele><time>2026-05-02T13:49:58.722Z</time></trkpt><trkpt lat="42.9360017" lon="11.889755"><ele>595.8</ele><time>2026-05-02T13:49:59.722Z</time></trkpt><trkpt lat="42.9359267" lon="11.8897333"><ele>596.2</ele><time>2026-05-02T13:50:00.719Z</time></trkpt><trkpt lat="42.9358433" lon="11.8897617"><ele>596.6</ele><time>2026-05-02T13:50:01.721Z</time></trkpt><trkpt lat="42.935745" lon="11.8898767"><ele>597.0</ele><time>2026-05-02T13:50:02.719Z</time></trkpt><trkpt lat="42.93568" lon="11.8900133"><ele>597.8000000000001</ele><time>2026-05-02T13:50:03.719Z</time></trkpt><trkpt lat="42.9356317" lon="11.8900983"><ele>598.6</ele><time>2026-05-02T13:50:04.718Z</time></trkpt><trkpt lat="42.9355733" lon="11.8901633"><ele>599.4000000000001</ele><time>2026-05-02T13:50:05.721Z</time></trkpt><trkpt lat="42.9354833" lon="11.89015"><ele>600.2</ele><time>2026-05-02T13:50:07.719Z</time></trkpt><trkpt lat="42.9354583" lon="11.8899517"><ele>601.0</ele><time>2026-05-02T13:50:09.719Z</time></trkpt><trkpt lat="42.9354133" lon="11.88986"><ele>603.4</ele><time>2026-05-02T13:50:10.718Z</time></trkpt><trkpt lat="42.9353917" lon="11.88972"><ele>605.8</ele><time>2026-05-02T13:50:11.718Z</time></trkpt><trkpt lat="42.935335" lon="11.8896267"><ele>608.1999999999999</ele><time>2026-05-02T13:50:12.722Z</time></trkpt><trkpt lat="42.9352517" lon="11.8895533"><ele>610.6</ele><time>2026-05-02T13:50:13.72Z</time></trkpt><trkpt lat="42.9351267" lon="11.8895133"><ele>613.0</ele><time>2026-05-02T13:50:14.721Z</time></trkpt><trkpt lat="42.9349467" lon="11.8895067"><ele>617.0</ele><time>2026-05-02T13:50:15.721Z</time></trkpt><trkpt lat="42.934765" lon="11.88947"><ele>621.0</ele><time>2026-05-02T13:50:16.721Z</time></trkpt><trkpt lat="42.9346017" lon="11.889405"><ele>625.0</ele><time>2026-05-02T13:50:17.719Z</time></trkpt><trkpt lat="42.93444" lon="11.8893167"><ele>631.6666666666667</ele><time>2026-05-02T13:50:18.718Z</time></trkpt><trkpt lat="42.9342783" lon="11.8892183"><ele>638.3333333333334</ele><time>2026-05-02T13:50:19.718Z</time></trkpt><trkpt lat="42.9341217" lon="11.8891283"><ele>645.0</ele><time>2026-05-02T13:50:20.718Z</time></trkpt><trkpt lat="42.93397" lon="11.8890583"><ele>645.0</ele><time>2026-05-02T13:50:21.718Z</time></trkpt><trkpt lat="42.93382" lon="11.8890533"><ele>645.0</ele><time>2026-05-02T13:50:22.719Z</time></trkpt><trkpt lat="42.9336717" lon="11.8890967"><ele>645.0</ele><time>2026-05-02T13:50:23.718Z</time></trkpt><trkpt lat="42.9335117" lon="11.889195"><ele>647.0</ele><time>2026-05-02T13:50:24.719Z</time></trkpt><trkpt lat="42.9333433" lon="11.8892983"><ele>649.0</ele><time>2026-05-02T13:50:25.719Z</time></trkpt><trkpt lat="42.9331683" lon="11.8894"><ele>651.0</ele><time>2026-05-02T13:50:26.718Z</time></trkpt><trkpt lat="42.9329867" lon="11.8894967"><ele>651.0</ele><time>2026-05-02T13:50:27.719Z</time></trkpt><trkpt lat="42.9328017" lon="11.8896"><ele>651.0</ele><time>2026-05-02T13:50:28.718Z</time></trkpt><trkpt lat="42.9326183" lon="11.8896983"><ele>651.0</ele><time>2026-05-02T13:50:29.718Z</time></trkpt><trkpt lat="42.9324367" lon="11.889795"><ele>651.6666666666666</ele><time>2026-05-02T13:50:30.718Z</time></trkpt><trkpt lat="42.93225" lon="11.889895"><ele>652.3333333333333</ele><time>2026-05-02T13:50:31.718Z</time></trkpt><trkpt lat="42.9320617" lon="11.8899933"><ele>653.0</ele><time>2026-05-02T13:50:32.718Z</time></trkpt><trkpt lat="42.93188" lon="11.89009"><ele>651.3333333333333</ele><time>2026-05-02T13:50:33.718Z</time></trkpt><trkpt lat="42.9317083" lon="11.8901817"><ele>649.6666666666666</ele><time>2026-05-02T13:50:34.719Z</time></trkpt><trkpt lat="42.93154" lon="11.89026"><ele>648.0</ele><time>2026-05-02T13:50:35.718Z</time></trkpt><trkpt lat="42.9313717" lon="11.8903183"><ele>648.0</ele><time>2026-05-02T13:50:36.718Z</time></trkpt><trkpt lat="42.9312017" lon="11.890345"><ele>648.0</ele><time>2026-05-02T13:50:37.719Z</time></trkpt><trkpt lat="42.9310283" lon="11.8903317"><ele>648.0</ele><time>2026-05-02T13:50:38.722Z</time></trkpt><trkpt lat="42.930865" lon="11.8902517"><ele>647.0</ele><time>2026-05-02T13:50:39.719Z</time></trkpt><trkpt lat="42.930705" lon="11.8901333"><ele>646.0</ele><time>2026-05-02T13:50:40.719Z</time></trkpt><trkpt lat="42.9305267" lon="11.890025"><ele>645.0</ele><time>2026-05-02T13:50:41.72Z</time></trkpt><trkpt lat="42.930335" lon="11.88993"><ele>646.3333333333334</ele><time>2026-05-02T13:50:42.719Z</time></trkpt><trkpt lat="42.93013" lon="11.889865"><ele>647.6666666666667</ele><time>2026-05-02T13:50:43.719Z</time></trkpt><trkpt lat="42.92992" lon="11.8898117"><ele>649.0</ele><time>2026-05-02T13:50:44.719Z</time></trkpt><trkpt lat="42.9297083" lon="11.88978"><ele>649.0</ele><time>2026-05-02T13:50:45.72Z</time></trkpt><trkpt lat="42.9295017" lon="11.889805"><ele>649.0</ele><time>2026-05-02T13:50:46.723Z</time></trkpt><trkpt lat="42.9292983" lon="11.8898467"><ele>649.0</ele><time>2026-05-02T13:50:47.719Z</time></trkpt><trkpt lat="42.9291033" lon="11.8898867"><ele>650.6666666666667</ele><time>2026-05-02T13:50:48.719Z</time></trkpt><trkpt lat="42.9289167" lon="11.8899033"><ele>652.3333333333334</ele><time>2026-05-02T13:50:49.719Z</time></trkpt><trkpt lat="42.928735" lon="11.8898967"><ele>654.0</ele><time>2026-05-02T13:50:50.719Z</time></trkpt><trkpt lat="42.92855" lon="11.8898567"><ele>653.3333333333334</ele><time>2026-05-02T13:50:51.718Z</time></trkpt><trkpt lat="42.928365" lon="11.8897867"><ele>652.6666666666667</ele><time>2026-05-02T13:50:52.722Z</time></trkpt><trkpt lat="42.9281883" lon="11.8896817"><ele>652.0</ele><time>2026-05-02T13:50:53.721Z</time></trkpt><trkpt lat="42.9280233" lon="11.8895417"><ele>652.0</ele><time>2026-05-02T13:50:54.719Z</time></trkpt><trkpt lat="42.9278567" lon="11.8893883"><ele>652.0</ele><time>2026-05-02T13:50:55.719Z</time></trkpt><trkpt lat="42.9276917" lon="11.8892283"><ele>652.0</ele><time>2026-05-02T13:50:56.719Z</time></trkpt><trkpt lat="42.9275217" lon="11.8890783"><ele>651.0</ele><time>2026-05-02T13:50:57.718Z</time></trkpt><trkpt lat="42.9273433" lon="11.8889517"><ele>650.0</ele><time>2026-05-02T13:50:58.718Z</time></trkpt><trkpt lat="42.9271517" lon="11.8888633"><ele>649.0</ele><time>2026-05-02T13:50:59.721Z</time></trkpt><trkpt lat="42.9269483" lon="11.88882"><ele>649.0</ele><time>2026-05-02T13:51:00.719Z</time></trkpt><trkpt lat="42.9267367" lon="11.888825"><ele>649.0</ele><time>2026-05-02T13:51:01.722Z</time></trkpt><trkpt lat="42.926515" lon="11.8888683"><ele>649.0</ele><time>2026-05-02T13:51:02.718Z</time></trkpt><trkpt lat="42.9262933" lon="11.8889133"><ele>649.0</ele><time>2026-05-02T13:51:03.719Z</time></trkpt><trkpt lat="42.92607" lon="11.8889517"><ele>649.0</ele><time>2026-05-02T13:51:04.718Z</time></trkpt><trkpt lat="42.92585" lon="11.8889667"><ele>649.0</ele><time>2026-05-02T13:51:05.718Z</time></trkpt><trkpt lat="42.925635" lon="11.8889383"><ele>649.0</ele><time>2026-05-02T13:51:06.719Z</time></trkpt><trkpt lat="42.9254167" lon="11.8888817"><ele>649.0</ele><time>2026-05-02T13:51:07.72Z</time></trkpt><trkpt lat="42.9252" lon="11.888805"><ele>649.0</ele><time>2026-05-02T13:51:08.72Z</time></trkpt><trkpt lat="42.9249867" lon="11.8887217"><ele>650.6666666666667</ele><time>2026-05-02T13:51:09.719Z</time></trkpt><trkpt lat="42.924785" lon="11.888625"><ele>652.3333333333334</ele><time>2026-05-02T13:51:10.719Z</time></trkpt><trkpt lat="42.9245967" lon="11.88851"><ele>654.0</ele><time>2026-05-02T13:51:11.721Z</time></trkpt><trkpt lat="42.92442" lon="11.888385"><ele>653.3333333333334</ele><time>2026-05-02T13:51:12.72Z</time></trkpt><trkpt lat="42.9242517" lon="11.8882667"><ele>652.6666666666667</ele><time>2026-05-02T13:51:13.719Z</time></trkpt><trkpt lat="42.9240867" lon="11.8881733"><ele>652.0</ele><time>2026-05-02T13:51:14.719Z</time></trkpt><trkpt lat="42.92393" lon="11.88812"><ele>652.0</ele><time>2026-05-02T13:51:15.72Z</time></trkpt><trkpt lat="42.923785" lon="11.88812"><ele>652.0</ele><time>2026-05-02T13:51:16.72Z</time></trkpt><trkpt lat="42.9236483" lon="11.8881567"><ele>652.0</ele><time>2026-05-02T13:51:17.719Z</time></trkpt><trkpt lat="42.9235117" lon="11.8882283"><ele>652.0</ele><time>2026-05-02T13:51:18.725Z</time></trkpt><trkpt lat="42.9233683" lon="11.8882983"><ele>652.0</ele><time>2026-05-02T13:51:19.719Z</time></trkpt><trkpt lat="42.9232183" lon="11.8883267"><ele>652.0</ele><time>2026-05-02T13:51:20.719Z</time></trkpt><trkpt lat="42.9230567" lon="11.888305"><ele>652.0</ele><time>2026-05-02T13:51:21.72Z</time></trkpt><trkpt lat="42.9228917" lon="11.8882467"><ele>652.0</ele><time>2026-05-02T13:51:22.718Z</time></trkpt><trkpt lat="42.9227267" lon="11.8881483"><ele>652.0</ele><time>2026-05-02T13:51:23.719Z</time></trkpt><trkpt lat="42.9225633" lon="11.8880233"><ele>652.0</ele><time>2026-05-02T13:51:24.719Z</time></trkpt><trkpt lat="42.922395" lon="11.8878833"><ele>652.3333333333334</ele><time>2026-05-02T13:51:25.719Z</time></trkpt><trkpt lat="42.92222" lon="11.8877483"><ele>652.6666666666666</ele><time>2026-05-02T13:51:26.719Z</time></trkpt><trkpt lat="42.9220383" lon="11.8876283"><ele>653.0</ele><time>2026-05-02T13:51:27.719Z</time></trkpt><trkpt lat="42.9218417" lon="11.887535"><ele>656.0</ele><time>2026-05-02T13:51:28.72Z</time></trkpt><trkpt lat="42.9216333" lon="11.8874567"><ele>659.0</ele><time>2026-05-02T13:51:29.719Z</time></trkpt><trkpt lat="42.92142" lon="11.88739"><ele>662.0</ele><time>2026-05-02T13:51:30.719Z</time></trkpt><trkpt lat="42.9212033" lon="11.8873233"><ele>662.0</ele><time>2026-05-02T13:51:31.722Z</time></trkpt><trkpt lat="42.9209783" lon="11.88726"><ele>662.0</ele><time>2026-05-02T13:51:32.719Z</time></trkpt><trkpt lat="42.9207567" lon="11.8872"><ele>664.5</ele><time>2026-05-02T13:51:33.719Z</time></trkpt><trkpt lat="42.9205317" lon="11.8871433"><ele>667.0</ele><time>2026-05-02T13:51:34.719Z</time></trkpt><trkpt lat="42.9203083" lon="11.8870833"><ele>667.0</ele><time>2026-05-02T13:51:35.719Z</time></trkpt><trkpt lat="42.9200867" lon="11.8870233"><ele>667.0</ele><time>2026-05-02T13:51:36.719Z</time></trkpt><trkpt lat="42.919865" lon="11.88696"><ele>670.0</ele><time>2026-05-02T13:51:37.72Z</time></trkpt><trkpt lat="42.9196433" lon="11.8868967"><ele>673.0</ele><time>2026-05-02T13:51:38.72Z</time></trkpt><trkpt lat="42.9194267" lon="11.88683"><ele>676.0</ele><time>2026-05-02T13:51:39.72Z</time></trkpt><trkpt lat="42.9192067" lon="11.88678"><ele>685.0</ele><time>2026-05-02T13:51:40.718Z</time></trkpt><trkpt lat="42.9189817" lon="11.8867367"><ele>694.0</ele><time>2026-05-02T13:51:41.719Z</time></trkpt><trkpt lat="42.9187617" lon="11.8866767"><ele>694.0</ele><time>2026-05-02T13:51:42.721Z</time></trkpt><trkpt lat="42.9185467" lon="11.886625"><ele>694.0</ele><time>2026-05-02T13:51:43.722Z</time></trkpt><trkpt lat="42.91834" lon="11.8865733"><ele>694.0</ele><time>2026-05-02T13:51:44.719Z</time></trkpt><trkpt lat="42.9181333" lon="11.8865283"><ele>694.6666666666667</ele><time>2026-05-02T13:51:45.718Z</time></trkpt><trkpt lat="42.9179383" lon="11.88649"><ele>695.3333333333334</ele><time>2026-05-02T13:51:46.719Z</time></trkpt><trkpt lat="42.9177517" lon="11.8864333"><ele>696.0</ele><time>2026-05-02T13:51:47.719Z</time></trkpt><trkpt lat="42.917565" lon="11.8863483"><ele>697.0</ele><time>2026-05-02T13:51:48.719Z</time></trkpt><trkpt lat="42.9173867" lon="11.8862333"><ele>698.0</ele><time>2026-05-02T13:51:49.719Z</time></trkpt><trkpt lat="42.917215" lon="11.8860967"><ele>699.0</ele><time>2026-05-02T13:51:50.719Z</time></trkpt><trkpt lat="42.9170467" lon="11.8859517"><ele>702.0</ele><time>2026-05-02T13:51:51.719Z</time></trkpt><trkpt lat="42.9168933" lon="11.8857833"><ele>705.0</ele><time>2026-05-02T13:51:52.719Z</time></trkpt><trkpt lat="42.9167617" lon="11.88559"><ele>708.0</ele><time>2026-05-02T13:51:53.72Z</time></trkpt><trkpt lat="42.916645" lon="11.8853817"><ele>708.0</ele><time>2026-05-02T13:51:54.719Z</time></trkpt><trkpt lat="42.9165433" lon="11.8851733"><ele>708.0</ele><time>2026-05-02T13:51:55.72Z</time></trkpt><trkpt lat="42.9164483" lon="11.88498"><ele>708.0</ele><time>2026-05-02T13:51:56.72Z</time></trkpt><trkpt lat="42.9163483" lon="11.88482"><ele>712.0</ele><time>2026-05-02T13:51:57.719Z</time></trkpt><trkpt lat="42.916235" lon="11.8847"><ele>716.0</ele><time>2026-05-02T13:51:58.719Z</time></trkpt><trkpt lat="42.9161083" lon="11.8846217"><ele>720.0</ele><time>2026-05-02T13:51:59.722Z</time></trkpt><trkpt lat="42.915965" lon="11.8846333"><ele>724.0</ele><time>2026-05-02T13:52:00.722Z</time></trkpt><trkpt lat="42.91583" lon="11.8846733"><ele>724.0</ele><time>2026-05-02T13:52:01.722Z</time></trkpt><trkpt lat="42.9157" lon="11.8846883"><ele>724.0</ele><time>2026-05-02T13:52:02.719Z</time></trkpt><trkpt lat="42.91557" lon="11.8846617"><ele>724.0</ele><time>2026-05-02T13:52:03.719Z</time></trkpt><trkpt lat="42.9154583" lon="11.8845733"><ele>724.0</ele><time>2026-05-02T13:52:04.718Z</time></trkpt><trkpt lat="42.9153717" lon="11.884435"><ele>724.0</ele><time>2026-05-02T13:52:05.719Z</time></trkpt><trkpt lat="42.9153" lon="11.8842767"><ele>724.0</ele><time>2026-05-02T13:52:06.718Z</time></trkpt><trkpt lat="42.915245" lon="11.8840683"><ele>724.0</ele><time>2026-05-02T13:52:07.719Z</time></trkpt><trkpt lat="42.9152033" lon="11.8838433"><ele>730.3333333333334</ele><time>2026-05-02T13:52:08.719Z</time></trkpt><trkpt lat="42.915185" lon="11.88361"><ele>736.6666666666666</ele><time>2026-05-02T13:52:09.719Z</time></trkpt><trkpt lat="42.9151867" lon="11.883365"><ele>743.0</ele><time>2026-05-02T13:52:10.72Z</time></trkpt><trkpt lat="42.91519" lon="11.8831317"><ele>746.75</ele><time>2026-05-02T13:52:11.722Z</time></trkpt><trkpt lat="42.9151933" lon="11.88292"><ele>750.5</ele><time>2026-05-02T13:52:12.722Z</time></trkpt><trkpt lat="42.9151917" lon="11.8827367"><ele>754.25</ele><time>2026-05-02T13:52:13.719Z</time></trkpt><trkpt lat="42.91518" lon="11.8825833"><ele>758.0</ele><time>2026-05-02T13:52:14.722Z</time></trkpt><trkpt lat="42.9151283" lon="11.8824833"><ele>758.2</ele><time>2026-05-02T13:52:15.719Z</time></trkpt><trkpt lat="42.9150467" lon="11.8824283"><ele>758.4</ele><time>2026-05-02T13:52:16.723Z</time></trkpt><trkpt lat="42.91495" lon="11.8824117"><ele>758.6</ele><time>2026-05-02T13:52:17.719Z</time></trkpt><trkpt lat="42.9148467" lon="11.88242"><ele>758.8000000000001</ele><time>2026-05-02T13:52:18.719Z</time></trkpt><trkpt lat="42.914725" lon="11.8824983"><ele>759.0</ele><time>2026-05-02T13:52:19.719Z</time></trkpt><trkpt lat="42.9145917" lon="11.88256"><ele>759.0</ele><time>2026-05-02T13:52:20.719Z</time></trkpt><trkpt lat="42.9144783" lon="11.882555"><ele>759.0</ele><time>2026-05-02T13:52:21.719Z</time></trkpt><trkpt lat="42.9143883" lon="11.8824783"><ele>759.0</ele><time>2026-05-02T13:52:22.719Z</time></trkpt><trkpt lat="42.914335" lon="11.8823417"><ele>759.0</ele><time>2026-05-02T13:52:23.72Z</time></trkpt><trkpt lat="42.9143083" lon="11.88218"><ele>759.0</ele><time>2026-05-02T13:52:24.719Z</time></trkpt><trkpt lat="42.914315" lon="11.881995"><ele>759.0</ele><time>2026-05-02T13:52:25.723Z</time></trkpt><trkpt lat="42.9143333" lon="11.8818017"><ele>759.0</ele><time>2026-05-02T13:52:26.719Z</time></trkpt><trkpt lat="42.914355" lon="11.8815967"><ele>759.0</ele><time>2026-05-02T13:52:27.719Z</time></trkpt><trkpt lat="42.914375" lon="11.8813817"><ele>765.6666666666667</ele><time>2026-05-02T13:52:28.719Z</time></trkpt><trkpt lat="42.9143917" lon="11.8811633"><ele>772.3333333333334</ele><time>2026-05-02T13:52:29.722Z</time></trkpt><trkpt lat="42.9144083" lon="11.8809467"><ele>779.0</ele><time>2026-05-02T13:52:30.722Z</time></trkpt><trkpt lat="42.914425" lon="11.8807267"><ele>781.5</ele><time>2026-05-02T13:52:31.722Z</time></trkpt><trkpt lat="42.9144517" lon="11.880515"><ele>784.0</ele><time>2026-05-02T13:52:32.723Z</time></trkpt><trkpt lat="42.91449" lon="11.8803367"><ele>786.5</ele><time>2026-05-02T13:52:33.811Z</time></trkpt><trkpt lat="42.9145483" lon="11.8801933"><ele>789.0</ele><time>2026-05-02T13:52:34.718Z</time></trkpt><trkpt lat="42.9146433" lon="11.88008"><ele>789.0</ele><time>2026-05-02T13:52:35.719Z</time></trkpt><trkpt lat="42.9147567" lon="11.879985"><ele>789.0</ele><time>2026-05-02T13:52:36.719Z</time></trkpt><trkpt lat="42.914865" lon="11.8798883"><ele>789.0</ele><time>2026-05-02T13:52:37.719Z</time></trkpt><trkpt lat="42.9149617" lon="11.8797733"><ele>789.0</ele><time>2026-05-02T13:52:38.722Z</time></trkpt><trkpt lat="42.9150283" lon="11.8796317"><ele>789.0</ele><time>2026-05-02T13:52:39.718Z</time></trkpt><trkpt lat="42.9150317" lon="11.8794683"><ele>789.0</ele><time>2026-05-02T13:52:40.719Z</time></trkpt><trkpt lat="42.9149783" lon="11.8792917"><ele>789.0</ele><time>2026-05-02T13:52:41.811Z</time></trkpt><trkpt lat="42.9148817" lon="11.879145"><ele>789.0</ele><time>2026-05-02T13:52:42.719Z</time></trkpt><trkpt lat="42.914735" lon="11.8790583"><ele>789.6666666666667</ele><time>2026-05-02T13:52:43.719Z</time></trkpt><trkpt lat="42.9145983" lon="11.8789483"><ele>790.3333333333334</ele><time>2026-05-02T13:52:44.722Z</time></trkpt><trkpt lat="42.9144767" lon="11.8787967"><ele>791.0</ele><time>2026-05-02T13:52:45.722Z</time></trkpt><trkpt lat="42.91437" lon="11.8786267"><ele>791.0</ele><time>2026-05-02T13:52:46.719Z</time></trkpt><trkpt lat="42.91427" lon="11.8784483"><ele>791.0</ele><time>2026-05-02T13:52:47.72Z</time></trkpt><trkpt lat="42.9141733" lon="11.878265"><ele>791.0</ele><time>2026-05-02T13:52:48.719Z</time></trkpt><trkpt lat="42.9140733" lon="11.87807"><ele>792.3333333333334</ele><time>2026-05-02T13:52:49.718Z</time></trkpt><trkpt lat="42.9139683" lon="11.8778733"><ele>793.6666666666667</ele><time>2026-05-02T13:52:50.719Z</time></trkpt><trkpt lat="42.9138617" lon="11.8776717"><ele>795.0</ele><time>2026-05-02T13:52:51.719Z</time></trkpt><trkpt lat="42.9137533" lon="11.8774683"><ele>796.0</ele><time>2026-05-02T13:52:52.719Z</time></trkpt><trkpt lat="42.9136283" lon="11.8772867"><ele>797.0</ele><time>2026-05-02T13:52:53.719Z</time></trkpt><trkpt lat="42.9134883" lon="11.8771217"><ele>798.0</ele><time>2026-05-02T13:52:54.719Z</time></trkpt><trkpt lat="42.9133283" lon="11.8769667"><ele>795.3333333333333</ele><time>2026-05-02T13:52:55.72Z</time></trkpt><trkpt lat="42.9131583" lon="11.87682"><ele>792.6666666666666</ele><time>2026-05-02T13:52:56.72Z</time></trkpt><trkpt lat="42.9129767" lon="11.876685"><ele>790.0</ele><time>2026-05-02T13:52:57.72Z</time></trkpt><trkpt lat="42.9127833" lon="11.87655"><ele>788.6666666666666</ele><time>2026-05-02T13:52:58.719Z</time></trkpt><trkpt lat="42.912585" lon="11.8764283"><ele>787.3333333333333</ele><time>2026-05-02T13:52:59.719Z</time></trkpt><trkpt lat="42.912375" lon="11.8763217"><ele>786.0</ele><time>2026-05-02T13:53:00.722Z</time></trkpt><trkpt lat="42.912155" lon="11.8762333"><ele>783.0</ele><time>2026-05-02T13:53:01.722Z</time></trkpt><trkpt lat="42.9119283" lon="11.8761567"><ele>780.0</ele><time>2026-05-02T13:53:02.719Z</time></trkpt><trkpt lat="42.9116983" lon="11.8760867"><ele>782.0</ele><time>2026-05-02T13:53:03.719Z</time></trkpt><trkpt lat="42.9114733" lon="11.87601"><ele>784.0</ele><time>2026-05-02T13:53:04.719Z</time></trkpt><trkpt lat="42.91125" lon="11.8759367"><ele>784.0</ele><time>2026-05-02T13:53:05.719Z</time></trkpt><trkpt lat="42.9110217" lon="11.87588"><ele>784.0</ele><time>2026-05-02T13:53:06.719Z</time></trkpt><trkpt lat="42.91079" lon="11.87585"><ele>784.0</ele><time>2026-05-02T13:53:07.719Z</time></trkpt><trkpt lat="42.9105567" lon="11.8758383"><ele>784.0</ele><time>2026-05-02T13:53:08.722Z</time></trkpt><trkpt lat="42.9103267" lon="11.8758667"><ele>784.0</ele><time>2026-05-02T13:53:09.719Z</time></trkpt><trkpt lat="42.9101" lon="11.8759333"><ele>784.0</ele><time>2026-05-02T13:53:10.719Z</time></trkpt><trkpt lat="42.9098867" lon="11.876015"><ele>781.0</ele><time>2026-05-02T13:53:11.719Z</time></trkpt><trkpt lat="42.9096717" lon="11.8760983"><ele>778.0</ele><time>2026-05-02T13:53:12.722Z</time></trkpt><trkpt lat="42.90945" lon="11.8761917"><ele>777.5</ele><time>2026-05-02T13:53:13.718Z</time></trkpt><trkpt lat="42.9092317" lon="11.8762817"><ele>777.0</ele><time>2026-05-02T13:53:14.719Z</time></trkpt><trkpt lat="42.90901" lon="11.8763683"><ele>777.0</ele><time>2026-05-02T13:53:15.719Z</time></trkpt><trkpt lat="42.9087833" lon="11.8764483"><ele>777.0</ele><time>2026-05-02T13:53:16.719Z</time></trkpt><trkpt lat="42.90855" lon="11.8765267"><ele>773.0</ele><time>2026-05-02T13:53:17.719Z</time></trkpt><trkpt lat="42.908325" lon="11.8766183"><ele>769.0</ele><time>2026-05-02T13:53:18.719Z</time></trkpt><trkpt lat="42.9081183" lon="11.87672"><ele>769.3333333333333</ele><time>2026-05-02T13:53:19.719Z</time></trkpt><trkpt lat="42.90792" lon="11.876825"><ele>769.6666666666667</ele><time>2026-05-02T13:53:20.719Z</time></trkpt><trkpt lat="42.907725" lon="11.8769183"><ele>770.0</ele><time>2026-05-02T13:53:21.72Z</time></trkpt><trkpt lat="42.9075267" lon="11.8769817"><ele>771.0</ele><time>2026-05-02T13:53:22.719Z</time></trkpt><trkpt lat="42.9073283" lon="11.8770033"><ele>772.0</ele><time>2026-05-02T13:53:23.719Z</time></trkpt><trkpt lat="42.9071417" lon="11.876985"><ele>773.0</ele><time>2026-05-02T13:53:24.719Z</time></trkpt><trkpt lat="42.906975" lon="11.8769533"><ele>773.0</ele><time>2026-05-02T13:53:25.719Z</time></trkpt><trkpt lat="42.9068183" lon="11.8769583"><ele>773.0</ele><time>2026-05-02T13:53:26.719Z</time></trkpt><trkpt lat="42.9066617" lon="11.8770233"><ele>773.0</ele><time>2026-05-02T13:53:27.723Z</time></trkpt><trkpt lat="42.90652" lon="11.8771583"><ele>772.3333333333334</ele><time>2026-05-02T13:53:28.72Z</time></trkpt><trkpt lat="42.9064067" lon="11.877345"><ele>771.6666666666667</ele><time>2026-05-02T13:53:29.724Z</time></trkpt><trkpt lat="42.90629" lon="11.8775317"><ele>771.0</ele><time>2026-05-02T13:53:30.72Z</time></trkpt><trkpt lat="42.9061733" lon="11.8776967"><ele>771.0</ele><time>2026-05-02T13:53:31.722Z</time></trkpt><trkpt lat="42.9060483" lon="11.8778317"><ele>771.0</ele><time>2026-05-02T13:53:32.719Z</time></trkpt><trkpt lat="42.9059117" lon="11.8779283"><ele>771.0</ele><time>2026-05-02T13:53:33.719Z</time></trkpt><trkpt lat="42.905765" lon="11.8779683"><ele>766.3333333333334</ele><time>2026-05-02T13:53:34.719Z</time></trkpt><trkpt lat="42.9056083" lon="11.87792"><ele>761.6666666666667</ele><time>2026-05-02T13:53:35.72Z</time></trkpt><trkpt lat="42.90544" lon="11.8778267"><ele>757.0</ele><time>2026-05-02T13:53:36.721Z</time></trkpt><trkpt lat="42.9052617" lon="11.87773"><ele>754.3333333333334</ele><time>2026-05-02T13:53:37.719Z</time></trkpt><trkpt lat="42.9050617" lon="11.8776433"><ele>751.6666666666666</ele><time>2026-05-02T13:53:38.719Z</time></trkpt><trkpt lat="42.90485" lon="11.8775733"><ele>749.0</ele><time>2026-05-02T13:53:39.719Z</time></trkpt><trkpt lat="42.9046383" lon="11.8775"><ele>749.0</ele><time>2026-05-02T13:53:40.718Z</time></trkpt><trkpt lat="42.9044267" lon="11.8774317"><ele>749.0</ele><time>2026-05-02T13:53:41.722Z</time></trkpt><trkpt lat="42.9042167" lon="11.8773533"><ele>749.0</ele><time>2026-05-02T13:53:42.722Z</time></trkpt><trkpt lat="42.90401" lon="11.8772633"><ele>750.6666666666666</ele><time>2026-05-02T13:53:43.723Z</time></trkpt><trkpt lat="42.9038067" lon="11.8771767"><ele>752.3333333333334</ele><time>2026-05-02T13:53:44.722Z</time></trkpt><trkpt lat="42.9036" lon="11.87709"><ele>754.0</ele><time>2026-05-02T13:53:45.724Z</time></trkpt><trkpt lat="42.9033933" lon="11.8770133"><ele>755.0</ele><time>2026-05-02T13:53:46.722Z</time></trkpt><trkpt lat="42.903185" lon="11.8769567"><ele>756.0</ele><time>2026-05-02T13:53:47.719Z</time></trkpt><trkpt lat="42.9029683" lon="11.876925"><ele>757.0</ele><time>2026-05-02T13:53:48.72Z</time></trkpt><trkpt lat="42.90275" lon="11.87691"><ele>759.0</ele><time>2026-05-02T13:53:49.72Z</time></trkpt><trkpt lat="42.9025317" lon="11.8768967"><ele>761.0</ele><time>2026-05-02T13:53:50.719Z</time></trkpt><trkpt lat="42.90232" lon="11.87688"><ele>763.0</ele><time>2026-05-02T13:53:51.72Z</time></trkpt><trkpt lat="42.9021133" lon="11.8768583"><ele>763.0</ele><time>2026-05-02T13:53:52.719Z</time></trkpt><trkpt lat="42.901905" lon="11.87683"><ele>763.0</ele><time>2026-05-02T13:53:53.72Z</time></trkpt><trkpt lat="42.901695" lon="11.8767983"><ele>763.0</ele><time>2026-05-02T13:53:54.719Z</time></trkpt><trkpt lat="42.90148" lon="11.8767633"><ele>764.3333333333334</ele><time>2026-05-02T13:53:55.719Z</time></trkpt><trkpt lat="42.9012633" lon="11.87672"><ele>765.6666666666666</ele><time>2026-05-02T13:53:56.72Z</time></trkpt><trkpt lat="42.90104" lon="11.87668"><ele>767.0</ele><time>2026-05-02T13:53:57.72Z</time></trkpt><trkpt lat="42.9008117" lon="11.8766233"><ele>767.0</ele><time>2026-05-02T13:53:58.719Z</time></trkpt><trkpt lat="42.9005833" lon="11.87656"><ele>767.0</ele><time>2026-05-02T13:53:59.721Z</time></trkpt><trkpt lat="42.9003617" lon="11.876485"><ele>767.0</ele><time>2026-05-02T13:54:00.72Z</time></trkpt><trkpt lat="42.9001433" lon="11.876415"><ele>767.0</ele><time>2026-05-02T13:54:01.72Z</time></trkpt><trkpt lat="42.89992" lon="11.87636"><ele>765.0</ele><time>2026-05-02T13:54:02.72Z</time></trkpt><trkpt lat="42.8996983" lon="11.8763117"><ele>763.0</ele><time>2026-05-02T13:54:03.72Z</time></trkpt><trkpt lat="42.899475" lon="11.87628"><ele>761.0</ele><time>2026-05-02T13:54:04.719Z</time></trkpt><trkpt lat="42.89925" lon="11.8762733"><ele>760.0</ele><time>2026-05-02T13:54:05.721Z</time></trkpt><trkpt lat="42.8990233" lon="11.8762933"><ele>759.0</ele><time>2026-05-02T13:54:06.72Z</time></trkpt><trkpt lat="42.898805" lon="11.8763217"><ele>758.0</ele><time>2026-05-02T13:54:07.721Z</time></trkpt><trkpt lat="42.8985933" lon="11.8763433"><ele>757.6666666666666</ele><time>2026-05-02T13:54:08.722Z</time></trkpt><trkpt lat="42.89839" lon="11.8763633"><ele>757.3333333333334</ele><time>2026-05-02T13:54:09.72Z</time></trkpt><trkpt lat="42.8981867" lon="11.876375"><ele>757.0</ele><time>2026-05-02T13:54:10.72Z</time></trkpt><trkpt lat="42.8979867" lon="11.876375"><ele>757.0</ele><time>2026-05-02T13:54:11.721Z</time></trkpt><trkpt lat="42.8977817" lon="11.8763667"><ele>757.0</ele><time>2026-05-02T13:54:12.72Z</time></trkpt><trkpt lat="42.8975733" lon="11.8763383"><ele>757.0</ele><time>2026-05-02T13:54:13.72Z</time></trkpt><trkpt lat="42.89736" lon="11.8763"><ele>756.0</ele><time>2026-05-02T13:54:14.719Z</time></trkpt><trkpt lat="42.8971433" lon="11.8762483"><ele>755.0</ele><time>2026-05-02T13:54:15.72Z</time></trkpt><trkpt lat="42.8969317" lon="11.87618"><ele>754.0</ele><time>2026-05-02T13:54:16.72Z</time></trkpt><trkpt lat="42.896725" lon="11.8761117"><ele>749.3333333333334</ele><time>2026-05-02T13:54:17.719Z</time></trkpt><trkpt lat="42.89652" lon="11.8760467"><ele>744.6666666666666</ele><time>2026-05-02T13:54:18.722Z</time></trkpt><trkpt lat="42.89632" lon="11.8759917"><ele>740.0</ele><time>2026-05-02T13:54:19.72Z</time></trkpt><trkpt lat="42.8961183" lon="11.87596"><ele>737.0</ele><time>2026-05-02T13:54:20.723Z</time></trkpt><trkpt lat="42.89591" lon="11.8759583"><ele>734.0</ele><time>2026-05-02T13:54:21.723Z</time></trkpt><trkpt lat="42.895695" lon="11.87598"><ele>731.0</ele><time>2026-05-02T13:54:22.725Z</time></trkpt><trkpt lat="42.8954817" lon="11.876015"><ele>731.0</ele><time>2026-05-02T13:54:23.722Z</time></trkpt><trkpt lat="42.8952767" lon="11.876045"><ele>731.0</ele><time>2026-05-02T13:54:24.718Z</time></trkpt><trkpt lat="42.8950867" lon="11.8760633"><ele>731.0</ele><time>2026-05-02T13:54:25.722Z</time></trkpt><trkpt lat="42.89491" lon="11.8760667"><ele>728.0</ele><time>2026-05-02T13:54:26.72Z</time></trkpt><trkpt lat="42.8947433" lon="11.876045"><ele>725.0</ele><time>2026-05-02T13:54:27.722Z</time></trkpt><trkpt lat="42.8945833" lon="11.8759767"><ele>722.0</ele><time>2026-05-02T13:54:28.722Z</time></trkpt><trkpt lat="42.8944417" lon="11.8758467"><ele>722.0</ele><time>2026-05-02T13:54:29.72Z</time></trkpt><trkpt lat="42.894325" lon="11.8756683"><ele>722.0</ele><time>2026-05-02T13:54:30.719Z</time></trkpt><trkpt lat="42.89423" lon="11.8754617"><ele>722.0</ele><time>2026-05-02T13:54:31.719Z</time></trkpt><trkpt lat="42.894125" lon="11.8752667"><ele>722.0</ele><time>2026-05-02T13:54:32.72Z</time></trkpt><trkpt lat="42.894" lon="11.875105"><ele>722.0</ele><time>2026-05-02T13:54:33.72Z</time></trkpt><trkpt lat="42.8938383" lon="11.8749833"><ele>722.0</ele><time>2026-05-02T13:54:34.72Z</time></trkpt><trkpt lat="42.8936433" lon="11.8748967"><ele>719.3333333333333</ele><time>2026-05-02T13:54:35.72Z</time></trkpt><trkpt lat="42.89344" lon="11.874805"><ele>716.6666666666666</ele><time>2026-05-02T13:54:36.72Z</time></trkpt><trkpt lat="42.893225" lon="11.8747017"><ele>714.0</ele><time>2026-05-02T13:54:37.721Z</time></trkpt><trkpt lat="42.8930033" lon="11.8745917"><ele>714.0</ele><time>2026-05-02T13:54:38.72Z</time></trkpt><trkpt lat="42.89278" lon="11.8744733"><ele>714.0</ele><time>2026-05-02T13:54:39.72Z</time></trkpt><trkpt lat="42.8925517" lon="11.8743533"><ele>714.0</ele><time>2026-05-02T13:54:40.719Z</time></trkpt><trkpt lat="42.8923233" lon="11.874225"><ele>714.0</ele><time>2026-05-02T13:54:41.72Z</time></trkpt><trkpt lat="42.8921017" lon="11.874095"><ele>714.0</ele><time>2026-05-02T13:54:42.719Z</time></trkpt><trkpt lat="42.8918817" lon="11.8739833"><ele>714.0</ele><time>2026-05-02T13:54:43.72Z</time></trkpt><trkpt lat="42.8916567" lon="11.8738833"><ele>710.0</ele><time>2026-05-02T13:54:44.72Z</time></trkpt><trkpt lat="42.8914317" lon="11.873795"><ele>706.0</ele><time>2026-05-02T13:54:45.72Z</time></trkpt><trkpt lat="42.8912117" lon="11.87373"><ele>706.0</ele><time>2026-05-02T13:54:46.72Z</time></trkpt><trkpt lat="42.8910017" lon="11.8736733"><ele>706.0</ele><time>2026-05-02T13:54:47.72Z</time></trkpt><trkpt lat="42.890795" lon="11.8736333"><ele>706.0</ele><time>2026-05-02T13:54:48.722Z</time></trkpt><trkpt lat="42.8905883" lon="11.87361"><ele>706.3333333333334</ele><time>2026-05-02T13:54:49.72Z</time></trkpt><trkpt lat="42.8903833" lon="11.8736"><ele>706.6666666666666</ele><time>2026-05-02T13:54:50.719Z</time></trkpt><trkpt lat="42.8901817" lon="11.8735983"><ele>707.0</ele><time>2026-05-02T13:54:51.719Z</time></trkpt><trkpt lat="42.8899733" lon="11.87362"><ele>707.0</ele><time>2026-05-02T13:54:52.719Z</time></trkpt><trkpt lat="42.889775" lon="11.8736517"><ele>707.0</ele><time>2026-05-02T13:54:53.719Z</time></trkpt><trkpt lat="42.8895833" lon="11.8736967"><ele>707.0</ele><time>2026-05-02T13:54:54.719Z</time></trkpt><trkpt lat="42.889395" lon="11.8737633"><ele>704.6666666666666</ele><time>2026-05-02T13:54:55.72Z</time></trkpt><trkpt lat="42.8892067" lon="11.8738617"><ele>702.3333333333334</ele><time>2026-05-02T13:54:56.719Z</time></trkpt><trkpt lat="42.8890267" lon="11.8739867"><ele>700.0</ele><time>2026-05-02T13:54:57.719Z</time></trkpt><trkpt lat="42.88885" lon="11.8741417"><ele>700.6666666666667</ele><time>2026-05-02T13:54:58.719Z</time></trkpt><trkpt lat="42.8886733" lon="11.874315"><ele>701.3333333333334</ele><time>2026-05-02T13:54:59.719Z</time></trkpt><trkpt lat="42.8885" lon="11.8744967"><ele>702.0</ele><time>2026-05-02T13:55:00.719Z</time></trkpt><trkpt lat="42.8883283" lon="11.8746767"><ele>697.0</ele><time>2026-05-02T13:55:01.719Z</time></trkpt><trkpt lat="42.88816" lon="11.874855"><ele>692.0</ele><time>2026-05-02T13:55:02.719Z</time></trkpt><trkpt lat="42.8880017" lon="11.8750267"><ele>687.0</ele><time>2026-05-02T13:55:03.719Z</time></trkpt><trkpt lat="42.8878517" lon="11.87519"><ele>685.6666666666666</ele><time>2026-05-02T13:55:04.719Z</time></trkpt><trkpt lat="42.8877033" lon="11.8753283"><ele>684.3333333333333</ele><time>2026-05-02T13:55:05.719Z</time></trkpt><trkpt lat="42.8875483" lon="11.8754183"><ele>683.0</ele><time>2026-05-02T13:55:06.719Z</time></trkpt><trkpt lat="42.8873733" lon="11.8754433"><ele>680.6666666666666</ele><time>2026-05-02T13:55:07.72Z</time></trkpt><trkpt lat="42.88719" lon="11.8754083"><ele>678.3333333333334</ele><time>2026-05-02T13:55:08.72Z</time></trkpt><trkpt lat="42.8870017" lon="11.875355"><ele>676.0</ele><time>2026-05-02T13:55:09.719Z</time></trkpt><trkpt lat="42.8868067" lon="11.8753117"><ele>677.0</ele><time>2026-05-02T13:55:10.719Z</time></trkpt><trkpt lat="42.88661" lon="11.8752883"><ele>678.0</ele><time>2026-05-02T13:55:11.719Z</time></trkpt><trkpt lat="42.8864083" lon="11.8752833"><ele>679.0</ele><time>2026-05-02T13:55:12.722Z</time></trkpt><trkpt lat="42.8862033" lon="11.875295"><ele>679.0</ele><time>2026-05-02T13:55:13.722Z</time></trkpt><trkpt lat="42.88599" lon="11.8752967"><ele>679.0</ele><time>2026-05-02T13:55:14.722Z</time></trkpt><trkpt lat="42.8857767" lon="11.875275"><ele>679.0</ele><time>2026-05-02T13:55:15.722Z</time></trkpt><trkpt lat="42.8855767" lon="11.87525"><ele>680.6666666666667</ele><time>2026-05-02T13:55:16.722Z</time></trkpt><trkpt lat="42.8853817" lon="11.875255"><ele>682.3333333333334</ele><time>2026-05-02T13:55:17.722Z</time></trkpt><trkpt lat="42.8851967" lon="11.8753033"><ele>684.0</ele><time>2026-05-02T13:55:18.722Z</time></trkpt><trkpt lat="42.88501" lon="11.8753833"><ele>684.0</ele><time>2026-05-02T13:55:19.722Z</time></trkpt><trkpt lat="42.8848167" lon="11.8754733"><ele>684.0</ele><time>2026-05-02T13:55:20.719Z</time></trkpt><trkpt lat="42.88462" lon="11.8755633"><ele>684.0</ele><time>2026-05-02T13:55:21.719Z</time></trkpt><trkpt lat="42.8844217" lon="11.87567"><ele>681.6666666666666</ele><time>2026-05-02T13:55:22.72Z</time></trkpt><trkpt lat="42.8842233" lon="11.87579"><ele>679.3333333333333</ele><time>2026-05-02T13:55:23.719Z</time></trkpt><trkpt lat="42.8840267" lon="11.8759133"><ele>677.0</ele><time>2026-05-02T13:55:24.719Z</time></trkpt><trkpt lat="42.8838283" lon="11.8760167"><ele>677.0</ele><time>2026-05-02T13:55:25.719Z</time></trkpt><trkpt lat="42.883625" lon="11.8760933"><ele>677.0</ele><time>2026-05-02T13:55:26.719Z</time></trkpt><trkpt lat="42.883415" lon="11.8761083"><ele>677.0</ele><time>2026-05-02T13:55:27.723Z</time></trkpt><trkpt lat="42.8832067" lon="11.8760767"><ele>673.0</ele><time>2026-05-02T13:55:28.72Z</time></trkpt><trkpt lat="42.8830033" lon="11.8760267"><ele>669.0</ele><time>2026-05-02T13:55:29.723Z</time></trkpt><trkpt lat="42.8828017" lon="11.87596"><ele>665.0</ele><time>2026-05-02T13:55:30.719Z</time></trkpt><trkpt lat="42.8826133" lon="11.8758583"><ele>663.6666666666666</ele><time>2026-05-02T13:55:31.72Z</time></trkpt><trkpt lat="42.8824483" lon="11.8757167"><ele>662.3333333333334</ele><time>2026-05-02T13:55:32.719Z</time></trkpt><trkpt lat="42.8823033" lon="11.8755517"><ele>661.0</ele><time>2026-05-02T13:55:33.719Z</time></trkpt><trkpt lat="42.8821417" lon="11.8754083"><ele>661.0</ele><time>2026-05-02T13:55:34.726Z</time></trkpt><trkpt lat="42.8819633" lon="11.8752933"><ele>661.0</ele><time>2026-05-02T13:55:35.721Z</time></trkpt><trkpt lat="42.88177" lon="11.875225"><ele>661.0</ele><time>2026-05-02T13:55:36.721Z</time></trkpt><trkpt lat="42.8815683" lon="11.875205"><ele>662.6666666666667</ele><time>2026-05-02T13:55:37.72Z</time></trkpt><trkpt lat="42.8813683" lon="11.8752367"><ele>664.3333333333334</ele><time>2026-05-02T13:55:38.72Z</time></trkpt><trkpt lat="42.88118" lon="11.8752933"><ele>666.0</ele><time>2026-05-02T13:55:39.72Z</time></trkpt><trkpt lat="42.8810083" lon="11.8753483"><ele>662.3333333333334</ele><time>2026-05-02T13:55:40.72Z</time></trkpt><trkpt lat="42.8808433" lon="11.87538"><ele>658.6666666666667</ele><time>2026-05-02T13:55:41.722Z</time></trkpt><trkpt lat="42.8806833" lon="11.8753683"><ele>655.0</ele><time>2026-05-02T13:55:42.72Z</time></trkpt><trkpt lat="42.88053" lon="11.8753"><ele>655.0</ele><time>2026-05-02T13:55:43.722Z</time></trkpt><trkpt lat="42.8803933" lon="11.87518"><ele>655.0</ele><time>2026-05-02T13:55:44.719Z</time></trkpt><trkpt lat="42.8802817" lon="11.875015"><ele>655.0</ele><time>2026-05-02T13:55:45.722Z</time></trkpt><trkpt lat="42.8801783" lon="11.874835"><ele>649.25</ele><time>2026-05-02T13:55:46.724Z</time></trkpt><trkpt lat="42.88007" lon="11.874665"><ele>643.5</ele><time>2026-05-02T13:55:47.722Z</time></trkpt><trkpt lat="42.87996" lon="11.8745333"><ele>637.75</ele><time>2026-05-02T13:55:48.722Z</time></trkpt><trkpt lat="42.87984" lon="11.874445"><ele>632.0</ele><time>2026-05-02T13:55:49.721Z</time></trkpt><trkpt lat="42.8797133" lon="11.874405"><ele>632.0</ele><time>2026-05-02T13:55:50.721Z</time></trkpt><trkpt lat="42.879585" lon="11.8744167"><ele>632.0</ele><time>2026-05-02T13:55:51.722Z</time></trkpt><trkpt lat="42.87947" lon="11.874495"><ele>632.0</ele><time>2026-05-02T13:55:52.721Z</time></trkpt><trkpt lat="42.87936" lon="11.8745967"><ele>632.0</ele><time>2026-05-02T13:55:53.721Z</time></trkpt><trkpt lat="42.8792517" lon="11.874695"><ele>629.0</ele><time>2026-05-02T13:55:54.719Z</time></trkpt><trkpt lat="42.8791367" lon="11.874775"><ele>626.0</ele><time>2026-05-02T13:55:55.719Z</time></trkpt><trkpt lat="42.8790183" lon="11.8748317"><ele>623.0</ele><time>2026-05-02T13:55:56.72Z</time></trkpt><trkpt lat="42.8788983" lon="11.8748567"><ele>620.0</ele><time>2026-05-02T13:55:57.719Z</time></trkpt><trkpt lat="42.878775" lon="11.8748533"><ele>620.0</ele><time>2026-05-02T13:55:58.719Z</time></trkpt><trkpt lat="42.8786567" lon="11.8748267"><ele>620.0</ele><time>2026-05-02T13:55:59.719Z</time></trkpt><trkpt lat="42.878545" lon="11.874775"><ele>620.0</ele><time>2026-05-02T13:56:00.719Z</time></trkpt><trkpt lat="42.87844" lon="11.874725"><ele>620.0</ele><time>2026-05-02T13:56:01.721Z</time></trkpt><trkpt lat="42.87835" lon="11.8746833"><ele>620.0</ele><time>2026-05-02T13:56:02.718Z</time></trkpt><trkpt lat="42.8782767" lon="11.874645"><ele>620.0</ele><time>2026-05-02T13:56:03.718Z</time></trkpt><trkpt lat="42.8781867" lon="11.8746017"><ele>620.0</ele><time>2026-05-02T13:56:05.719Z</time></trkpt><trkpt lat="42.87818" lon="11.8745017"><ele>620.0</ele><time>2026-05-02T13:56:09.718Z</time></trkpt><trkpt lat="42.87825" lon="11.8744167"><ele>620.0</ele><time>2026-05-02T13:56:11.718Z</time></trkpt><trkpt lat="42.87831" lon="11.8743467"><ele>620.0</ele><time>2026-05-02T13:56:12.721Z</time></trkpt><trkpt lat="42.87839" lon="11.8742567"><ele>620.0</ele><time>2026-05-02T13:56:13.719Z</time></trkpt><trkpt lat="42.8784683" lon="11.8741633"><ele>620.0</ele><time>2026-05-02T13:56:14.72Z</time></trkpt><trkpt lat="42.8785467" lon="11.8740633"><ele>620.0</ele><time>2026-05-02T13:56:15.718Z</time></trkpt><trkpt lat="42.8786233" lon="11.873975"><ele>620.0</ele><time>2026-05-02T13:56:16.719Z</time></trkpt><trkpt lat="42.8787067" lon="11.87389"><ele>620.0</ele><time>2026-05-02T13:56:17.718Z</time></trkpt><trkpt lat="42.878785" lon="11.873825"><ele>620.0</ele><time>2026-05-02T13:56:18.721Z</time></trkpt><trkpt lat="42.8788733" lon="11.873775"><ele>620.0</ele><time>2026-05-02T13:56:19.718Z</time></trkpt><trkpt lat="42.8789733" lon="11.8737317"><ele>620.0</ele><time>2026-05-02T13:56:20.722Z</time></trkpt><trkpt lat="42.8790783" lon="11.87369"><ele>620.0</ele><time>2026-05-02T13:56:21.721Z</time></trkpt><trkpt lat="42.8791983" lon="11.8736533"><ele>620.0</ele><time>2026-05-02T13:56:22.721Z</time></trkpt><trkpt lat="42.8793233" lon="11.8736217"><ele>621.5</ele><time>2026-05-02T13:56:23.721Z</time></trkpt><trkpt lat="42.8794467" lon="11.8735933"><ele>623.0</ele><time>2026-05-02T13:56:24.718Z</time></trkpt><trkpt lat="42.8795733" lon="11.87357"><ele>624.5</ele><time>2026-05-02T13:56:25.721Z</time></trkpt><trkpt lat="42.879695" lon="11.8735433"><ele>626.0</ele><time>2026-05-02T13:56:26.718Z</time></trkpt><trkpt lat="42.879815" lon="11.8735317"><ele>626.0</ele><time>2026-05-02T13:56:27.721Z</time></trkpt><trkpt lat="42.8799217" lon="11.873545"><ele>626.0</ele><time>2026-05-02T13:56:28.718Z</time></trkpt><trkpt lat="42.8800217" lon="11.8735733"><ele>626.0</ele><time>2026-05-02T13:56:29.722Z</time></trkpt><trkpt lat="42.8801067" lon="11.8736167"><ele>626.0</ele><time>2026-05-02T13:56:30.721Z</time></trkpt><trkpt lat="42.8801883" lon="11.8736867"><ele>626.0</ele><time>2026-05-02T13:56:31.719Z</time></trkpt><trkpt lat="42.8802583" lon="11.8737717"><ele>626.6</ele><time>2026-05-02T13:56:32.722Z</time></trkpt><trkpt lat="42.880315" lon="11.8738683"><ele>627.2</ele><time>2026-05-02T13:56:33.721Z</time></trkpt><trkpt lat="42.8803633" lon="11.8739667"><ele>627.8</ele><time>2026-05-02T13:56:34.718Z</time></trkpt><trkpt lat="42.880415" lon="11.87405"><ele>628.4</ele><time>2026-05-02T13:56:35.718Z</time></trkpt><trkpt lat="42.88048" lon="11.8741167"><ele>629.0</ele><time>2026-05-02T13:56:36.721Z</time></trkpt><trkpt lat="42.8805867" lon="11.87418"><ele>629.0</ele><time>2026-05-02T13:56:38.718Z</time></trkpt><trkpt lat="42.8807117" lon="11.8741283"><ele>629.0</ele><time>2026-05-02T13:56:40.718Z</time></trkpt><trkpt lat="42.880785" lon="11.8740483"><ele>629.0</ele><time>2026-05-02T13:56:41.721Z</time></trkpt><trkpt lat="42.88088" lon="11.873945"><ele>629.0</ele><time>2026-05-02T13:56:42.721Z</time></trkpt><trkpt lat="42.8809783" lon="11.8738633"><ele>631.5</ele><time>2026-05-02T13:56:43.721Z</time></trkpt><trkpt lat="42.8810783" lon="11.8737883"><ele>634.0</ele><time>2026-05-02T13:56:44.722Z</time></trkpt><trkpt lat="42.8811817" lon="11.873715"><ele>636.5</ele><time>2026-05-02T13:56:45.721Z</time></trkpt><trkpt lat="42.881285" lon="11.8736633"><ele>639.0</ele><time>2026-05-02T13:56:46.722Z</time></trkpt><trkpt lat="42.8813983" lon="11.8736217"><ele>639.0</ele><time>2026-05-02T13:56:47.721Z</time></trkpt><trkpt lat="42.8815133" lon="11.87358"><ele>639.0</ele><time>2026-05-02T13:56:48.718Z</time></trkpt><trkpt lat="42.881635" lon="11.8735417"><ele>639.0</ele><time>2026-05-02T13:56:49.718Z</time></trkpt><trkpt lat="42.8817633" lon="11.873505"><ele>639.0</ele><time>2026-05-02T13:56:50.718Z</time></trkpt><trkpt lat="42.8818967" lon="11.873475"><ele>638.5</ele><time>2026-05-02T13:56:51.719Z</time></trkpt><trkpt lat="42.8820333" lon="11.8734517"><ele>638.0</ele><time>2026-05-02T13:56:52.718Z</time></trkpt><trkpt lat="42.882165" lon="11.8734233"><ele>637.5</ele><time>2026-05-02T13:56:53.72Z</time></trkpt><trkpt lat="42.882285" lon="11.8733833"><ele>637.0</ele><time>2026-05-02T13:56:54.718Z</time></trkpt><trkpt lat="42.8823983" lon="11.8733433"><ele>634.8000000000001</ele><time>2026-05-02T13:56:55.718Z</time></trkpt><trkpt lat="42.8825083" lon="11.8733167"><ele>632.6</ele><time>2026-05-02T13:56:56.718Z</time></trkpt><trkpt lat="42.8826117" lon="11.873305"><ele>630.4000000000001</ele><time>2026-05-02T13:56:57.718Z</time></trkpt><trkpt lat="42.8827183" lon="11.8733033"><ele>628.2</ele><time>2026-05-02T13:56:58.721Z</time></trkpt><trkpt lat="42.882825" lon="11.8733183"><ele>626.0</ele><time>2026-05-02T13:56:59.718Z</time></trkpt><trkpt lat="42.882935" lon="11.8733517"><ele>626.0</ele><time>2026-05-02T13:57:00.718Z</time></trkpt><trkpt lat="42.88304" lon="11.873375"><ele>626.0</ele><time>2026-05-02T13:57:01.718Z</time></trkpt><trkpt lat="42.8831317" lon="11.8733883"><ele>626.0</ele><time>2026-05-02T13:57:02.723Z</time></trkpt><trkpt lat="42.8832233" lon="11.8733867"><ele>626.0</ele><time>2026-05-02T13:57:03.718Z</time></trkpt><trkpt lat="42.883305" lon="11.8733483"><ele>626.0</ele><time>2026-05-02T13:57:04.721Z</time></trkpt><trkpt lat="42.8833833" lon="11.873285"><ele>627.1666666666666</ele><time>2026-05-02T13:57:05.721Z</time></trkpt><trkpt lat="42.8834467" lon="11.8732033"><ele>628.3333333333333</ele><time>2026-05-02T13:57:06.721Z</time></trkpt><trkpt lat="42.8835033" lon="11.8731283"><ele>629.5</ele><time>2026-05-02T13:57:07.721Z</time></trkpt><trkpt lat="42.8835483" lon="11.87305"><ele>630.6666666666666</ele><time>2026-05-02T13:57:08.718Z</time></trkpt><trkpt lat="42.8835917" lon="11.8729733"><ele>631.8333333333334</ele><time>2026-05-02T13:57:09.718Z</time></trkpt><trkpt lat="42.8836367" lon="11.8728933"><ele>633.0</ele><time>2026-05-02T13:57:10.719Z</time></trkpt><trkpt lat="42.8836933" lon="11.8728183"><ele>633.0</ele><time>2026-05-02T13:57:11.718Z</time></trkpt><trkpt lat="42.8837533" lon="11.8727517"><ele>633.0</ele><time>2026-05-02T13:57:12.718Z</time></trkpt><trkpt lat="42.8838183" lon="11.8727017"><ele>633.0</ele><time>2026-05-02T13:57:13.718Z</time></trkpt><trkpt lat="42.8838817" lon="11.8726567"><ele>633.0</ele><time>2026-05-02T13:57:14.719Z</time></trkpt><trkpt lat="42.8839483" lon="11.8726233"><ele>633.0</ele><time>2026-05-02T13:57:15.718Z</time></trkpt><trkpt lat="42.8840183" lon="11.8726067"><ele>633.0</ele><time>2026-05-02T13:57:16.718Z</time></trkpt><trkpt lat="42.884105" lon="11.872595"><ele>632.4</ele><time>2026-05-02T13:57:17.721Z</time></trkpt><trkpt lat="42.8842033" lon="11.8725967"><ele>631.8</ele><time>2026-05-02T13:57:18.719Z</time></trkpt><trkpt lat="42.8842967" lon="11.8726033"><ele>631.2</ele><time>2026-05-02T13:57:19.72Z</time></trkpt><trkpt lat="42.8843917" lon="11.8726033"><ele>630.6</ele><time>2026-05-02T13:57:20.721Z</time></trkpt><trkpt lat="42.8844833" lon="11.8725867"><ele>630.0</ele><time>2026-05-02T13:57:21.719Z</time></trkpt><trkpt lat="42.88456" lon="11.8725483"><ele>630.0</ele><time>2026-05-02T13:57:22.719Z</time></trkpt><trkpt lat="42.8846267" lon="11.8724933"><ele>630.0</ele><time>2026-05-02T13:57:23.719Z</time></trkpt><trkpt lat="42.8846817" lon="11.8724067"><ele>630.0</ele><time>2026-05-02T13:57:24.722Z</time></trkpt><trkpt lat="42.8847417" lon="11.8723117"><ele>630.0</ele><time>2026-05-02T13:57:25.721Z</time></trkpt><trkpt lat="42.8848117" lon="11.8722283"><ele>630.0</ele><time>2026-05-02T13:57:26.72Z</time></trkpt><trkpt lat="42.884895" lon="11.8721533"><ele>630.0</ele><time>2026-05-02T13:57:27.721Z</time></trkpt><trkpt lat="42.8849917" lon="11.8720967"><ele>630.0</ele><time>2026-05-02T13:57:28.721Z</time></trkpt><trkpt lat="42.88509" lon="11.8720517"><ele>630.0</ele><time>2026-05-02T13:57:29.721Z</time></trkpt><trkpt lat="42.88519" lon="11.8720183"><ele>630.0</ele><time>2026-05-02T13:57:30.721Z</time></trkpt><trkpt lat="42.8852967" lon="11.8719867"><ele>630.0</ele><time>2026-05-02T13:57:31.721Z</time></trkpt><trkpt lat="42.8854017" lon="11.87195"><ele>630.0</ele><time>2026-05-02T13:57:32.719Z</time></trkpt><trkpt lat="42.885505" lon="11.8719217"><ele>630.2</ele><time>2026-05-02T13:57:33.723Z</time></trkpt><trkpt lat="42.8856017" lon="11.8719033"><ele>630.4</ele><time>2026-05-02T13:57:34.72Z</time></trkpt><trkpt lat="42.8857" lon="11.871895"><ele>630.6</ele><time>2026-05-02T13:57:35.719Z</time></trkpt><trkpt lat="42.8858" lon="11.8718967"><ele>630.8</ele><time>2026-05-02T13:57:36.722Z</time></trkpt><trkpt lat="42.88589" lon="11.8718933"><ele>631.0</ele><time>2026-05-02T13:57:37.718Z</time></trkpt><trkpt lat="42.88598" lon="11.8718933"><ele>631.1666666666667</ele><time>2026-05-02T13:57:38.719Z</time></trkpt><trkpt lat="42.8860617" lon="11.8719"><ele>631.3333333333334</ele><time>2026-05-02T13:57:39.72Z</time></trkpt><trkpt lat="42.886145" lon="11.8719017"><ele>631.5</ele><time>2026-05-02T13:57:40.721Z</time></trkpt><trkpt lat="42.88622" lon="11.8718867"><ele>631.6666666666666</ele><time>2026-05-02T13:57:41.718Z</time></trkpt><trkpt lat="42.8863183" lon="11.87179"><ele>631.8333333333333</ele><time>2026-05-02T13:57:43.721Z</time></trkpt><trkpt lat="42.886345" lon="11.8716917"><ele>632.0</ele><time>2026-05-02T13:57:44.722Z</time></trkpt><trkpt lat="42.8863667" lon="11.8715617"><ele>630.6</ele><time>2026-05-02T13:57:45.721Z</time></trkpt><trkpt lat="42.8863933" lon="11.8714083"><ele>629.2</ele><time>2026-05-02T13:57:46.721Z</time></trkpt><trkpt lat="42.8864183" lon="11.871275"><ele>627.8</ele><time>2026-05-02T13:57:47.719Z</time></trkpt><trkpt lat="42.8864467" lon="11.8711583"><ele>626.4</ele><time>2026-05-02T13:57:48.718Z</time></trkpt><trkpt lat="42.88649" lon="11.871055"><ele>625.0</ele><time>2026-05-02T13:57:49.718Z</time></trkpt><trkpt lat="42.88654" lon="11.8709583"><ele>625.8</ele><time>2026-05-02T13:57:50.719Z</time></trkpt><trkpt lat="42.8865983" lon="11.87087"><ele>626.6</ele><time>2026-05-02T13:57:51.72Z</time></trkpt><trkpt lat="42.886665" lon="11.8707883"><ele>627.4</ele><time>2026-05-02T13:57:52.718Z</time></trkpt><trkpt lat="42.8867417" lon="11.87071"><ele>628.2</ele><time>2026-05-02T13:57:53.719Z</time></trkpt><trkpt lat="42.8868167" lon="11.8706467"><ele>629.0</ele><time>2026-05-02T13:57:54.722Z</time></trkpt><trkpt lat="42.8868967" lon="11.8705883"><ele>629.0</ele><time>2026-05-02T13:57:55.718Z</time></trkpt><trkpt lat="42.8869817" lon="11.8705267"><ele>629.0</ele><time>2026-05-02T13:57:56.719Z</time></trkpt><trkpt lat="42.8870717" lon="11.87047"><ele>629.0</ele><time>2026-05-02T13:57:57.721Z</time></trkpt><trkpt lat="42.8871683" lon="11.8704183"><ele>629.0</ele><time>2026-05-02T13:57:58.721Z</time></trkpt><trkpt lat="42.88727" lon="11.87037"><ele>629.0</ele><time>2026-05-02T13:57:59.721Z</time></trkpt><trkpt lat="42.887365" lon="11.8703233"><ele>629.0</ele><time>2026-05-02T13:58:00.721Z</time></trkpt><trkpt lat="42.88746" lon="11.870275"><ele>629.0</ele><time>2026-05-02T13:58:01.721Z</time></trkpt><trkpt lat="42.8875567" lon="11.8702183"><ele>629.0</ele><time>2026-05-02T13:58:02.722Z</time></trkpt><trkpt lat="42.8876617" lon="11.8701467"><ele>629.0</ele><time>2026-05-02T13:58:03.721Z</time></trkpt><trkpt lat="42.8877633" lon="11.870065"><ele>629.0</ele><time>2026-05-02T13:58:04.718Z</time></trkpt><trkpt lat="42.887865" lon="11.8699783"><ele>626.8</ele><time>2026-05-02T13:58:05.718Z</time></trkpt><trkpt lat="42.88796" lon="11.8698983"><ele>624.5999999999999</ele><time>2026-05-02T13:58:06.718Z</time></trkpt><trkpt lat="42.88805" lon="11.8698283"><ele>622.4</ele><time>2026-05-02T13:58:07.718Z</time></trkpt><trkpt lat="42.8881367" lon="11.8697717"><ele>620.1999999999999</ele><time>2026-05-02T13:58:08.718Z</time></trkpt><trkpt lat="42.8882283" lon="11.8697233"><ele>618.0</ele><time>2026-05-02T13:58:09.718Z</time></trkpt><trkpt lat="42.88831" lon="11.86967"><ele>618.0</ele><time>2026-05-02T13:58:10.718Z</time></trkpt><trkpt lat="42.8883833" lon="11.8696033"><ele>618.0</ele><time>2026-05-02T13:58:11.721Z</time></trkpt><trkpt lat="42.8884483" lon="11.8695183"><ele>618.0</ele><time>2026-05-02T13:58:12.721Z</time></trkpt><trkpt lat="42.8885167" lon="11.8694183"><ele>618.0</ele><time>2026-05-02T13:58:13.723Z</time></trkpt><trkpt lat="42.8885767" lon="11.8693267"><ele>618.0</ele><time>2026-05-02T13:58:14.718Z</time></trkpt><trkpt lat="42.8886267" lon="11.869255"><ele>618.0</ele><time>2026-05-02T13:58:15.718Z</time></trkpt><trkpt lat="42.8886983" lon="11.8691233"><ele>617.3333333333334</ele><time>2026-05-02T13:58:17.718Z</time></trkpt><trkpt lat="42.888735" lon="11.8690467"><ele>616.6666666666666</ele><time>2026-05-02T13:58:18.718Z</time></trkpt><trkpt lat="42.8887733" lon="11.8689567"><ele>616.0</ele><time>2026-05-02T13:58:19.718Z</time></trkpt><trkpt lat="42.8888133" lon="11.8688567"><ele>615.3333333333333</ele><time>2026-05-02T13:58:20.719Z</time></trkpt><trkpt lat="42.88885" lon="11.8687483"><ele>614.6666666666666</ele><time>2026-05-02T13:58:21.719Z</time></trkpt><trkpt lat="42.8888783" lon="11.8686367"><ele>614.0</ele><time>2026-05-02T13:58:22.718Z</time></trkpt><trkpt lat="42.8889017" lon="11.868515"><ele>613.1666666666666</ele><time>2026-05-02T13:58:23.718Z</time></trkpt><trkpt lat="42.888925" lon="11.8683883"><ele>612.3333333333333</ele><time>2026-05-02T13:58:24.719Z</time></trkpt><trkpt lat="42.8889467" lon="11.8682667"><ele>611.5</ele><time>2026-05-02T13:58:25.721Z</time></trkpt><trkpt lat="42.8889683" lon="11.8681517"><ele>610.6666666666666</ele><time>2026-05-02T13:58:26.719Z</time></trkpt><trkpt lat="42.8889967" lon="11.8680583"><ele>609.8333333333334</ele><time>2026-05-02T13:58:27.719Z</time></trkpt><trkpt lat="42.8890467" lon="11.8679783"><ele>609.0</ele><time>2026-05-02T13:58:28.721Z</time></trkpt><trkpt lat="42.8891117" lon="11.8679183"><ele>609.0</ele><time>2026-05-02T13:58:29.718Z</time></trkpt><trkpt lat="42.8891883" lon="11.8678633"><ele>609.0</ele><time>2026-05-02T13:58:30.718Z</time></trkpt><trkpt lat="42.8892883" lon="11.8678117"><ele>609.0</ele><time>2026-05-02T13:58:31.721Z</time></trkpt><trkpt lat="42.889395" lon="11.86776"><ele>609.0</ele><time>2026-05-02T13:58:32.718Z</time></trkpt><trkpt lat="42.8894867" lon="11.8677"><ele>609.0</ele><time>2026-05-02T13:58:33.718Z</time></trkpt><trkpt lat="42.889575" lon="11.86764"><ele>608.5</ele><time>2026-05-02T13:58:34.719Z</time></trkpt><trkpt lat="42.8896583" lon="11.86757"><ele>608.0</ele><time>2026-05-02T13:58:35.722Z</time></trkpt><trkpt lat="42.8897383" lon="11.8675017"><ele>607.5</ele><time>2026-05-02T13:58:36.719Z</time></trkpt><trkpt lat="42.8898133" lon="11.8674467"><ele>607.0</ele><time>2026-05-02T13:58:37.719Z</time></trkpt><trkpt lat="42.88989" lon="11.8674017"><ele>606.5</ele><time>2026-05-02T13:58:38.718Z</time></trkpt><trkpt lat="42.88997" lon="11.8673633"><ele>606.0</ele><time>2026-05-02T13:58:39.718Z</time></trkpt><trkpt lat="42.8900633" lon="11.8673317"><ele>604.8</ele><time>2026-05-02T13:58:40.719Z</time></trkpt><trkpt lat="42.8901633" lon="11.86731"><ele>603.6</ele><time>2026-05-02T13:58:41.721Z</time></trkpt><trkpt lat="42.890265" lon="11.867305"><ele>602.4</ele><time>2026-05-02T13:58:42.718Z</time></trkpt><trkpt lat="42.89037" lon="11.8673083"><ele>601.2</ele><time>2026-05-02T13:58:43.722Z</time></trkpt><trkpt lat="42.89048" lon="11.8673217"><ele>600.0</ele><time>2026-05-02T13:58:44.718Z</time></trkpt><trkpt lat="42.8905933" lon="11.8673433"><ele>600.0</ele><time>2026-05-02T13:58:45.721Z</time></trkpt><trkpt lat="42.890705" lon="11.867375"><ele>600.0</ele><time>2026-05-02T13:58:46.721Z</time></trkpt><trkpt lat="42.8908117" lon="11.8674083"><ele>600.0</ele><time>2026-05-02T13:58:47.721Z</time></trkpt><trkpt lat="42.8909067" lon="11.8674467"><ele>600.0</ele><time>2026-05-02T13:58:48.718Z</time></trkpt><trkpt lat="42.8909917" lon="11.8674767"><ele>600.0</ele><time>2026-05-02T13:58:49.719Z</time></trkpt><trkpt lat="42.8910717" lon="11.8674933"><ele>600.0</ele><time>2026-05-02T13:58:50.719Z</time></trkpt><trkpt lat="42.8911517" lon="11.8674883"><ele>600.0</ele><time>2026-05-02T13:58:51.718Z</time></trkpt><trkpt lat="42.8912317" lon="11.8674467"><ele>600.0</ele><time>2026-05-02T13:58:52.718Z</time></trkpt><trkpt lat="42.8913117" lon="11.8673767"><ele>600.0</ele><time>2026-05-02T13:58:53.718Z</time></trkpt><trkpt lat="42.89139" lon="11.867305"><ele>600.0</ele><time>2026-05-02T13:58:54.719Z</time></trkpt><trkpt lat="42.8914633" lon="11.867235"><ele>600.0</ele><time>2026-05-02T13:58:55.719Z</time></trkpt><trkpt lat="42.8915383" lon="11.8671783"><ele>600.0</ele><time>2026-05-02T13:58:56.719Z</time></trkpt><trkpt lat="42.89161" lon="11.8671167"><ele>600.0</ele><time>2026-05-02T13:58:57.718Z</time></trkpt><trkpt lat="42.891685" lon="11.8670533"><ele>600.0</ele><time>2026-05-02T13:58:58.718Z</time></trkpt><trkpt lat="42.8917617" lon="11.866985"><ele>600.0</ele><time>2026-05-02T13:58:59.718Z</time></trkpt><trkpt lat="42.8918383" lon="11.8669233"><ele>600.0</ele><time>2026-05-02T13:59:00.719Z</time></trkpt><trkpt lat="42.891925" lon="11.8668733"><ele>600.0</ele><time>2026-05-02T13:59:01.719Z</time></trkpt><trkpt lat="42.892015" lon="11.8668267"><ele>600.5</ele><time>2026-05-02T13:59:02.72Z</time></trkpt><trkpt lat="42.8921" lon="11.86679"><ele>601.0</ele><time>2026-05-02T13:59:03.718Z</time></trkpt><trkpt lat="42.892175" lon="11.86676"><ele>601.5</ele><time>2026-05-02T13:59:04.718Z</time></trkpt><trkpt lat="42.8922483" lon="11.8667367"><ele>602.0</ele><time>2026-05-02T13:59:05.722Z</time></trkpt><trkpt lat="42.8923167" lon="11.866745"><ele>602.5</ele><time>2026-05-02T13:59:06.72Z</time></trkpt><trkpt lat="42.892375" lon="11.8667817"><ele>603.0</ele><time>2026-05-02T13:59:07.719Z</time></trkpt><trkpt lat="42.89244" lon="11.8668517"><ele>603.0</ele><time>2026-05-02T13:59:08.718Z</time></trkpt><trkpt lat="42.8925017" lon="11.8669283"><ele>603.0</ele><time>2026-05-02T13:59:09.718Z</time></trkpt><trkpt lat="42.892565" lon="11.866995"><ele>603.0</ele><time>2026-05-02T13:59:10.719Z</time></trkpt><trkpt lat="42.892635" lon="11.8670317"><ele>603.0</ele><time>2026-05-02T13:59:11.722Z</time></trkpt><trkpt lat="42.8927117" lon="11.867035"><ele>603.0</ele><time>2026-05-02T13:59:12.718Z</time></trkpt><trkpt lat="42.8927867" lon="11.867005"><ele>603.0</ele><time>2026-05-02T13:59:13.719Z</time></trkpt><trkpt lat="42.8928533" lon="11.8669317"><ele>602.0</ele><time>2026-05-02T13:59:14.719Z</time></trkpt><trkpt lat="42.8929067" lon="11.8668517"><ele>601.0</ele><time>2026-05-02T13:59:15.72Z</time></trkpt><trkpt lat="42.89294" lon="11.8667417"><ele>600.0</ele><time>2026-05-02T13:59:16.72Z</time></trkpt><trkpt lat="42.8929533" lon="11.86662"><ele>599.0</ele><time>2026-05-02T13:59:17.719Z</time></trkpt><trkpt lat="42.8929483" lon="11.866495"><ele>598.0</ele><time>2026-05-02T13:59:18.719Z</time></trkpt><trkpt lat="42.8929267" lon="11.866365"><ele>597.0</ele><time>2026-05-02T13:59:19.719Z</time></trkpt><trkpt lat="42.892905" lon="11.86624"><ele>597.0</ele><time>2026-05-02T13:59:20.72Z</time></trkpt><trkpt lat="42.8928717" lon="11.8661117"><ele>597.0</ele><time>2026-05-02T13:59:21.72Z</time></trkpt><trkpt lat="42.8928433" lon="11.865985"><ele>597.0</ele><time>2026-05-02T13:59:22.719Z</time></trkpt><trkpt lat="42.892815" lon="11.8658683"><ele>597.0</ele><time>2026-05-02T13:59:23.72Z</time></trkpt><trkpt lat="42.892795" lon="11.865765"><ele>597.0</ele><time>2026-05-02T13:59:24.722Z</time></trkpt><trkpt lat="42.8927817" lon="11.8656683"><ele>597.0</ele><time>2026-05-02T13:59:25.721Z</time></trkpt><trkpt lat="42.8927817" lon="11.8655733"><ele>594.0</ele><time>2026-05-02T13:59:26.722Z</time></trkpt><trkpt lat="42.8927967" lon="11.865485"><ele>591.0</ele><time>2026-05-02T13:59:27.721Z</time></trkpt><trkpt lat="42.8928217" lon="11.8654017"><ele>588.0</ele><time>2026-05-02T13:59:28.721Z</time></trkpt><trkpt lat="42.8928517" lon="11.865325"><ele>585.0</ele><time>2026-05-02T13:59:29.721Z</time></trkpt><trkpt lat="42.892935" lon="11.8651817"><ele>582.0</ele><time>2026-05-02T13:59:31.718Z</time></trkpt><trkpt lat="42.8929983" lon="11.86511"><ele>579.0</ele><time>2026-05-02T13:59:32.719Z</time></trkpt><trkpt lat="42.89307" lon="11.8650517"><ele>577.2</ele><time>2026-05-02T13:59:33.72Z</time></trkpt><trkpt lat="42.8931517" lon="11.8650117"><ele>575.4</ele><time>2026-05-02T13:59:34.721Z</time></trkpt><trkpt lat="42.893235" lon="11.8649833"><ele>573.6</ele><time>2026-05-02T13:59:35.719Z</time></trkpt><trkpt lat="42.8933267" lon="11.8649633"><ele>571.8</ele><time>2026-05-02T13:59:36.721Z</time></trkpt><trkpt lat="42.893445" lon="11.86496"><ele>570.0</ele><time>2026-05-02T13:59:37.719Z</time></trkpt><trkpt lat="42.8935517" lon="11.8649483"><ele>570.0</ele><time>2026-05-02T13:59:38.718Z</time></trkpt><trkpt lat="42.89365" lon="11.86495"><ele>570.0</ele><time>2026-05-02T13:59:39.719Z</time></trkpt><trkpt lat="42.893735" lon="11.8649583"><ele>570.0</ele><time>2026-05-02T13:59:40.718Z</time></trkpt><trkpt lat="42.8938033" lon="11.8649733"><ele>570.0</ele><time>2026-05-02T13:59:41.719Z</time></trkpt><trkpt lat="42.89391" lon="11.86499"><ele>570.0</ele><time>2026-05-02T13:59:43.719Z</time></trkpt><trkpt lat="42.8940117" lon="11.86498"><ele>570.0</ele><time>2026-05-02T13:59:45.718Z</time></trkpt><trkpt lat="42.894115" lon="11.8649333"><ele>570.0</ele><time>2026-05-02T13:59:47.719Z</time></trkpt><trkpt lat="42.8942267" lon="11.86487"><ele>570.0</ele><time>2026-05-02T13:59:49.719Z</time></trkpt><trkpt lat="42.8943167" lon="11.86478"><ele>570.0</ele><time>2026-05-02T13:59:51.718Z</time></trkpt><trkpt lat="42.894405" lon="11.86466"><ele>571.7142857142857</ele><time>2026-05-02T13:59:53.722Z</time></trkpt><trkpt lat="42.894455" lon="11.864605"><ele>573.4285714285714</ele><time>2026-05-02T13:59:54.721Z</time></trkpt><trkpt lat="42.8945117" lon="11.8645517"><ele>575.1428571428571</ele><time>2026-05-02T13:59:55.721Z</time></trkpt><trkpt lat="42.8945683" lon="11.8645083"><ele>576.8571428571429</ele><time>2026-05-02T13:59:56.721Z</time></trkpt><trkpt lat="42.8946283" lon="11.86447"><ele>578.5714285714286</ele><time>2026-05-02T13:59:57.721Z</time></trkpt><trkpt lat="42.89469" lon="11.8644467"><ele>580.2857142857142</ele><time>2026-05-02T13:59:58.718Z</time></trkpt><trkpt lat="42.8947567" lon="11.8644317"><ele>582.0</ele><time>2026-05-02T13:59:59.721Z</time></trkpt><trkpt lat="42.8948283" lon="11.8644467"><ele>582.0</ele><time>2026-05-02T14:00:00.722Z</time></trkpt><trkpt lat="42.894895" lon="11.8644617"><ele>582.0</ele><time>2026-05-02T14:00:01.718Z</time></trkpt><trkpt lat="42.89496" lon="11.86449"><ele>582.0</ele><time>2026-05-02T14:00:02.718Z</time></trkpt><trkpt lat="42.895025" lon="11.8645233"><ele>582.0</ele><time>2026-05-02T14:00:03.718Z</time></trkpt><trkpt lat="42.8950867" lon="11.864555"><ele>582.0</ele><time>2026-05-02T14:00:04.719Z</time></trkpt><trkpt lat="42.895205" lon="11.864585"><ele>582.0</ele><time>2026-05-02T14:00:06.72Z</time></trkpt><trkpt lat="42.8952683" lon="11.8645817"><ele>579.8333333333334</ele><time>2026-05-02T14:00:07.72Z</time></trkpt><trkpt lat="42.89537" lon="11.8645"><ele>577.6666666666666</ele><time>2026-05-02T14:00:09.719Z</time></trkpt><trkpt lat="42.8954117" lon="11.86443"><ele>575.5</ele><time>2026-05-02T14:00:10.72Z</time></trkpt><trkpt lat="42.8954333" lon="11.86433"><ele>573.3333333333333</ele><time>2026-05-02T14:00:11.72Z</time></trkpt><trkpt lat="42.8954483" lon="11.864225"><ele>571.1666666666666</ele><time>2026-05-02T14:00:12.721Z</time></trkpt><trkpt lat="42.8954717" lon="11.8641083"><ele>569.0</ele><time>2026-05-02T14:00:13.721Z</time></trkpt><trkpt lat="42.8955" lon="11.864005"><ele>569.0</ele><time>2026-05-02T14:00:14.721Z</time></trkpt><trkpt lat="42.89553" lon="11.86391"><ele>569.0</ele><time>2026-05-02T14:00:15.719Z</time></trkpt><trkpt lat="42.8955633" lon="11.8638233"><ele>569.0</ele><time>2026-05-02T14:00:16.718Z</time></trkpt><trkpt lat="42.8956117" lon="11.8637367"><ele>569.0</ele><time>2026-05-02T14:00:17.719Z</time></trkpt><trkpt lat="42.89567" lon="11.863645"><ele>569.0</ele><time>2026-05-02T14:00:18.721Z</time></trkpt><trkpt lat="42.8957317" lon="11.8635533"><ele>569.0</ele><time>2026-05-02T14:00:19.72Z</time></trkpt><trkpt lat="42.895795" lon="11.863465"><ele>569.6</ele><time>2026-05-02T14:00:20.723Z</time></trkpt><trkpt lat="42.8958567" lon="11.86338"><ele>570.2</ele><time>2026-05-02T14:00:21.721Z</time></trkpt><trkpt lat="42.89592" lon="11.8632967"><ele>570.8000000000001</ele><time>2026-05-02T14:00:22.721Z</time></trkpt><trkpt lat="42.8959883" lon="11.86322"><ele>571.4</ele><time>2026-05-02T14:00:23.721Z</time></trkpt><trkpt lat="42.8960617" lon="11.8631467"><ele>572.0</ele><time>2026-05-02T14:00:24.721Z</time></trkpt><trkpt lat="42.8961467" lon="11.863085"><ele>572.0</ele><time>2026-05-02T14:00:25.721Z</time></trkpt><trkpt lat="42.89623" lon="11.8630233"><ele>572.0</ele><time>2026-05-02T14:00:26.722Z</time></trkpt><trkpt lat="42.8963167" lon="11.8629467"><ele>572.0</ele><time>2026-05-02T14:00:27.721Z</time></trkpt><trkpt lat="42.896405" lon="11.8628683"><ele>572.0</ele><time>2026-05-02T14:00:28.718Z</time></trkpt><trkpt lat="42.8964867" lon="11.862775"><ele>572.0</ele><time>2026-05-02T14:00:29.719Z</time></trkpt><trkpt lat="42.8965633" lon="11.8626683"><ele>573.0</ele><time>2026-05-02T14:00:30.72Z</time></trkpt><trkpt lat="42.8966267" lon="11.8625483"><ele>574.0</ele><time>2026-05-02T14:00:31.719Z</time></trkpt><trkpt lat="42.8966817" lon="11.862425"><ele>575.0</ele><time>2026-05-02T14:00:32.721Z</time></trkpt><trkpt lat="42.8967267" lon="11.8623183"><ele>576.0</ele><time>2026-05-02T14:00:33.721Z</time></trkpt><trkpt lat="42.8967767" lon="11.8622233"><ele>577.0</ele><time>2026-05-02T14:00:34.718Z</time></trkpt><trkpt lat="42.8968367" lon="11.8621367"><ele>577.0</ele><time>2026-05-02T14:00:35.719Z</time></trkpt><trkpt lat="42.8968983" lon="11.8620533"><ele>577.0</ele><time>2026-05-02T14:00:36.719Z</time></trkpt><trkpt lat="42.8969633" lon="11.861975"><ele>577.0</ele><time>2026-05-02T14:00:37.719Z</time></trkpt><trkpt lat="42.8970217" lon="11.86191"><ele>577.0</ele><time>2026-05-02T14:00:38.719Z</time></trkpt><trkpt lat="42.8970767" lon="11.8618567"><ele>577.0</ele><time>2026-05-02T14:00:39.719Z</time></trkpt><trkpt lat="42.8971767" lon="11.8617783"><ele>577.0</ele><time>2026-05-02T14:00:41.718Z</time></trkpt><trkpt lat="42.8972833" lon="11.8617033"><ele>577.0</ele><time>2026-05-02T14:00:43.72Z</time></trkpt><trkpt lat="42.8973883" lon="11.8616367"><ele>577.0</ele><time>2026-05-02T14:00:45.719Z</time></trkpt><trkpt lat="42.8974483" lon="11.861605"><ele>577.0</ele><time>2026-05-02T14:00:46.719Z</time></trkpt><trkpt lat="42.8975133" lon="11.861575"><ele>577.0</ele><time>2026-05-02T14:00:47.719Z</time></trkpt><trkpt lat="42.8975833" lon="11.8615517"><ele>577.0</ele><time>2026-05-02T14:00:48.723Z</time></trkpt><trkpt lat="42.8976533" lon="11.8615317"><ele>577.0</ele><time>2026-05-02T14:00:49.721Z</time></trkpt><trkpt lat="42.8977267" lon="11.8615233"><ele>577.0</ele><time>2026-05-02T14:00:50.722Z</time></trkpt><trkpt lat="42.8978067" lon="11.861525"><ele>577.0</ele><time>2026-05-02T14:00:51.721Z</time></trkpt><trkpt lat="42.8978883" lon="11.861525"><ele>577.0</ele><time>2026-05-02T14:00:52.721Z</time></trkpt><trkpt lat="42.8979733" lon="11.8615267"><ele>577.0</ele><time>2026-05-02T14:00:53.72Z</time></trkpt><trkpt lat="42.8980633" lon="11.8615333"><ele>577.0</ele><time>2026-05-02T14:00:54.72Z</time></trkpt><trkpt lat="42.898175" lon="11.8615467"><ele>577.0</ele><time>2026-05-02T14:00:55.72Z</time></trkpt><trkpt lat="42.898305" lon="11.8615667"><ele>578.5</ele><time>2026-05-02T14:00:56.72Z</time></trkpt><trkpt lat="42.89844" lon="11.8615867"><ele>580.0</ele><time>2026-05-02T14:00:57.719Z</time></trkpt><trkpt lat="42.898575" lon="11.8616033"><ele>581.5</ele><time>2026-05-02T14:00:58.721Z</time></trkpt><trkpt lat="42.8986933" lon="11.8616083"><ele>583.0</ele><time>2026-05-02T14:00:59.719Z</time></trkpt><trkpt lat="42.8988" lon="11.8616117"><ele>583.0</ele><time>2026-05-02T14:01:00.72Z</time></trkpt><trkpt lat="42.898905" lon="11.86162"><ele>583.0</ele><time>2026-05-02T14:01:01.72Z</time></trkpt><trkpt lat="42.8990167" lon="11.8616317"><ele>583.0</ele><time>2026-05-02T14:01:02.722Z</time></trkpt><trkpt lat="42.8991383" lon="11.8616467"><ele>583.0</ele><time>2026-05-02T14:01:03.718Z</time></trkpt><trkpt lat="42.8992683" lon="11.8616633"><ele>583.25</ele><time>2026-05-02T14:01:04.718Z</time></trkpt><trkpt lat="42.8994033" lon="11.8616783"><ele>583.5</ele><time>2026-05-02T14:01:05.719Z</time></trkpt><trkpt lat="42.89954" lon="11.861695"><ele>583.75</ele><time>2026-05-02T14:01:06.719Z</time></trkpt><trkpt lat="42.8996767" lon="11.861715"><ele>584.0</ele><time>2026-05-02T14:01:07.719Z</time></trkpt><trkpt lat="42.8998133" lon="11.8617317"><ele>584.0</ele><time>2026-05-02T14:01:08.719Z</time></trkpt><trkpt lat="42.8999583" lon="11.8617467"><ele>584.0</ele><time>2026-05-02T14:01:09.72Z</time></trkpt><trkpt lat="42.9001083" lon="11.86176"><ele>584.0</ele><time>2026-05-02T14:01:10.718Z</time></trkpt><trkpt lat="42.9002617" lon="11.861775"><ele>589.6666666666666</ele><time>2026-05-02T14:01:11.721Z</time></trkpt><trkpt lat="42.9004167" lon="11.861795"><ele>595.3333333333334</ele><time>2026-05-02T14:01:12.718Z</time></trkpt><trkpt lat="42.9005667" lon="11.8618133"><ele>601.0</ele><time>2026-05-02T14:01:13.719Z</time></trkpt><trkpt lat="42.900715" lon="11.86183"><ele>601.0</ele><time>2026-05-02T14:01:14.718Z</time></trkpt><trkpt lat="42.9008683" lon="11.8618467"><ele>601.0</ele><time>2026-05-02T14:01:15.72Z</time></trkpt><trkpt lat="42.901015" lon="11.8618633"><ele>601.0</ele><time>2026-05-02T14:01:16.718Z</time></trkpt><trkpt lat="42.90116" lon="11.8618783"><ele>601.0</ele><time>2026-05-02T14:01:17.719Z</time></trkpt><trkpt lat="42.901305" lon="11.8618967"><ele>603.0</ele><time>2026-05-02T14:01:18.719Z</time></trkpt><trkpt lat="42.90145" lon="11.8619167"><ele>605.0</ele><time>2026-05-02T14:01:19.718Z</time></trkpt><trkpt lat="42.9015933" lon="11.861935"><ele>607.0</ele><time>2026-05-02T14:01:20.719Z</time></trkpt><trkpt lat="42.901735" lon="11.8619533"><ele>609.0</ele><time>2026-05-02T14:01:21.719Z</time></trkpt><trkpt lat="42.9018683" lon="11.8619667"><ele>610.25</ele><time>2026-05-02T14:01:22.718Z</time></trkpt><trkpt lat="42.9019933" lon="11.8619817"><ele>611.5</ele><time>2026-05-02T14:01:23.719Z</time></trkpt><trkpt lat="42.90212" lon="11.862005"><ele>612.75</ele><time>2026-05-02T14:01:24.719Z</time></trkpt><trkpt lat="42.9022417" lon="11.8620233"><ele>614.0</ele><time>2026-05-02T14:01:25.719Z</time></trkpt><trkpt lat="42.902355" lon="11.862035"><ele>614.0</ele><time>2026-05-02T14:01:26.719Z</time></trkpt><trkpt lat="42.9024617" lon="11.8620483"><ele>614.0</ele><time>2026-05-02T14:01:27.718Z</time></trkpt><trkpt lat="42.902565" lon="11.8620517"><ele>614.0</ele><time>2026-05-02T14:01:28.719Z</time></trkpt><trkpt lat="42.9026617" lon="11.8620367"><ele>614.0</ele><time>2026-05-02T14:01:29.72Z</time></trkpt><trkpt lat="42.90276" lon="11.862"><ele>614.0</ele><time>2026-05-02T14:01:30.719Z</time></trkpt><trkpt lat="42.9028617" lon="11.8619467"><ele>612.6</ele><time>2026-05-02T14:01:31.719Z</time></trkpt><trkpt lat="42.9029683" lon="11.8618817"><ele>611.2</ele><time>2026-05-02T14:01:32.719Z</time></trkpt><trkpt lat="42.9030633" lon="11.861805"><ele>609.8000000000001</ele><time>2026-05-02T14:01:33.719Z</time></trkpt><trkpt lat="42.903155" lon="11.86174"><ele>608.4</ele><time>2026-05-02T14:01:34.718Z</time></trkpt><trkpt lat="42.9032367" lon="11.861685"><ele>607.0</ele><time>2026-05-02T14:01:35.72Z</time></trkpt><trkpt lat="42.903315" lon="11.8616317"><ele>607.0</ele><time>2026-05-02T14:01:36.72Z</time></trkpt><trkpt lat="42.903385" lon="11.8615633"><ele>607.0</ele><time>2026-05-02T14:01:37.721Z</time></trkpt><trkpt lat="42.9034317" lon="11.861475"><ele>607.0</ele><time>2026-05-02T14:01:38.719Z</time></trkpt><trkpt lat="42.90347" lon="11.861375"><ele>607.0</ele><time>2026-05-02T14:01:39.719Z</time></trkpt><trkpt lat="42.9034983" lon="11.8612633"><ele>607.0</ele><time>2026-05-02T14:01:40.719Z</time></trkpt><trkpt lat="42.9035283" lon="11.8611517"><ele>607.0</ele><time>2026-05-02T14:01:41.719Z</time></trkpt><trkpt lat="42.903565" lon="11.86104"><ele>606.0</ele><time>2026-05-02T14:01:42.718Z</time></trkpt><trkpt lat="42.9036167" lon="11.8609167"><ele>605.0</ele><time>2026-05-02T14:01:43.72Z</time></trkpt><trkpt lat="42.9036833" lon="11.86079"><ele>604.0</ele><time>2026-05-02T14:01:44.72Z</time></trkpt><trkpt lat="42.903775" lon="11.8606533"><ele>603.0</ele><time>2026-05-02T14:01:45.719Z</time></trkpt><trkpt lat="42.9038767" lon="11.86051"><ele>603.0</ele><time>2026-05-02T14:01:46.718Z</time></trkpt><trkpt lat="42.9039867" lon="11.8603717"><ele>603.0</ele><time>2026-05-02T14:01:47.718Z</time></trkpt><trkpt lat="42.9040933" lon="11.8602267"><ele>603.0</ele><time>2026-05-02T14:01:48.719Z</time></trkpt><trkpt lat="42.90421" lon="11.8600567"><ele>600.3333333333334</ele><time>2026-05-02T14:01:49.718Z</time></trkpt><trkpt lat="42.9043167" lon="11.859895"><ele>597.6666666666667</ele><time>2026-05-02T14:01:50.719Z</time></trkpt><trkpt lat="42.9044217" lon="11.85974"><ele>595.0</ele><time>2026-05-02T14:01:51.719Z</time></trkpt><trkpt lat="42.9045283" lon="11.859585"><ele>595.0</ele><time>2026-05-02T14:01:52.718Z</time></trkpt><trkpt lat="42.90464" lon="11.8594417"><ele>595.0</ele><time>2026-05-02T14:01:53.719Z</time></trkpt><trkpt lat="42.90474" lon="11.8592983"><ele>595.0</ele><time>2026-05-02T14:01:54.719Z</time></trkpt><trkpt lat="42.9048383" lon="11.8591617"><ele>595.0</ele><time>2026-05-02T14:01:55.718Z</time></trkpt><trkpt lat="42.9049167" lon="11.859045"><ele>595.0</ele><time>2026-05-02T14:01:56.721Z</time></trkpt><trkpt lat="42.9049967" lon="11.8589367"><ele>595.0</ele><time>2026-05-02T14:01:57.719Z</time></trkpt><trkpt lat="42.9050667" lon="11.85884"><ele>595.0</ele><time>2026-05-02T14:01:58.721Z</time></trkpt><trkpt lat="42.9051383" lon="11.8587383"><ele>595.0</ele><time>2026-05-02T14:01:59.719Z</time></trkpt><trkpt lat="42.9052267" lon="11.858645"><ele>595.0</ele><time>2026-05-02T14:02:00.723Z</time></trkpt><trkpt lat="42.9053333" lon="11.8585633"><ele>595.0</ele><time>2026-05-02T14:02:01.72Z</time></trkpt><trkpt lat="42.9054433" lon="11.8585133"><ele>595.0</ele><time>2026-05-02T14:02:02.721Z</time></trkpt><trkpt lat="42.905555" lon="11.8584783"><ele>595.0</ele><time>2026-05-02T14:02:03.719Z</time></trkpt><trkpt lat="42.9056667" lon="11.8584433"><ele>595.0</ele><time>2026-05-02T14:02:04.718Z</time></trkpt><trkpt lat="42.90578" lon="11.85841"><ele>593.75</ele><time>2026-05-02T14:02:05.719Z</time></trkpt><trkpt lat="42.9058867" lon="11.8583733"><ele>592.5</ele><time>2026-05-02T14:02:06.723Z</time></trkpt><trkpt lat="42.9060017" lon="11.8583283"><ele>591.25</ele><time>2026-05-02T14:02:07.718Z</time></trkpt><trkpt lat="42.9061167" lon="11.8582833"><ele>590.0</ele><time>2026-05-02T14:02:08.719Z</time></trkpt><trkpt lat="42.9062367" lon="11.858245"><ele>590.0</ele><time>2026-05-02T14:02:09.722Z</time></trkpt><trkpt lat="42.9063583" lon="11.858205"><ele>590.0</ele><time>2026-05-02T14:02:10.718Z</time></trkpt><trkpt lat="42.9064817" lon="11.8581633"><ele>590.0</ele><time>2026-05-02T14:02:11.72Z</time></trkpt><trkpt lat="42.9066067" lon="11.8581217"><ele>590.0</ele><time>2026-05-02T14:02:12.72Z</time></trkpt><trkpt lat="42.9067283" lon="11.8580783"><ele>593.75</ele><time>2026-05-02T14:02:13.719Z</time></trkpt><trkpt lat="42.9068517" lon="11.858045"><ele>597.5</ele><time>2026-05-02T14:02:14.719Z</time></trkpt><trkpt lat="42.90698" lon="11.8580233"><ele>601.25</ele><time>2026-05-02T14:02:15.719Z</time></trkpt><trkpt lat="42.9071033" lon="11.8579967"><ele>605.0</ele><time>2026-05-02T14:02:16.719Z</time></trkpt><trkpt lat="42.907225" lon="11.8579733"><ele>605.0</ele><time>2026-05-02T14:02:17.72Z</time></trkpt><trkpt lat="42.9073483" lon="11.8579483"><ele>605.0</ele><time>2026-05-02T14:02:18.72Z</time></trkpt><trkpt lat="42.9074733" lon="11.8579317"><ele>605.0</ele><time>2026-05-02T14:02:19.719Z</time></trkpt><trkpt lat="42.9075983" lon="11.8579067"><ele>605.0</ele><time>2026-05-02T14:02:20.719Z</time></trkpt><trkpt lat="42.9077267" lon="11.8578833"><ele>608.25</ele><time>2026-05-02T14:02:21.719Z</time></trkpt><trkpt lat="42.9078583" lon="11.8578567"><ele>611.5</ele><time>2026-05-02T14:02:22.719Z</time></trkpt><trkpt lat="42.9079917" lon="11.85783"><ele>614.75</ele><time>2026-05-02T14:02:23.718Z</time></trkpt><trkpt lat="42.9081283" lon="11.8577983"><ele>618.0</ele><time>2026-05-02T14:02:24.719Z</time></trkpt><trkpt lat="42.9082717" lon="11.8577667"><ele>623.0</ele><time>2026-05-02T14:02:25.719Z</time></trkpt><trkpt lat="42.90842" lon="11.8577367"><ele>628.0</ele><time>2026-05-02T14:02:26.721Z</time></trkpt><trkpt lat="42.90857" lon="11.85771"><ele>633.0</ele><time>2026-05-02T14:02:27.719Z</time></trkpt><trkpt lat="42.9087233" lon="11.85769"><ele>633.0</ele><time>2026-05-02T14:02:28.721Z</time></trkpt><trkpt lat="42.90886" lon="11.85766"><ele>633.0</ele><time>2026-05-02T14:02:29.722Z</time></trkpt><trkpt lat="42.9089817" lon="11.8576267"><ele>633.0</ele><time>2026-05-02T14:02:30.719Z</time></trkpt><trkpt lat="42.9090883" lon="11.85759"><ele>633.0</ele><time>2026-05-02T14:02:31.72Z</time></trkpt><trkpt lat="42.9091767" lon="11.8575433"><ele>632.0</ele><time>2026-05-02T14:02:32.72Z</time></trkpt><trkpt lat="42.9092583" lon="11.8574783"><ele>631.0</ele><time>2026-05-02T14:02:33.721Z</time></trkpt><trkpt lat="42.9093467" lon="11.8574033"><ele>630.0</ele><time>2026-05-02T14:02:34.72Z</time></trkpt><trkpt lat="42.90944" lon="11.85732"><ele>629.0</ele><time>2026-05-02T14:02:35.719Z</time></trkpt><trkpt lat="42.9095267" lon="11.8572417"><ele>628.0</ele><time>2026-05-02T14:02:36.719Z</time></trkpt><trkpt lat="42.90961" lon="11.85715"><ele>628.0</ele><time>2026-05-02T14:02:37.719Z</time></trkpt><trkpt lat="42.9096883" lon="11.8570417"><ele>628.0</ele><time>2026-05-02T14:02:38.719Z</time></trkpt><trkpt lat="42.90977" lon="11.8569283"><ele>628.0</ele><time>2026-05-02T14:02:39.719Z</time></trkpt><trkpt lat="42.9098483" lon="11.8568217"><ele>628.0</ele><time>2026-05-02T14:02:40.719Z</time></trkpt><trkpt lat="42.9099217" lon="11.8567217"><ele>628.0</ele><time>2026-05-02T14:02:41.72Z</time></trkpt><trkpt lat="42.9099933" lon="11.8566383"><ele>625.6</ele><time>2026-05-02T14:02:42.72Z</time></trkpt><trkpt lat="42.9100633" lon="11.8565683"><ele>623.1999999999999</ele><time>2026-05-02T14:02:43.719Z</time></trkpt><trkpt lat="42.9101433" lon="11.8565"><ele>620.8</ele><time>2026-05-02T14:02:44.719Z</time></trkpt><trkpt lat="42.9102267" lon="11.8564267"><ele>618.4</ele><time>2026-05-02T14:02:45.719Z</time></trkpt><trkpt lat="42.910325" lon="11.85635"><ele>616.0</ele><time>2026-05-02T14:02:46.718Z</time></trkpt><trkpt lat="42.9104333" lon="11.85627"><ele>616.0</ele><time>2026-05-02T14:02:47.719Z</time></trkpt><trkpt lat="42.9105467" lon="11.8561917"><ele>616.0</ele><time>2026-05-02T14:02:48.723Z</time></trkpt><trkpt lat="42.9106667" lon="11.856105"><ele>616.0</ele><time>2026-05-02T14:02:49.719Z</time></trkpt><trkpt lat="42.910785" lon="11.8560233"><ele>616.0</ele><time>2026-05-02T14:02:50.72Z</time></trkpt><trkpt lat="42.9109033" lon="11.8559517"><ele>616.6</ele><time>2026-05-02T14:02:51.721Z</time></trkpt><trkpt lat="42.9110117" lon="11.8559083"><ele>617.2</ele><time>2026-05-02T14:02:52.722Z</time></trkpt><trkpt lat="42.9111117" lon="11.8558883"><ele>617.8</ele><time>2026-05-02T14:02:53.721Z</time></trkpt><trkpt lat="42.9112133" lon="11.8558783"><ele>618.4</ele><time>2026-05-02T14:02:54.718Z</time></trkpt><trkpt lat="42.9113167" lon="11.8558833"><ele>619.0</ele><time>2026-05-02T14:02:55.72Z</time></trkpt><trkpt lat="42.9114233" lon="11.8559017"><ele>619.0</ele><time>2026-05-02T14:02:56.719Z</time></trkpt><trkpt lat="42.9115333" lon="11.855925"><ele>619.0</ele><time>2026-05-02T14:02:57.722Z</time></trkpt><trkpt lat="42.9116467" lon="11.8559317"><ele>619.0</ele><time>2026-05-02T14:02:58.718Z</time></trkpt><trkpt lat="42.911755" lon="11.85592"><ele>619.0</ele><time>2026-05-02T14:02:59.719Z</time></trkpt><trkpt lat="42.91185" lon="11.8558917"><ele>619.0</ele><time>2026-05-02T14:03:00.718Z</time></trkpt><trkpt lat="42.911945" lon="11.8558533"><ele>619.8</ele><time>2026-05-02T14:03:01.719Z</time></trkpt><trkpt lat="42.9120433" lon="11.8558067"><ele>620.5999999999999</ele><time>2026-05-02T14:03:02.719Z</time></trkpt><trkpt lat="42.91214" lon="11.8557517"><ele>621.4</ele><time>2026-05-02T14:03:03.72Z</time></trkpt><trkpt lat="42.91224" lon="11.8556867"><ele>622.1999999999999</ele><time>2026-05-02T14:03:04.719Z</time></trkpt><trkpt lat="42.912345" lon="11.855615"><ele>623.0</ele><time>2026-05-02T14:03:05.72Z</time></trkpt><trkpt lat="42.9124483" lon="11.8555367"><ele>623.0</ele><time>2026-05-02T14:03:06.723Z</time></trkpt><trkpt lat="42.9125567" lon="11.8554567"><ele>623.0</ele><time>2026-05-02T14:03:07.719Z</time></trkpt><trkpt lat="42.9126633" lon="11.8553833"><ele>623.0</ele><time>2026-05-02T14:03:08.719Z</time></trkpt><trkpt lat="42.91277" lon="11.8553083"><ele>623.0</ele><time>2026-05-02T14:03:09.719Z</time></trkpt><trkpt lat="42.9128767" lon="11.8552367"><ele>625.25</ele><time>2026-05-02T14:03:10.721Z</time></trkpt><trkpt lat="42.9129833" lon="11.8551617"><ele>627.5</ele><time>2026-05-02T14:03:11.719Z</time></trkpt><trkpt lat="42.9131" lon="11.8550817"><ele>629.75</ele><time>2026-05-02T14:03:12.719Z</time></trkpt><trkpt lat="42.9132283" lon="11.8549917"><ele>632.0</ele><time>2026-05-02T14:03:13.719Z</time></trkpt><trkpt lat="42.913355" lon="11.8549017"><ele>634.25</ele><time>2026-05-02T14:03:14.72Z</time></trkpt><trkpt lat="42.9134717" lon="11.8548217"><ele>636.5</ele><time>2026-05-02T14:03:15.72Z</time></trkpt><trkpt lat="42.9135767" lon="11.8547483"><ele>638.75</ele><time>2026-05-02T14:03:16.719Z</time></trkpt><trkpt lat="42.9136717" lon="11.854675"><ele>641.0</ele><time>2026-05-02T14:03:17.719Z</time></trkpt><trkpt lat="42.91376" lon="11.85459"><ele>641.0</ele><time>2026-05-02T14:03:18.72Z</time></trkpt><trkpt lat="42.913845" lon="11.854495"><ele>641.0</ele><time>2026-05-02T14:03:19.719Z</time></trkpt><trkpt lat="42.913925" lon="11.8543833"><ele>641.0</ele><time>2026-05-02T14:03:20.719Z</time></trkpt><trkpt lat="42.9140033" lon="11.8542567"><ele>641.0</ele><time>2026-05-02T14:03:21.718Z</time></trkpt><trkpt lat="42.9140717" lon="11.8541267"><ele>641.3333333333333</ele><time>2026-05-02T14:03:22.719Z</time></trkpt><trkpt lat="42.91413" lon="11.85401"><ele>641.6666666666666</ele><time>2026-05-02T14:03:23.719Z</time></trkpt><trkpt lat="42.9141783" lon="11.8539117"><ele>642.0</ele><time>2026-05-02T14:03:24.719Z</time></trkpt><trkpt lat="42.914215" lon="11.85384"><ele>642.3333333333334</ele><time>2026-05-02T14:03:25.719Z</time></trkpt><trkpt lat="42.9142533" lon="11.8537583"><ele>642.6666666666667</ele><time>2026-05-02T14:03:27.719Z</time></trkpt><trkpt lat="42.914285" lon="11.8536567"><ele>643.0</ele><time>2026-05-02T14:03:30.72Z</time></trkpt><trkpt lat="42.9142717" lon="11.8535683"><ele>642.0</ele><time>2026-05-02T14:03:32.719Z</time></trkpt><trkpt lat="42.914245" lon="11.8533983"><ele>641.0</ele><time>2026-05-02T14:03:34.72Z</time></trkpt><trkpt lat="42.914245" lon="11.85331"><ele>640.0</ele><time>2026-05-02T14:03:35.719Z</time></trkpt><trkpt lat="42.9142883" lon="11.8531717"><ele>639.0</ele><time>2026-05-02T14:03:37.719Z</time></trkpt><trkpt lat="42.91434" lon="11.8531067"><ele>638.0</ele><time>2026-05-02T14:03:38.722Z</time></trkpt><trkpt lat="42.9144067" lon="11.853035"><ele>638.0</ele><time>2026-05-02T14:03:39.721Z</time></trkpt><trkpt lat="42.9145" lon="11.852965"><ele>638.0</ele><time>2026-05-02T14:03:40.72Z</time></trkpt><trkpt lat="42.9146033" lon="11.8528867"><ele>638.0</ele><time>2026-05-02T14:03:41.722Z</time></trkpt><trkpt lat="42.9147183" lon="11.8528017"><ele>638.0</ele><time>2026-05-02T14:03:42.722Z</time></trkpt><trkpt lat="42.9148383" lon="11.852705"><ele>639.5</ele><time>2026-05-02T14:03:43.721Z</time></trkpt><trkpt lat="42.914965" lon="11.85261"><ele>641.0</ele><time>2026-05-02T14:03:44.723Z</time></trkpt><trkpt lat="42.9150867" lon="11.8525133"><ele>642.5</ele><time>2026-05-02T14:03:45.718Z</time></trkpt><trkpt lat="42.91521" lon="11.8524217"><ele>644.0</ele><time>2026-05-02T14:03:46.72Z</time></trkpt><trkpt lat="42.9153383" lon="11.8523283"><ele>644.0</ele><time>2026-05-02T14:03:47.719Z</time></trkpt><trkpt lat="42.91547" lon="11.8522267"><ele>644.0</ele><time>2026-05-02T14:03:48.721Z</time></trkpt><trkpt lat="42.9156033" lon="11.8521233"><ele>644.0</ele><time>2026-05-02T14:03:49.72Z</time></trkpt><trkpt lat="42.9157267" lon="11.8520283"><ele>644.0</ele><time>2026-05-02T14:03:50.719Z</time></trkpt><trkpt lat="42.9158417" lon="11.85194"><ele>644.8000000000001</ele><time>2026-05-02T14:03:51.72Z</time></trkpt><trkpt lat="42.9159417" lon="11.8518617"><ele>645.6</ele><time>2026-05-02T14:03:52.719Z</time></trkpt><trkpt lat="42.9160333" lon="11.851795"><ele>646.4</ele><time>2026-05-02T14:03:53.721Z</time></trkpt><trkpt lat="42.9161117" lon="11.8517333"><ele>647.2</ele><time>2026-05-02T14:03:54.719Z</time></trkpt><trkpt lat="42.9161683" lon="11.8516633"><ele>648.0</ele><time>2026-05-02T14:03:55.719Z</time></trkpt><trkpt lat="42.9162117" lon="11.85158"><ele>648.0</ele><time>2026-05-02T14:03:56.72Z</time></trkpt><trkpt lat="42.916245" lon="11.85147"><ele>648.0</ele><time>2026-05-02T14:03:57.718Z</time></trkpt><trkpt lat="42.91627" lon="11.8513333"><ele>648.0</ele><time>2026-05-02T14:03:58.719Z</time></trkpt><trkpt lat="42.916305" lon="11.85115"><ele>648.0</ele><time>2026-05-02T14:03:59.72Z</time></trkpt><trkpt lat="42.9163417" lon="11.850965"><ele>649.75</ele><time>2026-05-02T14:04:00.719Z</time></trkpt><trkpt lat="42.9163767" lon="11.8507783"><ele>651.5</ele><time>2026-05-02T14:04:01.719Z</time></trkpt><trkpt lat="42.916405" lon="11.8505983"><ele>653.25</ele><time>2026-05-02T14:04:02.719Z</time></trkpt><trkpt lat="42.9164333" lon="11.8504333"><ele>655.0</ele><time>2026-05-02T14:04:03.72Z</time></trkpt><trkpt lat="42.9164567" lon="11.85028"><ele>655.0</ele><time>2026-05-02T14:04:04.721Z</time></trkpt><trkpt lat="42.916475" lon="11.850125"><ele>655.0</ele><time>2026-05-02T14:04:05.72Z</time></trkpt><trkpt lat="42.91649" lon="11.8499583"><ele>655.0</ele><time>2026-05-02T14:04:06.719Z</time></trkpt><trkpt lat="42.9165" lon="11.8497817"><ele>655.0</ele><time>2026-05-02T14:04:07.72Z</time></trkpt><trkpt lat="42.9165067" lon="11.8495933"><ele>656.0</ele><time>2026-05-02T14:04:08.719Z</time></trkpt><trkpt lat="42.9165133" lon="11.8494"><ele>657.0</ele><time>2026-05-02T14:04:09.719Z</time></trkpt><trkpt lat="42.91652" lon="11.8492067"><ele>658.0</ele><time>2026-05-02T14:04:10.719Z</time></trkpt><trkpt lat="42.916525" lon="11.84902"><ele>659.0</ele><time>2026-05-02T14:04:11.719Z</time></trkpt><trkpt lat="42.9165233" lon="11.8488367"><ele>660.5</ele><time>2026-05-02T14:04:12.724Z</time></trkpt><trkpt lat="42.916515" lon="11.8486567"><ele>662.0</ele><time>2026-05-02T14:04:13.722Z</time></trkpt><trkpt lat="42.916505" lon="11.8484733"><ele>663.5</ele><time>2026-05-02T14:04:14.723Z</time></trkpt><trkpt lat="42.9164917" lon="11.848295"><ele>665.0</ele><time>2026-05-02T14:04:15.722Z</time></trkpt><trkpt lat="42.9164783" lon="11.84812"><ele>666.5</ele><time>2026-05-02T14:04:16.721Z</time></trkpt><trkpt lat="42.91647" lon="11.847955"><ele>668.0</ele><time>2026-05-02T14:04:17.719Z</time></trkpt><trkpt lat="42.9164717" lon="11.8478"><ele>669.5</ele><time>2026-05-02T14:04:18.719Z</time></trkpt><trkpt lat="42.9164833" lon="11.8476517"><ele>671.0</ele><time>2026-05-02T14:04:19.72Z</time></trkpt><trkpt lat="42.9165" lon="11.8475067"><ele>672.5</ele><time>2026-05-02T14:04:20.721Z</time></trkpt><trkpt lat="42.9165283" lon="11.84736"><ele>674.0</ele><time>2026-05-02T14:04:21.721Z</time></trkpt><trkpt lat="42.9165633" lon="11.847205"><ele>675.5</ele><time>2026-05-02T14:04:22.723Z</time></trkpt><trkpt lat="42.9165983" lon="11.847045"><ele>677.0</ele><time>2026-05-02T14:04:23.721Z</time></trkpt><trkpt lat="42.9166333" lon="11.8468817"><ele>679.5</ele><time>2026-05-02T14:04:24.722Z</time></trkpt><trkpt lat="42.91666" lon="11.84671"><ele>682.0</ele><time>2026-05-02T14:04:25.72Z</time></trkpt><trkpt lat="42.91668" lon="11.8465367"><ele>684.5</ele><time>2026-05-02T14:04:26.72Z</time></trkpt><trkpt lat="42.9166983" lon="11.846355"><ele>687.0</ele><time>2026-05-02T14:04:27.719Z</time></trkpt><trkpt lat="42.9167183" lon="11.84617"><ele>684.25</ele><time>2026-05-02T14:04:28.719Z</time></trkpt><trkpt lat="42.91674" lon="11.8459833"><ele>681.5</ele><time>2026-05-02T14:04:29.719Z</time></trkpt><trkpt lat="42.91676" lon="11.8457983"><ele>678.75</ele><time>2026-05-02T14:04:30.719Z</time></trkpt><trkpt lat="42.91678" lon="11.8456117"><ele>676.0</ele><time>2026-05-02T14:04:31.719Z</time></trkpt><trkpt lat="42.916795" lon="11.845435"><ele>676.0</ele><time>2026-05-02T14:04:32.721Z</time></trkpt><trkpt lat="42.9168117" lon="11.84526"><ele>676.0</ele><time>2026-05-02T14:04:33.719Z</time></trkpt><trkpt lat="42.9168267" lon="11.8450817"><ele>676.0</ele><time>2026-05-02T14:04:34.722Z</time></trkpt><trkpt lat="42.91684" lon="11.844905"><ele>676.0</ele><time>2026-05-02T14:04:35.721Z</time></trkpt><trkpt lat="42.9168533" lon="11.84473"><ele>678.0</ele><time>2026-05-02T14:04:36.723Z</time></trkpt><trkpt lat="42.9168667" lon="11.8445617"><ele>680.0</ele><time>2026-05-02T14:04:37.721Z</time></trkpt><trkpt lat="42.9168817" lon="11.8444083"><ele>682.0</ele><time>2026-05-02T14:04:38.722Z</time></trkpt><trkpt lat="42.9169067" lon="11.84427"><ele>684.0</ele><time>2026-05-02T14:04:39.721Z</time></trkpt><trkpt lat="42.91694" lon="11.8441283"><ele>685.25</ele><time>2026-05-02T14:04:40.72Z</time></trkpt><trkpt lat="42.916975" lon="11.8439833"><ele>686.5</ele><time>2026-05-02T14:04:41.722Z</time></trkpt><trkpt lat="42.9170133" lon="11.84382"><ele>687.75</ele><time>2026-05-02T14:04:42.722Z</time></trkpt><trkpt lat="42.9170533" lon="11.8436467"><ele>689.0</ele><time>2026-05-02T14:04:43.723Z</time></trkpt><trkpt lat="42.9170967" lon="11.84347"><ele>688.5</ele><time>2026-05-02T14:04:44.722Z</time></trkpt><trkpt lat="42.9171483" lon="11.843285"><ele>688.0</ele><time>2026-05-02T14:04:45.719Z</time></trkpt><trkpt lat="42.9171967" lon="11.8431"><ele>687.5</ele><time>2026-05-02T14:04:46.72Z</time></trkpt><trkpt lat="42.9172433" lon="11.842915"><ele>687.0</ele><time>2026-05-02T14:04:47.719Z</time></trkpt><trkpt lat="42.9172917" lon="11.84273"><ele>686.5</ele><time>2026-05-02T14:04:48.72Z</time></trkpt><trkpt lat="42.9173383" lon="11.8425517"><ele>686.0</ele><time>2026-05-02T14:04:49.72Z</time></trkpt><trkpt lat="42.9173833" lon="11.8423767"><ele>685.5</ele><time>2026-05-02T14:04:50.721Z</time></trkpt><trkpt lat="42.917425" lon="11.842205"><ele>685.0</ele><time>2026-05-02T14:04:51.721Z</time></trkpt><trkpt lat="42.91747" lon="11.8420317"><ele>685.0</ele><time>2026-05-02T14:04:52.722Z</time></trkpt><trkpt lat="42.9175167" lon="11.8418517"><ele>685.0</ele><time>2026-05-02T14:04:53.721Z</time></trkpt><trkpt lat="42.9175633" lon="11.841665"><ele>685.0</ele><time>2026-05-02T14:04:54.719Z</time></trkpt><trkpt lat="42.9176117" lon="11.8414767"><ele>685.0</ele><time>2026-05-02T14:04:55.719Z</time></trkpt><trkpt lat="42.91766" lon="11.841295"><ele>682.25</ele><time>2026-05-02T14:04:56.719Z</time></trkpt><trkpt lat="42.9177067" lon="11.8411267"><ele>679.5</ele><time>2026-05-02T14:04:57.719Z</time></trkpt><trkpt lat="42.9177517" lon="11.8409717"><ele>676.75</ele><time>2026-05-02T14:04:58.719Z</time></trkpt><trkpt lat="42.9177983" lon="11.8408333"><ele>674.0</ele><time>2026-05-02T14:04:59.72Z</time></trkpt><trkpt lat="42.9178483" lon="11.8407133"><ele>673.8000000000001</ele><time>2026-05-02T14:05:00.719Z</time></trkpt><trkpt lat="42.9179083" lon="11.8406083"><ele>673.6</ele><time>2026-05-02T14:05:01.721Z</time></trkpt><trkpt lat="42.9179833" lon="11.8405183"><ele>673.4</ele><time>2026-05-02T14:05:02.719Z</time></trkpt><trkpt lat="42.9180683" lon="11.840435"><ele>673.2</ele><time>2026-05-02T14:05:03.719Z</time></trkpt><trkpt lat="42.9181567" lon="11.8403633"><ele>673.0</ele><time>2026-05-02T14:05:04.722Z</time></trkpt><trkpt lat="42.91825" lon="11.8403033"><ele>673.0</ele><time>2026-05-02T14:05:05.719Z</time></trkpt><trkpt lat="42.9183383" lon="11.8402517"><ele>673.0</ele><time>2026-05-02T14:05:06.719Z</time></trkpt><trkpt lat="42.918425" lon="11.8402"><ele>673.0</ele><time>2026-05-02T14:05:07.719Z</time></trkpt><trkpt lat="42.9185" lon="11.840135"><ele>673.0</ele><time>2026-05-02T14:05:08.72Z</time></trkpt><trkpt lat="42.91857" lon="11.8400533"><ele>673.0</ele><time>2026-05-02T14:05:09.722Z</time></trkpt><trkpt lat="42.9186233" lon="11.8399583"><ele>671.2</ele><time>2026-05-02T14:05:10.722Z</time></trkpt><trkpt lat="42.9186683" lon="11.8398483"><ele>669.4</ele><time>2026-05-02T14:05:11.721Z</time></trkpt><trkpt lat="42.9187" lon="11.8397217"><ele>667.6</ele><time>2026-05-02T14:05:12.722Z</time></trkpt><trkpt lat="42.9187267" lon="11.8395917"><ele>665.8000000000001</ele><time>2026-05-02T14:05:13.719Z</time></trkpt><trkpt lat="42.9187567" lon="11.8394517"><ele>664.0</ele><time>2026-05-02T14:05:14.723Z</time></trkpt><trkpt lat="42.91879" lon="11.8393183"><ele>664.4000000000001</ele><time>2026-05-02T14:05:15.721Z</time></trkpt><trkpt lat="42.9188233" lon="11.83919"><ele>664.8</ele><time>2026-05-02T14:05:16.722Z</time></trkpt><trkpt lat="42.9188533" lon="11.8390567"><ele>665.2</ele><time>2026-05-02T14:05:17.719Z</time></trkpt><trkpt lat="42.9188767" lon="11.83892"><ele>665.5999999999999</ele><time>2026-05-02T14:05:18.719Z</time></trkpt><trkpt lat="42.9188933" lon="11.83878"><ele>666.0</ele><time>2026-05-02T14:05:19.719Z</time></trkpt><trkpt lat="42.9189067" lon="11.8386433"><ele>666.0</ele><time>2026-05-02T14:05:20.72Z</time></trkpt><trkpt lat="42.9189283" lon="11.83851"><ele>666.0</ele><time>2026-05-02T14:05:21.721Z</time></trkpt><trkpt lat="42.9189617" lon="11.8383733"><ele>666.0</ele><time>2026-05-02T14:05:22.72Z</time></trkpt><trkpt lat="42.9190083" lon="11.8382367"><ele>666.0</ele><time>2026-05-02T14:05:23.72Z</time></trkpt><trkpt lat="42.919065" lon="11.8380967"><ele>666.0</ele><time>2026-05-02T14:05:24.723Z</time></trkpt><trkpt lat="42.9191233" lon="11.837955"><ele>665.75</ele><time>2026-05-02T14:05:25.722Z</time></trkpt><trkpt lat="42.91919" lon="11.837805"><ele>665.5</ele><time>2026-05-02T14:05:26.722Z</time></trkpt><trkpt lat="42.9192567" lon="11.8376517"><ele>665.25</ele><time>2026-05-02T14:05:27.722Z</time></trkpt><trkpt lat="42.9193233" lon="11.8374983"><ele>665.0</ele><time>2026-05-02T14:05:28.719Z</time></trkpt><trkpt lat="42.91939" lon="11.8373367"><ele>661.6666666666666</ele><time>2026-05-02T14:05:29.719Z</time></trkpt><trkpt lat="42.9194567" lon="11.837155"><ele>658.3333333333334</ele><time>2026-05-02T14:05:30.723Z</time></trkpt><trkpt lat="42.919525" lon="11.8369567"><ele>655.0</ele><time>2026-05-02T14:05:31.722Z</time></trkpt><trkpt lat="42.9195967" lon="11.8367483"><ele>655.0</ele><time>2026-05-02T14:05:32.721Z</time></trkpt><trkpt lat="42.91967" lon="11.83654"><ele>655.0</ele><time>2026-05-02T14:05:33.721Z</time></trkpt><trkpt lat="42.91974" lon="11.8363383"><ele>655.0</ele><time>2026-05-02T14:05:34.722Z</time></trkpt><trkpt lat="42.9198083" lon="11.83615"><ele>655.0</ele><time>2026-05-02T14:05:35.719Z</time></trkpt><trkpt lat="42.9198733" lon="11.8359717"><ele>655.0</ele><time>2026-05-02T14:05:36.719Z</time></trkpt><trkpt lat="42.91994" lon="11.835805"><ele>655.0</ele><time>2026-05-02T14:05:37.72Z</time></trkpt><trkpt lat="42.9200017" lon="11.8356617"><ele>655.0</ele><time>2026-05-02T14:05:38.719Z</time></trkpt><trkpt lat="42.92006" lon="11.835535"><ele>655.0</ele><time>2026-05-02T14:05:39.721Z</time></trkpt><trkpt lat="42.920105" lon="11.8354117"><ele>655.0</ele><time>2026-05-02T14:05:40.719Z</time></trkpt><trkpt lat="42.920135" lon="11.8352833"><ele>655.0</ele><time>2026-05-02T14:05:41.722Z</time></trkpt><trkpt lat="42.92014" lon="11.8351517"><ele>655.0</ele><time>2026-05-02T14:05:42.723Z</time></trkpt><trkpt lat="42.9201133" lon="11.8350167"><ele>655.0</ele><time>2026-05-02T14:05:43.721Z</time></trkpt><trkpt lat="42.920055" lon="11.8348817"><ele>655.0</ele><time>2026-05-02T14:05:44.722Z</time></trkpt><trkpt lat="42.9199833" lon="11.8347317"><ele>655.0</ele><time>2026-05-02T14:05:45.721Z</time></trkpt><trkpt lat="42.9199083" lon="11.8345867"><ele>655.0</ele><time>2026-05-02T14:05:46.722Z</time></trkpt><trkpt lat="42.9198333" lon="11.8344417"><ele>655.0</ele><time>2026-05-02T14:05:47.719Z</time></trkpt><trkpt lat="42.919765" lon="11.8342933"><ele>654.25</ele><time>2026-05-02T14:05:48.72Z</time></trkpt><trkpt lat="42.9197" lon="11.8341433"><ele>653.5</ele><time>2026-05-02T14:05:49.719Z</time></trkpt><trkpt lat="42.9196383" lon="11.8339917"><ele>652.75</ele><time>2026-05-02T14:05:50.724Z</time></trkpt><trkpt lat="42.9195883" lon="11.833845"><ele>652.0</ele><time>2026-05-02T14:05:51.721Z</time></trkpt><trkpt lat="42.919555" lon="11.8336967"><ele>652.0</ele><time>2026-05-02T14:05:52.723Z</time></trkpt><trkpt lat="42.9195383" lon="11.83355"><ele>652.0</ele><time>2026-05-02T14:05:53.72Z</time></trkpt><trkpt lat="42.9195367" lon="11.8334"><ele>652.0</ele><time>2026-05-02T14:05:54.719Z</time></trkpt><trkpt lat="42.9195417" lon="11.8332367"><ele>652.0</ele><time>2026-05-02T14:05:55.721Z</time></trkpt><trkpt lat="42.9195517" lon="11.8330683"><ele>651.6</ele><time>2026-05-02T14:05:56.722Z</time></trkpt><trkpt lat="42.9195633" lon="11.8329033"><ele>651.2</ele><time>2026-05-02T14:05:57.723Z</time></trkpt><trkpt lat="42.919575" lon="11.8327483"><ele>650.8</ele><time>2026-05-02T14:05:58.72Z</time></trkpt><trkpt lat="42.9195833" lon="11.8326033"><ele>650.4</ele><time>2026-05-02T14:05:59.721Z</time></trkpt><trkpt lat="42.9195933" lon="11.832465"><ele>650.0</ele><time>2026-05-02T14:06:00.721Z</time></trkpt><trkpt lat="42.9196033" lon="11.83233"><ele>650.0</ele><time>2026-05-02T14:06:01.72Z</time></trkpt><trkpt lat="42.919605" lon="11.8321883"><ele>650.0</ele><time>2026-05-02T14:06:02.721Z</time></trkpt><trkpt lat="42.9196017" lon="11.8320417"><ele>650.0</ele><time>2026-05-02T14:06:03.721Z</time></trkpt><trkpt lat="42.9195933" lon="11.8318883"><ele>650.0</ele><time>2026-05-02T14:06:04.719Z</time></trkpt><trkpt lat="42.919585" lon="11.8317333"><ele>650.0</ele><time>2026-05-02T14:06:05.719Z</time></trkpt><trkpt lat="42.9195733" lon="11.831585"><ele>650.4</ele><time>2026-05-02T14:06:06.723Z</time></trkpt><trkpt lat="42.9195567" lon="11.8314533"><ele>650.8</ele><time>2026-05-02T14:06:07.721Z</time></trkpt><trkpt lat="42.9195383" lon="11.83133"><ele>651.2</ele><time>2026-05-02T14:06:08.723Z</time></trkpt><trkpt lat="42.9195083" lon="11.831215"><ele>651.6</ele><time>2026-05-02T14:06:09.722Z</time></trkpt><trkpt lat="42.9194617" lon="11.8311033"><ele>652.0</ele><time>2026-05-02T14:06:10.722Z</time></trkpt><trkpt lat="42.9194033" lon="11.831"><ele>651.3333333333334</ele><time>2026-05-02T14:06:11.721Z</time></trkpt><trkpt lat="42.91934" lon="11.830915"><ele>650.6666666666667</ele><time>2026-05-02T14:06:12.722Z</time></trkpt><trkpt lat="42.919275" lon="11.830845"><ele>650.0</ele><time>2026-05-02T14:06:13.721Z</time></trkpt><trkpt lat="42.9192083" lon="11.83078"><ele>649.3333333333334</ele><time>2026-05-02T14:06:14.724Z</time></trkpt><trkpt lat="42.9191483" lon="11.8307167"><ele>648.6666666666666</ele><time>2026-05-02T14:06:15.721Z</time></trkpt><trkpt lat="42.9190967" lon="11.830655"><ele>648.0</ele><time>2026-05-02T14:06:16.719Z</time></trkpt><trkpt lat="42.91905" lon="11.8305917"><ele>648.0</ele><time>2026-05-02T14:06:17.719Z</time></trkpt><trkpt lat="42.919" lon="11.8305183"><ele>648.0</ele><time>2026-05-02T14:06:18.725Z</time></trkpt><trkpt lat="42.9189383" lon="11.8304267"><ele>648.0</ele><time>2026-05-02T14:06:19.721Z</time></trkpt><trkpt lat="42.9188517" lon="11.8303133"><ele>648.0</ele><time>2026-05-02T14:06:20.723Z</time></trkpt><trkpt lat="42.9187533" lon="11.8301933"><ele>648.0</ele><time>2026-05-02T14:06:21.722Z</time></trkpt><trkpt lat="42.9186467" lon="11.830055"><ele>647.6666666666666</ele><time>2026-05-02T14:06:22.721Z</time></trkpt><trkpt lat="42.91853" lon="11.8299067"><ele>647.3333333333333</ele><time>2026-05-02T14:06:23.722Z</time></trkpt><trkpt lat="42.91841" lon="11.8297567"><ele>647.0</ele><time>2026-05-02T14:06:24.722Z</time></trkpt><trkpt lat="42.9182867" lon="11.8296"><ele>646.6666666666666</ele><time>2026-05-02T14:06:25.722Z</time></trkpt><trkpt lat="42.9181583" lon="11.8294367"><ele>646.3333333333334</ele><time>2026-05-02T14:06:26.722Z</time></trkpt><trkpt lat="42.91803" lon="11.8292667"><ele>646.0</ele><time>2026-05-02T14:06:27.722Z</time></trkpt><trkpt lat="42.9179167" lon="11.829075"><ele>648.6666666666667</ele><time>2026-05-02T14:06:28.722Z</time></trkpt><trkpt lat="42.91783" lon="11.8288533"><ele>651.3333333333334</ele><time>2026-05-02T14:06:29.722Z</time></trkpt><trkpt lat="42.917765" lon="11.8286067"><ele>654.0</ele><time>2026-05-02T14:06:30.72Z</time></trkpt><trkpt lat="42.9177067" lon="11.8283517"><ele>654.0</ele><time>2026-05-02T14:06:31.72Z</time></trkpt><trkpt lat="42.9176433" lon="11.8280917"><ele>654.0</ele><time>2026-05-02T14:06:32.719Z</time></trkpt><trkpt lat="42.9175717" lon="11.827825"><ele>654.0</ele><time>2026-05-02T14:06:33.721Z</time></trkpt><trkpt lat="42.9174917" lon="11.8275517"><ele>652.6666666666666</ele><time>2026-05-02T14:06:34.721Z</time></trkpt><trkpt lat="42.9174017" lon="11.8272767"><ele>651.3333333333333</ele><time>2026-05-02T14:06:35.721Z</time></trkpt><trkpt lat="42.9173067" lon="11.82701"><ele>650.0</ele><time>2026-05-02T14:06:36.721Z</time></trkpt><trkpt lat="42.9172117" lon="11.8267533"><ele>649.6666666666666</ele><time>2026-05-02T14:06:37.721Z</time></trkpt><trkpt lat="42.9171133" lon="11.8265167"><ele>649.3333333333334</ele><time>2026-05-02T14:06:38.721Z</time></trkpt><trkpt lat="42.9170067" lon="11.8263017"><ele>649.0</ele><time>2026-05-02T14:06:39.719Z</time></trkpt><trkpt lat="42.9168817" lon="11.82613"><ele>649.0</ele><time>2026-05-02T14:06:40.72Z</time></trkpt><trkpt lat="42.91673" lon="11.825995"><ele>649.0</ele><time>2026-05-02T14:06:41.723Z</time></trkpt><trkpt lat="42.9165533" lon="11.8259167"><ele>649.0</ele><time>2026-05-02T14:06:42.721Z</time></trkpt><trkpt lat="42.9163583" lon="11.82588"><ele>652.3333333333334</ele><time>2026-05-02T14:06:43.722Z</time></trkpt><trkpt lat="42.91618" lon="11.8258267"><ele>655.6666666666666</ele><time>2026-05-02T14:06:44.722Z</time></trkpt><trkpt lat="42.9160283" lon="11.8257317"><ele>659.0</ele><time>2026-05-02T14:06:45.722Z</time></trkpt><trkpt lat="42.915905" lon="11.825585"><ele>657.6666666666666</ele><time>2026-05-02T14:06:46.722Z</time></trkpt><trkpt lat="42.9158167" lon="11.82539"><ele>656.3333333333334</ele><time>2026-05-02T14:06:47.722Z</time></trkpt><trkpt lat="42.915755" lon="11.8251683"><ele>655.0</ele><time>2026-05-02T14:06:48.722Z</time></trkpt><trkpt lat="42.9157" lon="11.8249367"><ele>657.6666666666667</ele><time>2026-05-02T14:06:49.722Z</time></trkpt><trkpt lat="42.9156183" lon="11.82473"><ele>660.3333333333334</ele><time>2026-05-02T14:06:50.722Z</time></trkpt><trkpt lat="42.9155033" lon="11.82455"><ele>663.0</ele><time>2026-05-02T14:06:51.722Z</time></trkpt><trkpt lat="42.9153633" lon="11.8243733"><ele>663.3333333333334</ele><time>2026-05-02T14:06:52.722Z</time></trkpt><trkpt lat="42.9152183" lon="11.82419"><ele>663.6666666666667</ele><time>2026-05-02T14:06:53.719Z</time></trkpt><trkpt lat="42.91506" lon="11.8240117"><ele>664.0</ele><time>2026-05-02T14:06:54.723Z</time></trkpt><trkpt lat="42.9148917" lon="11.8238333"><ele>664.0</ele><time>2026-05-02T14:06:55.722Z</time></trkpt><trkpt lat="42.9147233" lon="11.82366"><ele>664.0</ele><time>2026-05-02T14:06:56.722Z</time></trkpt><trkpt lat="42.914555" lon="11.8235067"><ele>664.0</ele><time>2026-05-02T14:06:57.724Z</time></trkpt><trkpt lat="42.9143733" lon="11.82341"><ele>665.3333333333334</ele><time>2026-05-02T14:06:58.72Z</time></trkpt><trkpt lat="42.9141833" lon="11.8233383"><ele>666.6666666666666</ele><time>2026-05-02T14:06:59.72Z</time></trkpt><trkpt lat="42.9139967" lon="11.8232583"><ele>668.0</ele><time>2026-05-02T14:07:00.72Z</time></trkpt><trkpt lat="42.9138233" lon="11.8231367"><ele>668.0</ele><time>2026-05-02T14:07:01.719Z</time></trkpt><trkpt lat="42.91366" lon="11.8229883"><ele>668.0</ele><time>2026-05-02T14:07:02.72Z</time></trkpt><trkpt lat="42.9134983" lon="11.822845"><ele>668.0</ele><time>2026-05-02T14:07:03.719Z</time></trkpt><trkpt lat="42.9133367" lon="11.8227117"><ele>670.0</ele><time>2026-05-02T14:07:04.719Z</time></trkpt><trkpt lat="42.913175" lon="11.8226083"><ele>672.0</ele><time>2026-05-02T14:07:05.719Z</time></trkpt><trkpt lat="42.913025" lon="11.8225183"><ele>674.0</ele><time>2026-05-02T14:07:06.721Z</time></trkpt><trkpt lat="42.9128983" lon="11.82242"><ele>674.0</ele><time>2026-05-02T14:07:07.719Z</time></trkpt><trkpt lat="42.9128" lon="11.8222883"><ele>674.0</ele><time>2026-05-02T14:07:08.719Z</time></trkpt><trkpt lat="42.9127367" lon="11.8221183"><ele>674.0</ele><time>2026-05-02T14:07:09.719Z</time></trkpt><trkpt lat="42.9127317" lon="11.8219133"><ele>674.0</ele><time>2026-05-02T14:07:10.719Z</time></trkpt><trkpt lat="42.9127883" lon="11.8217167"><ele>675.0</ele><time>2026-05-02T14:07:11.719Z</time></trkpt><trkpt lat="42.9128983" lon="11.8215467"><ele>676.0</ele><time>2026-05-02T14:07:12.721Z</time></trkpt><trkpt lat="42.9130283" lon="11.8214133"><ele>677.0</ele><time>2026-05-02T14:07:13.719Z</time></trkpt><trkpt lat="42.9131517" lon="11.8212667"><ele>677.0</ele><time>2026-05-02T14:07:14.721Z</time></trkpt><trkpt lat="42.91324" lon="11.8210783"><ele>677.0</ele><time>2026-05-02T14:07:15.722Z</time></trkpt><trkpt lat="42.9132967" lon="11.8208483"><ele>677.0</ele><time>2026-05-02T14:07:16.719Z</time></trkpt><trkpt lat="42.9133133" lon="11.8205867"><ele>675.3333333333333</ele><time>2026-05-02T14:07:17.722Z</time></trkpt><trkpt lat="42.9133167" lon="11.8203067"><ele>673.6666666666666</ele><time>2026-05-02T14:07:18.722Z</time></trkpt><trkpt lat="42.91332" lon="11.8200117"><ele>672.0</ele><time>2026-05-02T14:07:19.722Z</time></trkpt><trkpt lat="42.9133283" lon="11.8197083"><ele>670.3333333333334</ele><time>2026-05-02T14:07:20.722Z</time></trkpt><trkpt lat="42.913335" lon="11.8194083"><ele>668.6666666666667</ele><time>2026-05-02T14:07:21.723Z</time></trkpt><trkpt lat="42.9133383" lon="11.819115"><ele>667.0</ele><time>2026-05-02T14:07:22.719Z</time></trkpt><trkpt lat="42.91334" lon="11.81883"><ele>666.0</ele><time>2026-05-02T14:07:23.722Z</time></trkpt><trkpt lat="42.9133433" lon="11.8185583"><ele>665.0</ele><time>2026-05-02T14:07:24.722Z</time></trkpt><trkpt lat="42.91336" lon="11.8183"><ele>664.0</ele><time>2026-05-02T14:07:25.719Z</time></trkpt><trkpt lat="42.9134017" lon="11.81806"><ele>669.3333333333334</ele><time>2026-05-02T14:07:26.723Z</time></trkpt><trkpt lat="42.9134583" lon="11.8178267"><ele>674.6666666666666</ele><time>2026-05-02T14:07:27.722Z</time></trkpt><trkpt lat="42.9135017" lon="11.8175767"><ele>680.0</ele><time>2026-05-02T14:07:28.723Z</time></trkpt><trkpt lat="42.91354" lon="11.817315"><ele>680.0</ele><time>2026-05-02T14:07:29.722Z</time></trkpt><trkpt lat="42.9135717" lon="11.81706"><ele>680.0</ele><time>2026-05-02T14:07:30.722Z</time></trkpt><trkpt lat="42.9135867" lon="11.8168217"><ele>680.0</ele><time>2026-05-02T14:07:31.722Z</time></trkpt><trkpt lat="42.9135767" lon="11.8165867"><ele>679.0</ele><time>2026-05-02T14:07:32.722Z</time></trkpt><trkpt lat="42.91351" lon="11.8163567"><ele>678.0</ele><time>2026-05-02T14:07:33.722Z</time></trkpt><trkpt lat="42.9133867" lon="11.8161483"><ele>677.0</ele><time>2026-05-02T14:07:34.722Z</time></trkpt><trkpt lat="42.9132717" lon="11.81594"><ele>670.3333333333333</ele><time>2026-05-02T14:07:35.722Z</time></trkpt><trkpt lat="42.9131867" lon="11.8157183"><ele>663.6666666666666</ele><time>2026-05-02T14:07:36.722Z</time></trkpt><trkpt lat="42.9131317" lon="11.8154817"><ele>657.0</ele><time>2026-05-02T14:07:37.719Z</time></trkpt><trkpt lat="42.9131117" lon="11.8152317"><ele>657.6666666666666</ele><time>2026-05-02T14:07:38.719Z</time></trkpt><trkpt lat="42.9131033" lon="11.8149883"><ele>658.3333333333333</ele><time>2026-05-02T14:07:39.722Z</time></trkpt><trkpt lat="42.9130983" lon="11.8147567"><ele>659.0</ele><time>2026-05-02T14:07:40.722Z</time></trkpt><trkpt lat="42.913085" lon="11.814545"><ele>659.0</ele><time>2026-05-02T14:07:41.722Z</time></trkpt><trkpt lat="42.913045" lon="11.8143467"><ele>659.0</ele><time>2026-05-02T14:07:42.722Z</time></trkpt><trkpt lat="42.9129583" lon="11.8141683"><ele>659.0</ele><time>2026-05-02T14:07:43.723Z</time></trkpt><trkpt lat="42.91283" lon="11.8140133"><ele>656.0</ele><time>2026-05-02T14:07:44.722Z</time></trkpt><trkpt lat="42.9126617" lon="11.8138817"><ele>653.0</ele><time>2026-05-02T14:07:45.722Z</time></trkpt><trkpt lat="42.9124833" lon="11.813755"><ele>650.0</ele><time>2026-05-02T14:07:46.722Z</time></trkpt><trkpt lat="42.9123033" lon="11.8136233"><ele>648.0</ele><time>2026-05-02T14:07:47.722Z</time></trkpt><trkpt lat="42.9121133" lon="11.813505"><ele>646.0</ele><time>2026-05-02T14:07:48.722Z</time></trkpt><trkpt lat="42.9119033" lon="11.8134117"><ele>644.0</ele><time>2026-05-02T14:07:49.722Z</time></trkpt><trkpt lat="42.9116833" lon="11.8133483"><ele>642.0</ele><time>2026-05-02T14:07:50.722Z</time></trkpt><trkpt lat="42.91147" lon="11.81329"><ele>640.0</ele><time>2026-05-02T14:07:51.722Z</time></trkpt><trkpt lat="42.91127" lon="11.8131917"><ele>638.0</ele><time>2026-05-02T14:07:52.723Z</time></trkpt><trkpt lat="42.9110883" lon="11.8130333"><ele>638.0</ele><time>2026-05-02T14:07:53.722Z</time></trkpt><trkpt lat="42.9109383" lon="11.812815"><ele>638.0</ele><time>2026-05-02T14:07:54.722Z</time></trkpt><trkpt lat="42.9108283" lon="11.81253"><ele>635.0</ele><time>2026-05-02T14:07:55.719Z</time></trkpt><trkpt lat="42.910715" lon="11.8122467"><ele>632.0</ele><time>2026-05-02T14:07:56.722Z</time></trkpt><trkpt lat="42.9105933" lon="11.8119633"><ele>628.0</ele><time>2026-05-02T14:07:57.722Z</time></trkpt><trkpt lat="42.91047" lon="11.81168"><ele>624.0</ele><time>2026-05-02T14:07:58.721Z</time></trkpt><trkpt lat="42.91034" lon="11.8113933"><ele>624.0</ele><time>2026-05-02T14:07:59.718Z</time></trkpt><trkpt lat="42.9101967" lon="11.8111183"><ele>624.0</ele><time>2026-05-02T14:08:00.722Z</time></trkpt><trkpt lat="42.9100367" lon="11.8108733"><ele>626.0</ele><time>2026-05-02T14:08:01.721Z</time></trkpt><trkpt lat="42.9098733" lon="11.8106333"><ele>628.0</ele><time>2026-05-02T14:08:02.722Z</time></trkpt><trkpt lat="42.9097217" lon="11.8103883"><ele>623.5</ele><time>2026-05-02T14:08:03.72Z</time></trkpt><trkpt lat="42.9095867" lon="11.81013"><ele>619.0</ele><time>2026-05-02T14:08:04.718Z</time></trkpt><trkpt lat="42.9094633" lon="11.8098633"><ele>619.0</ele><time>2026-05-02T14:08:05.722Z</time></trkpt><trkpt lat="42.9093567" lon="11.8095983"><ele>619.0</ele><time>2026-05-02T14:08:06.721Z</time></trkpt><trkpt lat="42.9092683" lon="11.8093233"><ele>619.0</ele><time>2026-05-02T14:08:07.721Z</time></trkpt><trkpt lat="42.9092" lon="11.809045"><ele>619.0</ele><time>2026-05-02T14:08:08.721Z</time></trkpt><trkpt lat="42.9091433" lon="11.808775"><ele>619.0</ele><time>2026-05-02T14:08:09.721Z</time></trkpt><trkpt lat="42.909085" lon="11.8085167"><ele>619.0</ele><time>2026-05-02T14:08:10.721Z</time></trkpt><trkpt lat="42.9090217" lon="11.8082817"><ele>619.6666666666667</ele><time>2026-05-02T14:08:11.718Z</time></trkpt><trkpt lat="42.9089433" lon="11.8080733"><ele>620.3333333333334</ele><time>2026-05-02T14:08:12.723Z</time></trkpt><trkpt lat="42.90882" lon="11.8079117"><ele>621.0</ele><time>2026-05-02T14:08:13.721Z</time></trkpt><trkpt lat="42.908655" lon="11.807785"><ele>621.0</ele><time>2026-05-02T14:08:14.721Z</time></trkpt><trkpt lat="42.9084617" lon="11.8076817"><ele>621.0</ele><time>2026-05-02T14:08:15.721Z</time></trkpt><trkpt lat="42.9082683" lon="11.8075617"><ele>621.0</ele><time>2026-05-02T14:08:16.721Z</time></trkpt><trkpt lat="42.9080833" lon="11.8074117"><ele>619.0</ele><time>2026-05-02T14:08:17.721Z</time></trkpt><trkpt lat="42.9078933" lon="11.807255"><ele>617.0</ele><time>2026-05-02T14:08:18.721Z</time></trkpt><trkpt lat="42.9077067" lon="11.8070983"><ele>615.0</ele><time>2026-05-02T14:08:19.721Z</time></trkpt><trkpt lat="42.9075283" lon="11.806945"><ele>612.0</ele><time>2026-05-02T14:08:20.722Z</time></trkpt><trkpt lat="42.9073567" lon="11.8067883"><ele>609.0</ele><time>2026-05-02T14:08:21.721Z</time></trkpt><trkpt lat="42.9071983" lon="11.8066183"><ele>606.0</ele><time>2026-05-02T14:08:22.725Z</time></trkpt><trkpt lat="42.90707" lon="11.8064017"><ele>606.0</ele><time>2026-05-02T14:08:23.721Z</time></trkpt><trkpt lat="42.906975" lon="11.80614"><ele>606.0</ele><time>2026-05-02T14:08:24.721Z</time></trkpt><trkpt lat="42.9069" lon="11.805865"><ele>606.0</ele><time>2026-05-02T14:08:25.722Z</time></trkpt><trkpt lat="42.9068167" lon="11.8056"><ele>605.0</ele><time>2026-05-02T14:08:26.721Z</time></trkpt><trkpt lat="42.90671" lon="11.8053467"><ele>604.0</ele><time>2026-05-02T14:08:27.722Z</time></trkpt><trkpt lat="42.9065767" lon="11.8051067"><ele>603.0</ele><time>2026-05-02T14:08:28.721Z</time></trkpt><trkpt lat="42.9064317" lon="11.8048883"><ele>601.3333333333334</ele><time>2026-05-02T14:08:29.721Z</time></trkpt><trkpt lat="42.9062733" lon="11.8047033"><ele>599.6666666666667</ele><time>2026-05-02T14:08:30.721Z</time></trkpt><trkpt lat="42.906085" lon="11.80457"><ele>598.0</ele><time>2026-05-02T14:08:31.721Z</time></trkpt><trkpt lat="42.9058717" lon="11.8044883"><ele>598.0</ele><time>2026-05-02T14:08:32.721Z</time></trkpt><trkpt lat="42.9056467" lon="11.8044283"><ele>598.0</ele><time>2026-05-02T14:08:33.721Z</time></trkpt><trkpt lat="42.9054067" lon="11.8043717"><ele>598.0</ele><time>2026-05-02T14:08:34.721Z</time></trkpt><trkpt lat="42.9051667" lon="11.8043067"><ele>598.0</ele><time>2026-05-02T14:08:35.721Z</time></trkpt><trkpt lat="42.904925" lon="11.8042233"><ele>598.0</ele><time>2026-05-02T14:08:36.721Z</time></trkpt><trkpt lat="42.9046817" lon="11.8041267"><ele>598.0</ele><time>2026-05-02T14:08:37.721Z</time></trkpt><trkpt lat="42.90444" lon="11.8040167"><ele>598.5</ele><time>2026-05-02T14:08:38.721Z</time></trkpt><trkpt lat="42.9042033" lon="11.8039067"><ele>599.0</ele><time>2026-05-02T14:08:39.721Z</time></trkpt><trkpt lat="42.90398" lon="11.8037833"><ele>599.0</ele><time>2026-05-02T14:08:40.721Z</time></trkpt><trkpt lat="42.9037733" lon="11.8036317"><ele>599.0</ele><time>2026-05-02T14:08:41.721Z</time></trkpt><trkpt lat="42.9035817" lon="11.8034417"><ele>597.5</ele><time>2026-05-02T14:08:42.721Z</time></trkpt><trkpt lat="42.9033917" lon="11.8032417"><ele>596.0</ele><time>2026-05-02T14:08:43.721Z</time></trkpt><trkpt lat="42.9031867" lon="11.8030517"><ele>596.0</ele><time>2026-05-02T14:08:44.729Z</time></trkpt><trkpt lat="42.90297" lon="11.8028767"><ele>596.0</ele><time>2026-05-02T14:08:45.721Z</time></trkpt><trkpt lat="42.9027467" lon="11.802705"><ele>596.0</ele><time>2026-05-02T14:08:46.721Z</time></trkpt><trkpt lat="42.9025267" lon="11.80253"><ele>596.0</ele><time>2026-05-02T14:08:47.719Z</time></trkpt><trkpt lat="42.9023067" lon="11.8023583"><ele>596.0</ele><time>2026-05-02T14:08:48.719Z</time></trkpt><trkpt lat="42.9020933" lon="11.8021883"><ele>596.0</ele><time>2026-05-02T14:08:49.719Z</time></trkpt><trkpt lat="42.901895" lon="11.8020133"><ele>596.5</ele><time>2026-05-02T14:08:50.719Z</time></trkpt><trkpt lat="42.9017183" lon="11.8018133"><ele>597.0</ele><time>2026-05-02T14:08:51.719Z</time></trkpt><trkpt lat="42.9015617" lon="11.8015967"><ele>597.0</ele><time>2026-05-02T14:08:52.719Z</time></trkpt><trkpt lat="42.9014233" lon="11.8013783"><ele>597.0</ele><time>2026-05-02T14:08:53.719Z</time></trkpt><trkpt lat="42.9012883" lon="11.8011833"><ele>597.0</ele><time>2026-05-02T14:08:54.723Z</time></trkpt><trkpt lat="42.9011333" lon="11.801025"><ele>597.6666666666666</ele><time>2026-05-02T14:08:55.722Z</time></trkpt><trkpt lat="42.9009517" lon="11.8009117"><ele>598.3333333333333</ele><time>2026-05-02T14:08:56.722Z</time></trkpt><trkpt lat="42.9007567" lon="11.8008267"><ele>599.0</ele><time>2026-05-02T14:08:57.721Z</time></trkpt><trkpt lat="42.9005783" lon="11.8007467"><ele>599.0</ele><time>2026-05-02T14:08:58.721Z</time></trkpt><trkpt lat="42.9004133" lon="11.8006417"><ele>599.0</ele><time>2026-05-02T14:08:59.721Z</time></trkpt><trkpt lat="42.9002767" lon="11.8005"><ele>599.0</ele><time>2026-05-02T14:09:00.721Z</time></trkpt><trkpt lat="42.9001733" lon="11.800305"><ele>599.3333333333333</ele><time>2026-05-02T14:09:01.721Z</time></trkpt><trkpt lat="42.9001" lon="11.8000767"><ele>599.6666666666666</ele><time>2026-05-02T14:09:02.718Z</time></trkpt><trkpt lat="42.9000367" lon="11.7998317"><ele>600.0</ele><time>2026-05-02T14:09:03.719Z</time></trkpt><trkpt lat="42.899965" lon="11.7995883"><ele>601.0</ele><time>2026-05-02T14:09:04.719Z</time></trkpt><trkpt lat="42.8998683" lon="11.7993483"><ele>602.0</ele><time>2026-05-02T14:09:05.719Z</time></trkpt><trkpt lat="42.89974" lon="11.799125"><ele>603.0</ele><time>2026-05-02T14:09:06.719Z</time></trkpt><trkpt lat="42.89958" lon="11.7989333"><ele>604.0</ele><time>2026-05-02T14:09:07.719Z</time></trkpt><trkpt lat="42.8994067" lon="11.798755"><ele>605.0</ele><time>2026-05-02T14:09:08.72Z</time></trkpt><trkpt lat="42.8992183" lon="11.7985967"><ele>606.0</ele><time>2026-05-02T14:09:09.719Z</time></trkpt><trkpt lat="42.8990317" lon="11.7984267"><ele>609.5</ele><time>2026-05-02T14:09:10.72Z</time></trkpt><trkpt lat="42.8988467" lon="11.798255"><ele>613.0</ele><time>2026-05-02T14:09:11.721Z</time></trkpt><trkpt lat="42.898655" lon="11.7980833"><ele>613.0</ele><time>2026-05-02T14:09:12.721Z</time></trkpt><trkpt lat="42.8984683" lon="11.797905"><ele>613.0</ele><time>2026-05-02T14:09:13.721Z</time></trkpt><trkpt lat="42.8982783" lon="11.797735"><ele>613.6666666666667</ele><time>2026-05-02T14:09:14.722Z</time></trkpt><trkpt lat="42.8980967" lon="11.7975717"><ele>614.3333333333334</ele><time>2026-05-02T14:09:15.721Z</time></trkpt><trkpt lat="42.8979233" lon="11.7974117"><ele>615.0</ele><time>2026-05-02T14:09:16.721Z</time></trkpt><trkpt lat="42.8977633" lon="11.797235"><ele>615.0</ele><time>2026-05-02T14:09:17.718Z</time></trkpt><trkpt lat="42.8976317" lon="11.7970233"><ele>615.0</ele><time>2026-05-02T14:09:18.718Z</time></trkpt><trkpt lat="42.8975383" lon="11.79677"><ele>615.0</ele><time>2026-05-02T14:09:19.718Z</time></trkpt><trkpt lat="42.8974767" lon="11.7965"><ele>615.6666666666666</ele><time>2026-05-02T14:09:20.719Z</time></trkpt><trkpt lat="42.8974333" lon="11.7962317"><ele>616.3333333333333</ele><time>2026-05-02T14:09:21.718Z</time></trkpt><trkpt lat="42.8973917" lon="11.7959833"><ele>617.0</ele><time>2026-05-02T14:09:22.719Z</time></trkpt><trkpt lat="42.8973533" lon="11.7957533"><ele>618.25</ele><time>2026-05-02T14:09:23.719Z</time></trkpt><trkpt lat="42.8973183" lon="11.7955417"><ele>619.5</ele><time>2026-05-02T14:09:24.722Z</time></trkpt><trkpt lat="42.8972983" lon="11.795345"><ele>620.75</ele><time>2026-05-02T14:09:25.722Z</time></trkpt><trkpt lat="42.8973133" lon="11.7951667"><ele>622.0</ele><time>2026-05-02T14:09:26.721Z</time></trkpt><trkpt lat="42.89737" lon="11.7950233"><ele>623.75</ele><time>2026-05-02T14:09:27.721Z</time></trkpt><trkpt lat="42.8974767" lon="11.794935"><ele>625.5</ele><time>2026-05-02T14:09:28.721Z</time></trkpt><trkpt lat="42.8976183" lon="11.7948883"><ele>627.25</ele><time>2026-05-02T14:09:29.721Z</time></trkpt><trkpt lat="42.89778" lon="11.7948517"><ele>629.0</ele><time>2026-05-02T14:09:30.721Z</time></trkpt><trkpt lat="42.8979383" lon="11.7947967"><ele>630.6666666666666</ele><time>2026-05-02T14:09:31.721Z</time></trkpt><trkpt lat="42.8981033" lon="11.7947433"><ele>632.3333333333334</ele><time>2026-05-02T14:09:32.722Z</time></trkpt><trkpt lat="42.8982683" lon="11.7946933"><ele>634.0</ele><time>2026-05-02T14:09:33.721Z</time></trkpt><trkpt lat="42.8984233" lon="11.7946367"><ele>635.0</ele><time>2026-05-02T14:09:34.721Z</time></trkpt><trkpt lat="42.898555" lon="11.7945467"><ele>636.0</ele><time>2026-05-02T14:09:35.721Z</time></trkpt><trkpt lat="42.898655" lon="11.7944083"><ele>637.0</ele><time>2026-05-02T14:09:36.721Z</time></trkpt><trkpt lat="42.89872" lon="11.7942217"><ele>638.0</ele><time>2026-05-02T14:09:37.721Z</time></trkpt><trkpt lat="42.8987383" lon="11.7940083"><ele>640.3333333333333</ele><time>2026-05-02T14:09:38.722Z</time></trkpt><trkpt lat="42.898715" lon="11.79379"><ele>642.6666666666666</ele><time>2026-05-02T14:09:39.721Z</time></trkpt><trkpt lat="42.898605" lon="11.7935567"><ele>645.0</ele><time>2026-05-02T14:09:40.721Z</time></trkpt><trkpt lat="42.8984833" lon="11.793325"><ele>645.0</ele><time>2026-05-02T14:09:41.721Z</time></trkpt><trkpt lat="42.8983733" lon="11.7930967"><ele>645.0</ele><time>2026-05-02T14:09:42.721Z</time></trkpt><trkpt lat="42.8982617" lon="11.79286"><ele>645.0</ele><time>2026-05-02T14:09:43.721Z</time></trkpt><trkpt lat="42.898145" lon="11.7926183"><ele>646.6666666666666</ele><time>2026-05-02T14:09:44.721Z</time></trkpt><trkpt lat="42.898025" lon="11.7923733"><ele>648.3333333333333</ele><time>2026-05-02T14:09:45.721Z</time></trkpt><trkpt lat="42.89791" lon="11.79213"><ele>650.0</ele><time>2026-05-02T14:09:46.721Z</time></trkpt><trkpt lat="42.8978033" lon="11.7918833"><ele>651.3333333333333</ele><time>2026-05-02T14:09:47.72Z</time></trkpt><trkpt lat="42.8977233" lon="11.7916217"><ele>652.6666666666666</ele><time>2026-05-02T14:09:48.718Z</time></trkpt><trkpt lat="42.8976783" lon="11.7913483"><ele>654.0</ele><time>2026-05-02T14:09:49.718Z</time></trkpt><trkpt lat="42.8976467" lon="11.7910667"><ele>654.0</ele><time>2026-05-02T14:09:50.721Z</time></trkpt><trkpt lat="42.8976017" lon="11.790785"><ele>654.0</ele><time>2026-05-02T14:09:51.719Z</time></trkpt><trkpt lat="42.89755" lon="11.7905033"><ele>654.0</ele><time>2026-05-02T14:09:52.719Z</time></trkpt><trkpt lat="42.8974933" lon="11.790215"><ele>658.6666666666666</ele><time>2026-05-02T14:09:53.718Z</time></trkpt><trkpt lat="42.8974317" lon="11.78993"><ele>663.3333333333333</ele><time>2026-05-02T14:09:54.723Z</time></trkpt><trkpt lat="42.8973683" lon="11.7896517"><ele>668.0</ele><time>2026-05-02T14:09:55.721Z</time></trkpt><trkpt lat="42.8972933" lon="11.789385"><ele>668.0</ele><time>2026-05-02T14:09:56.72Z</time></trkpt><trkpt lat="42.8972" lon="11.7891283"><ele>668.0</ele><time>2026-05-02T14:09:57.719Z</time></trkpt><trkpt lat="42.8970917" lon="11.7888867"><ele>668.0</ele><time>2026-05-02T14:09:58.721Z</time></trkpt><trkpt lat="42.8969667" lon="11.7886567"><ele>669.3333333333333</ele><time>2026-05-02T14:09:59.721Z</time></trkpt><trkpt lat="42.896835" lon="11.7884283"><ele>670.6666666666666</ele><time>2026-05-02T14:10:00.723Z</time></trkpt><trkpt lat="42.896695" lon="11.7881983"><ele>672.0</ele><time>2026-05-02T14:10:01.721Z</time></trkpt><trkpt lat="42.89656" lon="11.7879733"><ele>672.0</ele><time>2026-05-02T14:10:02.722Z</time></trkpt><trkpt lat="42.89642" lon="11.78776"><ele>672.0</ele><time>2026-05-02T14:10:03.719Z</time></trkpt><trkpt lat="42.8962733" lon="11.787555"><ele>672.0</ele><time>2026-05-02T14:10:04.721Z</time></trkpt><trkpt lat="42.8961133" lon="11.7873583"><ele>675.0</ele><time>2026-05-02T14:10:05.721Z</time></trkpt><trkpt lat="42.89594" lon="11.787165"><ele>678.0</ele><time>2026-05-02T14:10:06.721Z</time></trkpt><trkpt lat="42.89576" lon="11.78697"><ele>671.5</ele><time>2026-05-02T14:10:07.721Z</time></trkpt><trkpt lat="42.8955767" lon="11.7867683"><ele>665.0</ele><time>2026-05-02T14:10:08.722Z</time></trkpt><trkpt lat="42.8953933" lon="11.7865667"><ele>665.0</ele><time>2026-05-02T14:10:09.721Z</time></trkpt><trkpt lat="42.895215" lon="11.786375"><ele>665.0</ele><time>2026-05-02T14:10:10.721Z</time></trkpt><trkpt lat="42.8950417" lon="11.786195"><ele>665.0</ele><time>2026-05-02T14:10:11.721Z</time></trkpt><trkpt lat="42.8948617" lon="11.78604"><ele>665.6666666666666</ele><time>2026-05-02T14:10:12.721Z</time></trkpt><trkpt lat="42.8946667" lon="11.7859117"><ele>666.3333333333334</ele><time>2026-05-02T14:10:13.721Z</time></trkpt><trkpt lat="42.89445" lon="11.785815"><ele>667.0</ele><time>2026-05-02T14:10:14.723Z</time></trkpt><trkpt lat="42.894225" lon="11.7857417"><ele>667.0</ele><time>2026-05-02T14:10:15.721Z</time></trkpt><trkpt lat="42.8940083" lon="11.7856667"><ele>667.0</ele><time>2026-05-02T14:10:16.721Z</time></trkpt><trkpt lat="42.8937967" lon="11.7855783"><ele>667.0</ele><time>2026-05-02T14:10:17.719Z</time></trkpt><trkpt lat="42.8936" lon="11.7854633"><ele>667.0</ele><time>2026-05-02T14:10:18.722Z</time></trkpt><trkpt lat="42.893425" lon="11.7852967"><ele>667.0</ele><time>2026-05-02T14:10:19.719Z</time></trkpt><trkpt lat="42.8932783" lon="11.7850867"><ele>667.0</ele><time>2026-05-02T14:10:20.72Z</time></trkpt><trkpt lat="42.8931617" lon="11.784835"><ele>664.0</ele><time>2026-05-02T14:10:21.719Z</time></trkpt><trkpt lat="42.8930767" lon="11.78456"><ele>661.0</ele><time>2026-05-02T14:10:22.719Z</time></trkpt><trkpt lat="42.893035" lon="11.7842583"><ele>658.0</ele><time>2026-05-02T14:10:23.721Z</time></trkpt><trkpt lat="42.8930267" lon="11.7839467"><ele>658.0</ele><time>2026-05-02T14:10:24.722Z</time></trkpt><trkpt lat="42.893035" lon="11.7836333"><ele>658.0</ele><time>2026-05-02T14:10:25.721Z</time></trkpt><trkpt lat="42.8930367" lon="11.7833183"><ele>660.6666666666667</ele><time>2026-05-02T14:10:26.722Z</time></trkpt><trkpt lat="42.8930417" lon="11.7830083"><ele>663.3333333333334</ele><time>2026-05-02T14:10:27.721Z</time></trkpt><trkpt lat="42.8930467" lon="11.78271"><ele>666.0</ele><time>2026-05-02T14:10:28.721Z</time></trkpt><trkpt lat="42.893045" lon="11.78242"><ele>667.0</ele><time>2026-05-02T14:10:29.721Z</time></trkpt><trkpt lat="42.893025" lon="11.7821283"><ele>668.0</ele><time>2026-05-02T14:10:30.722Z</time></trkpt><trkpt lat="42.89297" lon="11.7818433"><ele>669.0</ele><time>2026-05-02T14:10:31.721Z</time></trkpt><trkpt lat="42.89288" lon="11.781575"><ele>670.6666666666666</ele><time>2026-05-02T14:10:32.722Z</time></trkpt><trkpt lat="42.892755" lon="11.781325"><ele>672.3333333333333</ele><time>2026-05-02T14:10:33.723Z</time></trkpt><trkpt lat="42.892605" lon="11.7810933"><ele>674.0</ele><time>2026-05-02T14:10:34.721Z</time></trkpt><trkpt lat="42.89244" lon="11.7808783"><ele>676.0</ele><time>2026-05-02T14:10:35.721Z</time></trkpt><trkpt lat="42.8922817" lon="11.780665"><ele>678.0</ele><time>2026-05-02T14:10:36.721Z</time></trkpt><trkpt lat="42.89213" lon="11.7804633"><ele>680.0</ele><time>2026-05-02T14:10:37.723Z</time></trkpt><trkpt lat="42.8919867" lon="11.7802667"><ele>681.0</ele><time>2026-05-02T14:10:38.722Z</time></trkpt><trkpt lat="42.8918583" lon="11.78006"><ele>682.0</ele><time>2026-05-02T14:10:39.722Z</time></trkpt><trkpt lat="42.8917433" lon="11.7798383"><ele>683.0</ele><time>2026-05-02T14:10:40.721Z</time></trkpt><trkpt lat="42.8916317" lon="11.7796017"><ele>683.0</ele><time>2026-05-02T14:10:41.718Z</time></trkpt><trkpt lat="42.8915233" lon="11.7793617"><ele>683.0</ele><time>2026-05-02T14:10:42.722Z</time></trkpt><trkpt lat="42.89142" lon="11.77913"><ele>683.0</ele><time>2026-05-02T14:10:43.721Z</time></trkpt><trkpt lat="42.8913283" lon="11.77891"><ele>685.0</ele><time>2026-05-02T14:10:44.724Z</time></trkpt><trkpt lat="42.8912633" lon="11.77869"><ele>687.0</ele><time>2026-05-02T14:10:45.721Z</time></trkpt><trkpt lat="42.8912333" lon="11.7784633"><ele>689.0</ele><time>2026-05-02T14:10:46.722Z</time></trkpt><trkpt lat="42.8912383" lon="11.77824"><ele>690.6666666666666</ele><time>2026-05-02T14:10:47.719Z</time></trkpt><trkpt lat="42.8912833" lon="11.77802"><ele>692.3333333333334</ele><time>2026-05-02T14:10:48.718Z</time></trkpt><trkpt lat="42.8913667" lon="11.7778167"><ele>694.0</ele><time>2026-05-02T14:10:49.719Z</time></trkpt><trkpt lat="42.8914867" lon="11.7776367"><ele>694.0</ele><time>2026-05-02T14:10:50.718Z</time></trkpt><trkpt lat="42.89163" lon="11.7774683"><ele>694.0</ele><time>2026-05-02T14:10:51.719Z</time></trkpt><trkpt lat="42.89178" lon="11.7773017"><ele>694.0</ele><time>2026-05-02T14:10:52.719Z</time></trkpt><trkpt lat="42.8919317" lon="11.7771267"><ele>697.0</ele><time>2026-05-02T14:10:53.719Z</time></trkpt><trkpt lat="42.8920917" lon="11.77695"><ele>700.0</ele><time>2026-05-02T14:10:54.723Z</time></trkpt><trkpt lat="42.89225" lon="11.7767717"><ele>703.0</ele><time>2026-05-02T14:10:55.722Z</time></trkpt><trkpt lat="42.89241" lon="11.77659"><ele>703.0</ele><time>2026-05-02T14:10:56.721Z</time></trkpt><trkpt lat="42.8925683" lon="11.7764017"><ele>703.0</ele><time>2026-05-02T14:10:57.721Z</time></trkpt><trkpt lat="42.89272" lon="11.7762183"><ele>703.0</ele><time>2026-05-02T14:10:58.721Z</time></trkpt><trkpt lat="42.8928583" lon="11.7760483"><ele>706.6666666666667</ele><time>2026-05-02T14:10:59.724Z</time></trkpt><trkpt lat="42.8929917" lon="11.775895"><ele>710.3333333333334</ele><time>2026-05-02T14:11:00.721Z</time></trkpt><trkpt lat="42.8931217" lon="11.7757567"><ele>714.0</ele><time>2026-05-02T14:11:01.719Z</time></trkpt><trkpt lat="42.8932433" lon="11.77563"><ele>714.0</ele><time>2026-05-02T14:11:02.719Z</time></trkpt><trkpt lat="42.893365" lon="11.7755217"><ele>714.0</ele><time>2026-05-02T14:11:03.721Z</time></trkpt><trkpt lat="42.893485" lon="11.7754267"><ele>714.0</ele><time>2026-05-02T14:11:04.721Z</time></trkpt><trkpt lat="42.8936" lon="11.7753467"><ele>714.0</ele><time>2026-05-02T14:11:05.721Z</time></trkpt><trkpt lat="42.8937083" lon="11.775275"><ele>714.6</ele><time>2026-05-02T14:11:06.721Z</time></trkpt><trkpt lat="42.8938083" lon="11.7752133"><ele>715.2</ele><time>2026-05-02T14:11:07.721Z</time></trkpt><trkpt lat="42.893895" lon="11.7751567"><ele>715.8000000000001</ele><time>2026-05-02T14:11:08.722Z</time></trkpt><trkpt lat="42.89395" lon="11.7750917"><ele>716.4000000000001</ele><time>2026-05-02T14:11:09.718Z</time></trkpt><trkpt lat="42.8939933" lon="11.7749583"><ele>717.0</ele><time>2026-05-02T14:11:11.721Z</time></trkpt><trkpt lat="42.89391" lon="11.7749067"><ele>717.0</ele><time>2026-05-02T14:11:13.722Z</time></trkpt><trkpt lat="42.8938217" lon="11.774945"><ele>717.0</ele><time>2026-05-02T14:11:14.722Z</time></trkpt><trkpt lat="42.89371" lon="11.775015"><ele>717.0</ele><time>2026-05-02T14:11:15.721Z</time></trkpt><trkpt lat="42.8935967" lon="11.7750967"><ele>717.0</ele><time>2026-05-02T14:11:16.721Z</time></trkpt><trkpt lat="42.8934833" lon="11.77517"><ele>716.25</ele><time>2026-05-02T14:11:17.719Z</time></trkpt><trkpt lat="42.8933683" lon="11.7752317"><ele>715.5</ele><time>2026-05-02T14:11:18.72Z</time></trkpt><trkpt lat="42.8932617" lon="11.775295"><ele>714.75</ele><time>2026-05-02T14:11:19.718Z</time></trkpt><trkpt lat="42.8931583" lon="11.7753483"><ele>714.0</ele><time>2026-05-02T14:11:20.718Z</time></trkpt><trkpt lat="42.8930633" lon="11.7753917"><ele>714.0</ele><time>2026-05-02T14:11:21.718Z</time></trkpt><trkpt lat="42.8929833" lon="11.7754267"><ele>714.0</ele><time>2026-05-02T14:11:22.718Z</time></trkpt><trkpt lat="42.8929083" lon="11.7754633"><ele>714.0</ele><time>2026-05-02T14:11:23.72Z</time></trkpt><trkpt lat="42.8928333" lon="11.7755017"><ele>714.0</ele><time>2026-05-02T14:11:24.722Z</time></trkpt><trkpt lat="42.8927583" lon="11.7755433"><ele>714.0</ele><time>2026-05-02T14:11:25.722Z</time></trkpt><trkpt lat="42.8926833" lon="11.7755967"><ele>714.0</ele><time>2026-05-02T14:11:26.719Z</time></trkpt><trkpt lat="42.8926067" lon="11.7756633"><ele>712.1666666666666</ele><time>2026-05-02T14:11:27.722Z</time></trkpt><trkpt lat="42.89253" lon="11.7757417"><ele>710.3333333333334</ele><time>2026-05-02T14:11:28.721Z</time></trkpt><trkpt lat="42.8924533" lon="11.7758233"><ele>708.5</ele><time>2026-05-02T14:11:29.722Z</time></trkpt><trkpt lat="42.892385" lon="11.7759033"><ele>706.6666666666667</ele><time>2026-05-02T14:11:30.721Z</time></trkpt><trkpt lat="42.8923217" lon="11.775975"><ele>704.8333333333334</ele><time>2026-05-02T14:11:31.721Z</time></trkpt><trkpt lat="42.8922667" lon="11.7760433"><ele>703.0</ele><time>2026-05-02T14:11:32.722Z</time></trkpt><trkpt lat="42.89221" lon="11.7761083"><ele>703.0</ele><time>2026-05-02T14:11:33.719Z</time></trkpt><trkpt lat="42.892155" lon="11.7761717"><ele>703.0</ele><time>2026-05-02T14:11:34.719Z</time></trkpt><trkpt lat="42.8921" lon="11.776235"><ele>703.0</ele><time>2026-05-02T14:11:35.72Z</time></trkpt><trkpt lat="42.89205" lon="11.7763"><ele>703.0</ele><time>2026-05-02T14:11:36.72Z</time></trkpt><trkpt lat="42.8919917" lon="11.7763633"><ele>703.0</ele><time>2026-05-02T14:11:37.719Z</time></trkpt><trkpt lat="42.891935" lon="11.7764267"><ele>703.0</ele><time>2026-05-02T14:11:38.72Z</time></trkpt><trkpt lat="42.89188" lon="11.7764917"><ele>703.0</ele><time>2026-05-02T14:11:39.719Z</time></trkpt><trkpt lat="42.8918233" lon="11.7765567"><ele>703.0</ele><time>2026-05-02T14:11:40.72Z</time></trkpt><trkpt lat="42.8917667" lon="11.7766167"><ele>703.0</ele><time>2026-05-02T14:11:41.719Z</time></trkpt><trkpt lat="42.891705" lon="11.7766767"><ele>703.0</ele><time>2026-05-02T14:11:42.723Z</time></trkpt><trkpt lat="42.89164" lon="11.7767317"><ele>703.0</ele><time>2026-05-02T14:11:43.722Z</time></trkpt><trkpt lat="42.8915733" lon="11.77679"><ele>703.0</ele><time>2026-05-02T14:11:44.723Z</time></trkpt><trkpt lat="42.8914983" lon="11.7768517"><ele>703.0</ele><time>2026-05-02T14:11:45.721Z</time></trkpt><trkpt lat="42.8914133" lon="11.7769083"><ele>701.2</ele><time>2026-05-02T14:11:46.722Z</time></trkpt><trkpt lat="42.8913217" lon="11.77696"><ele>699.4</ele><time>2026-05-02T14:11:47.721Z</time></trkpt><trkpt lat="42.8912283" lon="11.7770117"><ele>697.6</ele><time>2026-05-02T14:11:48.721Z</time></trkpt><trkpt lat="42.8911383" lon="11.7770683"><ele>695.8000000000001</ele><time>2026-05-02T14:11:49.721Z</time></trkpt><trkpt lat="42.89105" lon="11.7771183"><ele>694.0</ele><time>2026-05-02T14:11:50.722Z</time></trkpt><trkpt lat="42.89096" lon="11.7771617"><ele>691.6</ele><time>2026-05-02T14:11:51.721Z</time></trkpt><trkpt lat="42.8908683" lon="11.7772"><ele>689.2</ele><time>2026-05-02T14:11:52.721Z</time></trkpt><trkpt lat="42.8907767" lon="11.7772333"><ele>686.8000000000001</ele><time>2026-05-02T14:11:53.721Z</time></trkpt><trkpt lat="42.890685" lon="11.7772617"><ele>684.4000000000001</ele><time>2026-05-02T14:11:54.722Z</time></trkpt><trkpt lat="42.8905917" lon="11.7772883"><ele>682.0</ele><time>2026-05-02T14:11:55.721Z</time></trkpt><trkpt lat="42.8905" lon="11.7773233"><ele>682.0</ele><time>2026-05-02T14:11:56.718Z</time></trkpt><trkpt lat="42.890415" lon="11.7773667"><ele>682.0</ele><time>2026-05-02T14:11:57.722Z</time></trkpt><trkpt lat="42.890335" lon="11.7774183"><ele>682.0</ele><time>2026-05-02T14:11:58.721Z</time></trkpt><trkpt lat="42.8902617" lon="11.77747"><ele>682.0</ele><time>2026-05-02T14:11:59.721Z</time></trkpt><trkpt lat="42.89019" lon="11.7775283"><ele>682.0</ele><time>2026-05-02T14:12:00.723Z</time></trkpt><trkpt lat="42.89012" lon="11.777585"><ele>682.0</ele><time>2026-05-02T14:12:01.721Z</time></trkpt><trkpt lat="42.89004" lon="11.77765"><ele>680.0</ele><time>2026-05-02T14:12:02.722Z</time></trkpt><trkpt lat="42.8899583" lon="11.777715"><ele>678.0</ele><time>2026-05-02T14:12:03.721Z</time></trkpt><trkpt lat="42.8898783" lon="11.7777817"><ele>676.0</ele><time>2026-05-02T14:12:04.72Z</time></trkpt><trkpt lat="42.8897967" lon="11.7778433"><ele>674.0</ele><time>2026-05-02T14:12:05.721Z</time></trkpt><trkpt lat="42.8897133" lon="11.77791"><ele>672.0</ele><time>2026-05-02T14:12:06.72Z</time></trkpt><trkpt lat="42.8896267" lon="11.777975"><ele>672.0</ele><time>2026-05-02T14:12:07.723Z</time></trkpt><trkpt lat="42.8895433" lon="11.778035"><ele>672.0</ele><time>2026-05-02T14:12:08.719Z</time></trkpt><trkpt lat="42.8894617" lon="11.778095"><ele>672.0</ele><time>2026-05-02T14:12:09.719Z</time></trkpt><trkpt lat="42.889385" lon="11.7781567"><ele>672.0</ele><time>2026-05-02T14:12:10.718Z</time></trkpt><trkpt lat="42.8893067" lon="11.7782183"><ele>672.0</ele><time>2026-05-02T14:12:11.721Z</time></trkpt><trkpt lat="42.8892267" lon="11.7782817"><ele>669.0</ele><time>2026-05-02T14:12:12.721Z</time></trkpt><trkpt lat="42.8891417" lon="11.77835"><ele>666.0</ele><time>2026-05-02T14:12:13.718Z</time></trkpt><trkpt lat="42.8890517" lon="11.778425"><ele>663.0</ele><time>2026-05-02T14:12:14.724Z</time></trkpt><trkpt lat="42.88896" lon="11.7785017"><ele>660.0</ele><time>2026-05-02T14:12:15.718Z</time></trkpt><trkpt lat="42.88886" lon="11.7785767"><ele>657.0</ele><time>2026-05-02T14:12:16.719Z</time></trkpt><trkpt lat="42.8887583" lon="11.7786517"><ele>657.0</ele><time>2026-05-02T14:12:17.72Z</time></trkpt><trkpt lat="42.8886567" lon="11.7787267"><ele>657.0</ele><time>2026-05-02T14:12:18.72Z</time></trkpt><trkpt lat="42.8885567" lon="11.7788067"><ele>657.0</ele><time>2026-05-02T14:12:19.72Z</time></trkpt><trkpt lat="42.8884567" lon="11.7788817"><ele>657.0</ele><time>2026-05-02T14:12:20.72Z</time></trkpt><trkpt lat="42.8883583" lon="11.7789617"><ele>653.25</ele><time>2026-05-02T14:12:21.72Z</time></trkpt><trkpt lat="42.8882583" lon="11.77904"><ele>649.5</ele><time>2026-05-02T14:12:22.719Z</time></trkpt><trkpt lat="42.8881583" lon="11.77912"><ele>645.75</ele><time>2026-05-02T14:12:23.722Z</time></trkpt><trkpt lat="42.8880567" lon="11.7791983"><ele>642.0</ele><time>2026-05-02T14:12:24.722Z</time></trkpt><trkpt lat="42.8879533" lon="11.7792733"><ele>642.0</ele><time>2026-05-02T14:12:25.718Z</time></trkpt><trkpt lat="42.8878517" lon="11.7793417"><ele>642.0</ele><time>2026-05-02T14:12:26.719Z</time></trkpt><trkpt lat="42.88775" lon="11.7794017"><ele>642.0</ele><time>2026-05-02T14:12:27.718Z</time></trkpt><trkpt lat="42.8876467" lon="11.77945"><ele>642.0</ele><time>2026-05-02T14:12:28.718Z</time></trkpt><trkpt lat="42.8875433" lon="11.779485"><ele>642.0</ele><time>2026-05-02T14:12:29.719Z</time></trkpt><trkpt lat="42.8874383" lon="11.7795067"><ele>641.2</ele><time>2026-05-02T14:12:30.718Z</time></trkpt><trkpt lat="42.88733" lon="11.7795183"><ele>640.4000000000001</ele><time>2026-05-02T14:12:31.722Z</time></trkpt><trkpt lat="42.88722" lon="11.77952"><ele>639.5999999999999</ele><time>2026-05-02T14:12:32.723Z</time></trkpt><trkpt lat="42.8871133" lon="11.7795183"><ele>638.8</ele><time>2026-05-02T14:12:33.722Z</time></trkpt><trkpt lat="42.8870083" lon="11.7795083"><ele>638.0</ele><time>2026-05-02T14:12:34.721Z</time></trkpt><trkpt lat="42.8869083" lon="11.7794967"><ele>638.0</ele><time>2026-05-02T14:12:35.721Z</time></trkpt><trkpt lat="42.88681" lon="11.7794983"><ele>638.0</ele><time>2026-05-02T14:12:36.721Z</time></trkpt><trkpt lat="42.88671" lon="11.7795083"><ele>638.0</ele><time>2026-05-02T14:12:37.721Z</time></trkpt><trkpt lat="42.8866167" lon="11.77953"><ele>638.0</ele><time>2026-05-02T14:12:38.722Z</time></trkpt><trkpt lat="42.8865233" lon="11.7795583"><ele>638.0</ele><time>2026-05-02T14:12:39.721Z</time></trkpt><trkpt lat="42.8864283" lon="11.7795867"><ele>636.4</ele><time>2026-05-02T14:12:40.721Z</time></trkpt><trkpt lat="42.8863283" lon="11.7796117"><ele>634.8</ele><time>2026-05-02T14:12:41.721Z</time></trkpt><trkpt lat="42.8862283" lon="11.779645"><ele>633.2</ele><time>2026-05-02T14:12:42.718Z</time></trkpt><trkpt lat="42.8861217" lon="11.77968"><ele>631.6</ele><time>2026-05-02T14:12:43.721Z</time></trkpt><trkpt lat="42.8860133" lon="11.7797133"><ele>630.0</ele><time>2026-05-02T14:12:44.72Z</time></trkpt><trkpt lat="42.8859033" lon="11.7797483"><ele>627.0</ele><time>2026-05-02T14:12:45.723Z</time></trkpt><trkpt lat="42.88579" lon="11.7797867"><ele>624.0</ele><time>2026-05-02T14:12:46.721Z</time></trkpt><trkpt lat="42.8856767" lon="11.7798267"><ele>621.0</ele><time>2026-05-02T14:12:47.719Z</time></trkpt><trkpt lat="42.8855667" lon="11.7798667"><ele>618.0</ele><time>2026-05-02T14:12:48.72Z</time></trkpt><trkpt lat="42.8854583" lon="11.7799033"><ele>618.0</ele><time>2026-05-02T14:12:49.722Z</time></trkpt><trkpt lat="42.88535" lon="11.7799333"><ele>618.0</ele><time>2026-05-02T14:12:50.719Z</time></trkpt><trkpt lat="42.885245" lon="11.7799567"><ele>618.0</ele><time>2026-05-02T14:12:51.721Z</time></trkpt><trkpt lat="42.8851417" lon="11.7799733"><ele>618.0</ele><time>2026-05-02T14:12:52.721Z</time></trkpt><trkpt lat="42.885045" lon="11.7799817"><ele>618.0</ele><time>2026-05-02T14:12:53.721Z</time></trkpt><trkpt lat="42.8849483" lon="11.7799917"><ele>615.75</ele><time>2026-05-02T14:12:54.719Z</time></trkpt><trkpt lat="42.88485" lon="11.7800033"><ele>613.5</ele><time>2026-05-02T14:12:55.722Z</time></trkpt><trkpt lat="42.884735" lon="11.780015"><ele>611.25</ele><time>2026-05-02T14:12:56.722Z</time></trkpt><trkpt lat="42.8846017" lon="11.78003"><ele>609.0</ele><time>2026-05-02T14:12:57.721Z</time></trkpt><trkpt lat="42.88446" lon="11.7800483"><ele>609.0</ele><time>2026-05-02T14:12:58.722Z</time></trkpt><trkpt lat="42.884325" lon="11.7800633"><ele>609.0</ele><time>2026-05-02T14:12:59.721Z</time></trkpt><trkpt lat="42.8841933" lon="11.7800833"><ele>609.0</ele><time>2026-05-02T14:13:00.721Z</time></trkpt><trkpt lat="42.8840617" lon="11.7801033"><ele>609.0</ele><time>2026-05-02T14:13:01.721Z</time></trkpt><trkpt lat="42.8839367" lon="11.7801267"><ele>608.2</ele><time>2026-05-02T14:13:02.719Z</time></trkpt><trkpt lat="42.883815" lon="11.7801517"><ele>607.4</ele><time>2026-05-02T14:13:03.722Z</time></trkpt><trkpt lat="42.8837033" lon="11.78018"><ele>606.6</ele><time>2026-05-02T14:13:04.718Z</time></trkpt><trkpt lat="42.8836" lon="11.7802167"><ele>605.8</ele><time>2026-05-02T14:13:05.721Z</time></trkpt><trkpt lat="42.883505" lon="11.7802617"><ele>605.0</ele><time>2026-05-02T14:13:06.722Z</time></trkpt><trkpt lat="42.8834117" lon="11.7803183"><ele>603.2</ele><time>2026-05-02T14:13:07.722Z</time></trkpt><trkpt lat="42.8833183" lon="11.7803783"><ele>601.4</ele><time>2026-05-02T14:13:08.722Z</time></trkpt><trkpt lat="42.8832267" lon="11.7804417"><ele>599.6</ele><time>2026-05-02T14:13:09.721Z</time></trkpt><trkpt lat="42.8831367" lon="11.7805067"><ele>597.8</ele><time>2026-05-02T14:13:10.721Z</time></trkpt><trkpt lat="42.8830467" lon="11.78057"><ele>596.0</ele><time>2026-05-02T14:13:11.719Z</time></trkpt><trkpt lat="42.88296" lon="11.7806317"><ele>596.0</ele><time>2026-05-02T14:13:12.72Z</time></trkpt><trkpt lat="42.8828733" lon="11.7806867"><ele>596.0</ele><time>2026-05-02T14:13:13.72Z</time></trkpt><trkpt lat="42.8827933" lon="11.7807317"><ele>596.0</ele><time>2026-05-02T14:13:14.72Z</time></trkpt><trkpt lat="42.88272" lon="11.7807733"><ele>596.0</ele><time>2026-05-02T14:13:15.721Z</time></trkpt><trkpt lat="42.88265" lon="11.7808117"><ele>596.0</ele><time>2026-05-02T14:13:16.719Z</time></trkpt><trkpt lat="42.8825783" lon="11.7808383"><ele>596.0</ele><time>2026-05-02T14:13:17.725Z</time></trkpt><trkpt lat="42.8825033" lon="11.7808517"><ele>595.5</ele><time>2026-05-02T14:13:18.725Z</time></trkpt><trkpt lat="42.8824267" lon="11.7808533"><ele>595.0</ele><time>2026-05-02T14:13:19.719Z</time></trkpt><trkpt lat="42.882355" lon="11.78081"><ele>594.5</ele><time>2026-05-02T14:13:20.72Z</time></trkpt><trkpt lat="42.8822783" lon="11.7807667"><ele>594.0</ele><time>2026-05-02T14:13:21.72Z</time></trkpt><trkpt lat="42.8822183" lon="11.780705"><ele>593.5</ele><time>2026-05-02T14:13:22.719Z</time></trkpt><trkpt lat="42.8821583" lon="11.7806367"><ele>593.0</ele><time>2026-05-02T14:13:23.719Z</time></trkpt><trkpt lat="42.8821067" lon="11.78056"><ele>592.9999999999999</ele><time>2026-05-02T14:13:24.722Z</time></trkpt><trkpt lat="42.8820533" lon="11.7804917"><ele>593.0</ele><time>2026-05-02T14:13:25.721Z</time></trkpt><trkpt lat="42.8820033" lon="11.7804267"><ele>593.0</ele><time>2026-05-02T14:13:26.722Z</time></trkpt><trkpt lat="42.8819533" lon="11.78036"><ele>593.0</ele><time>2026-05-02T14:13:27.721Z</time></trkpt><trkpt lat="42.8819017" lon="11.7803"><ele>593.0</ele><time>2026-05-02T14:13:28.721Z</time></trkpt><trkpt lat="42.8818467" lon="11.7802483"><ele>592.9999999999999</ele><time>2026-05-02T14:13:29.721Z</time></trkpt><trkpt lat="42.8817783" lon="11.7801967"><ele>593.0</ele><time>2026-05-02T14:13:30.723Z</time></trkpt><trkpt lat="42.881705" lon="11.78015"><ele>591.6</ele><time>2026-05-02T14:13:31.722Z</time></trkpt><trkpt lat="42.8816233" lon="11.7801117"><ele>590.1999999999999</ele><time>2026-05-02T14:13:32.722Z</time></trkpt><trkpt lat="42.881535" lon="11.78008"><ele>588.8</ele><time>2026-05-02T14:13:33.725Z</time></trkpt><trkpt lat="42.881445" lon="11.78005"><ele>587.4</ele><time>2026-05-02T14:13:34.721Z</time></trkpt><trkpt lat="42.8813567" lon="11.780025"><ele>586.0</ele><time>2026-05-02T14:13:35.721Z</time></trkpt><trkpt lat="42.8812667" lon="11.78001"><ele>586.0</ele><time>2026-05-02T14:13:36.721Z</time></trkpt><trkpt lat="42.881175" lon="11.7799983"><ele>586.0</ele><time>2026-05-02T14:13:37.718Z</time></trkpt><trkpt lat="42.88108" lon="11.7799917"><ele>586.0</ele><time>2026-05-02T14:13:38.722Z</time></trkpt><trkpt lat="42.8809833" lon="11.7799883"><ele>586.0</ele><time>2026-05-02T14:13:39.721Z</time></trkpt><trkpt lat="42.8808833" lon="11.7799867"><ele>586.0</ele><time>2026-05-02T14:13:40.721Z</time></trkpt><trkpt lat="42.88078" lon="11.7799933"><ele>582.75</ele><time>2026-05-02T14:13:41.718Z</time></trkpt><trkpt lat="42.8806733" lon="11.78"><ele>579.5</ele><time>2026-05-02T14:13:42.723Z</time></trkpt><trkpt lat="42.880565" lon="11.7800083"><ele>576.25</ele><time>2026-05-02T14:13:43.721Z</time></trkpt><trkpt lat="42.8804517" lon="11.7800283"><ele>573.0</ele><time>2026-05-02T14:13:44.723Z</time></trkpt><trkpt lat="42.8803317" lon="11.7800517"><ele>573.0</ele><time>2026-05-02T14:13:45.721Z</time></trkpt><trkpt lat="42.8801967" lon="11.780085"><ele>573.0</ele><time>2026-05-02T14:13:46.722Z</time></trkpt><trkpt lat="42.8800483" lon="11.7801217"><ele>573.0</ele><time>2026-05-02T14:13:47.719Z</time></trkpt><trkpt lat="42.8798967" lon="11.78016"><ele>573.0</ele><time>2026-05-02T14:13:48.72Z</time></trkpt><trkpt lat="42.8797533" lon="11.7802033"><ele>570.0</ele><time>2026-05-02T14:13:49.721Z</time></trkpt><trkpt lat="42.879615" lon="11.7802467"><ele>567.0</ele><time>2026-05-02T14:13:50.72Z</time></trkpt><trkpt lat="42.8794867" lon="11.780295"><ele>564.0</ele><time>2026-05-02T14:13:51.72Z</time></trkpt><trkpt lat="42.879375" lon="11.7803367"><ele>561.0</ele><time>2026-05-02T14:13:52.72Z</time></trkpt><trkpt lat="42.879275" lon="11.7803633"><ele>561.6</ele><time>2026-05-02T14:13:53.72Z</time></trkpt><trkpt lat="42.8791833" lon="11.780365"><ele>562.2</ele><time>2026-05-02T14:13:54.723Z</time></trkpt><trkpt lat="42.8790917" lon="11.7803433"><ele>562.8</ele><time>2026-05-02T14:13:55.721Z</time></trkpt><trkpt lat="42.878995" lon="11.7802933"><ele>563.4</ele><time>2026-05-02T14:13:56.723Z</time></trkpt><trkpt lat="42.8789067" lon="11.78022"><ele>564.0</ele><time>2026-05-02T14:13:57.72Z</time></trkpt><trkpt lat="42.8788233" lon="11.7801433"><ele>564.0</ele><time>2026-05-02T14:13:58.722Z</time></trkpt><trkpt lat="42.8787467" lon="11.7800717"><ele>564.0</ele><time>2026-05-02T14:13:59.719Z</time></trkpt><trkpt lat="42.8786667" lon="11.7800067"><ele>564.0</ele><time>2026-05-02T14:14:00.723Z</time></trkpt><trkpt lat="42.8785833" lon="11.7799517"><ele>564.0</ele><time>2026-05-02T14:14:01.721Z</time></trkpt><trkpt lat="42.8784867" lon="11.7799"><ele>564.0</ele><time>2026-05-02T14:14:02.72Z</time></trkpt><trkpt lat="42.8783767" lon="11.7798533"><ele>565.5</ele><time>2026-05-02T14:14:03.719Z</time></trkpt><trkpt lat="42.8782617" lon="11.7798117"><ele>567.0</ele><time>2026-05-02T14:14:04.719Z</time></trkpt><trkpt lat="42.87815" lon="11.7797733"><ele>568.5</ele><time>2026-05-02T14:14:05.719Z</time></trkpt><trkpt lat="42.8780417" lon="11.7797367"><ele>570.0</ele><time>2026-05-02T14:14:06.719Z</time></trkpt><trkpt lat="42.877935" lon="11.779705"><ele>570.0</ele><time>2026-05-02T14:14:07.719Z</time></trkpt><trkpt lat="42.8778283" lon="11.7796767"><ele>570.0</ele><time>2026-05-02T14:14:08.719Z</time></trkpt><trkpt lat="42.8777217" lon="11.7796617"><ele>570.0</ele><time>2026-05-02T14:14:09.719Z</time></trkpt><trkpt lat="42.8776117" lon="11.7796633"><ele>570.0</ele><time>2026-05-02T14:14:10.719Z</time></trkpt><trkpt lat="42.8775017" lon="11.779675"><ele>570.0</ele><time>2026-05-02T14:14:11.722Z</time></trkpt><trkpt lat="42.8773917" lon="11.77969"><ele>569.2</ele><time>2026-05-02T14:14:12.722Z</time></trkpt><trkpt lat="42.8772767" lon="11.77971"><ele>568.4</ele><time>2026-05-02T14:14:13.722Z</time></trkpt><trkpt lat="42.8771683" lon="11.7797283"><ele>567.6</ele><time>2026-05-02T14:14:14.722Z</time></trkpt><trkpt lat="42.87706" lon="11.7797433"><ele>566.8</ele><time>2026-05-02T14:14:15.721Z</time></trkpt><trkpt lat="42.8769617" lon="11.7797567"><ele>566.0</ele><time>2026-05-02T14:14:16.719Z</time></trkpt><trkpt lat="42.8768667" lon="11.779775"><ele>566.0</ele><time>2026-05-02T14:14:17.72Z</time></trkpt><trkpt lat="42.8767767" lon="11.7797967"><ele>566.0</ele><time>2026-05-02T14:14:18.721Z</time></trkpt><trkpt lat="42.8766883" lon="11.7798267"><ele>566.0</ele><time>2026-05-02T14:14:19.72Z</time></trkpt><trkpt lat="42.8766" lon="11.7798683"><ele>566.0</ele><time>2026-05-02T14:14:20.72Z</time></trkpt><trkpt lat="42.8765133" lon="11.7799167"><ele>566.0</ele><time>2026-05-02T14:14:21.721Z</time></trkpt><trkpt lat="42.87643" lon="11.7799683"><ele>565.6666666666666</ele><time>2026-05-02T14:14:22.719Z</time></trkpt><trkpt lat="42.8763533" lon="11.7800217"><ele>565.3333333333333</ele><time>2026-05-02T14:14:23.72Z</time></trkpt><trkpt lat="42.8762833" lon="11.7800783"><ele>565.0</ele><time>2026-05-02T14:14:24.723Z</time></trkpt><trkpt lat="42.8762217" lon="11.7801333"><ele>564.6666666666666</ele><time>2026-05-02T14:14:25.721Z</time></trkpt><trkpt lat="42.8761667" lon="11.7801883"><ele>564.3333333333334</ele><time>2026-05-02T14:14:26.723Z</time></trkpt><trkpt lat="42.8760667" lon="11.7802883"><ele>564.0</ele><time>2026-05-02T14:14:28.721Z</time></trkpt><trkpt lat="42.876015" lon="11.780345"><ele>564.5714285714286</ele><time>2026-05-02T14:14:29.721Z</time></trkpt><trkpt lat="42.8759633" lon="11.7804083"><ele>565.1428571428571</ele><time>2026-05-02T14:14:30.721Z</time></trkpt><trkpt lat="42.8759183" lon="11.7804783"><ele>565.7142857142857</ele><time>2026-05-02T14:14:31.721Z</time></trkpt><trkpt lat="42.875875" lon="11.7805583"><ele>566.2857142857142</ele><time>2026-05-02T14:14:32.723Z</time></trkpt><trkpt lat="42.8758367" lon="11.78064"><ele>566.8571428571428</ele><time>2026-05-02T14:14:33.721Z</time></trkpt><trkpt lat="42.8758067" lon="11.7807267"><ele>567.4285714285714</ele><time>2026-05-02T14:14:34.721Z</time></trkpt><trkpt lat="42.8757783" lon="11.7808133"><ele>568.0</ele><time>2026-05-02T14:14:35.721Z</time></trkpt><trkpt lat="42.8757517" lon="11.7808983"><ele>568.0</ele><time>2026-05-02T14:14:36.721Z</time></trkpt><trkpt lat="42.8757217" lon="11.7809867"><ele>568.0</ele><time>2026-05-02T14:14:37.722Z</time></trkpt><trkpt lat="42.8756833" lon="11.7810733"><ele>568.0</ele><time>2026-05-02T14:14:38.722Z</time></trkpt><trkpt lat="42.8756417" lon="11.7811583"><ele>568.0</ele><time>2026-05-02T14:14:39.722Z</time></trkpt><trkpt lat="42.8755967" lon="11.7812433"><ele>568.0</ele><time>2026-05-02T14:14:40.722Z</time></trkpt><trkpt lat="42.87555" lon="11.7813267"><ele>568.0</ele><time>2026-05-02T14:14:41.723Z</time></trkpt><trkpt lat="42.8755017" lon="11.781405"><ele>568.0</ele><time>2026-05-02T14:14:42.721Z</time></trkpt><trkpt lat="42.87545" lon="11.781475"><ele>568.0</ele><time>2026-05-02T14:14:43.722Z</time></trkpt><trkpt lat="42.8754" lon="11.781545"><ele>568.0</ele><time>2026-05-02T14:14:44.722Z</time></trkpt><trkpt lat="42.87534" lon="11.781605"><ele>568.0</ele><time>2026-05-02T14:14:45.721Z</time></trkpt><trkpt lat="42.8752733" lon="11.7816617"><ele>568.0</ele><time>2026-05-02T14:14:46.722Z</time></trkpt><trkpt lat="42.8752067" lon="11.781725"><ele>568.0</ele><time>2026-05-02T14:14:47.722Z</time></trkpt><trkpt lat="42.8751367" lon="11.7817917"><ele>568.0</ele><time>2026-05-02T14:14:48.723Z</time></trkpt><trkpt lat="42.87507" lon="11.7818617"><ele>570.0</ele><time>2026-05-02T14:14:49.721Z</time></trkpt><trkpt lat="42.8749983" lon="11.7819283"><ele>572.0</ele><time>2026-05-02T14:14:50.723Z</time></trkpt><trkpt lat="42.874925" lon="11.7819967"><ele>574.0</ele><time>2026-05-02T14:14:51.722Z</time></trkpt><trkpt lat="42.8748517" lon="11.78207"><ele>576.0</ele><time>2026-05-02T14:14:52.721Z</time></trkpt><trkpt lat="42.8747767" lon="11.7821383"><ele>578.0</ele><time>2026-05-02T14:14:53.722Z</time></trkpt><trkpt lat="42.8747" lon="11.7822033"><ele>580.0</ele><time>2026-05-02T14:14:54.721Z</time></trkpt><trkpt lat="42.87462" lon="11.7822567"><ele>580.0</ele><time>2026-05-02T14:14:55.721Z</time></trkpt><trkpt lat="42.8745367" lon="11.7823017"><ele>580.0</ele><time>2026-05-02T14:14:56.722Z</time></trkpt><trkpt lat="42.8744533" lon="11.78234"><ele>580.0</ele><time>2026-05-02T14:14:57.723Z</time></trkpt><trkpt lat="42.8743683" lon="11.78237"><ele>580.0</ele><time>2026-05-02T14:14:58.721Z</time></trkpt><trkpt lat="42.8742817" lon="11.7823783"><ele>580.0</ele><time>2026-05-02T14:14:59.721Z</time></trkpt><trkpt lat="42.8741933" lon="11.782365"><ele>580.0</ele><time>2026-05-02T14:15:00.721Z</time></trkpt><trkpt lat="42.874105" lon="11.7823267"><ele>582.2</ele><time>2026-05-02T14:15:01.722Z</time></trkpt><trkpt lat="42.8740183" lon="11.782275"><ele>584.4</ele><time>2026-05-02T14:15:02.724Z</time></trkpt><trkpt lat="42.8739367" lon="11.7822083"><ele>586.6</ele><time>2026-05-02T14:15:03.721Z</time></trkpt><trkpt lat="42.8738583" lon="11.7821317"><ele>588.8</ele><time>2026-05-02T14:15:04.722Z</time></trkpt><trkpt lat="42.8737867" lon="11.7820533"><ele>591.0</ele><time>2026-05-02T14:15:05.722Z</time></trkpt><trkpt lat="42.873715" lon="11.7819783"><ele>591.0</ele><time>2026-05-02T14:15:06.722Z</time></trkpt><trkpt lat="42.8736517" lon="11.7819033"><ele>591.0</ele><time>2026-05-02T14:15:07.721Z</time></trkpt><trkpt lat="42.873595" lon="11.7818117"><ele>591.0</ele><time>2026-05-02T14:15:08.723Z</time></trkpt><trkpt lat="42.8735433" lon="11.7817017"><ele>591.0</ele><time>2026-05-02T14:15:09.722Z</time></trkpt><trkpt lat="42.8734933" lon="11.78157"><ele>591.0</ele><time>2026-05-02T14:15:10.722Z</time></trkpt><trkpt lat="42.87345" lon="11.7814217"><ele>588.25</ele><time>2026-05-02T14:15:11.722Z</time></trkpt><trkpt lat="42.87341" lon="11.7812683"><ele>585.5</ele><time>2026-05-02T14:15:12.722Z</time></trkpt><trkpt lat="42.8733733" lon="11.7811183"><ele>582.75</ele><time>2026-05-02T14:15:13.722Z</time></trkpt><trkpt lat="42.8733383" lon="11.7809683"><ele>580.0</ele><time>2026-05-02T14:15:14.723Z</time></trkpt><trkpt lat="42.8732967" lon="11.7808183"><ele>579.25</ele><time>2026-05-02T14:15:15.722Z</time></trkpt><trkpt lat="42.8732483" lon="11.780675"><ele>578.5</ele><time>2026-05-02T14:15:16.724Z</time></trkpt><trkpt lat="42.873195" lon="11.7805333"><ele>577.75</ele><time>2026-05-02T14:15:17.722Z</time></trkpt><trkpt lat="42.87313" lon="11.7803917"><ele>577.0</ele><time>2026-05-02T14:15:18.719Z</time></trkpt><trkpt lat="42.8730583" lon="11.7802583"><ele>576.25</ele><time>2026-05-02T14:15:19.72Z</time></trkpt><trkpt lat="42.8729783" lon="11.7801383"><ele>575.5</ele><time>2026-05-02T14:15:20.72Z</time></trkpt><trkpt lat="42.87289" lon="11.7800333"><ele>574.75</ele><time>2026-05-02T14:15:21.72Z</time></trkpt><trkpt lat="42.8727967" lon="11.77994"><ele>574.0</ele><time>2026-05-02T14:15:22.724Z</time></trkpt><trkpt lat="42.872695" lon="11.7798517"><ele>575.25</ele><time>2026-05-02T14:15:23.72Z</time></trkpt><trkpt lat="42.8725867" lon="11.7797733"><ele>576.5</ele><time>2026-05-02T14:15:24.72Z</time></trkpt><trkpt lat="42.8724683" lon="11.77971"><ele>577.75</ele><time>2026-05-02T14:15:25.72Z</time></trkpt><trkpt lat="42.87235" lon="11.7796633"><ele>579.0</ele><time>2026-05-02T14:15:26.72Z</time></trkpt><trkpt lat="42.8722317" lon="11.779635"><ele>579.0</ele><time>2026-05-02T14:15:27.72Z</time></trkpt><trkpt lat="42.8721083" lon="11.7796267"><ele>579.0</ele><time>2026-05-02T14:15:28.719Z</time></trkpt><trkpt lat="42.8719833" lon="11.779635"><ele>579.0</ele><time>2026-05-02T14:15:29.722Z</time></trkpt><trkpt lat="42.8718583" lon="11.77965"><ele>579.0</ele><time>2026-05-02T14:15:30.721Z</time></trkpt><trkpt lat="42.87174" lon="11.7796817"><ele>580.0</ele><time>2026-05-02T14:15:31.722Z</time></trkpt><trkpt lat="42.8716217" lon="11.77973"><ele>581.0</ele><time>2026-05-02T14:15:32.722Z</time></trkpt><trkpt lat="42.8715083" lon="11.7797933"><ele>582.0</ele><time>2026-05-02T14:15:33.722Z</time></trkpt><trkpt lat="42.8714" lon="11.7798567"><ele>583.0</ele><time>2026-05-02T14:15:34.721Z</time></trkpt><trkpt lat="42.8712933" lon="11.7799083"><ele>583.0</ele><time>2026-05-02T14:15:35.722Z</time></trkpt><trkpt lat="42.8711833" lon="11.7799417"><ele>583.0</ele><time>2026-05-02T14:15:36.722Z</time></trkpt><trkpt lat="42.8710733" lon="11.7799533"><ele>583.0</ele><time>2026-05-02T14:15:37.721Z</time></trkpt><trkpt lat="42.8709633" lon="11.7799467"><ele>583.0</ele><time>2026-05-02T14:15:38.723Z</time></trkpt><trkpt lat="42.8708517" lon="11.7799267"><ele>583.0</ele><time>2026-05-02T14:15:39.721Z</time></trkpt><trkpt lat="42.870745" lon="11.7798967"><ele>584.1999999999999</ele><time>2026-05-02T14:15:40.721Z</time></trkpt><trkpt lat="42.8706433" lon="11.7798633"><ele>585.4</ele><time>2026-05-02T14:15:41.722Z</time></trkpt><trkpt lat="42.8705517" lon="11.7798383"><ele>586.5999999999999</ele><time>2026-05-02T14:15:42.722Z</time></trkpt><trkpt lat="42.8704583" lon="11.7798233"><ele>587.8</ele><time>2026-05-02T14:15:43.72Z</time></trkpt><trkpt lat="42.8703633" lon="11.7798183"><ele>589.0</ele><time>2026-05-02T14:15:44.723Z</time></trkpt><trkpt lat="42.8702633" lon="11.77982"><ele>589.0</ele><time>2026-05-02T14:15:45.721Z</time></trkpt><trkpt lat="42.870155" lon="11.779835"><ele>589.0</ele><time>2026-05-02T14:15:46.722Z</time></trkpt><trkpt lat="42.870035" lon="11.7798633"><ele>589.0</ele><time>2026-05-02T14:15:47.719Z</time></trkpt><trkpt lat="42.8699133" lon="11.7798983"><ele>589.0</ele><time>2026-05-02T14:15:48.723Z</time></trkpt><trkpt lat="42.869795" lon="11.7799433"><ele>588.8</ele><time>2026-05-02T14:15:49.72Z</time></trkpt><trkpt lat="42.8696817" lon="11.779995"><ele>588.5999999999999</ele><time>2026-05-02T14:15:50.72Z</time></trkpt><trkpt lat="42.8695783" lon="11.7800367"><ele>588.4</ele><time>2026-05-02T14:15:51.72Z</time></trkpt><trkpt lat="42.8694767" lon="11.7800767"><ele>588.1999999999999</ele><time>2026-05-02T14:15:52.72Z</time></trkpt><trkpt lat="42.8693783" lon="11.7801217"><ele>588.0</ele><time>2026-05-02T14:15:53.72Z</time></trkpt><trkpt lat="42.869285" lon="11.7801783"><ele>585.8</ele><time>2026-05-02T14:15:54.72Z</time></trkpt><trkpt lat="42.8691983" lon="11.7802467"><ele>583.5999999999999</ele><time>2026-05-02T14:15:55.72Z</time></trkpt><trkpt lat="42.8691167" lon="11.7803267"><ele>581.4000000000001</ele><time>2026-05-02T14:15:56.721Z</time></trkpt><trkpt lat="42.8690483" lon="11.7804117"><ele>579.2</ele><time>2026-05-02T14:15:57.72Z</time></trkpt><trkpt lat="42.868985" lon="11.7805"><ele>577.0</ele><time>2026-05-02T14:15:58.719Z</time></trkpt><trkpt lat="42.8689333" lon="11.780595"><ele>577.0</ele><time>2026-05-02T14:15:59.722Z</time></trkpt><trkpt lat="42.86888" lon="11.780695"><ele>577.0</ele><time>2026-05-02T14:16:00.722Z</time></trkpt><trkpt lat="42.8688333" lon="11.780795"><ele>577.0</ele><time>2026-05-02T14:16:01.722Z</time></trkpt><trkpt lat="42.8687867" lon="11.780885"><ele>577.0</ele><time>2026-05-02T14:16:02.722Z</time></trkpt><trkpt lat="42.86875" lon="11.780975"><ele>577.0</ele><time>2026-05-02T14:16:03.722Z</time></trkpt><trkpt lat="42.86872" lon="11.7810667"><ele>577.0</ele><time>2026-05-02T14:16:04.722Z</time></trkpt><trkpt lat="42.8686917" lon="11.78116"><ele>575.4285714285714</ele><time>2026-05-02T14:16:05.722Z</time></trkpt><trkpt lat="42.868665" lon="11.781255"><ele>573.8571428571429</ele><time>2026-05-02T14:16:06.722Z</time></trkpt><trkpt lat="42.8686383" lon="11.781345"><ele>572.2857142857143</ele><time>2026-05-02T14:16:07.722Z</time></trkpt><trkpt lat="42.8686033" lon="11.7814233"><ele>570.7142857142858</ele><time>2026-05-02T14:16:08.723Z</time></trkpt><trkpt lat="42.86856" lon="11.7814983"><ele>569.1428571428572</ele><time>2026-05-02T14:16:09.722Z</time></trkpt><trkpt lat="42.8684983" lon="11.7815583"><ele>567.5714285714286</ele><time>2026-05-02T14:16:10.723Z</time></trkpt><trkpt lat="42.8684283" lon="11.7816067"><ele>566.0</ele><time>2026-05-02T14:16:11.723Z</time></trkpt><trkpt lat="42.86835" lon="11.7816533"><ele>566.0</ele><time>2026-05-02T14:16:12.722Z</time></trkpt><trkpt lat="42.8682633" lon="11.7816917"><ele>566.0</ele><time>2026-05-02T14:16:13.722Z</time></trkpt><trkpt lat="42.8681683" lon="11.7817283"><ele>566.0</ele><time>2026-05-02T14:16:14.723Z</time></trkpt><trkpt lat="42.86807" lon="11.78176"><ele>566.0</ele><time>2026-05-02T14:16:15.722Z</time></trkpt><trkpt lat="42.86797" lon="11.7817883"><ele>566.0</ele><time>2026-05-02T14:16:16.722Z</time></trkpt><trkpt lat="42.8678683" lon="11.7818"><ele>566.0</ele><time>2026-05-02T14:16:17.72Z</time></trkpt><trkpt lat="42.8677667" lon="11.78179"><ele>566.0</ele><time>2026-05-02T14:16:18.72Z</time></trkpt><trkpt lat="42.8676683" lon="11.7817517"><ele>566.0</ele><time>2026-05-02T14:16:19.721Z</time></trkpt><trkpt lat="42.8675717" lon="11.781695"><ele>566.0</ele><time>2026-05-02T14:16:20.721Z</time></trkpt><trkpt lat="42.8674783" lon="11.7816333"><ele>566.0</ele><time>2026-05-02T14:16:21.721Z</time></trkpt><trkpt lat="42.8673817" lon="11.7815783"><ele>564.0</ele><time>2026-05-02T14:16:22.721Z</time></trkpt><trkpt lat="42.8672783" lon="11.7815383"><ele>562.0</ele><time>2026-05-02T14:16:23.721Z</time></trkpt><trkpt lat="42.8671733" lon="11.781515"><ele>560.0</ele><time>2026-05-02T14:16:24.721Z</time></trkpt><trkpt lat="42.8670667" lon="11.7815083"><ele>558.0</ele><time>2026-05-02T14:16:25.721Z</time></trkpt><trkpt lat="42.8669617" lon="11.781525"><ele>556.0</ele><time>2026-05-02T14:16:26.721Z</time></trkpt><trkpt lat="42.86686" lon="11.7815633"><ele>555.0</ele><time>2026-05-02T14:16:27.721Z</time></trkpt><trkpt lat="42.8667633" lon="11.7816217"><ele>554.0</ele><time>2026-05-02T14:16:28.721Z</time></trkpt><trkpt lat="42.86667" lon="11.7816983"><ele>553.0</ele><time>2026-05-02T14:16:29.722Z</time></trkpt><trkpt lat="42.866575" lon="11.7817817"><ele>552.0</ele><time>2026-05-02T14:16:30.721Z</time></trkpt><trkpt lat="42.86648" lon="11.7818683"><ele>551.0</ele><time>2026-05-02T14:16:31.722Z</time></trkpt><trkpt lat="42.86639" lon="11.781955"><ele>548.8</ele><time>2026-05-02T14:16:32.719Z</time></trkpt><trkpt lat="42.8663" lon="11.7820383"><ele>546.6</ele><time>2026-05-02T14:16:33.719Z</time></trkpt><trkpt lat="42.8662167" lon="11.7821217"><ele>544.4</ele><time>2026-05-02T14:16:34.725Z</time></trkpt><trkpt lat="42.8661367" lon="11.7822133"><ele>542.2</ele><time>2026-05-02T14:16:35.719Z</time></trkpt><trkpt lat="42.8660617" lon="11.7823167"><ele>540.0</ele><time>2026-05-02T14:16:36.719Z</time></trkpt><trkpt lat="42.8659917" lon="11.7824367"><ele>540.5</ele><time>2026-05-02T14:16:37.722Z</time></trkpt><trkpt lat="42.8659233" lon="11.7825717"><ele>541.0</ele><time>2026-05-02T14:16:38.719Z</time></trkpt><trkpt lat="42.8658533" lon="11.782725"><ele>541.5</ele><time>2026-05-02T14:16:39.719Z</time></trkpt><trkpt lat="42.8657783" lon="11.7829017"><ele>542.0</ele><time>2026-05-02T14:16:40.721Z</time></trkpt><trkpt lat="42.865695" lon="11.7830967"><ele>537.6666666666666</ele><time>2026-05-02T14:16:41.723Z</time></trkpt><trkpt lat="42.8656083" lon="11.7833017"><ele>533.3333333333334</ele><time>2026-05-02T14:16:42.721Z</time></trkpt><trkpt lat="42.8655167" lon="11.7834967"><ele>529.0</ele><time>2026-05-02T14:16:43.722Z</time></trkpt><trkpt lat="42.8654267" lon="11.7836767"><ele>525.6666666666667</ele><time>2026-05-02T14:16:44.722Z</time></trkpt><trkpt lat="42.865335" lon="11.78386"><ele>522.3333333333334</ele><time>2026-05-02T14:16:45.721Z</time></trkpt><trkpt lat="42.86524" lon="11.7840317"><ele>519.0</ele><time>2026-05-02T14:16:46.724Z</time></trkpt><trkpt lat="42.8651417" lon="11.7841967"><ele>521.0</ele><time>2026-05-02T14:16:47.721Z</time></trkpt><trkpt lat="42.86504" lon="11.7843583"><ele>523.0</ele><time>2026-05-02T14:16:48.72Z</time></trkpt><trkpt lat="42.8649367" lon="11.78452"><ele>525.0</ele><time>2026-05-02T14:16:49.72Z</time></trkpt><trkpt lat="42.8648317" lon="11.7846867"><ele>525.0</ele><time>2026-05-02T14:16:50.721Z</time></trkpt><trkpt lat="42.8647317" lon="11.7848583"><ele>525.0</ele><time>2026-05-02T14:16:51.721Z</time></trkpt><trkpt lat="42.864635" lon="11.785035"><ele>525.0</ele><time>2026-05-02T14:16:52.721Z</time></trkpt><trkpt lat="42.8645417" lon="11.7852067"><ele>523.5</ele><time>2026-05-02T14:16:53.721Z</time></trkpt><trkpt lat="42.8644517" lon="11.7853783"><ele>522.0</ele><time>2026-05-02T14:16:54.721Z</time></trkpt><trkpt lat="42.8643717" lon="11.785545"><ele>520.5</ele><time>2026-05-02T14:16:55.721Z</time></trkpt><trkpt lat="42.8642983" lon="11.7857017"><ele>519.0</ele><time>2026-05-02T14:16:56.721Z</time></trkpt><trkpt lat="42.8642283" lon="11.7858383"><ele>521.75</ele><time>2026-05-02T14:16:57.721Z</time></trkpt><trkpt lat="42.864155" lon="11.7859583"><ele>524.5</ele><time>2026-05-02T14:16:58.719Z</time></trkpt><trkpt lat="42.8640667" lon="11.78606"><ele>527.25</ele><time>2026-05-02T14:16:59.722Z</time></trkpt><trkpt lat="42.8639683" lon="11.7861367"><ele>530.0</ele><time>2026-05-02T14:17:00.722Z</time></trkpt><trkpt lat="42.8638667" lon="11.7861833"><ele>530.0</ele><time>2026-05-02T14:17:01.723Z</time></trkpt><trkpt lat="42.8637667" lon="11.7862167"><ele>530.0</ele><time>2026-05-02T14:17:02.723Z</time></trkpt><trkpt lat="42.863655" lon="11.786255"><ele>530.0</ele><time>2026-05-02T14:17:03.722Z</time></trkpt><trkpt lat="42.8635417" lon="11.78631"><ele>530.0</ele><time>2026-05-02T14:17:04.722Z</time></trkpt><trkpt lat="42.8634283" lon="11.78638"><ele>531.4</ele><time>2026-05-02T14:17:05.722Z</time></trkpt><trkpt lat="42.8633233" lon="11.78645"><ele>532.8</ele><time>2026-05-02T14:17:06.722Z</time></trkpt><trkpt lat="42.8632233" lon="11.7865133"><ele>534.2</ele><time>2026-05-02T14:17:07.722Z</time></trkpt><trkpt lat="42.863125" lon="11.7865767"><ele>535.6</ele><time>2026-05-02T14:17:08.723Z</time></trkpt><trkpt lat="42.86303" lon="11.7866317"><ele>537.0</ele><time>2026-05-02T14:17:09.722Z</time></trkpt><trkpt lat="42.8629367" lon="11.7866933"><ele>537.0</ele><time>2026-05-02T14:17:10.722Z</time></trkpt><trkpt lat="42.8628367" lon="11.7867633"><ele>537.0</ele><time>2026-05-02T14:17:11.719Z</time></trkpt><trkpt lat="42.8627367" lon="11.7868383"><ele>537.0</ele><time>2026-05-02T14:17:12.72Z</time></trkpt><trkpt lat="42.8626383" lon="11.7869183"><ele>537.0</ele><time>2026-05-02T14:17:13.723Z</time></trkpt><trkpt lat="42.862535" lon="11.786995"><ele>535.5</ele><time>2026-05-02T14:17:14.722Z</time></trkpt><trkpt lat="42.86244" lon="11.7870667"><ele>534.0</ele><time>2026-05-02T14:17:15.723Z</time></trkpt><trkpt lat="42.8623417" lon="11.78713"><ele>532.5</ele><time>2026-05-02T14:17:16.722Z</time></trkpt><trkpt lat="42.862235" lon="11.787195"><ele>531.0</ele><time>2026-05-02T14:17:17.72Z</time></trkpt><trkpt lat="42.8621233" lon="11.787255"><ele>531.0</ele><time>2026-05-02T14:17:18.72Z</time></trkpt><trkpt lat="42.8620033" lon="11.7873167"><ele>531.0</ele><time>2026-05-02T14:17:19.721Z</time></trkpt><trkpt lat="42.8618733" lon="11.78738"><ele>531.0</ele><time>2026-05-02T14:17:20.721Z</time></trkpt><trkpt lat="42.861735" lon="11.7874433"><ele>531.0</ele><time>2026-05-02T14:17:21.721Z</time></trkpt><trkpt lat="42.8615867" lon="11.7875"><ele>530.3333333333334</ele><time>2026-05-02T14:17:22.721Z</time></trkpt><trkpt lat="42.86143" lon="11.7875567"><ele>529.6666666666667</ele><time>2026-05-02T14:17:23.721Z</time></trkpt><trkpt lat="42.8612683" lon="11.7876133"><ele>529.0</ele><time>2026-05-02T14:17:24.724Z</time></trkpt><trkpt lat="42.8611033" lon="11.7876683"><ele>525.6666666666667</ele><time>2026-05-02T14:17:25.722Z</time></trkpt><trkpt lat="42.860935" lon="11.7877117"><ele>522.3333333333334</ele><time>2026-05-02T14:17:26.723Z</time></trkpt><trkpt lat="42.860765" lon="11.7877517"><ele>519.0</ele><time>2026-05-02T14:17:27.722Z</time></trkpt><trkpt lat="42.8605967" lon="11.7877817"><ele>519.0</ele><time>2026-05-02T14:17:28.722Z</time></trkpt><trkpt lat="42.8604283" lon="11.7877983"><ele>519.0</ele><time>2026-05-02T14:17:29.722Z</time></trkpt><trkpt lat="42.8602633" lon="11.78781"><ele>519.0</ele><time>2026-05-02T14:17:30.722Z</time></trkpt><trkpt lat="42.860105" lon="11.787825"><ele>519.75</ele><time>2026-05-02T14:17:31.721Z</time></trkpt><trkpt lat="42.8599583" lon="11.7878367"><ele>520.5</ele><time>2026-05-02T14:17:32.723Z</time></trkpt><trkpt lat="42.8598217" lon="11.7878483"><ele>521.25</ele><time>2026-05-02T14:17:33.722Z</time></trkpt><trkpt lat="42.8596967" lon="11.7878583"><ele>522.0</ele><time>2026-05-02T14:17:34.722Z</time></trkpt><trkpt lat="42.8595767" lon="11.78787"><ele>522.0</ele><time>2026-05-02T14:17:35.722Z</time></trkpt><trkpt lat="42.8594583" lon="11.7878833"><ele>522.0</ele><time>2026-05-02T14:17:36.722Z</time></trkpt><trkpt lat="42.8593433" lon="11.787885"><ele>522.0</ele><time>2026-05-02T14:17:37.722Z</time></trkpt><trkpt lat="42.8592317" lon="11.7878767"><ele>522.0</ele><time>2026-05-02T14:17:38.723Z</time></trkpt><trkpt lat="42.8591233" lon="11.7878567"><ele>522.75</ele><time>2026-05-02T14:17:39.722Z</time></trkpt><trkpt lat="42.8590133" lon="11.7878233"><ele>523.5</ele><time>2026-05-02T14:17:40.722Z</time></trkpt><trkpt lat="42.8589" lon="11.7877883"><ele>524.25</ele><time>2026-05-02T14:17:41.722Z</time></trkpt><trkpt lat="42.858785" lon="11.7877533"><ele>525.0</ele><time>2026-05-02T14:17:42.722Z</time></trkpt><trkpt lat="42.85867" lon="11.787715"><ele>524.0</ele><time>2026-05-02T14:17:43.722Z</time></trkpt><trkpt lat="42.8585567" lon="11.7876767"><ele>523.0</ele><time>2026-05-02T14:17:44.723Z</time></trkpt><trkpt lat="42.8584417" lon="11.7876417"><ele>522.0</ele><time>2026-05-02T14:17:45.722Z</time></trkpt><trkpt lat="42.8583283" lon="11.7876033"><ele>521.0</ele><time>2026-05-02T14:17:46.722Z</time></trkpt><trkpt lat="42.858215" lon="11.7875533"><ele>519.25</ele><time>2026-05-02T14:17:47.719Z</time></trkpt><trkpt lat="42.8581" lon="11.7875"><ele>517.5</ele><time>2026-05-02T14:17:48.719Z</time></trkpt><trkpt lat="42.857985" lon="11.78745"><ele>515.75</ele><time>2026-05-02T14:17:49.719Z</time></trkpt><trkpt lat="42.8578717" lon="11.7873983"><ele>514.0</ele><time>2026-05-02T14:17:50.721Z</time></trkpt><trkpt lat="42.8577583" lon="11.78735"><ele>514.0</ele><time>2026-05-02T14:17:51.721Z</time></trkpt><trkpt lat="42.8576467" lon="11.787305"><ele>514.0</ele><time>2026-05-02T14:17:52.719Z</time></trkpt><trkpt lat="42.857535" lon="11.7872633"><ele>514.0</ele><time>2026-05-02T14:17:53.72Z</time></trkpt><trkpt lat="42.857425" lon="11.7872283"><ele>514.0</ele><time>2026-05-02T14:17:54.723Z</time></trkpt><trkpt lat="42.8573183" lon="11.7872033"><ele>514.2</ele><time>2026-05-02T14:17:55.722Z</time></trkpt><trkpt lat="42.8572167" lon="11.787185"><ele>514.4</ele><time>2026-05-02T14:17:56.723Z</time></trkpt><trkpt lat="42.857115" lon="11.7871833"><ele>514.6</ele><time>2026-05-02T14:17:57.722Z</time></trkpt><trkpt lat="42.8570117" lon="11.7872"><ele>514.8</ele><time>2026-05-02T14:17:58.722Z</time></trkpt><trkpt lat="42.8569083" lon="11.7872317"><ele>515.0</ele><time>2026-05-02T14:17:59.722Z</time></trkpt><trkpt lat="42.85681" lon="11.7872767"><ele>513.0</ele><time>2026-05-02T14:18:00.722Z</time></trkpt><trkpt lat="42.8567167" lon="11.78733"><ele>511.0</ele><time>2026-05-02T14:18:01.722Z</time></trkpt><trkpt lat="42.8566283" lon="11.787375"><ele>509.0</ele><time>2026-05-02T14:18:02.723Z</time></trkpt><trkpt lat="42.8565433" lon="11.787415"><ele>507.0</ele><time>2026-05-02T14:18:03.722Z</time></trkpt><trkpt lat="42.85646" lon="11.787455"><ele>505.0</ele><time>2026-05-02T14:18:04.722Z</time></trkpt><trkpt lat="42.8563867" lon="11.787515"><ele>505.0</ele><time>2026-05-02T14:18:05.723Z</time></trkpt><trkpt lat="42.8563217" lon="11.787595"><ele>505.0</ele><time>2026-05-02T14:18:06.724Z</time></trkpt><trkpt lat="42.85627" lon="11.7876933"><ele>505.0</ele><time>2026-05-02T14:18:07.722Z</time></trkpt><trkpt lat="42.8562317" lon="11.787805"><ele>505.0</ele><time>2026-05-02T14:18:08.722Z</time></trkpt><trkpt lat="42.85621" lon="11.7879333"><ele>505.0</ele><time>2026-05-02T14:18:09.723Z</time></trkpt><trkpt lat="42.8562067" lon="11.7880583"><ele>505.0</ele><time>2026-05-02T14:18:10.722Z</time></trkpt><trkpt lat="42.8562217" lon="11.7881767"><ele>504.99999999999994</ele><time>2026-05-02T14:18:11.722Z</time></trkpt><trkpt lat="42.856235" lon="11.7882783"><ele>505.0</ele><time>2026-05-02T14:18:12.722Z</time></trkpt><trkpt lat="42.85624" lon="11.7883717"><ele>505.0</ele><time>2026-05-02T14:18:13.721Z</time></trkpt><trkpt lat="42.85623" lon="11.7884667"><ele>504.99999999999994</ele><time>2026-05-02T14:18:14.722Z</time></trkpt><trkpt lat="42.856205" lon="11.7885567"><ele>505.0</ele><time>2026-05-02T14:18:15.721Z</time></trkpt><trkpt lat="42.8561683" lon="11.7886383"><ele>505.0</ele><time>2026-05-02T14:18:16.721Z</time></trkpt><trkpt lat="42.856115" lon="11.7887083"><ele>504.1666666666667</ele><time>2026-05-02T14:18:17.721Z</time></trkpt><trkpt lat="42.8560483" lon="11.7887567"><ele>503.33333333333337</ele><time>2026-05-02T14:18:18.721Z</time></trkpt><trkpt lat="42.85598" lon="11.7887767"><ele>502.5</ele><time>2026-05-02T14:18:19.721Z</time></trkpt><trkpt lat="42.8559083" lon="11.7887683"><ele>501.66666666666663</ele><time>2026-05-02T14:18:20.722Z</time></trkpt><trkpt lat="42.8558317" lon="11.7887517"><ele>500.8333333333333</ele><time>2026-05-02T14:18:21.721Z</time></trkpt><trkpt lat="42.855755" lon="11.7887283"><ele>500.0</ele><time>2026-05-02T14:18:22.721Z</time></trkpt><trkpt lat="42.8556817" lon="11.7886983"><ele>498.57142857142856</ele><time>2026-05-02T14:18:23.721Z</time></trkpt><trkpt lat="42.8556117" lon="11.788665"><ele>497.14285714285717</ele><time>2026-05-02T14:18:24.722Z</time></trkpt><trkpt lat="42.855545" lon="11.7886317"><ele>495.7142857142857</ele><time>2026-05-02T14:18:25.721Z</time></trkpt><trkpt lat="42.855475" lon="11.7886017"><ele>494.2857142857143</ele><time>2026-05-02T14:18:26.722Z</time></trkpt><trkpt lat="42.8554067" lon="11.7885817"><ele>492.8571428571429</ele><time>2026-05-02T14:18:27.721Z</time></trkpt><trkpt lat="42.8553367" lon="11.7885683"><ele>491.42857142857144</ele><time>2026-05-02T14:18:28.721Z</time></trkpt><trkpt lat="42.855265" lon="11.7885633"><ele>490.0</ele><time>2026-05-02T14:18:29.721Z</time></trkpt><trkpt lat="42.855195" lon="11.78857"><ele>490.0</ele><time>2026-05-02T14:18:30.721Z</time></trkpt><trkpt lat="42.8551267" lon="11.7885867"><ele>490.0</ele><time>2026-05-02T14:18:31.721Z</time></trkpt><trkpt lat="42.8550617" lon="11.7886067"><ele>490.0</ele><time>2026-05-02T14:18:32.722Z</time></trkpt><trkpt lat="42.854995" lon="11.7886467"><ele>490.0</ele><time>2026-05-02T14:18:33.721Z</time></trkpt><trkpt lat="42.854935" lon="11.788705"><ele>490.0</ele><time>2026-05-02T14:18:34.721Z</time></trkpt><trkpt lat="42.8548767" lon="11.7887617"><ele>490.0</ele><time>2026-05-02T14:18:35.721Z</time></trkpt><trkpt lat="42.8548217" lon="11.7888167"><ele>490.0</ele><time>2026-05-02T14:18:36.721Z</time></trkpt><trkpt lat="42.8547717" lon="11.7888767"><ele>488.57142857142856</ele><time>2026-05-02T14:18:37.723Z</time></trkpt><trkpt lat="42.8547233" lon="11.7889433"><ele>487.1428571428571</ele><time>2026-05-02T14:18:38.722Z</time></trkpt><trkpt lat="42.85468" lon="11.7890183"><ele>485.7142857142857</ele><time>2026-05-02T14:18:39.721Z</time></trkpt><trkpt lat="42.8546483" lon="11.7891033"><ele>484.2857142857143</ele><time>2026-05-02T14:18:40.721Z</time></trkpt><trkpt lat="42.85462" lon="11.789195"><ele>482.85714285714283</ele><time>2026-05-02T14:18:41.721Z</time></trkpt><trkpt lat="42.8545867" lon="11.7892867"><ele>481.42857142857144</ele><time>2026-05-02T14:18:42.721Z</time></trkpt><trkpt lat="42.8545517" lon="11.7893717"><ele>480.0</ele><time>2026-05-02T14:18:43.721Z</time></trkpt><trkpt lat="42.85451" lon="11.789465"><ele>478.6666666666667</ele><time>2026-05-02T14:18:44.722Z</time></trkpt><trkpt lat="42.854465" lon="11.7895633"><ele>477.33333333333337</ele><time>2026-05-02T14:18:45.721Z</time></trkpt><trkpt lat="42.8544167" lon="11.7896583"><ele>476.0</ele><time>2026-05-02T14:18:46.721Z</time></trkpt><trkpt lat="42.8543667" lon="11.7897483"><ele>474.6666666666667</ele><time>2026-05-02T14:18:47.721Z</time></trkpt><trkpt lat="42.8543133" lon="11.78983"><ele>473.33333333333337</ele><time>2026-05-02T14:18:48.721Z</time></trkpt><trkpt lat="42.85426" lon="11.7899083"><ele>472.0</ele><time>2026-05-02T14:18:49.721Z</time></trkpt><trkpt lat="42.8541983" lon="11.7899783"><ele>471.42857142857144</ele><time>2026-05-02T14:18:50.721Z</time></trkpt><trkpt lat="42.854135" lon="11.7900367"><ele>470.8571428571429</ele><time>2026-05-02T14:18:51.721Z</time></trkpt><trkpt lat="42.8540717" lon="11.7900883"><ele>470.28571428571433</ele><time>2026-05-02T14:18:52.721Z</time></trkpt><trkpt lat="42.8540133" lon="11.7901483"><ele>469.7142857142857</ele><time>2026-05-02T14:18:53.721Z</time></trkpt><trkpt lat="42.853965" lon="11.7902167"><ele>469.1428571428572</ele><time>2026-05-02T14:18:54.722Z</time></trkpt><trkpt lat="42.8539217" lon="11.7902967"><ele>468.5714285714286</ele><time>2026-05-02T14:18:55.721Z</time></trkpt><trkpt lat="42.8538833" lon="11.7903833"><ele>468.0</ele><time>2026-05-02T14:18:56.722Z</time></trkpt><trkpt lat="42.853855" lon="11.79048"><ele>466.42857142857144</ele><time>2026-05-02T14:18:57.721Z</time></trkpt><trkpt lat="42.8538333" lon="11.7905817"><ele>464.8571428571429</ele><time>2026-05-02T14:18:58.721Z</time></trkpt><trkpt lat="42.8538167" lon="11.790685"><ele>463.28571428571433</ele><time>2026-05-02T14:18:59.721Z</time></trkpt><trkpt lat="42.85381" lon="11.79079"><ele>461.7142857142858</ele><time>2026-05-02T14:19:00.721Z</time></trkpt><trkpt lat="42.8537983" lon="11.79089"><ele>460.14285714285717</ele><time>2026-05-02T14:19:01.721Z</time></trkpt><trkpt lat="42.8537767" lon="11.790985"><ele>458.57142857142867</ele><time>2026-05-02T14:19:02.719Z</time></trkpt><trkpt lat="42.8537467" lon="11.79107"><ele>457.00000000000006</ele><time>2026-05-02T14:19:03.719Z</time></trkpt><trkpt lat="42.853705" lon="11.7911433"><ele>454.5714285714286</ele><time>2026-05-02T14:19:04.719Z</time></trkpt><trkpt lat="42.8536483" lon="11.7912133"><ele>452.14285714285717</ele><time>2026-05-02T14:19:05.719Z</time></trkpt><trkpt lat="42.8535817" lon="11.7912633"><ele>449.7142857142857</ele><time>2026-05-02T14:19:06.72Z</time></trkpt><trkpt lat="42.85351" lon="11.7912967"><ele>447.28571428571433</ele><time>2026-05-02T14:19:07.72Z</time></trkpt><trkpt lat="42.8534367" lon="11.79131"><ele>444.8571428571429</ele><time>2026-05-02T14:19:08.72Z</time></trkpt><trkpt lat="42.853365" lon="11.7913033"><ele>442.4285714285714</ele><time>2026-05-02T14:19:09.719Z</time></trkpt><trkpt lat="42.8532967" lon="11.791275"><ele>440.0</ele><time>2026-05-02T14:19:10.719Z</time></trkpt><trkpt lat="42.8532317" lon="11.7912367"><ele>439.99999999999994</ele><time>2026-05-02T14:19:11.721Z</time></trkpt><trkpt lat="42.85317" lon="11.7911917"><ele>440.0</ele><time>2026-05-02T14:19:12.721Z</time></trkpt><trkpt lat="42.853115" lon="11.7911367"><ele>440.0</ele><time>2026-05-02T14:19:13.721Z</time></trkpt><trkpt lat="42.8530617" lon="11.7910767"><ele>440.0</ele><time>2026-05-02T14:19:14.721Z</time></trkpt><trkpt lat="42.853005" lon="11.79103"><ele>439.99999999999994</ele><time>2026-05-02T14:19:15.721Z</time></trkpt><trkpt lat="42.852885" lon="11.7910283"><ele>440.0</ele><time>2026-05-02T14:19:17.721Z</time></trkpt><trkpt lat="42.8528017" lon="11.79112"><ele>439.99999999999994</ele><time>2026-05-02T14:19:19.721Z</time></trkpt><trkpt lat="42.852805" lon="11.791285"><ele>440.0</ele><time>2026-05-02T14:19:21.721Z</time></trkpt><trkpt lat="42.8528483" lon="11.7913783"><ele>440.0</ele><time>2026-05-02T14:19:22.721Z</time></trkpt><trkpt lat="42.852895" lon="11.7914667"><ele>440.0</ele><time>2026-05-02T14:19:23.722Z</time></trkpt><trkpt lat="42.8529483" lon="11.79155"><ele>439.99999999999994</ele><time>2026-05-02T14:19:24.721Z</time></trkpt><trkpt lat="42.8529983" lon="11.7916267"><ele>440.0</ele><time>2026-05-02T14:19:25.721Z</time></trkpt><trkpt lat="42.8530517" lon="11.7916983"><ele>439.99999999999994</ele><time>2026-05-02T14:19:26.722Z</time></trkpt><trkpt lat="42.85311" lon="11.7917633"><ele>440.0</ele><time>2026-05-02T14:19:27.721Z</time></trkpt><trkpt lat="42.8531633" lon="11.7918233"><ele>440.0</ele><time>2026-05-02T14:19:28.718Z</time></trkpt><trkpt lat="42.85321" lon="11.7918883"><ele>440.0</ele><time>2026-05-02T14:19:29.721Z</time></trkpt><trkpt lat="42.853245" lon="11.79196"><ele>440.0</ele><time>2026-05-02T14:19:30.72Z</time></trkpt><trkpt lat="42.8532517" lon="11.79211"><ele>439.99999999999994</ele><time>2026-05-02T14:19:32.719Z</time></trkpt><trkpt lat="42.8532117" lon="11.7921783"><ele>440.0</ele><time>2026-05-02T14:19:33.719Z</time></trkpt><trkpt lat="42.8531533" lon="11.79222"><ele>437.66666666666663</ele><time>2026-05-02T14:19:34.721Z</time></trkpt><trkpt lat="42.8530833" lon="11.79223"><ele>435.3333333333333</ele><time>2026-05-02T14:19:35.721Z</time></trkpt><trkpt lat="42.85301" lon="11.7922233"><ele>433.0</ele><time>2026-05-02T14:19:36.721Z</time></trkpt><trkpt lat="42.852935" lon="11.7922"><ele>430.66666666666663</ele><time>2026-05-02T14:19:37.72Z</time></trkpt><trkpt lat="42.8528567" lon="11.7921667"><ele>428.3333333333333</ele><time>2026-05-02T14:19:38.72Z</time></trkpt><trkpt lat="42.8527717" lon="11.79213"><ele>426.0</ele><time>2026-05-02T14:19:39.719Z</time></trkpt><trkpt lat="42.8526883" lon="11.7920883"><ele>426.1666666666667</ele><time>2026-05-02T14:19:40.72Z</time></trkpt><trkpt lat="42.8526017" lon="11.7920417"><ele>426.33333333333337</ele><time>2026-05-02T14:19:41.72Z</time></trkpt><trkpt lat="42.8525233" lon="11.79198"><ele>426.5</ele><time>2026-05-02T14:19:42.719Z</time></trkpt><trkpt lat="42.85245" lon="11.7919133"><ele>426.6666666666667</ele><time>2026-05-02T14:19:43.721Z</time></trkpt><trkpt lat="42.8523767" lon="11.7918417"><ele>426.83333333333337</ele><time>2026-05-02T14:19:44.72Z</time></trkpt><trkpt lat="42.8523133" lon="11.791765"><ele>427.0</ele><time>2026-05-02T14:19:45.721Z</time></trkpt><trkpt lat="42.852255" lon="11.7916767"><ele>427.00000000000006</ele><time>2026-05-02T14:19:46.721Z</time></trkpt><trkpt lat="42.852195" lon="11.7915917"><ele>427.0</ele><time>2026-05-02T14:19:47.721Z</time></trkpt><trkpt lat="42.8521333" lon="11.79151"><ele>427.0</ele><time>2026-05-02T14:19:48.721Z</time></trkpt><trkpt lat="42.8520683" lon="11.7914367"><ele>427.0</ele><time>2026-05-02T14:19:49.722Z</time></trkpt><trkpt lat="42.8519967" lon="11.7913833"><ele>427.00000000000006</ele><time>2026-05-02T14:19:50.722Z</time></trkpt><trkpt lat="42.85192" lon="11.7913567"><ele>427.0</ele><time>2026-05-02T14:19:51.721Z</time></trkpt><trkpt lat="42.85184" lon="11.7913483"><ele>424.6666666666667</ele><time>2026-05-02T14:19:52.721Z</time></trkpt><trkpt lat="42.8517567" lon="11.7913733"><ele>422.33333333333337</ele><time>2026-05-02T14:19:53.718Z</time></trkpt><trkpt lat="42.8516917" lon="11.7914183"><ele>420.0</ele><time>2026-05-02T14:19:54.722Z</time></trkpt><trkpt lat="42.851635" lon="11.7914783"><ele>417.66666666666663</ele><time>2026-05-02T14:19:55.721Z</time></trkpt><trkpt lat="42.851585" lon="11.7916383"><ele>415.3333333333333</ele><time>2026-05-02T14:19:57.721Z</time></trkpt><trkpt lat="42.8515933" lon="11.7917367"><ele>413.0</ele><time>2026-05-02T14:19:58.721Z</time></trkpt><trkpt lat="42.8516183" lon="11.7918267"><ele>414.0</ele><time>2026-05-02T14:19:59.721Z</time></trkpt><trkpt lat="42.8516667" lon="11.7919167"><ele>415.0</ele><time>2026-05-02T14:20:00.721Z</time></trkpt><trkpt lat="42.85173" lon="11.7920083"><ele>416.0</ele><time>2026-05-02T14:20:01.721Z</time></trkpt><trkpt lat="42.851795" lon="11.7921017"><ele>417.0</ele><time>2026-05-02T14:20:02.722Z</time></trkpt><trkpt lat="42.8518633" lon="11.7921917"><ele>418.0</ele><time>2026-05-02T14:20:03.719Z</time></trkpt><trkpt lat="42.8519333" lon="11.7922767"><ele>418.0</ele><time>2026-05-02T14:20:04.719Z</time></trkpt><trkpt lat="42.85199" lon="11.7923617"><ele>418.0</ele><time>2026-05-02T14:20:05.719Z</time></trkpt><trkpt lat="42.8520417" lon="11.792445"><ele>418.0</ele><time>2026-05-02T14:20:06.72Z</time></trkpt><trkpt lat="42.85208" lon="11.7925283"><ele>418.0</ele><time>2026-05-02T14:20:07.719Z</time></trkpt><trkpt lat="42.852085" lon="11.79268"><ele>418.0</ele><time>2026-05-02T14:20:09.727Z</time></trkpt><trkpt lat="42.8520017" lon="11.7927833"><ele>416.00000000000006</ele><time>2026-05-02T14:20:11.718Z</time></trkpt><trkpt lat="42.8518767" lon="11.7927467"><ele>414.0</ele><time>2026-05-02T14:20:13.721Z</time></trkpt><trkpt lat="42.8518083" lon="11.792695"><ele>412.0</ele><time>2026-05-02T14:20:14.722Z</time></trkpt><trkpt lat="42.851735" lon="11.79266"><ele>410.0</ele><time>2026-05-02T14:20:15.721Z</time></trkpt><trkpt lat="42.851665" lon="11.792655"><ele>408.00000000000006</ele><time>2026-05-02T14:20:16.721Z</time></trkpt><trkpt lat="42.8515983" lon="11.7926817"><ele>406.0</ele><time>2026-05-02T14:20:17.721Z</time></trkpt><trkpt lat="42.8515367" lon="11.79273"><ele>405.00000000000006</ele><time>2026-05-02T14:20:18.721Z</time></trkpt><trkpt lat="42.8515117" lon="11.79282"><ele>404.0</ele><time>2026-05-02T14:20:19.721Z</time></trkpt><trkpt lat="42.8514967" lon="11.7929283"><ele>403.0</ele><time>2026-05-02T14:20:20.722Z</time></trkpt><trkpt lat="42.8515033" lon="11.7930283"><ele>402.0</ele><time>2026-05-02T14:20:21.721Z</time></trkpt><trkpt lat="42.8515667" lon="11.793145"><ele>401.00000000000006</ele><time>2026-05-02T14:20:22.722Z</time></trkpt><trkpt lat="42.85164" lon="11.7932567"><ele>400.0</ele><time>2026-05-02T14:20:23.721Z</time></trkpt><trkpt lat="42.851695" lon="11.7933533"><ele>400.00000000000006</ele><time>2026-05-02T14:20:24.721Z</time></trkpt><trkpt lat="42.8517383" lon="11.7934467"><ele>400.0</ele><time>2026-05-02T14:20:25.721Z</time></trkpt><trkpt lat="42.85177" lon="11.7935383"><ele>400.0</ele><time>2026-05-02T14:20:26.722Z</time></trkpt><trkpt lat="42.85179" lon="11.7936283"><ele>400.0</ele><time>2026-05-02T14:20:27.722Z</time></trkpt><trkpt lat="42.8517817" lon="11.79372"><ele>400.0</ele><time>2026-05-02T14:20:28.722Z</time></trkpt><trkpt lat="42.8517517" lon="11.7938017"><ele>400.00000000000006</ele><time>2026-05-02T14:20:29.721Z</time></trkpt><trkpt lat="42.85169" lon="11.7938733"><ele>400.0</ele><time>2026-05-02T14:20:30.721Z</time></trkpt><trkpt lat="42.8516183" lon="11.7939167"><ele>398.00000000000006</ele><time>2026-05-02T14:20:31.721Z</time></trkpt><trkpt lat="42.85154" lon="11.7939267"><ele>396.0</ele><time>2026-05-02T14:20:32.722Z</time></trkpt><trkpt lat="42.85146" lon="11.79392"><ele>394.0</ele><time>2026-05-02T14:20:33.722Z</time></trkpt><trkpt lat="42.8513783" lon="11.7939017"><ele>392.0</ele><time>2026-05-02T14:20:34.721Z</time></trkpt><trkpt lat="42.8512967" lon="11.7938833"><ele>390.00000000000006</ele><time>2026-05-02T14:20:35.721Z</time></trkpt><trkpt lat="42.8512167" lon="11.7938567"><ele>388.0</ele><time>2026-05-02T14:20:36.722Z</time></trkpt><trkpt lat="42.85114" lon="11.7938317"><ele>388.00000000000006</ele><time>2026-05-02T14:20:37.721Z</time></trkpt><trkpt lat="42.8510667" lon="11.7937967"><ele>388.0</ele><time>2026-05-02T14:20:38.718Z</time></trkpt><trkpt lat="42.850995" lon="11.7937483"><ele>388.0</ele><time>2026-05-02T14:20:39.719Z</time></trkpt><trkpt lat="42.8509333" lon="11.79369"><ele>388.0</ele><time>2026-05-02T14:20:40.722Z</time></trkpt><trkpt lat="42.8508783" lon="11.7936217"><ele>388.00000000000006</ele><time>2026-05-02T14:20:41.723Z</time></trkpt><trkpt lat="42.85084" lon="11.7935383"><ele>388.0</ele><time>2026-05-02T14:20:42.721Z</time></trkpt><trkpt lat="42.8508133" lon="11.7934433"><ele>387.85714285714283</ele><time>2026-05-02T14:20:43.721Z</time></trkpt><trkpt lat="42.8507983" lon="11.79335"><ele>387.7142857142857</ele><time>2026-05-02T14:20:44.722Z</time></trkpt><trkpt lat="42.850785" lon="11.7932517"><ele>387.57142857142856</ele><time>2026-05-02T14:20:45.721Z</time></trkpt><trkpt lat="42.8507683" lon="11.7931517"><ele>387.42857142857144</ele><time>2026-05-02T14:20:46.721Z</time></trkpt><trkpt lat="42.8507367" lon="11.79306"><ele>387.28571428571433</ele><time>2026-05-02T14:20:47.72Z</time></trkpt><trkpt lat="42.85069" lon="11.792985"><ele>387.14285714285717</ele><time>2026-05-02T14:20:48.721Z</time></trkpt><trkpt lat="42.850635" lon="11.7929267"><ele>387.0</ele><time>2026-05-02T14:20:49.72Z</time></trkpt><trkpt lat="42.8505733" lon="11.7928833"><ele>387.0</ele><time>2026-05-02T14:20:50.72Z</time></trkpt><trkpt lat="42.8504967" lon="11.7928567"><ele>387.0</ele><time>2026-05-02T14:20:51.72Z</time></trkpt><trkpt lat="42.85042" lon="11.7928533"><ele>387.0</ele><time>2026-05-02T14:20:52.719Z</time></trkpt><trkpt lat="42.85034" lon="11.7928567"><ele>387.0</ele><time>2026-05-02T14:20:53.72Z</time></trkpt><trkpt lat="42.8502617" lon="11.7928517"><ele>387.0</ele><time>2026-05-02T14:20:54.723Z</time></trkpt><trkpt lat="42.8501883" lon="11.79284"><ele>387.0</ele><time>2026-05-02T14:20:55.721Z</time></trkpt><trkpt lat="42.8501167" lon="11.7928117"><ele>385.5</ele><time>2026-05-02T14:20:56.722Z</time></trkpt><trkpt lat="42.85005" lon="11.79277"><ele>384.0</ele><time>2026-05-02T14:20:57.721Z</time></trkpt><trkpt lat="42.849985" lon="11.7927167"><ele>382.5</ele><time>2026-05-02T14:20:58.721Z</time></trkpt><trkpt lat="42.8499383" lon="11.79263"><ele>381.0</ele><time>2026-05-02T14:20:59.721Z</time></trkpt><trkpt lat="42.849905" lon="11.79253"><ele>379.5</ele><time>2026-05-02T14:21:00.721Z</time></trkpt><trkpt lat="42.8498717" lon="11.7924233"><ele>378.0</ele><time>2026-05-02T14:21:01.721Z</time></trkpt><trkpt lat="42.8498283" lon="11.7923033"><ele>378.0</ele><time>2026-05-02T14:21:02.724Z</time></trkpt><trkpt lat="42.8497767" lon="11.7921867"><ele>378.0</ele><time>2026-05-02T14:21:03.721Z</time></trkpt><trkpt lat="42.8497167" lon="11.79207"><ele>378.0</ele><time>2026-05-02T14:21:04.721Z</time></trkpt><trkpt lat="42.8496467" lon="11.7919567"><ele>378.0</ele><time>2026-05-02T14:21:05.721Z</time></trkpt><trkpt lat="42.8495717" lon="11.79185"><ele>378.0</ele><time>2026-05-02T14:21:06.721Z</time></trkpt><trkpt lat="42.8494933" lon="11.791755"><ele>379.0</ele><time>2026-05-02T14:21:07.721Z</time></trkpt><trkpt lat="42.8494117" lon="11.79167"><ele>380.0</ele><time>2026-05-02T14:21:08.722Z</time></trkpt><trkpt lat="42.8493283" lon="11.7915867"><ele>381.0</ele><time>2026-05-02T14:21:09.721Z</time></trkpt><trkpt lat="42.8492483" lon="11.7914933"><ele>382.0</ele><time>2026-05-02T14:21:10.721Z</time></trkpt><trkpt lat="42.849165" lon="11.7913933"><ele>383.0</ele><time>2026-05-02T14:21:11.722Z</time></trkpt><trkpt lat="42.849085" lon="11.791295"><ele>381.2</ele><time>2026-05-02T14:21:12.721Z</time></trkpt><trkpt lat="42.849005" lon="11.7911967"><ele>379.4</ele><time>2026-05-02T14:21:13.721Z</time></trkpt><trkpt lat="42.8489283" lon="11.7910967"><ele>377.59999999999997</ele><time>2026-05-02T14:21:14.722Z</time></trkpt><trkpt lat="42.84886" lon="11.7909933"><ele>375.79999999999995</ele><time>2026-05-02T14:21:15.721Z</time></trkpt><trkpt lat="42.8488017" lon="11.7908933"><ele>374.0</ele><time>2026-05-02T14:21:16.721Z</time></trkpt><trkpt lat="42.8487483" lon="11.79079"><ele>374.0</ele><time>2026-05-02T14:21:17.719Z</time></trkpt><trkpt lat="42.8486967" lon="11.79068"><ele>374.0</ele><time>2026-05-02T14:21:18.72Z</time></trkpt><trkpt lat="42.8486483" lon="11.7905683"><ele>374.0</ele><time>2026-05-02T14:21:19.72Z</time></trkpt><trkpt lat="42.8486017" lon="11.7904483"><ele>374.0</ele><time>2026-05-02T14:21:20.72Z</time></trkpt><trkpt lat="42.8485567" lon="11.79033"><ele>374.0</ele><time>2026-05-02T14:21:21.72Z</time></trkpt><trkpt lat="42.8485083" lon="11.79022"><ele>371.1666666666667</ele><time>2026-05-02T14:21:22.72Z</time></trkpt><trkpt lat="42.8484483" lon="11.7901233"><ele>368.33333333333337</ele><time>2026-05-02T14:21:23.72Z</time></trkpt><trkpt lat="42.8483783" lon="11.7900517"><ele>365.5</ele><time>2026-05-02T14:21:24.722Z</time></trkpt><trkpt lat="42.8483017" lon="11.7900017"><ele>362.6666666666667</ele><time>2026-05-02T14:21:25.721Z</time></trkpt><trkpt lat="42.84822" lon="11.7899717"><ele>359.8333333333333</ele><time>2026-05-02T14:21:26.723Z</time></trkpt><trkpt lat="42.848135" lon="11.7899533"><ele>357.0</ele><time>2026-05-02T14:21:27.721Z</time></trkpt><trkpt lat="42.8480517" lon="11.78994"><ele>357.0</ele><time>2026-05-02T14:21:28.721Z</time></trkpt><trkpt lat="42.847975" lon="11.7899583"><ele>357.0</ele><time>2026-05-02T14:21:29.724Z</time></trkpt><trkpt lat="42.8479067" lon="11.7900233"><ele>357.0</ele><time>2026-05-02T14:21:30.722Z</time></trkpt><trkpt lat="42.8478433" lon="11.79009"><ele>357.0</ele><time>2026-05-02T14:21:31.718Z</time></trkpt><trkpt lat="42.8477817" lon="11.7901667"><ele>357.0</ele><time>2026-05-02T14:21:32.72Z</time></trkpt><trkpt lat="42.8477167" lon="11.7902383"><ele>357.0</ele><time>2026-05-02T14:21:33.72Z</time></trkpt><trkpt lat="42.8476483" lon="11.7902933"><ele>354.8333333333333</ele><time>2026-05-02T14:21:34.719Z</time></trkpt><trkpt lat="42.8475767" lon="11.7903217"><ele>352.6666666666667</ele><time>2026-05-02T14:21:35.72Z</time></trkpt><trkpt lat="42.8474967" lon="11.7903183"><ele>350.5</ele><time>2026-05-02T14:21:36.72Z</time></trkpt><trkpt lat="42.84742" lon="11.79029"><ele>348.33333333333337</ele><time>2026-05-02T14:21:37.72Z</time></trkpt><trkpt lat="42.84735" lon="11.790245"><ele>346.1666666666667</ele><time>2026-05-02T14:21:38.72Z</time></trkpt><trkpt lat="42.8472867" lon="11.7901867"><ele>344.0</ele><time>2026-05-02T14:21:39.72Z</time></trkpt><trkpt lat="42.8472233" lon="11.7901167"><ele>344.00000000000006</ele><time>2026-05-02T14:21:40.719Z</time></trkpt><trkpt lat="42.8471683" lon="11.7900417"><ele>344.0</ele><time>2026-05-02T14:21:41.722Z</time></trkpt><trkpt lat="42.8471283" lon="11.78996"><ele>344.0</ele><time>2026-05-02T14:21:42.722Z</time></trkpt><trkpt lat="42.847105" lon="11.789875"><ele>344.0</ele><time>2026-05-02T14:21:43.721Z</time></trkpt><trkpt lat="42.8470867" lon="11.78978"><ele>344.0</ele><time>2026-05-02T14:21:44.723Z</time></trkpt><trkpt lat="42.84707" lon="11.7896833"><ele>344.00000000000006</ele><time>2026-05-02T14:21:45.721Z</time></trkpt><trkpt lat="42.8470533" lon="11.789585"><ele>344.0</ele><time>2026-05-02T14:21:46.722Z</time></trkpt><trkpt lat="42.8470383" lon="11.78948"><ele>344.0</ele><time>2026-05-02T14:21:47.718Z</time></trkpt><trkpt lat="42.8470383" lon="11.7893733"><ele>344.0</ele><time>2026-05-02T14:21:48.72Z</time></trkpt><trkpt lat="42.8470567" lon="11.78928"><ele>344.0</ele><time>2026-05-02T14:21:49.72Z</time></trkpt><trkpt lat="42.8470467" lon="11.7891183"><ele>344.0</ele><time>2026-05-02T14:21:51.72Z</time></trkpt><trkpt lat="42.8469733" lon="11.7890117"><ele>344.0</ele><time>2026-05-02T14:21:53.72Z</time></trkpt><trkpt lat="42.84691" lon="11.7889933"><ele>344.0</ele><time>2026-05-02T14:21:54.723Z</time></trkpt><trkpt lat="42.846835" lon="11.78901"><ele>341.0</ele><time>2026-05-02T14:21:55.721Z</time></trkpt><trkpt lat="42.8467633" lon="11.7890283"><ele>338.0</ele><time>2026-05-02T14:21:56.723Z</time></trkpt><trkpt lat="42.84668" lon="11.78905"><ele>335.0</ele><time>2026-05-02T14:21:57.722Z</time></trkpt><trkpt lat="42.84659" lon="11.789055"><ele>332.0</ele><time>2026-05-02T14:21:58.721Z</time></trkpt><trkpt lat="42.8465" lon="11.7890283"><ele>329.0</ele><time>2026-05-02T14:21:59.721Z</time></trkpt><trkpt lat="42.846405" lon="11.7889883"><ele>326.0</ele><time>2026-05-02T14:22:00.724Z</time></trkpt><trkpt lat="42.8463083" lon="11.7889383"><ele>326.0</ele><time>2026-05-02T14:22:01.721Z</time></trkpt><trkpt lat="42.8462117" lon="11.7888867"><ele>326.0</ele><time>2026-05-02T14:22:02.722Z</time></trkpt><trkpt lat="42.8461217" lon="11.7888317"><ele>326.0</ele><time>2026-05-02T14:22:03.721Z</time></trkpt><trkpt lat="42.8460333" lon="11.788785"><ele>326.0</ele><time>2026-05-02T14:22:04.721Z</time></trkpt><trkpt lat="42.8459417" lon="11.7887533"><ele>326.0</ele><time>2026-05-02T14:22:05.722Z</time></trkpt><trkpt lat="42.8458433" lon="11.7887467"><ele>324.75</ele><time>2026-05-02T14:22:06.722Z</time></trkpt><trkpt lat="42.84573" lon="11.7887433"><ele>323.5</ele><time>2026-05-02T14:22:07.722Z</time></trkpt><trkpt lat="42.84561" lon="11.7887333"><ele>322.25</ele><time>2026-05-02T14:22:08.722Z</time></trkpt><trkpt lat="42.84549" lon="11.7887167"><ele>321.0</ele><time>2026-05-02T14:22:09.721Z</time></trkpt><trkpt lat="42.8453717" lon="11.788695"><ele>321.0</ele><time>2026-05-02T14:22:10.721Z</time></trkpt><trkpt lat="42.8452617" lon="11.7886717"><ele>321.0</ele><time>2026-05-02T14:22:11.721Z</time></trkpt><trkpt lat="42.84516" lon="11.788645"><ele>321.0</ele><time>2026-05-02T14:22:12.724Z</time></trkpt><trkpt lat="42.8450617" lon="11.788615"><ele>321.0</ele><time>2026-05-02T14:22:13.722Z</time></trkpt><trkpt lat="42.8449667" lon="11.788585"><ele>321.0</ele><time>2026-05-02T14:22:14.723Z</time></trkpt><trkpt lat="42.844875" lon="11.7885633"><ele>320.3333333333333</ele><time>2026-05-02T14:22:15.721Z</time></trkpt><trkpt lat="42.8447867" lon="11.7885533"><ele>319.6666666666667</ele><time>2026-05-02T14:22:16.721Z</time></trkpt><trkpt lat="42.8447067" lon="11.7885533"><ele>319.0</ele><time>2026-05-02T14:22:17.719Z</time></trkpt><trkpt lat="42.8446267" lon="11.78857"><ele>318.33333333333337</ele><time>2026-05-02T14:22:18.72Z</time></trkpt><trkpt lat="42.844535" lon="11.788605"><ele>317.6666666666667</ele><time>2026-05-02T14:22:19.719Z</time></trkpt><trkpt lat="42.8444383" lon="11.788645"><ele>317.0</ele><time>2026-05-02T14:22:20.72Z</time></trkpt><trkpt lat="42.8443367" lon="11.7886917"><ele>316.4</ele><time>2026-05-02T14:22:21.72Z</time></trkpt><trkpt lat="42.8442383" lon="11.7887417"><ele>315.79999999999995</ele><time>2026-05-02T14:22:22.719Z</time></trkpt><trkpt lat="42.84414" lon="11.7887967"><ele>315.2</ele><time>2026-05-02T14:22:23.72Z</time></trkpt><trkpt lat="42.8440483" lon="11.7888533"><ele>314.59999999999997</ele><time>2026-05-02T14:22:24.723Z</time></trkpt><trkpt lat="42.8439617" lon="11.7889117"><ele>314.0</ele><time>2026-05-02T14:22:25.722Z</time></trkpt><trkpt lat="42.843875" lon="11.78897"><ele>314.0</ele><time>2026-05-02T14:22:26.723Z</time></trkpt><trkpt lat="42.8437917" lon="11.7890217"><ele>314.0</ele><time>2026-05-02T14:22:27.722Z</time></trkpt><trkpt lat="42.8437067" lon="11.7890667"><ele>314.0</ele><time>2026-05-02T14:22:28.726Z</time></trkpt><trkpt lat="42.8436217" lon="11.7890833"><ele>314.0</ele><time>2026-05-02T14:22:29.721Z</time></trkpt><trkpt lat="42.84353" lon="11.7890933"><ele>314.0</ele><time>2026-05-02T14:22:30.721Z</time></trkpt><trkpt lat="42.843435" lon="11.78908"><ele>313.83333333333337</ele><time>2026-05-02T14:22:31.721Z</time></trkpt><trkpt lat="42.84335" lon="11.7890633"><ele>313.6666666666667</ele><time>2026-05-02T14:22:32.723Z</time></trkpt><trkpt lat="42.8432633" lon="11.7890517"><ele>313.5</ele><time>2026-05-02T14:22:33.721Z</time></trkpt><trkpt lat="42.8431767" lon="11.7890267"><ele>313.3333333333333</ele><time>2026-05-02T14:22:34.722Z</time></trkpt><trkpt lat="42.8430983" lon="11.7889967"><ele>313.16666666666663</ele><time>2026-05-02T14:22:35.721Z</time></trkpt><trkpt lat="42.8430233" lon="11.7889667"><ele>313.0</ele><time>2026-05-02T14:22:36.722Z</time></trkpt><trkpt lat="42.8429433" lon="11.7889367"><ele>313.0</ele><time>2026-05-02T14:22:37.725Z</time></trkpt><trkpt lat="42.842865" lon="11.7889067"><ele>313.0</ele><time>2026-05-02T14:22:38.719Z</time></trkpt><trkpt lat="42.8427917" lon="11.7888833"><ele>313.0</ele><time>2026-05-02T14:22:39.719Z</time></trkpt><trkpt lat="42.8427133" lon="11.7888583"><ele>313.0</ele><time>2026-05-02T14:22:40.719Z</time></trkpt><trkpt lat="42.84263" lon="11.7888217"><ele>313.0</ele><time>2026-05-02T14:22:41.721Z</time></trkpt><trkpt lat="42.8425383" lon="11.7887917"><ele>313.0</ele><time>2026-05-02T14:22:42.721Z</time></trkpt><trkpt lat="42.8424483" lon="11.7887533"><ele>312.6</ele><time>2026-05-02T14:22:43.722Z</time></trkpt><trkpt lat="42.84235" lon="11.7887117"><ele>312.20000000000005</ele><time>2026-05-02T14:22:44.723Z</time></trkpt><trkpt lat="42.8422467" lon="11.7886717"><ele>311.8</ele><time>2026-05-02T14:22:45.72Z</time></trkpt><trkpt lat="42.8421417" lon="11.78863"><ele>311.40000000000003</ele><time>2026-05-02T14:22:46.719Z</time></trkpt><trkpt lat="42.8420383" lon="11.7885933"><ele>311.0</ele><time>2026-05-02T14:22:47.719Z</time></trkpt><trkpt lat="42.84194" lon="11.788555"><ele>311.0</ele><time>2026-05-02T14:22:48.722Z</time></trkpt><trkpt lat="42.8418567" lon="11.788505"><ele>311.0</ele><time>2026-05-02T14:22:49.721Z</time></trkpt><trkpt lat="42.84178" lon="11.78844"><ele>311.0</ele><time>2026-05-02T14:22:50.723Z</time></trkpt><trkpt lat="42.8417183" lon="11.7883467"><ele>311.0</ele><time>2026-05-02T14:22:51.721Z</time></trkpt><trkpt lat="42.841665" lon="11.788235"><ele>311.0</ele><time>2026-05-02T14:22:52.719Z</time></trkpt><trkpt lat="42.8416133" lon="11.788095"><ele>311.0</ele><time>2026-05-02T14:22:53.719Z</time></trkpt><trkpt lat="42.84157" lon="11.7879367"><ele>311.0</ele><time>2026-05-02T14:22:54.724Z</time></trkpt><trkpt lat="42.841525" lon="11.7877517"><ele>311.0</ele><time>2026-05-02T14:22:55.721Z</time></trkpt><trkpt lat="42.841485" lon="11.7875467"><ele>311.0</ele><time>2026-05-02T14:22:56.719Z</time></trkpt><trkpt lat="42.8414417" lon="11.7873433"><ele>311.0</ele><time>2026-05-02T14:22:57.719Z</time></trkpt><trkpt lat="42.8414" lon="11.7871433"><ele>311.0</ele><time>2026-05-02T14:22:58.721Z</time></trkpt><trkpt lat="42.84135" lon="11.786945"><ele>311.0</ele><time>2026-05-02T14:22:59.721Z</time></trkpt><trkpt lat="42.8413" lon="11.786755"><ele>312.5</ele><time>2026-05-02T14:23:00.722Z</time></trkpt><trkpt lat="42.8412583" lon="11.7865633"><ele>314.0</ele><time>2026-05-02T14:23:01.721Z</time></trkpt><trkpt lat="42.8412283" lon="11.7863833"><ele>315.5</ele><time>2026-05-02T14:23:02.723Z</time></trkpt><trkpt lat="42.841205" lon="11.7862"><ele>317.0</ele><time>2026-05-02T14:23:03.721Z</time></trkpt><trkpt lat="42.8411883" lon="11.7860133"><ele>319.5</ele><time>2026-05-02T14:23:04.722Z</time></trkpt><trkpt lat="42.8411667" lon="11.7858417"><ele>322.0</ele><time>2026-05-02T14:23:05.721Z</time></trkpt><trkpt lat="42.841135" lon="11.7856867"><ele>324.5</ele><time>2026-05-02T14:23:06.72Z</time></trkpt><trkpt lat="42.8410883" lon="11.7855433"><ele>327.0</ele><time>2026-05-02T14:23:07.721Z</time></trkpt><trkpt lat="42.8410283" lon="11.7854133"><ele>325.75</ele><time>2026-05-02T14:23:08.723Z</time></trkpt><trkpt lat="42.840955" lon="11.7852883"><ele>324.5</ele><time>2026-05-02T14:23:09.722Z</time></trkpt><trkpt lat="42.8408683" lon="11.7851717"><ele>323.25</ele><time>2026-05-02T14:23:10.721Z</time></trkpt><trkpt lat="42.8407767" lon="11.78505"><ele>322.0</ele><time>2026-05-02T14:23:11.722Z</time></trkpt><trkpt lat="42.8406817" lon="11.784915"><ele>322.0</ele><time>2026-05-02T14:23:12.721Z</time></trkpt><trkpt lat="42.84059" lon="11.78477"><ele>322.0</ele><time>2026-05-02T14:23:13.722Z</time></trkpt><trkpt lat="42.8404983" lon="11.784625"><ele>322.0</ele><time>2026-05-02T14:23:14.722Z</time></trkpt><trkpt lat="42.840385" lon="11.7845117"><ele>322.0</ele><time>2026-05-02T14:23:15.722Z</time></trkpt><trkpt lat="42.840255" lon="11.78441"><ele>321.0</ele><time>2026-05-02T14:23:16.723Z</time></trkpt><trkpt lat="42.8401083" lon="11.784325"><ele>320.0</ele><time>2026-05-02T14:23:17.719Z</time></trkpt><trkpt lat="42.839955" lon="11.7842383"><ele>319.0</ele><time>2026-05-02T14:23:18.72Z</time></trkpt><trkpt lat="42.8398083" lon="11.784155"><ele>319.0</ele><time>2026-05-02T14:23:19.72Z</time></trkpt><trkpt lat="42.8396733" lon="11.784075"><ele>319.0</ele><time>2026-05-02T14:23:20.721Z</time></trkpt><trkpt lat="42.83955" lon="11.7840017"><ele>319.0</ele><time>2026-05-02T14:23:21.721Z</time></trkpt><trkpt lat="42.8394267" lon="11.783935"><ele>319.0</ele><time>2026-05-02T14:23:22.72Z</time></trkpt><trkpt lat="42.8392983" lon="11.7838717"><ele>317.75</ele><time>2026-05-02T14:23:23.72Z</time></trkpt><trkpt lat="42.8391617" lon="11.7838017"><ele>316.5</ele><time>2026-05-02T14:23:24.723Z</time></trkpt><trkpt lat="42.839025" lon="11.78373"><ele>315.25</ele><time>2026-05-02T14:23:25.722Z</time></trkpt><trkpt lat="42.8388933" lon="11.7836567"><ele>314.0</ele><time>2026-05-02T14:23:26.722Z</time></trkpt><trkpt lat="42.838765" lon="11.7835867"><ele>314.75</ele><time>2026-05-02T14:23:27.723Z</time></trkpt><trkpt lat="42.838635" lon="11.7835133"><ele>315.5</ele><time>2026-05-02T14:23:28.722Z</time></trkpt><trkpt lat="42.838505" lon="11.7834317"><ele>316.25</ele><time>2026-05-02T14:23:29.723Z</time></trkpt><trkpt lat="42.8383717" lon="11.7833483"><ele>317.0</ele><time>2026-05-02T14:23:30.722Z</time></trkpt><trkpt lat="42.8382383" lon="11.7832633"><ele>317.0</ele><time>2026-05-02T14:23:31.722Z</time></trkpt><trkpt lat="42.8381067" lon="11.783175"><ele>317.0</ele><time>2026-05-02T14:23:32.723Z</time></trkpt><trkpt lat="42.83798" lon="11.7830833"><ele>317.0</ele><time>2026-05-02T14:23:33.723Z</time></trkpt><trkpt lat="42.8378583" lon="11.7829917"><ele>317.0</ele><time>2026-05-02T14:23:34.719Z</time></trkpt><trkpt lat="42.8377367" lon="11.7828983"><ele>316.5</ele><time>2026-05-02T14:23:35.721Z</time></trkpt><trkpt lat="42.83761" lon="11.7828083"><ele>316.0</ele><time>2026-05-02T14:23:36.724Z</time></trkpt><trkpt lat="42.8374817" lon="11.7827183"><ele>315.5</ele><time>2026-05-02T14:23:37.72Z</time></trkpt><trkpt lat="42.8373483" lon="11.7826317"><ele>315.0</ele><time>2026-05-02T14:23:38.72Z</time></trkpt><trkpt lat="42.8372067" lon="11.782545"><ele>315.0</ele><time>2026-05-02T14:23:39.722Z</time></trkpt><trkpt lat="42.8370617" lon="11.782455"><ele>315.0</ele><time>2026-05-02T14:23:40.722Z</time></trkpt><trkpt lat="42.8369183" lon="11.7823633"><ele>315.0</ele><time>2026-05-02T14:23:41.722Z</time></trkpt><trkpt lat="42.8367917" lon="11.78228"><ele>313.75</ele><time>2026-05-02T14:23:42.722Z</time></trkpt><trkpt lat="42.836675" lon="11.7821917"><ele>312.5</ele><time>2026-05-02T14:23:43.722Z</time></trkpt><trkpt lat="42.836565" lon="11.782095"><ele>311.25</ele><time>2026-05-02T14:23:44.723Z</time></trkpt><trkpt lat="42.83646" lon="11.7819867"><ele>310.0</ele><time>2026-05-02T14:23:45.722Z</time></trkpt><trkpt lat="42.8363633" lon="11.7818617"><ele>312.5</ele><time>2026-05-02T14:23:46.722Z</time></trkpt><trkpt lat="42.8362767" lon="11.7817333"><ele>315.0</ele><time>2026-05-02T14:23:47.721Z</time></trkpt><trkpt lat="42.836205" lon="11.7815983"><ele>317.5</ele><time>2026-05-02T14:23:48.723Z</time></trkpt><trkpt lat="42.8361517" lon="11.7814567"><ele>320.0</ele><time>2026-05-02T14:23:49.722Z</time></trkpt><trkpt lat="42.83612" lon="11.7813083"><ele>320.0</ele><time>2026-05-02T14:23:50.722Z</time></trkpt><trkpt lat="42.8360967" lon="11.7811667"><ele>320.0</ele><time>2026-05-02T14:23:51.723Z</time></trkpt><trkpt lat="42.8360717" lon="11.7810317"><ele>320.0</ele><time>2026-05-02T14:23:52.723Z</time></trkpt><trkpt lat="42.83604" lon="11.780895"><ele>320.0</ele><time>2026-05-02T14:23:53.722Z</time></trkpt><trkpt lat="42.8359883" lon="11.7807633"><ele>320.0</ele><time>2026-05-02T14:23:54.721Z</time></trkpt><trkpt lat="42.83592" lon="11.7806467"><ele>317.75</ele><time>2026-05-02T14:23:55.719Z</time></trkpt><trkpt lat="42.83584" lon="11.7805517"><ele>315.5</ele><time>2026-05-02T14:23:56.719Z</time></trkpt><trkpt lat="42.8357467" lon="11.78049"><ele>313.25</ele><time>2026-05-02T14:23:57.722Z</time></trkpt><trkpt lat="42.83564" lon="11.7804417"><ele>311.0</ele><time>2026-05-02T14:23:58.722Z</time></trkpt><trkpt lat="42.8355133" lon="11.7804083"><ele>311.0</ele><time>2026-05-02T14:23:59.722Z</time></trkpt><trkpt lat="42.835375" lon="11.78038"><ele>311.0</ele><time>2026-05-02T14:24:00.722Z</time></trkpt><trkpt lat="42.8352317" lon="11.780355"><ele>311.0</ele><time>2026-05-02T14:24:01.813Z</time></trkpt><trkpt lat="42.8350883" lon="11.7803367"><ele>311.0</ele><time>2026-05-02T14:24:02.72Z</time></trkpt><trkpt lat="42.83495" lon="11.7803183"><ele>309.0</ele><time>2026-05-02T14:24:03.72Z</time></trkpt><trkpt lat="42.83482" lon="11.7803033"><ele>307.0</ele><time>2026-05-02T14:24:04.72Z</time></trkpt><trkpt lat="42.8346967" lon="11.7802867"><ele>305.0</ele><time>2026-05-02T14:24:05.72Z</time></trkpt><trkpt lat="42.8345783" lon="11.78026"><ele>303.0</ele><time>2026-05-02T14:24:06.721Z</time></trkpt><trkpt lat="42.8344583" lon="11.7802233"><ele>304.5</ele><time>2026-05-02T14:24:07.722Z</time></trkpt><trkpt lat="42.8343283" lon="11.7801783"><ele>306.0</ele><time>2026-05-02T14:24:08.721Z</time></trkpt><trkpt lat="42.8341967" lon="11.780125"><ele>307.5</ele><time>2026-05-02T14:24:09.72Z</time></trkpt><trkpt lat="42.834065" lon="11.780065"><ele>309.0</ele><time>2026-05-02T14:24:10.72Z</time></trkpt><trkpt lat="42.8339417" lon="11.7800083"><ele>309.0</ele><time>2026-05-02T14:24:11.72Z</time></trkpt><trkpt lat="42.8338317" lon="11.77995"><ele>309.0</ele><time>2026-05-02T14:24:12.722Z</time></trkpt><trkpt lat="42.8337383" lon="11.7798917"><ele>309.0</ele><time>2026-05-02T14:24:13.722Z</time></trkpt><trkpt lat="42.8336517" lon="11.779835"><ele>309.0</ele><time>2026-05-02T14:24:14.723Z</time></trkpt><trkpt lat="42.8335683" lon="11.77977"><ele>309.0</ele><time>2026-05-02T14:24:15.722Z</time></trkpt><trkpt lat="42.83348" lon="11.77969"><ele>307.75</ele><time>2026-05-02T14:24:16.722Z</time></trkpt><trkpt lat="42.8333933" lon="11.7795933"><ele>306.5</ele><time>2026-05-02T14:24:17.722Z</time></trkpt><trkpt lat="42.8333083" lon="11.7794833"><ele>305.25</ele><time>2026-05-02T14:24:18.722Z</time></trkpt><trkpt lat="42.83322" lon="11.77936"><ele>304.0</ele><time>2026-05-02T14:24:19.722Z</time></trkpt><trkpt lat="42.8331317" lon="11.7792283"><ele>304.0</ele><time>2026-05-02T14:24:20.727Z</time></trkpt><trkpt lat="42.8330333" lon="11.7790933"><ele>304.0</ele><time>2026-05-02T14:24:21.722Z</time></trkpt><trkpt lat="42.832935" lon="11.7789583"><ele>304.0</ele><time>2026-05-02T14:24:22.722Z</time></trkpt><trkpt lat="42.8328317" lon="11.7788183"><ele>304.0</ele><time>2026-05-02T14:24:23.722Z</time></trkpt><trkpt lat="42.8327333" lon="11.778675"><ele>303.25</ele><time>2026-05-02T14:24:24.722Z</time></trkpt><trkpt lat="42.8326317" lon="11.778535"><ele>302.5</ele><time>2026-05-02T14:24:25.722Z</time></trkpt><trkpt lat="42.8325333" lon="11.7784"><ele>301.75</ele><time>2026-05-02T14:24:26.723Z</time></trkpt><trkpt lat="42.8324383" lon="11.7782667"><ele>301.0</ele><time>2026-05-02T14:24:27.723Z</time></trkpt><trkpt lat="42.8323467" lon="11.7781417"><ele>301.0</ele><time>2026-05-02T14:24:28.722Z</time></trkpt><trkpt lat="42.8322617" lon="11.7780183"><ele>301.0</ele><time>2026-05-02T14:24:29.723Z</time></trkpt><trkpt lat="42.832185" lon="11.7779083"><ele>301.0</ele><time>2026-05-02T14:24:30.723Z</time></trkpt><trkpt lat="42.8321" lon="11.7778033"><ele>301.0</ele><time>2026-05-02T14:24:31.722Z</time></trkpt><trkpt lat="42.8320117" lon="11.7777083"><ele>301.25</ele><time>2026-05-02T14:24:32.72Z</time></trkpt><trkpt lat="42.8319117" lon="11.77763"><ele>301.5</ele><time>2026-05-02T14:24:33.722Z</time></trkpt><trkpt lat="42.8318" lon="11.7775567"><ele>301.75</ele><time>2026-05-02T14:24:34.721Z</time></trkpt><trkpt lat="42.8316867" lon="11.777485"><ele>302.0</ele><time>2026-05-02T14:24:35.719Z</time></trkpt><trkpt lat="42.8315667" lon="11.7774117"><ele>301.33333333333337</ele><time>2026-05-02T14:24:36.724Z</time></trkpt><trkpt lat="42.831435" lon="11.7773483"><ele>300.6666666666667</ele><time>2026-05-02T14:24:37.722Z</time></trkpt><trkpt lat="42.8312883" lon="11.7772933"><ele>300.0</ele><time>2026-05-02T14:24:38.72Z</time></trkpt><trkpt lat="42.83112" lon="11.7772383"><ele>299.3333333333333</ele><time>2026-05-02T14:24:39.723Z</time></trkpt><trkpt lat="42.83095" lon="11.77719"><ele>298.66666666666663</ele><time>2026-05-02T14:24:40.722Z</time></trkpt><trkpt lat="42.830765" lon="11.7771417"><ele>298.0</ele><time>2026-05-02T14:24:41.722Z</time></trkpt><trkpt lat="42.8305683" lon="11.777095"><ele>298.0</ele><time>2026-05-02T14:24:42.722Z</time></trkpt><trkpt lat="42.83037" lon="11.7770467"><ele>298.0</ele><time>2026-05-02T14:24:43.722Z</time></trkpt><trkpt lat="42.830175" lon="11.7769967"><ele>298.0</ele><time>2026-05-02T14:24:44.723Z</time></trkpt><trkpt lat="42.8299833" lon="11.7769483"><ele>297.66666666666663</ele><time>2026-05-02T14:24:45.722Z</time></trkpt><trkpt lat="42.8297983" lon="11.7769"><ele>297.3333333333333</ele><time>2026-05-02T14:24:46.723Z</time></trkpt><trkpt lat="42.829615" lon="11.7768517"><ele>297.0</ele><time>2026-05-02T14:24:47.722Z</time></trkpt><trkpt lat="42.82943" lon="11.7768067"><ele>298.0</ele><time>2026-05-02T14:24:48.722Z</time></trkpt><trkpt lat="42.8292467" lon="11.7767633"><ele>299.0</ele><time>2026-05-02T14:24:49.723Z</time></trkpt><trkpt lat="42.8290617" lon="11.7767167"><ele>300.0</ele><time>2026-05-02T14:24:50.725Z</time></trkpt><trkpt lat="42.8288767" lon="11.77667"><ele>300.0</ele><time>2026-05-02T14:24:51.723Z</time></trkpt><trkpt lat="42.8286967" lon="11.7766267"><ele>300.0</ele><time>2026-05-02T14:24:52.723Z</time></trkpt><trkpt lat="42.82852" lon="11.7765817"><ele>300.0</ele><time>2026-05-02T14:24:53.723Z</time></trkpt><trkpt lat="42.8283567" lon="11.7765433"><ele>299.5</ele><time>2026-05-02T14:24:54.722Z</time></trkpt><trkpt lat="42.8282033" lon="11.7765133"><ele>299.0</ele><time>2026-05-02T14:24:55.722Z</time></trkpt><trkpt lat="42.8280567" lon="11.7764867"><ele>298.5</ele><time>2026-05-02T14:24:56.723Z</time></trkpt><trkpt lat="42.8279217" lon="11.7764633"><ele>298.0</ele><time>2026-05-02T14:24:57.722Z</time></trkpt><trkpt lat="42.827795" lon="11.77646"><ele>298.0</ele><time>2026-05-02T14:24:58.721Z</time></trkpt><trkpt lat="42.82767" lon="11.7764833"><ele>298.0</ele><time>2026-05-02T14:24:59.721Z</time></trkpt><trkpt lat="42.827545" lon="11.77653"><ele>298.0</ele><time>2026-05-02T14:25:00.721Z</time></trkpt><trkpt lat="42.8274183" lon="11.776595"><ele>298.0</ele><time>2026-05-02T14:25:01.721Z</time></trkpt><trkpt lat="42.82729" lon="11.7766783"><ele>298.0</ele><time>2026-05-02T14:25:02.722Z</time></trkpt><trkpt lat="42.827165" lon="11.7767667"><ele>298.0</ele><time>2026-05-02T14:25:03.718Z</time></trkpt><trkpt lat="42.8270433" lon="11.7768533"><ele>298.0</ele><time>2026-05-02T14:25:04.721Z</time></trkpt><trkpt lat="42.8269267" lon="11.776935"><ele>298.0</ele><time>2026-05-02T14:25:05.721Z</time></trkpt><trkpt lat="42.8268183" lon="11.777015"><ele>298.0</ele><time>2026-05-02T14:25:06.721Z</time></trkpt><trkpt lat="42.826715" lon="11.77709"><ele>298.0</ele><time>2026-05-02T14:25:07.721Z</time></trkpt><trkpt lat="42.8266167" lon="11.7771617"><ele>298.0</ele><time>2026-05-02T14:25:08.722Z</time></trkpt><trkpt lat="42.826525" lon="11.777225"><ele>298.0</ele><time>2026-05-02T14:25:09.721Z</time></trkpt><trkpt lat="42.8264383" lon="11.7772833"><ele>298.0</ele><time>2026-05-02T14:25:10.718Z</time></trkpt><trkpt lat="42.8263583" lon="11.7773383"><ele>298.0</ele><time>2026-05-02T14:25:11.721Z</time></trkpt><trkpt lat="42.8262867" lon="11.7773817"><ele>298.0</ele><time>2026-05-02T14:25:12.718Z</time></trkpt><trkpt lat="42.82622" lon="11.7774217"><ele>298.0</ele><time>2026-05-02T14:25:13.721Z</time></trkpt><trkpt lat="42.8261583" lon="11.7774583"><ele>298.0</ele><time>2026-05-02T14:25:14.722Z</time></trkpt><trkpt lat="42.8260617" lon="11.7775167"><ele>298.0</ele><time>2026-05-02T14:25:16.721Z</time></trkpt><trkpt lat="42.8259817" lon="11.7775183"><ele>298.0</ele><time>2026-05-02T14:35:11.725Z</time></trkpt><trkpt lat="42.8258867" lon="11.777585"><ele>297.6</ele><time>2026-05-02T14:35:13.722Z</time></trkpt><trkpt lat="42.8258217" lon="11.7776133"><ele>297.20000000000005</ele><time>2026-05-02T14:35:14.721Z</time></trkpt><trkpt lat="42.8257" lon="11.77766"><ele>296.8</ele><time>2026-05-02T14:35:16.721Z</time></trkpt><trkpt lat="42.8255883" lon="11.7776433"><ele>296.40000000000003</ele><time>2026-05-02T14:35:18.72Z</time></trkpt><trkpt lat="42.8255067" lon="11.7775767"><ele>296.0</ele><time>2026-05-02T14:35:20.721Z</time></trkpt><trkpt lat="42.8254717" lon="11.777405"><ele>296.0</ele><time>2026-05-02T14:35:22.72Z</time></trkpt><trkpt lat="42.82545" lon="11.77729"><ele>296.0</ele><time>2026-05-02T14:35:23.721Z</time></trkpt><trkpt lat="42.8254233" lon="11.77716"><ele>296.0</ele><time>2026-05-02T14:35:24.725Z</time></trkpt><trkpt lat="42.825385" lon="11.7770217"><ele>296.0</ele><time>2026-05-02T14:35:25.721Z</time></trkpt><trkpt lat="42.8253417" lon="11.77687"><ele>296.0</ele><time>2026-05-02T14:35:26.722Z</time></trkpt><trkpt lat="42.8252983" lon="11.7767083"><ele>296.25</ele><time>2026-05-02T14:35:27.721Z</time></trkpt><trkpt lat="42.82525" lon="11.77654"><ele>296.5</ele><time>2026-05-02T14:35:28.72Z</time></trkpt><trkpt lat="42.8251933" lon="11.77636"><ele>296.75</ele><time>2026-05-02T14:35:29.72Z</time></trkpt><trkpt lat="42.82513" lon="11.7761733"><ele>297.0</ele><time>2026-05-02T14:35:30.72Z</time></trkpt><trkpt lat="42.8250717" lon="11.7759767"><ele>297.0</ele><time>2026-05-02T14:35:31.72Z</time></trkpt><trkpt lat="42.82501" lon="11.775775"><ele>297.0</ele><time>2026-05-02T14:35:32.721Z</time></trkpt><trkpt lat="42.8249467" lon="11.7755617"><ele>297.0</ele><time>2026-05-02T14:35:33.72Z</time></trkpt><trkpt lat="42.8248817" lon="11.77534"><ele>297.6666666666667</ele><time>2026-05-02T14:35:34.72Z</time></trkpt><trkpt lat="42.8248117" lon="11.775115"><ele>298.33333333333337</ele><time>2026-05-02T14:35:35.721Z</time></trkpt><trkpt lat="42.82474" lon="11.7748833"><ele>299.0</ele><time>2026-05-02T14:35:36.72Z</time></trkpt><trkpt lat="42.8246683" lon="11.7746433"><ele>299.0</ele><time>2026-05-02T14:35:37.721Z</time></trkpt><trkpt lat="42.824595" lon="11.7744"><ele>299.0</ele><time>2026-05-02T14:35:38.72Z</time></trkpt><trkpt lat="42.82452" lon="11.7741533"><ele>299.0</ele><time>2026-05-02T14:35:39.72Z</time></trkpt><trkpt lat="42.8244433" lon="11.7738983"><ele>298.0</ele><time>2026-05-02T14:35:40.72Z</time></trkpt><trkpt lat="42.8243633" lon="11.7736467"><ele>297.0</ele><time>2026-05-02T14:35:41.723Z</time></trkpt><trkpt lat="42.8242867" lon="11.7733917"><ele>296.0</ele><time>2026-05-02T14:35:42.719Z</time></trkpt><trkpt lat="42.8242067" lon="11.7731333"><ele>296.0</ele><time>2026-05-02T14:35:43.722Z</time></trkpt><trkpt lat="42.824125" lon="11.7728667"><ele>296.0</ele><time>2026-05-02T14:35:44.722Z</time></trkpt><trkpt lat="42.8240433" lon="11.7725933"><ele>296.0</ele><time>2026-05-02T14:35:45.721Z</time></trkpt><trkpt lat="42.8239633" lon="11.77232"><ele>296.0</ele><time>2026-05-02T14:35:46.721Z</time></trkpt><trkpt lat="42.8238883" lon="11.7720483"><ele>296.0</ele><time>2026-05-02T14:35:47.721Z</time></trkpt><trkpt lat="42.8238267" lon="11.7717783"><ele>296.0</ele><time>2026-05-02T14:35:48.721Z</time></trkpt><trkpt lat="42.8237717" lon="11.7715133"><ele>296.0</ele><time>2026-05-02T14:35:49.721Z</time></trkpt><trkpt lat="42.823735" lon="11.7712583"><ele>296.0</ele><time>2026-05-02T14:35:50.722Z</time></trkpt><trkpt lat="42.8237117" lon="11.771015"><ele>296.0</ele><time>2026-05-02T14:35:51.721Z</time></trkpt><trkpt lat="42.8236983" lon="11.770785"><ele>296.0</ele><time>2026-05-02T14:35:52.721Z</time></trkpt><trkpt lat="42.823695" lon="11.77059"><ele>296.0</ele><time>2026-05-02T14:35:53.721Z</time></trkpt><trkpt lat="42.82369" lon="11.7704317"><ele>296.0</ele><time>2026-05-02T14:35:54.721Z</time></trkpt><trkpt lat="42.8236683" lon="11.7702983"><ele>296.0</ele><time>2026-05-02T14:35:55.721Z</time></trkpt><trkpt lat="42.8236233" lon="11.7701867"><ele>296.0</ele><time>2026-05-02T14:35:56.722Z</time></trkpt><trkpt lat="42.8235417" lon="11.770095"><ele>296.0</ele><time>2026-05-02T14:35:57.721Z</time></trkpt><trkpt lat="42.82344" lon="11.7700017"><ele>296.0</ele><time>2026-05-02T14:35:58.721Z</time></trkpt><trkpt lat="42.8233283" lon="11.769885"><ele>296.0</ele><time>2026-05-02T14:35:59.718Z</time></trkpt><trkpt lat="42.8232267" lon="11.7697333"><ele>296.0</ele><time>2026-05-02T14:36:00.718Z</time></trkpt><trkpt lat="42.8231483" lon="11.769545"><ele>296.0</ele><time>2026-05-02T14:36:01.719Z</time></trkpt><trkpt lat="42.8230783" lon="11.7693367"><ele>296.0</ele><time>2026-05-02T14:36:02.72Z</time></trkpt><trkpt lat="42.8230033" lon="11.7691133"><ele>295.6666666666667</ele><time>2026-05-02T14:36:03.718Z</time></trkpt><trkpt lat="42.8229217" lon="11.7688767"><ele>295.3333333333333</ele><time>2026-05-02T14:36:04.721Z</time></trkpt><trkpt lat="42.8228417" lon="11.76863"><ele>295.0</ele><time>2026-05-02T14:36:05.719Z</time></trkpt><trkpt lat="42.822765" lon="11.7683817"><ele>295.0</ele><time>2026-05-02T14:36:06.72Z</time></trkpt><trkpt lat="42.8227" lon="11.7681233"><ele>295.0</ele><time>2026-05-02T14:36:07.72Z</time></trkpt><trkpt lat="42.82265" lon="11.767855"><ele>295.0</ele><time>2026-05-02T14:36:08.722Z</time></trkpt><trkpt lat="42.822615" lon="11.767575"><ele>295.0</ele><time>2026-05-02T14:36:09.721Z</time></trkpt><trkpt lat="42.8225917" lon="11.7672983"><ele>295.0</ele><time>2026-05-02T14:36:10.721Z</time></trkpt><trkpt lat="42.8225583" lon="11.7670317"><ele>295.0</ele><time>2026-05-02T14:36:11.721Z</time></trkpt><trkpt lat="42.8224967" lon="11.76678"><ele>296.0</ele><time>2026-05-02T14:36:12.721Z</time></trkpt><trkpt lat="42.8224" lon="11.766545"><ele>297.0</ele><time>2026-05-02T14:36:13.721Z</time></trkpt><trkpt lat="42.822275" lon="11.766335"><ele>298.0</ele><time>2026-05-02T14:36:14.722Z</time></trkpt><trkpt lat="42.8221183" lon="11.7661533"><ele>298.66666666666663</ele><time>2026-05-02T14:36:15.721Z</time></trkpt><trkpt lat="42.82194" lon="11.7659883"><ele>299.3333333333333</ele><time>2026-05-02T14:36:16.721Z</time></trkpt><trkpt lat="42.821755" lon="11.7658283"><ele>300.0</ele><time>2026-05-02T14:36:17.722Z</time></trkpt><trkpt lat="42.82157" lon="11.76567"><ele>298.0</ele><time>2026-05-02T14:36:18.726Z</time></trkpt><trkpt lat="42.8213867" lon="11.76551"><ele>296.0</ele><time>2026-05-02T14:36:19.721Z</time></trkpt><trkpt lat="42.821205" lon="11.7653533"><ele>294.0</ele><time>2026-05-02T14:36:20.722Z</time></trkpt><trkpt lat="42.82103" lon="11.7652"><ele>295.0</ele><time>2026-05-02T14:36:21.721Z</time></trkpt><trkpt lat="42.8208633" lon="11.7650417"><ele>296.0</ele><time>2026-05-02T14:36:22.721Z</time></trkpt><trkpt lat="42.82071" lon="11.7648783"><ele>297.0</ele><time>2026-05-02T14:36:23.721Z</time></trkpt><trkpt lat="42.820575" lon="11.7646983"><ele>297.0</ele><time>2026-05-02T14:36:24.721Z</time></trkpt><trkpt lat="42.8204667" lon="11.7644967"><ele>297.0</ele><time>2026-05-02T14:36:25.721Z</time></trkpt><trkpt lat="42.820395" lon="11.76427"><ele>297.0</ele><time>2026-05-02T14:36:26.722Z</time></trkpt><trkpt lat="42.8203617" lon="11.7640267"><ele>297.0</ele><time>2026-05-02T14:36:27.721Z</time></trkpt><trkpt lat="42.82036" lon="11.7637717"><ele>297.0</ele><time>2026-05-02T14:36:28.721Z</time></trkpt><trkpt lat="42.82038" lon="11.7635117"><ele>297.0</ele><time>2026-05-02T14:36:29.721Z</time></trkpt><trkpt lat="42.82041" lon="11.7632367"><ele>297.0</ele><time>2026-05-02T14:36:30.721Z</time></trkpt><trkpt lat="42.8204417" lon="11.76296"><ele>297.0</ele><time>2026-05-02T14:36:31.722Z</time></trkpt><trkpt lat="42.82047" lon="11.76268"><ele>297.0</ele><time>2026-05-02T14:36:32.719Z</time></trkpt><trkpt lat="42.8204917" lon="11.7623967"><ele>297.3333333333333</ele><time>2026-05-02T14:36:33.719Z</time></trkpt><trkpt lat="42.82049" lon="11.7621133"><ele>297.66666666666663</ele><time>2026-05-02T14:36:34.719Z</time></trkpt><trkpt lat="42.8204667" lon="11.76183"><ele>298.0</ele><time>2026-05-02T14:36:35.72Z</time></trkpt><trkpt lat="42.82042" lon="11.7615483"><ele>299.66666666666663</ele><time>2026-05-02T14:36:36.72Z</time></trkpt><trkpt lat="42.820355" lon="11.7612683"><ele>301.3333333333333</ele><time>2026-05-02T14:36:37.719Z</time></trkpt><trkpt lat="42.8202917" lon="11.7609933"><ele>303.0</ele><time>2026-05-02T14:36:38.719Z</time></trkpt><trkpt lat="42.820245" lon="11.7607167"><ele>306.0</ele><time>2026-05-02T14:36:39.719Z</time></trkpt><trkpt lat="42.8202183" lon="11.7604367"><ele>309.0</ele><time>2026-05-02T14:36:40.718Z</time></trkpt><trkpt lat="42.8202133" lon="11.7601533"><ele>312.0</ele><time>2026-05-02T14:36:41.721Z</time></trkpt><trkpt lat="42.8202267" lon="11.7598683"><ele>313.6666666666667</ele><time>2026-05-02T14:36:42.721Z</time></trkpt><trkpt lat="42.8202567" lon="11.7595833"><ele>315.33333333333337</ele><time>2026-05-02T14:36:43.727Z</time></trkpt><trkpt lat="42.82029" lon="11.7593033"><ele>317.0</ele><time>2026-05-02T14:36:44.722Z</time></trkpt><trkpt lat="42.82032" lon="11.75903"><ele>317.6666666666667</ele><time>2026-05-02T14:36:45.722Z</time></trkpt><trkpt lat="42.8203317" lon="11.758755"><ele>318.3333333333333</ele><time>2026-05-02T14:36:46.722Z</time></trkpt><trkpt lat="42.8203167" lon="11.75848"><ele>319.0</ele><time>2026-05-02T14:36:47.721Z</time></trkpt><trkpt lat="42.8202733" lon="11.7582117"><ele>319.0</ele><time>2026-05-02T14:36:48.813Z</time></trkpt><trkpt lat="42.8202" lon="11.757955"><ele>319.0</ele><time>2026-05-02T14:36:49.72Z</time></trkpt><trkpt lat="42.8201067" lon="11.7577033"><ele>319.0</ele><time>2026-05-02T14:36:50.722Z</time></trkpt><trkpt lat="42.820005" lon="11.75745"><ele>320.0</ele><time>2026-05-02T14:36:51.721Z</time></trkpt><trkpt lat="42.8198983" lon="11.7571933"><ele>321.0</ele><time>2026-05-02T14:36:52.721Z</time></trkpt><trkpt lat="42.819795" lon="11.756935"><ele>322.0</ele><time>2026-05-02T14:36:53.722Z</time></trkpt><trkpt lat="42.8196917" lon="11.7566733"><ele>324.3333333333333</ele><time>2026-05-02T14:36:54.718Z</time></trkpt><trkpt lat="42.8195883" lon="11.7564133"><ele>326.6666666666667</ele><time>2026-05-02T14:36:55.721Z</time></trkpt><trkpt lat="42.8194817" lon="11.756155"><ele>329.0</ele><time>2026-05-02T14:36:56.722Z</time></trkpt><trkpt lat="42.81937" lon="11.7558967"><ele>329.33333333333337</ele><time>2026-05-02T14:36:57.721Z</time></trkpt><trkpt lat="42.8192517" lon="11.7556417"><ele>329.6666666666667</ele><time>2026-05-02T14:36:58.721Z</time></trkpt><trkpt lat="42.81913" lon="11.755385"><ele>330.0</ele><time>2026-05-02T14:36:59.721Z</time></trkpt><trkpt lat="42.8190033" lon="11.7551267"><ele>332.5</ele><time>2026-05-02T14:37:00.721Z</time></trkpt><trkpt lat="42.818875" lon="11.7548667"><ele>335.0</ele><time>2026-05-02T14:37:01.721Z</time></trkpt><trkpt lat="42.818745" lon="11.7546117"><ele>337.0</ele><time>2026-05-02T14:37:02.723Z</time></trkpt><trkpt lat="42.8186167" lon="11.7543567"><ele>339.0</ele><time>2026-05-02T14:37:03.721Z</time></trkpt><trkpt lat="42.818495" lon="11.7541083"><ele>341.0</ele><time>2026-05-02T14:37:04.722Z</time></trkpt><trkpt lat="42.8183817" lon="11.75386"><ele>339.0</ele><time>2026-05-02T14:37:05.721Z</time></trkpt><trkpt lat="42.8182683" lon="11.75361"><ele>337.0</ele><time>2026-05-02T14:37:06.721Z</time></trkpt><trkpt lat="42.8181533" lon="11.7533583"><ele>335.0</ele><time>2026-05-02T14:37:07.721Z</time></trkpt><trkpt lat="42.818035" lon="11.7531133"><ele>335.0</ele><time>2026-05-02T14:37:08.722Z</time></trkpt><trkpt lat="42.8179083" lon="11.75287"><ele>335.0</ele><time>2026-05-02T14:37:09.721Z</time></trkpt><trkpt lat="42.81777" lon="11.75263"><ele>335.0</ele><time>2026-05-02T14:37:10.721Z</time></trkpt><trkpt lat="42.8176217" lon="11.7524017"><ele>329.5</ele><time>2026-05-02T14:37:11.721Z</time></trkpt><trkpt lat="42.81747" lon="11.75217"><ele>324.0</ele><time>2026-05-02T14:37:12.721Z</time></trkpt><trkpt lat="42.8173233" lon="11.7519367"><ele>324.6666666666667</ele><time>2026-05-02T14:37:13.721Z</time></trkpt><trkpt lat="42.81718" lon="11.751705"><ele>325.33333333333337</ele><time>2026-05-02T14:37:14.721Z</time></trkpt><trkpt lat="42.81704" lon="11.7514667"><ele>326.0</ele><time>2026-05-02T14:37:15.718Z</time></trkpt><trkpt lat="42.8169067" lon="11.7512183"><ele>321.5</ele><time>2026-05-02T14:37:16.722Z</time></trkpt><trkpt lat="42.8167883" lon="11.7509583"><ele>317.0</ele><time>2026-05-02T14:37:17.719Z</time></trkpt><trkpt lat="42.81668" lon="11.7506817"><ele>317.0</ele><time>2026-05-02T14:37:18.718Z</time></trkpt><trkpt lat="42.816575" lon="11.7504017"><ele>317.0</ele><time>2026-05-02T14:37:19.719Z</time></trkpt><trkpt lat="42.816475" lon="11.750115"><ele>318.0</ele><time>2026-05-02T14:37:20.719Z</time></trkpt><trkpt lat="42.81638" lon="11.7498233"><ele>319.0</ele><time>2026-05-02T14:37:21.718Z</time></trkpt><trkpt lat="42.816305" lon="11.7495217"><ele>318.0</ele><time>2026-05-02T14:37:22.718Z</time></trkpt><trkpt lat="42.816245" lon="11.7492133"><ele>317.0</ele><time>2026-05-02T14:37:23.718Z</time></trkpt><trkpt lat="42.81619" lon="11.748905"><ele>317.0</ele><time>2026-05-02T14:37:24.723Z</time></trkpt><trkpt lat="42.8161333" lon="11.7485967"><ele>317.0</ele><time>2026-05-02T14:37:25.721Z</time></trkpt><trkpt lat="42.8160783" lon="11.7482917"><ele>318.0</ele><time>2026-05-02T14:37:26.722Z</time></trkpt><trkpt lat="42.816025" lon="11.747995"><ele>319.0</ele><time>2026-05-02T14:37:27.721Z</time></trkpt><trkpt lat="42.8159667" lon="11.7477017"><ele>320.0</ele><time>2026-05-02T14:37:28.722Z</time></trkpt><trkpt lat="42.8159133" lon="11.74741"><ele>321.33333333333337</ele><time>2026-05-02T14:37:29.721Z</time></trkpt><trkpt lat="42.815865" lon="11.7471183"><ele>322.6666666666667</ele><time>2026-05-02T14:37:30.722Z</time></trkpt><trkpt lat="42.815815" lon="11.74683"><ele>324.0</ele><time>2026-05-02T14:37:31.721Z</time></trkpt><trkpt lat="42.8157633" lon="11.7465467"><ele>325.3333333333333</ele><time>2026-05-02T14:37:32.722Z</time></trkpt><trkpt lat="42.815715" lon="11.7462817"><ele>326.66666666666663</ele><time>2026-05-02T14:37:33.721Z</time></trkpt><trkpt lat="42.815685" lon="11.7460283"><ele>328.0</ele><time>2026-05-02T14:37:34.721Z</time></trkpt><trkpt lat="42.815695" lon="11.745775"><ele>330.0</ele><time>2026-05-02T14:37:35.721Z</time></trkpt><trkpt lat="42.81574" lon="11.74553"><ele>332.0</ele><time>2026-05-02T14:37:36.721Z</time></trkpt><trkpt lat="42.8158217" lon="11.7453017"><ele>334.0</ele><time>2026-05-02T14:37:37.721Z</time></trkpt><trkpt lat="42.8159383" lon="11.7450883"><ele>335.0</ele><time>2026-05-02T14:37:38.722Z</time></trkpt><trkpt lat="42.816075" lon="11.74489"><ele>336.0</ele><time>2026-05-02T14:37:39.721Z</time></trkpt><trkpt lat="42.81622" lon="11.7446917"><ele>337.0</ele><time>2026-05-02T14:37:40.718Z</time></trkpt><trkpt lat="42.8163417" lon="11.7444733"><ele>337.0</ele><time>2026-05-02T14:37:41.722Z</time></trkpt><trkpt lat="42.8164417" lon="11.74423"><ele>337.0</ele><time>2026-05-02T14:37:42.722Z</time></trkpt><trkpt lat="42.8165117" lon="11.7439683"><ele>337.0</ele><time>2026-05-02T14:37:43.721Z</time></trkpt><trkpt lat="42.816555" lon="11.7436917"><ele>338.66666666666663</ele><time>2026-05-02T14:37:44.722Z</time></trkpt><trkpt lat="42.816585" lon="11.7434067"><ele>340.3333333333333</ele><time>2026-05-02T14:37:45.721Z</time></trkpt><trkpt lat="42.8166217" lon="11.74312"><ele>342.0</ele><time>2026-05-02T14:37:46.722Z</time></trkpt><trkpt lat="42.81666" lon="11.7428317"><ele>343.6666666666667</ele><time>2026-05-02T14:37:47.721Z</time></trkpt><trkpt lat="42.8166967" lon="11.74254"><ele>345.33333333333337</ele><time>2026-05-02T14:37:48.718Z</time></trkpt><trkpt lat="42.8167367" lon="11.742245"><ele>347.0</ele><time>2026-05-02T14:37:49.722Z</time></trkpt><trkpt lat="42.8167883" lon="11.7419483"><ele>343.5</ele><time>2026-05-02T14:37:50.723Z</time></trkpt><trkpt lat="42.8168567" lon="11.7416517"><ele>340.0</ele><time>2026-05-02T14:37:51.721Z</time></trkpt><trkpt lat="42.8169333" lon="11.7413533"><ele>340.0</ele><time>2026-05-02T14:37:52.722Z</time></trkpt><trkpt lat="42.8170133" lon="11.74105"><ele>340.0</ele><time>2026-05-02T14:37:53.722Z</time></trkpt><trkpt lat="42.817095" lon="11.740745"><ele>341.0</ele><time>2026-05-02T14:37:54.721Z</time></trkpt><trkpt lat="42.8171767" lon="11.7404367"><ele>342.0</ele><time>2026-05-02T14:37:55.722Z</time></trkpt><trkpt lat="42.8172583" lon="11.740125"><ele>343.5</ele><time>2026-05-02T14:37:56.722Z</time></trkpt><trkpt lat="42.8173417" lon="11.7398133"><ele>345.0</ele><time>2026-05-02T14:37:57.721Z</time></trkpt><trkpt lat="42.8174317" lon="11.739505"><ele>346.0</ele><time>2026-05-02T14:37:58.722Z</time></trkpt><trkpt lat="42.81753" lon="11.7392017"><ele>347.0</ele><time>2026-05-02T14:37:59.721Z</time></trkpt><trkpt lat="42.817635" lon="11.7388983"><ele>346.0</ele><time>2026-05-02T14:38:00.721Z</time></trkpt><trkpt lat="42.8177383" lon="11.738595"><ele>345.0</ele><time>2026-05-02T14:38:01.721Z</time></trkpt><trkpt lat="42.81784" lon="11.73829"><ele>345.0</ele><time>2026-05-02T14:38:02.722Z</time></trkpt><trkpt lat="42.81794" lon="11.7379817"><ele>345.0</ele><time>2026-05-02T14:38:03.721Z</time></trkpt><trkpt lat="42.8180333" lon="11.73767"><ele>346.5</ele><time>2026-05-02T14:38:04.722Z</time></trkpt><trkpt lat="42.8181217" lon="11.7373533"><ele>348.0</ele><time>2026-05-02T14:38:05.719Z</time></trkpt><trkpt lat="42.8182067" lon="11.737035"><ele>348.0</ele><time>2026-05-02T14:38:06.723Z</time></trkpt><trkpt lat="42.8182867" lon="11.73671"><ele>348.0</ele><time>2026-05-02T14:38:07.721Z</time></trkpt><trkpt lat="42.8183683" lon="11.7363833"><ele>348.0</ele><time>2026-05-02T14:38:08.722Z</time></trkpt><trkpt lat="42.8184467" lon="11.7360567"><ele>348.0</ele><time>2026-05-02T14:38:09.722Z</time></trkpt><trkpt lat="42.8185233" lon="11.7357267"><ele>349.0</ele><time>2026-05-02T14:38:10.722Z</time></trkpt><trkpt lat="42.8186" lon="11.735395"><ele>350.0</ele><time>2026-05-02T14:38:11.722Z</time></trkpt><trkpt lat="42.8186783" lon="11.7350633"><ele>350.0</ele><time>2026-05-02T14:38:12.723Z</time></trkpt><trkpt lat="42.8187667" lon="11.7347383"><ele>350.0</ele><time>2026-05-02T14:38:13.721Z</time></trkpt><trkpt lat="42.8188633" lon="11.73442"><ele>352.0</ele><time>2026-05-02T14:38:14.722Z</time></trkpt><trkpt lat="42.81898" lon="11.73412"><ele>354.0</ele><time>2026-05-02T14:38:15.722Z</time></trkpt><trkpt lat="42.8191217" lon="11.7338483"><ele>354.0</ele><time>2026-05-02T14:38:16.722Z</time></trkpt><trkpt lat="42.819285" lon="11.7336"><ele>354.0</ele><time>2026-05-02T14:38:17.721Z</time></trkpt><trkpt lat="42.8194617" lon="11.733365"><ele>354.0</ele><time>2026-05-02T14:38:18.721Z</time></trkpt><trkpt lat="42.8196417" lon="11.733135"><ele>354.0</ele><time>2026-05-02T14:38:19.721Z</time></trkpt><trkpt lat="42.81982" lon="11.7329017"><ele>354.0</ele><time>2026-05-02T14:38:20.722Z</time></trkpt><trkpt lat="42.8199983" lon="11.7326633"><ele>354.0</ele><time>2026-05-02T14:38:21.722Z</time></trkpt><trkpt lat="42.8201717" lon="11.732425"><ele>353.5</ele><time>2026-05-02T14:38:22.722Z</time></trkpt><trkpt lat="42.8203433" lon="11.7321883"><ele>353.0</ele><time>2026-05-02T14:38:23.722Z</time></trkpt><trkpt lat="42.8205167" lon="11.731955"><ele>353.5</ele><time>2026-05-02T14:38:24.722Z</time></trkpt><trkpt lat="42.820695" lon="11.731725"><ele>354.0</ele><time>2026-05-02T14:38:25.721Z</time></trkpt><trkpt lat="42.8208683" lon="11.73149"><ele>355.0</ele><time>2026-05-02T14:38:26.723Z</time></trkpt><trkpt lat="42.8210417" lon="11.731255"><ele>356.0</ele><time>2026-05-02T14:38:27.721Z</time></trkpt><trkpt lat="42.8212133" lon="11.73102"><ele>356.0</ele><time>2026-05-02T14:38:28.722Z</time></trkpt><trkpt lat="42.8213833" lon="11.730785"><ele>356.0</ele><time>2026-05-02T14:38:29.721Z</time></trkpt><trkpt lat="42.821555" lon="11.73055"><ele>356.0</ele><time>2026-05-02T14:38:30.722Z</time></trkpt><trkpt lat="42.82173" lon="11.73032"><ele>356.0</ele><time>2026-05-02T14:38:31.722Z</time></trkpt><trkpt lat="42.8219067" lon="11.7300933"><ele>357.5</ele><time>2026-05-02T14:38:32.722Z</time></trkpt><trkpt lat="42.8220783" lon="11.7298683"><ele>359.0</ele><time>2026-05-02T14:38:33.722Z</time></trkpt><trkpt lat="42.822245" lon="11.7296433"><ele>359.0</ele><time>2026-05-02T14:38:34.721Z</time></trkpt><trkpt lat="42.8224083" lon="11.7294167"><ele>359.0</ele><time>2026-05-02T14:38:35.723Z</time></trkpt><trkpt lat="42.8225667" lon="11.7291883"><ele>360.0</ele><time>2026-05-02T14:38:36.721Z</time></trkpt><trkpt lat="42.8227183" lon="11.72895"><ele>361.0</ele><time>2026-05-02T14:38:37.719Z</time></trkpt><trkpt lat="42.82287" lon="11.7287017"><ele>360.0</ele><time>2026-05-02T14:38:38.723Z</time></trkpt><trkpt lat="42.823015" lon="11.7284517"><ele>359.0</ele><time>2026-05-02T14:38:39.722Z</time></trkpt><trkpt lat="42.823155" lon="11.7282117"><ele>359.0</ele><time>2026-05-02T14:38:40.722Z</time></trkpt><trkpt lat="42.8232917" lon="11.7279833"><ele>359.0</ele><time>2026-05-02T14:38:41.722Z</time></trkpt><trkpt lat="42.82342" lon="11.7277683"><ele>359.0</ele><time>2026-05-02T14:38:42.722Z</time></trkpt><trkpt lat="42.8235383" lon="11.7275617"><ele>360.0</ele><time>2026-05-02T14:38:43.72Z</time></trkpt><trkpt lat="42.8236517" lon="11.72737"><ele>361.0</ele><time>2026-05-02T14:38:44.723Z</time></trkpt><trkpt lat="42.8237567" lon="11.7272017"><ele>362.0</ele><time>2026-05-02T14:38:45.722Z</time></trkpt><trkpt lat="42.8238417" lon="11.7270533"><ele>362.0</ele><time>2026-05-02T14:38:46.722Z</time></trkpt><trkpt lat="42.8239083" lon="11.7269267"><ele>362.0</ele><time>2026-05-02T14:38:47.722Z</time></trkpt><trkpt lat="42.82395" lon="11.7268117"><ele>362.0</ele><time>2026-05-02T14:38:48.721Z</time></trkpt><trkpt lat="42.82396" lon="11.7267017"><ele>362.0</ele><time>2026-05-02T14:38:49.722Z</time></trkpt><trkpt lat="42.8239383" lon="11.7266017"><ele>362.0</ele><time>2026-05-02T14:38:50.722Z</time></trkpt><trkpt lat="42.8238833" lon="11.7265067"><ele>361.8</ele><time>2026-05-02T14:38:51.722Z</time></trkpt><trkpt lat="42.8237883" lon="11.7264367"><ele>361.6</ele><time>2026-05-02T14:38:52.722Z</time></trkpt><trkpt lat="42.8236917" lon="11.7263683"><ele>361.40000000000003</ele><time>2026-05-02T14:38:53.723Z</time></trkpt><trkpt lat="42.823595" lon="11.7262867"><ele>361.20000000000005</ele><time>2026-05-02T14:38:54.723Z</time></trkpt><trkpt lat="42.8235" lon="11.726205"><ele>361.0</ele><time>2026-05-02T14:38:55.721Z</time></trkpt><trkpt lat="42.8234083" lon="11.7261233"><ele>360.20000000000005</ele><time>2026-05-02T14:38:56.722Z</time></trkpt><trkpt lat="42.82332" lon="11.7260433"><ele>359.40000000000003</ele><time>2026-05-02T14:38:57.719Z</time></trkpt><trkpt lat="42.823245" lon="11.725965"><ele>358.6</ele><time>2026-05-02T14:38:58.722Z</time></trkpt><trkpt lat="42.8231883" lon="11.7258933"><ele>357.8</ele><time>2026-05-02T14:38:59.722Z</time></trkpt><trkpt lat="42.8231567" lon="11.7257417"><ele>357.0</ele><time>2026-05-02T14:39:01.722Z</time></trkpt><trkpt lat="42.82318" lon="11.7256617"><ele>357.0</ele><time>2026-05-02T14:39:02.719Z</time></trkpt><trkpt lat="42.823215" lon="11.72558"><ele>357.0</ele><time>2026-05-02T14:39:03.72Z</time></trkpt><trkpt lat="42.8232733" lon="11.7254933"><ele>357.0</ele><time>2026-05-02T14:39:04.719Z</time></trkpt><trkpt lat="42.8233383" lon="11.7253967"><ele>357.0</ele><time>2026-05-02T14:39:05.72Z</time></trkpt><trkpt lat="42.823405" lon="11.7252967"><ele>357.0</ele><time>2026-05-02T14:39:06.72Z</time></trkpt><trkpt lat="42.8234633" lon="11.7252"><ele>357.0</ele><time>2026-05-02T14:39:07.72Z</time></trkpt><trkpt lat="42.8235067" lon="11.7251"><ele>357.3333333333333</ele><time>2026-05-02T14:39:08.72Z</time></trkpt><trkpt lat="42.823525" lon="11.724995"><ele>357.6666666666667</ele><time>2026-05-02T14:39:09.72Z</time></trkpt><trkpt lat="42.82354" lon="11.7248883"><ele>358.0</ele><time>2026-05-02T14:39:10.719Z</time></trkpt><trkpt lat="42.8235517" lon="11.7247883"><ele>358.33333333333337</ele><time>2026-05-02T14:39:11.722Z</time></trkpt><trkpt lat="42.8235533" lon="11.7246567"><ele>358.6666666666667</ele><time>2026-05-02T14:39:13.719Z</time></trkpt><trkpt lat="42.8236033" lon="11.7245767"><ele>359.0</ele><time>2026-05-02T14:47:05.721Z</time></trkpt><trkpt lat="42.8236717" lon="11.7246183"><ele>359.0</ele><time>2026-05-02T14:47:07.721Z</time></trkpt><trkpt lat="42.8237233" lon="11.7246817"><ele>359.0</ele><time>2026-05-02T14:47:09.722Z</time></trkpt><trkpt lat="42.82381" lon="11.7246533"><ele>359.0</ele><time>2026-05-02T14:47:12.721Z</time></trkpt><trkpt lat="42.82389" lon="11.7245217"><ele>359.0</ele><time>2026-05-02T14:47:14.722Z</time></trkpt><trkpt lat="42.8239417" lon="11.7244317"><ele>359.0</ele><time>2026-05-02T14:47:15.723Z</time></trkpt><trkpt lat="42.8240017" lon="11.7243283"><ele>359.2</ele><time>2026-05-02T14:47:16.722Z</time></trkpt><trkpt lat="42.824065" lon="11.7242133"><ele>359.4</ele><time>2026-05-02T14:47:17.718Z</time></trkpt><trkpt lat="42.8241317" lon="11.7240967"><ele>359.6</ele><time>2026-05-02T14:47:18.718Z</time></trkpt><trkpt lat="42.8242" lon="11.72398"><ele>359.8</ele><time>2026-05-02T14:47:19.719Z</time></trkpt><trkpt lat="42.82427" lon="11.7238617"><ele>360.0</ele><time>2026-05-02T14:47:20.72Z</time></trkpt><trkpt lat="42.824335" lon="11.7237533"><ele>359.8</ele><time>2026-05-02T14:47:21.721Z</time></trkpt><trkpt lat="42.824385" lon="11.72366"><ele>359.6</ele><time>2026-05-02T14:47:22.72Z</time></trkpt><trkpt lat="42.824415" lon="11.72358"><ele>359.4</ele><time>2026-05-02T14:47:23.72Z</time></trkpt><trkpt lat="42.8244133" lon="11.72344"><ele>359.2</ele><time>2026-05-02T14:47:25.721Z</time></trkpt><trkpt lat="42.8243133" lon="11.7233133"><ele>359.0</ele><time>2026-05-02T14:47:27.721Z</time></trkpt><trkpt lat="42.8242267" lon="11.7232483"><ele>359.0</ele><time>2026-05-02T14:47:28.723Z</time></trkpt><trkpt lat="42.8241183" lon="11.72317"><ele>359.0</ele><time>2026-05-02T14:47:29.721Z</time></trkpt><trkpt lat="42.82401" lon="11.7230883"><ele>359.0</ele><time>2026-05-02T14:47:30.722Z</time></trkpt><trkpt lat="42.823905" lon="11.7230083"><ele>359.0</ele><time>2026-05-02T14:47:31.721Z</time></trkpt><trkpt lat="42.8238033" lon="11.7229317"><ele>359.0</ele><time>2026-05-02T14:47:32.721Z</time></trkpt><trkpt lat="42.823705" lon="11.7228683"><ele>359.0</ele><time>2026-05-02T14:47:33.723Z</time></trkpt><trkpt lat="42.82361" lon="11.7228083"><ele>359.0</ele><time>2026-05-02T14:47:34.721Z</time></trkpt><trkpt lat="42.82352" lon="11.722745"><ele>359.0</ele><time>2026-05-02T14:47:35.721Z</time></trkpt><trkpt lat="42.8234217" lon="11.72266"><ele>359.0</ele><time>2026-05-02T14:47:36.721Z</time></trkpt><trkpt lat="42.8233133" lon="11.7225517"><ele>357.6666666666667</ele><time>2026-05-02T14:47:37.722Z</time></trkpt><trkpt lat="42.8231967" lon="11.7224267"><ele>356.3333333333333</ele><time>2026-05-02T14:47:38.721Z</time></trkpt><trkpt lat="42.8230717" lon="11.7222983"><ele>355.0</ele><time>2026-05-02T14:47:39.721Z</time></trkpt><trkpt lat="42.822935" lon="11.7221567"><ele>355.0</ele><time>2026-05-02T14:47:40.721Z</time></trkpt><trkpt lat="42.8227917" lon="11.722005"><ele>355.0</ele><time>2026-05-02T14:47:41.721Z</time></trkpt><trkpt lat="42.8226433" lon="11.72185"><ele>355.0</ele><time>2026-05-02T14:47:42.721Z</time></trkpt><trkpt lat="42.8224917" lon="11.7216917"><ele>353.3333333333333</ele><time>2026-05-02T14:47:43.719Z</time></trkpt><trkpt lat="42.8223383" lon="11.72153"><ele>351.6666666666667</ele><time>2026-05-02T14:47:44.722Z</time></trkpt><trkpt lat="42.8221867" lon="11.7213733"><ele>350.0</ele><time>2026-05-02T14:47:45.722Z</time></trkpt><trkpt lat="42.8220367" lon="11.721215"><ele>350.33333333333337</ele><time>2026-05-02T14:47:46.722Z</time></trkpt><trkpt lat="42.8218917" lon="11.7210583"><ele>350.6666666666667</ele><time>2026-05-02T14:47:47.722Z</time></trkpt><trkpt lat="42.821745" lon="11.7209"><ele>351.0</ele><time>2026-05-02T14:47:48.721Z</time></trkpt><trkpt lat="42.8216017" lon="11.7207383"><ele>351.0</ele><time>2026-05-02T14:47:49.721Z</time></trkpt><trkpt lat="42.8214583" lon="11.72058"><ele>351.0</ele><time>2026-05-02T14:47:50.722Z</time></trkpt><trkpt lat="42.8213183" lon="11.7204267"><ele>351.0</ele><time>2026-05-02T14:47:51.722Z</time></trkpt><trkpt lat="42.8211833" lon="11.7202867"><ele>351.0</ele><time>2026-05-02T14:47:52.722Z</time></trkpt><trkpt lat="42.8210533" lon="11.72016"><ele>351.0</ele><time>2026-05-02T14:47:53.722Z</time></trkpt><trkpt lat="42.8209267" lon="11.7200483"><ele>351.0</ele><time>2026-05-02T14:47:54.721Z</time></trkpt><trkpt lat="42.8207983" lon="11.7199617"><ele>350.25</ele><time>2026-05-02T14:47:55.721Z</time></trkpt><trkpt lat="42.820665" lon="11.719905"><ele>349.5</ele><time>2026-05-02T14:47:56.721Z</time></trkpt><trkpt lat="42.8205233" lon="11.719875"><ele>348.75</ele><time>2026-05-02T14:47:57.721Z</time></trkpt><trkpt lat="42.82038" lon="11.7198783"><ele>348.0</ele><time>2026-05-02T14:47:58.722Z</time></trkpt><trkpt lat="42.8202367" lon="11.7199017"><ele>348.0</ele><time>2026-05-02T14:47:59.722Z</time></trkpt><trkpt lat="42.8201083" lon="11.7199533"><ele>348.0</ele><time>2026-05-02T14:48:00.721Z</time></trkpt><trkpt lat="42.8199967" lon="11.720035"><ele>348.0</ele><time>2026-05-02T14:48:01.722Z</time></trkpt><trkpt lat="42.8198933" lon="11.720145"><ele>348.0</ele><time>2026-05-02T14:48:02.722Z</time></trkpt><trkpt lat="42.8197983" lon="11.7202833"><ele>347.6666666666667</ele><time>2026-05-02T14:48:03.722Z</time></trkpt><trkpt lat="42.8197067" lon="11.7204367"><ele>347.33333333333337</ele><time>2026-05-02T14:48:04.722Z</time></trkpt><trkpt lat="42.81961" lon="11.7206017"><ele>347.0</ele><time>2026-05-02T14:48:05.721Z</time></trkpt><trkpt lat="42.8194983" lon="11.7207667"><ele>347.0</ele><time>2026-05-02T14:48:06.722Z</time></trkpt><trkpt lat="42.8193667" lon="11.72092"><ele>347.0</ele><time>2026-05-02T14:48:07.722Z</time></trkpt><trkpt lat="42.819225" lon="11.7210683"><ele>347.0</ele><time>2026-05-02T14:48:08.722Z</time></trkpt><trkpt lat="42.819075" lon="11.721215"><ele>346.33333333333337</ele><time>2026-05-02T14:48:09.721Z</time></trkpt><trkpt lat="42.8189167" lon="11.721355"><ele>345.6666666666667</ele><time>2026-05-02T14:48:10.721Z</time></trkpt><trkpt lat="42.8187567" lon="11.7214983"><ele>345.0</ele><time>2026-05-02T14:48:11.722Z</time></trkpt><trkpt lat="42.818595" lon="11.7216433"><ele>344.6666666666667</ele><time>2026-05-02T14:48:12.721Z</time></trkpt><trkpt lat="42.818435" lon="11.7217867"><ele>344.33333333333337</ele><time>2026-05-02T14:48:13.722Z</time></trkpt><trkpt lat="42.8182733" lon="11.72193"><ele>344.0</ele><time>2026-05-02T14:48:14.721Z</time></trkpt><trkpt lat="42.8181133" lon="11.7220733"><ele>344.0</ele><time>2026-05-02T14:48:15.722Z</time></trkpt><trkpt lat="42.8179533" lon="11.7222183"><ele>344.0</ele><time>2026-05-02T14:48:16.722Z</time></trkpt><trkpt lat="42.8177983" lon="11.72237"><ele>344.0</ele><time>2026-05-02T14:48:17.722Z</time></trkpt><trkpt lat="42.8176483" lon="11.722525"><ele>344.0</ele><time>2026-05-02T14:48:18.721Z</time></trkpt><trkpt lat="42.8175067" lon="11.7226833"><ele>344.0</ele><time>2026-05-02T14:48:19.722Z</time></trkpt><trkpt lat="42.8173717" lon="11.72285"><ele>344.0</ele><time>2026-05-02T14:48:20.722Z</time></trkpt><trkpt lat="42.8172383" lon="11.723025"><ele>343.6666666666667</ele><time>2026-05-02T14:48:21.722Z</time></trkpt><trkpt lat="42.81711" lon="11.7232133"><ele>343.3333333333333</ele><time>2026-05-02T14:48:22.722Z</time></trkpt><trkpt lat="42.81698" lon="11.7234067"><ele>343.0</ele><time>2026-05-02T14:48:23.722Z</time></trkpt><trkpt lat="42.8168517" lon="11.7236083"><ele>342.3333333333333</ele><time>2026-05-02T14:48:24.722Z</time></trkpt><trkpt lat="42.81673" lon="11.7238117"><ele>341.6666666666667</ele><time>2026-05-02T14:48:25.721Z</time></trkpt><trkpt lat="42.8166167" lon="11.7240133"><ele>341.0</ele><time>2026-05-02T14:48:26.718Z</time></trkpt><trkpt lat="42.8165" lon="11.7242083"><ele>341.0</ele><time>2026-05-02T14:48:27.721Z</time></trkpt><trkpt lat="42.8163833" lon="11.724395"><ele>341.0</ele><time>2026-05-02T14:48:28.722Z</time></trkpt><trkpt lat="42.8162583" lon="11.724575"><ele>341.0</ele><time>2026-05-02T14:48:29.722Z</time></trkpt><trkpt lat="42.8161267" lon="11.7247517"><ele>340.6666666666667</ele><time>2026-05-02T14:48:30.722Z</time></trkpt><trkpt lat="42.81599" lon="11.724925"><ele>340.3333333333333</ele><time>2026-05-02T14:48:31.722Z</time></trkpt><trkpt lat="42.8158533" lon="11.7250983"><ele>340.0</ele><time>2026-05-02T14:48:32.722Z</time></trkpt><trkpt lat="42.8157217" lon="11.725265"><ele>339.75</ele><time>2026-05-02T14:48:33.722Z</time></trkpt><trkpt lat="42.8156067" lon="11.7254217"><ele>339.5</ele><time>2026-05-02T14:48:34.721Z</time></trkpt><trkpt lat="42.815505" lon="11.72557"><ele>339.25</ele><time>2026-05-02T14:48:35.722Z</time></trkpt><trkpt lat="42.8154233" lon="11.72572"><ele>339.0</ele><time>2026-05-02T14:48:36.722Z</time></trkpt><trkpt lat="42.8153683" lon="11.7258783"><ele>339.0</ele><time>2026-05-02T14:48:37.722Z</time></trkpt><trkpt lat="42.8153367" lon="11.7260483"><ele>339.0</ele><time>2026-05-02T14:48:38.723Z</time></trkpt><trkpt lat="42.8153367" lon="11.7262167"><ele>339.0</ele><time>2026-05-02T14:48:39.722Z</time></trkpt><trkpt lat="42.8153667" lon="11.7263883"><ele>339.0</ele><time>2026-05-02T14:48:40.722Z</time></trkpt><trkpt lat="42.81541" lon="11.7265633"><ele>338.6666666666667</ele><time>2026-05-02T14:48:41.721Z</time></trkpt><trkpt lat="42.8154533" lon="11.7267567"><ele>338.33333333333337</ele><time>2026-05-02T14:48:42.722Z</time></trkpt><trkpt lat="42.8154833" lon="11.72696"><ele>338.0</ele><time>2026-05-02T14:48:43.721Z</time></trkpt><trkpt lat="42.8154983" lon="11.7271717"><ele>337.6666666666667</ele><time>2026-05-02T14:48:44.721Z</time></trkpt><trkpt lat="42.8154883" lon="11.72739"><ele>337.3333333333333</ele><time>2026-05-02T14:48:45.722Z</time></trkpt><trkpt lat="42.8154583" lon="11.7276133"><ele>337.0</ele><time>2026-05-02T14:48:46.724Z</time></trkpt><trkpt lat="42.815425" lon="11.7278433"><ele>337.0</ele><time>2026-05-02T14:48:47.722Z</time></trkpt><trkpt lat="42.8154" lon="11.72807"><ele>337.0</ele><time>2026-05-02T14:48:48.721Z</time></trkpt><trkpt lat="42.81538" lon="11.728285"><ele>337.0</ele><time>2026-05-02T14:48:49.723Z</time></trkpt><trkpt lat="42.81536" lon="11.7284767"><ele>336.6</ele><time>2026-05-02T14:48:50.722Z</time></trkpt><trkpt lat="42.8153433" lon="11.7286467"><ele>336.20000000000005</ele><time>2026-05-02T14:48:51.722Z</time></trkpt><trkpt lat="42.815325" lon="11.7287933"><ele>335.8</ele><time>2026-05-02T14:48:52.722Z</time></trkpt><trkpt lat="42.8152967" lon="11.728905"><ele>335.4</ele><time>2026-05-02T14:48:53.722Z</time></trkpt><trkpt lat="42.815265" lon="11.728995"><ele>335.0</ele><time>2026-05-02T14:48:54.722Z</time></trkpt><trkpt lat="42.8151817" lon="11.7291"><ele>334.6666666666667</ele><time>2026-05-02T14:48:56.721Z</time></trkpt><trkpt lat="42.8150633" lon="11.72911"><ele>334.33333333333337</ele><time>2026-05-02T14:48:58.723Z</time></trkpt><trkpt lat="42.8149967" lon="11.7291083"><ele>334.0</ele><time>2026-05-02T14:48:59.722Z</time></trkpt><trkpt lat="42.8149267" lon="11.72911"><ele>333.6666666666667</ele><time>2026-05-02T14:49:00.722Z</time></trkpt><trkpt lat="42.8148567" lon="11.7291083"><ele>333.3333333333333</ele><time>2026-05-02T14:49:01.722Z</time></trkpt><trkpt lat="42.81479" lon="11.7291067"><ele>333.0</ele><time>2026-05-02T14:49:02.719Z</time></trkpt><trkpt lat="42.8147233" lon="11.72911"><ele>333.0</ele><time>2026-05-02T14:49:03.718Z</time></trkpt><trkpt lat="42.8146567" lon="11.7291183"><ele>333.0</ele><time>2026-05-02T14:49:04.718Z</time></trkpt><trkpt lat="42.8145933" lon="11.729125"><ele>333.0</ele><time>2026-05-02T14:49:05.721Z</time></trkpt><trkpt lat="42.81447" lon="11.7291367"><ele>333.0</ele><time>2026-05-02T14:49:07.72Z</time></trkpt><trkpt lat="42.8144017" lon="11.729145"><ele>333.0</ele><time>2026-05-02T14:49:08.722Z</time></trkpt><trkpt lat="42.8143267" lon="11.729155"><ele>333.0</ele><time>2026-05-02T14:49:09.721Z</time></trkpt><trkpt lat="42.81425" lon="11.7291617"><ele>333.3333333333333</ele><time>2026-05-02T14:49:10.721Z</time></trkpt><trkpt lat="42.81417" lon="11.72917"><ele>333.6666666666667</ele><time>2026-05-02T14:49:11.72Z</time></trkpt><trkpt lat="42.81409" lon="11.7291817"><ele>334.0</ele><time>2026-05-02T14:49:12.722Z</time></trkpt><trkpt lat="42.814005" lon="11.7291867"><ele>334.33333333333337</ele><time>2026-05-02T14:49:13.722Z</time></trkpt><trkpt lat="42.8139133" lon="11.7291867"><ele>334.6666666666667</ele><time>2026-05-02T14:49:14.721Z</time></trkpt><trkpt lat="42.8138167" lon="11.729185"><ele>335.0</ele><time>2026-05-02T14:49:15.719Z</time></trkpt><trkpt lat="42.813715" lon="11.72919"><ele>335.0</ele><time>2026-05-02T14:49:16.722Z</time></trkpt><trkpt lat="42.813605" lon="11.7291983"><ele>335.0</ele><time>2026-05-02T14:49:17.718Z</time></trkpt><trkpt lat="42.81348" lon="11.7292117"><ele>335.0</ele><time>2026-05-02T14:49:18.719Z</time></trkpt><trkpt lat="42.8133467" lon="11.7292217"><ele>335.0</ele><time>2026-05-02T14:49:19.719Z</time></trkpt><trkpt lat="42.8132117" lon="11.729225"><ele>334.5</ele><time>2026-05-02T14:49:20.721Z</time></trkpt><trkpt lat="42.8130667" lon="11.7292317"><ele>334.0</ele><time>2026-05-02T14:49:21.722Z</time></trkpt><trkpt lat="42.8129117" lon="11.729245"><ele>333.5</ele><time>2026-05-02T14:49:22.721Z</time></trkpt><trkpt lat="42.8127633" lon="11.7292567"><ele>333.0</ele><time>2026-05-02T14:49:23.723Z</time></trkpt><trkpt lat="42.8126267" lon="11.7292667"><ele>333.25</ele><time>2026-05-02T14:49:24.722Z</time></trkpt><trkpt lat="42.8125" lon="11.7292867"><ele>333.5</ele><time>2026-05-02T14:49:25.722Z</time></trkpt><trkpt lat="42.8123817" lon="11.7293233"><ele>333.75</ele><time>2026-05-02T14:49:26.722Z</time></trkpt><trkpt lat="42.81227" lon="11.7293933"><ele>334.0</ele><time>2026-05-02T14:49:27.722Z</time></trkpt><trkpt lat="42.812175" lon="11.7294967"><ele>334.0</ele><time>2026-05-02T14:49:28.722Z</time></trkpt><trkpt lat="42.8120883" lon="11.7296267"><ele>334.0</ele><time>2026-05-02T14:49:29.722Z</time></trkpt><trkpt lat="42.8120067" lon="11.7297583"><ele>334.0</ele><time>2026-05-02T14:49:30.722Z</time></trkpt><trkpt lat="42.81192" lon="11.72988"><ele>334.0</ele><time>2026-05-02T14:49:31.722Z</time></trkpt><trkpt lat="42.81183" lon="11.7299833"><ele>336.25</ele><time>2026-05-02T14:49:32.721Z</time></trkpt><trkpt lat="42.8117283" lon="11.730055"><ele>338.5</ele><time>2026-05-02T14:49:33.722Z</time></trkpt><trkpt lat="42.811615" lon="11.7300967"><ele>340.75</ele><time>2026-05-02T14:49:34.722Z</time></trkpt><trkpt lat="42.811495" lon="11.7301217"><ele>343.0</ele><time>2026-05-02T14:49:35.722Z</time></trkpt><trkpt lat="42.8113733" lon="11.7301317"><ele>343.0</ele><time>2026-05-02T14:49:36.722Z</time></trkpt><trkpt lat="42.811255" lon="11.7301233"><ele>343.0</ele><time>2026-05-02T14:49:37.722Z</time></trkpt><trkpt lat="42.81114" lon="11.730085"><ele>343.0</ele><time>2026-05-02T14:49:38.723Z</time></trkpt><trkpt lat="42.8110317" lon="11.7300167"><ele>343.0</ele><time>2026-05-02T14:49:39.722Z</time></trkpt><trkpt lat="42.81093" lon="11.7299233"><ele>344.25</ele><time>2026-05-02T14:49:40.722Z</time></trkpt><trkpt lat="42.8108283" lon="11.72982"><ele>345.5</ele><time>2026-05-02T14:49:41.722Z</time></trkpt><trkpt lat="42.8107267" lon="11.729715"><ele>346.75</ele><time>2026-05-02T14:49:42.722Z</time></trkpt><trkpt lat="42.81063" lon="11.7296033"><ele>348.0</ele><time>2026-05-02T14:49:43.722Z</time></trkpt><trkpt lat="42.810545" lon="11.7294767"><ele>350.75</ele><time>2026-05-02T14:49:44.722Z</time></trkpt><trkpt lat="42.8104733" lon="11.7293333"><ele>353.5</ele><time>2026-05-02T14:49:45.722Z</time></trkpt><trkpt lat="42.8104133" lon="11.7291867"><ele>356.25</ele><time>2026-05-02T14:49:46.722Z</time></trkpt><trkpt lat="42.8103717" lon="11.7290483"><ele>359.0</ele><time>2026-05-02T14:49:47.722Z</time></trkpt><trkpt lat="42.81035" lon="11.7289017"><ele>359.0</ele><time>2026-05-02T14:49:48.722Z</time></trkpt><trkpt lat="42.8103367" lon="11.7287467"><ele>359.0</ele><time>2026-05-02T14:49:49.721Z</time></trkpt><trkpt lat="42.8103233" lon="11.72859"><ele>359.0</ele><time>2026-05-02T14:49:50.721Z</time></trkpt><trkpt lat="42.8103067" lon="11.72843"><ele>359.0</ele><time>2026-05-02T14:49:51.722Z</time></trkpt><trkpt lat="42.8102917" lon="11.72827"><ele>361.25</ele><time>2026-05-02T14:49:52.722Z</time></trkpt><trkpt lat="42.8102833" lon="11.7281133"><ele>363.5</ele><time>2026-05-02T14:49:53.72Z</time></trkpt><trkpt lat="42.81029" lon="11.7279583"><ele>365.75</ele><time>2026-05-02T14:49:54.722Z</time></trkpt><trkpt lat="42.8103017" lon="11.7278017"><ele>368.0</ele><time>2026-05-02T14:49:55.722Z</time></trkpt><trkpt lat="42.810315" lon="11.7276417"><ele>369.25</ele><time>2026-05-02T14:49:56.722Z</time></trkpt><trkpt lat="42.810325" lon="11.7274817"><ele>370.5</ele><time>2026-05-02T14:49:57.722Z</time></trkpt><trkpt lat="42.810325" lon="11.727315"><ele>371.75</ele><time>2026-05-02T14:49:58.722Z</time></trkpt><trkpt lat="42.81032" lon="11.72715"><ele>373.0</ele><time>2026-05-02T14:49:59.722Z</time></trkpt><trkpt lat="42.8103233" lon="11.7269883"><ele>374.75</ele><time>2026-05-02T14:50:00.723Z</time></trkpt><trkpt lat="42.8103317" lon="11.7268333"><ele>376.5</ele><time>2026-05-02T14:50:01.722Z</time></trkpt><trkpt lat="42.8103583" lon="11.7266833"><ele>378.25</ele><time>2026-05-02T14:50:02.722Z</time></trkpt><trkpt lat="42.8104017" lon="11.726545"><ele>380.0</ele><time>2026-05-02T14:50:03.722Z</time></trkpt><trkpt lat="42.8104667" lon="11.7264183"><ele>380.0</ele><time>2026-05-02T14:50:04.722Z</time></trkpt><trkpt lat="42.8105417" lon="11.7262867"><ele>380.0</ele><time>2026-05-02T14:50:05.72Z</time></trkpt><trkpt lat="42.8106217" lon="11.726155"><ele>380.0</ele><time>2026-05-02T14:50:06.722Z</time></trkpt><trkpt lat="42.8107083" lon="11.7260167"><ele>380.0</ele><time>2026-05-02T14:50:07.722Z</time></trkpt><trkpt lat="42.8107917" lon="11.725875"><ele>378.75</ele><time>2026-05-02T14:50:08.724Z</time></trkpt><trkpt lat="42.8108733" lon="11.7257283"><ele>377.5</ele><time>2026-05-02T14:50:09.723Z</time></trkpt><trkpt lat="42.81096" lon="11.7255767"><ele>376.25</ele><time>2026-05-02T14:50:10.722Z</time></trkpt><trkpt lat="42.8110583" lon="11.7254283"><ele>375.0</ele><time>2026-05-02T14:50:11.722Z</time></trkpt><trkpt lat="42.8111717" lon="11.72529"><ele>378.66666666666663</ele><time>2026-05-02T14:50:12.723Z</time></trkpt><trkpt lat="42.811295" lon="11.7251617"><ele>382.3333333333333</ele><time>2026-05-02T14:50:13.721Z</time></trkpt><trkpt lat="42.8114217" lon="11.7250333"><ele>386.0</ele><time>2026-05-02T14:50:14.722Z</time></trkpt><trkpt lat="42.8115433" lon="11.7248933"><ele>386.0</ele><time>2026-05-02T14:50:15.722Z</time></trkpt><trkpt lat="42.8116583" lon="11.7247383"><ele>386.0</ele><time>2026-05-02T14:50:16.722Z</time></trkpt><trkpt lat="42.8117733" lon="11.7245767"><ele>386.0</ele><time>2026-05-02T14:50:17.722Z</time></trkpt><trkpt lat="42.811885" lon="11.72442"><ele>387.5</ele><time>2026-05-02T14:50:18.727Z</time></trkpt><trkpt lat="42.8119933" lon="11.7242767"><ele>389.0</ele><time>2026-05-02T14:50:19.722Z</time></trkpt><trkpt lat="42.8120917" lon="11.72414"><ele>390.5</ele><time>2026-05-02T14:50:20.721Z</time></trkpt><trkpt lat="42.81218" lon="11.7240167"><ele>392.0</ele><time>2026-05-02T14:50:21.722Z</time></trkpt><trkpt lat="42.8122483" lon="11.7239033"><ele>392.0</ele><time>2026-05-02T14:50:22.722Z</time></trkpt><trkpt lat="42.81229" lon="11.7237833"><ele>392.0</ele><time>2026-05-02T14:50:23.722Z</time></trkpt><trkpt lat="42.8123067" lon="11.7236417"><ele>392.0</ele><time>2026-05-02T14:50:24.721Z</time></trkpt><trkpt lat="42.81231" lon="11.72348"><ele>392.0</ele><time>2026-05-02T14:50:25.722Z</time></trkpt><trkpt lat="42.8123133" lon="11.723315"><ele>392.0</ele><time>2026-05-02T14:50:26.722Z</time></trkpt><trkpt lat="42.8123217" lon="11.7231517"><ele>395.0</ele><time>2026-05-02T14:50:27.722Z</time></trkpt><trkpt lat="42.8123383" lon="11.7229933"><ele>398.0</ele><time>2026-05-02T14:50:28.722Z</time></trkpt><trkpt lat="42.8123767" lon="11.7228533"><ele>401.0</ele><time>2026-05-02T14:50:29.722Z</time></trkpt><trkpt lat="42.8124483" lon="11.72273"><ele>404.0</ele><time>2026-05-02T14:50:30.722Z</time></trkpt><trkpt lat="42.8125417" lon="11.7226283"><ele>403.75</ele><time>2026-05-02T14:50:31.722Z</time></trkpt><trkpt lat="42.81264" lon="11.7225367"><ele>403.5</ele><time>2026-05-02T14:50:32.722Z</time></trkpt><trkpt lat="42.8127367" lon="11.7224483"><ele>403.25</ele><time>2026-05-02T14:50:33.722Z</time></trkpt><trkpt lat="42.812825" lon="11.722355"><ele>403.0</ele><time>2026-05-02T14:50:34.722Z</time></trkpt><trkpt lat="42.8129017" lon="11.7222567"><ele>403.0</ele><time>2026-05-02T14:50:35.722Z</time></trkpt><trkpt lat="42.8129567" lon="11.72214"><ele>403.0</ele><time>2026-05-02T14:50:36.722Z</time></trkpt><trkpt lat="42.8129867" lon="11.7220033"><ele>403.0</ele><time>2026-05-02T14:50:37.722Z</time></trkpt><trkpt lat="42.813" lon="11.72185"><ele>403.0</ele><time>2026-05-02T14:50:38.722Z</time></trkpt><trkpt lat="42.8130083" lon="11.7216883"><ele>403.0</ele><time>2026-05-02T14:50:39.723Z</time></trkpt><trkpt lat="42.8130183" lon="11.7215267"><ele>405.75</ele><time>2026-05-02T14:50:40.722Z</time></trkpt><trkpt lat="42.8130167" lon="11.7213667"><ele>408.5</ele><time>2026-05-02T14:50:41.722Z</time></trkpt><trkpt lat="42.8130117" lon="11.7212083"><ele>411.25</ele><time>2026-05-02T14:50:42.722Z</time></trkpt><trkpt lat="42.8130033" lon="11.7210467"><ele>414.0</ele><time>2026-05-02T14:50:43.723Z</time></trkpt><trkpt lat="42.812995" lon="11.7208833"><ele>415.5</ele><time>2026-05-02T14:50:44.722Z</time></trkpt><trkpt lat="42.8129883" lon="11.7207233"><ele>417.0</ele><time>2026-05-02T14:50:45.722Z</time></trkpt><trkpt lat="42.8129833" lon="11.7205633"><ele>418.5</ele><time>2026-05-02T14:50:46.722Z</time></trkpt><trkpt lat="42.8129767" lon="11.7204"><ele>420.0</ele><time>2026-05-02T14:50:47.722Z</time></trkpt><trkpt lat="42.812965" lon="11.72024"><ele>421.5</ele><time>2026-05-02T14:50:48.722Z</time></trkpt><trkpt lat="42.8129633" lon="11.720075"><ele>423.0</ele><time>2026-05-02T14:50:49.722Z</time></trkpt><trkpt lat="42.8129583" lon="11.7199133"><ele>424.5</ele><time>2026-05-02T14:50:50.722Z</time></trkpt><trkpt lat="42.8129483" lon="11.719755"><ele>426.0</ele><time>2026-05-02T14:50:51.722Z</time></trkpt><trkpt lat="42.8129383" lon="11.719605"><ele>426.0</ele><time>2026-05-02T14:50:52.724Z</time></trkpt><trkpt lat="42.812925" lon="11.7194683"><ele>426.0</ele><time>2026-05-02T14:50:53.722Z</time></trkpt><trkpt lat="42.8128933" lon="11.7193483"><ele>426.0</ele><time>2026-05-02T14:50:54.722Z</time></trkpt><trkpt lat="42.8128467" lon="11.7192317"><ele>426.0</ele><time>2026-05-02T14:50:55.722Z</time></trkpt><trkpt lat="42.8127833" lon="11.7191133"><ele>426.0</ele><time>2026-05-02T14:50:56.724Z</time></trkpt><trkpt lat="42.8127117" lon="11.7189933"><ele>429.0</ele><time>2026-05-02T14:50:57.722Z</time></trkpt><trkpt lat="42.812645" lon="11.718865"><ele>432.0</ele><time>2026-05-02T14:50:58.722Z</time></trkpt><trkpt lat="42.812585" lon="11.7187483"><ele>435.0</ele><time>2026-05-02T14:50:59.722Z</time></trkpt><trkpt lat="42.8125333" lon="11.7186483"><ele>438.0</ele><time>2026-05-02T14:51:00.722Z</time></trkpt><trkpt lat="42.8124867" lon="11.7185567"><ele>441.0</ele><time>2026-05-02T14:51:01.722Z</time></trkpt><trkpt lat="42.8124433" lon="11.7184717"><ele>441.7142857142857</ele><time>2026-05-02T14:51:02.722Z</time></trkpt><trkpt lat="42.8124" lon="11.7183917"><ele>442.42857142857144</ele><time>2026-05-02T14:51:03.722Z</time></trkpt><trkpt lat="42.8123567" lon="11.718315"><ele>443.1428571428571</ele><time>2026-05-02T14:51:04.722Z</time></trkpt><trkpt lat="42.8123133" lon="11.71824"><ele>443.8571428571429</ele><time>2026-05-02T14:51:05.722Z</time></trkpt><trkpt lat="42.8122683" lon="11.7181567"><ele>444.57142857142856</ele><time>2026-05-02T14:51:06.722Z</time></trkpt><trkpt lat="42.8122183" lon="11.7180767"><ele>445.2857142857143</ele><time>2026-05-02T14:51:07.722Z</time></trkpt><trkpt lat="42.8121733" lon="11.7179917"><ele>446.0</ele><time>2026-05-02T14:51:08.722Z</time></trkpt><trkpt lat="42.812125" lon="11.717905"><ele>446.0</ele><time>2026-05-02T14:51:09.722Z</time></trkpt><trkpt lat="42.812075" lon="11.7178133"><ele>446.0</ele><time>2026-05-02T14:51:10.722Z</time></trkpt><trkpt lat="42.8120233" lon="11.7177167"><ele>446.0</ele><time>2026-05-02T14:51:11.722Z</time></trkpt><trkpt lat="42.8119717" lon="11.717615"><ele>446.0</ele><time>2026-05-02T14:51:12.722Z</time></trkpt><trkpt lat="42.8119183" lon="11.71751"><ele>446.0</ele><time>2026-05-02T14:51:13.723Z</time></trkpt><trkpt lat="42.811865" lon="11.717395"><ele>449.25</ele><time>2026-05-02T14:51:14.722Z</time></trkpt><trkpt lat="42.8118067" lon="11.7172717"><ele>452.5</ele><time>2026-05-02T14:51:15.723Z</time></trkpt><trkpt lat="42.8117483" lon="11.71714"><ele>455.75</ele><time>2026-05-02T14:51:16.72Z</time></trkpt><trkpt lat="42.8116883" lon="11.7170017"><ele>459.0</ele><time>2026-05-02T14:51:17.722Z</time></trkpt><trkpt lat="42.8116283" lon="11.71685"><ele>459.75</ele><time>2026-05-02T14:51:18.719Z</time></trkpt><trkpt lat="42.81157" lon="11.7166933"><ele>460.5</ele><time>2026-05-02T14:51:19.719Z</time></trkpt><trkpt lat="42.8115067" lon="11.716545"><ele>461.25</ele><time>2026-05-02T14:51:20.719Z</time></trkpt><trkpt lat="42.8114383" lon="11.716405"><ele>462.0</ele><time>2026-05-02T14:51:21.719Z</time></trkpt><trkpt lat="42.8113583" lon="11.7162917"><ele>462.0</ele><time>2026-05-02T14:51:22.719Z</time></trkpt><trkpt lat="42.8112667" lon="11.7162"><ele>462.0</ele><time>2026-05-02T14:51:23.719Z</time></trkpt><trkpt lat="42.8111717" lon="11.71612"><ele>462.0</ele><time>2026-05-02T14:51:24.721Z</time></trkpt><trkpt lat="42.811085" lon="11.7160283"><ele>462.0</ele><time>2026-05-02T14:51:25.719Z</time></trkpt><trkpt lat="42.8110067" lon="11.7159133"><ele>465.5</ele><time>2026-05-02T14:51:26.72Z</time></trkpt><trkpt lat="42.8109283" lon="11.7157867"><ele>469.0</ele><time>2026-05-02T14:51:27.719Z</time></trkpt><trkpt lat="42.8108467" lon="11.7156617"><ele>472.5</ele><time>2026-05-02T14:51:28.723Z</time></trkpt><trkpt lat="42.8107567" lon="11.715545"><ele>476.0</ele><time>2026-05-02T14:51:29.722Z</time></trkpt><trkpt lat="42.8106533" lon="11.71545"><ele>476.0</ele><time>2026-05-02T14:51:30.722Z</time></trkpt><trkpt lat="42.8105567" lon="11.715355"><ele>476.0</ele><time>2026-05-02T14:51:31.719Z</time></trkpt><trkpt lat="42.81047" lon="11.715265"><ele>476.0</ele><time>2026-05-02T14:51:32.722Z</time></trkpt><trkpt lat="42.810405" lon="11.7151767"><ele>476.0</ele><time>2026-05-02T14:51:33.719Z</time></trkpt><trkpt lat="42.8103683" lon="11.71508"><ele>476.0</ele><time>2026-05-02T14:51:34.719Z</time></trkpt><trkpt lat="42.810355" lon="11.7149717"><ele>478.20000000000005</ele><time>2026-05-02T14:51:35.719Z</time></trkpt><trkpt lat="42.8103567" lon="11.7148467"><ele>480.40000000000003</ele><time>2026-05-02T14:51:36.72Z</time></trkpt><trkpt lat="42.8103517" lon="11.7147133"><ele>482.6</ele><time>2026-05-02T14:51:37.719Z</time></trkpt><trkpt lat="42.81034" lon="11.7145783"><ele>484.8</ele><time>2026-05-02T14:51:38.72Z</time></trkpt><trkpt lat="42.810325" lon="11.7144417"><ele>487.0</ele><time>2026-05-02T14:51:39.72Z</time></trkpt><trkpt lat="42.810305" lon="11.7143"><ele>488.75</ele><time>2026-05-02T14:51:40.723Z</time></trkpt><trkpt lat="42.8102833" lon="11.71416"><ele>490.5</ele><time>2026-05-02T14:51:41.723Z</time></trkpt><trkpt lat="42.810255" lon="11.714015"><ele>492.25</ele><time>2026-05-02T14:51:42.722Z</time></trkpt><trkpt lat="42.8102233" lon="11.71386"><ele>494.0</ele><time>2026-05-02T14:51:43.723Z</time></trkpt><trkpt lat="42.8101867" lon="11.7137"><ele>496.0</ele><time>2026-05-02T14:51:44.722Z</time></trkpt><trkpt lat="42.8101467" lon="11.7135367"><ele>498.0</ele><time>2026-05-02T14:51:45.723Z</time></trkpt><trkpt lat="42.8101067" lon="11.7133767"><ele>500.0</ele><time>2026-05-02T14:51:46.722Z</time></trkpt><trkpt lat="42.810075" lon="11.71322"><ele>502.0</ele><time>2026-05-02T14:51:47.72Z</time></trkpt><trkpt lat="42.810045" lon="11.713075"><ele>502.0</ele><time>2026-05-02T14:51:48.719Z</time></trkpt><trkpt lat="42.810015" lon="11.7129433"><ele>502.00000000000006</ele><time>2026-05-02T14:51:49.719Z</time></trkpt><trkpt lat="42.8099667" lon="11.71282"><ele>502.00000000000006</ele><time>2026-05-02T14:51:50.72Z</time></trkpt><trkpt lat="42.8099" lon="11.7127"><ele>502.0</ele><time>2026-05-02T14:51:51.719Z</time></trkpt><trkpt lat="42.8098233" lon="11.7125833"><ele>502.0</ele><time>2026-05-02T14:51:52.719Z</time></trkpt><trkpt lat="42.80974" lon="11.7124683"><ele>503.0</ele><time>2026-05-02T14:51:53.719Z</time></trkpt><trkpt lat="42.809655" lon="11.7123567"><ele>504.0</ele><time>2026-05-02T14:51:54.72Z</time></trkpt><trkpt lat="42.8095717" lon="11.71224"><ele>505.0</ele><time>2026-05-02T14:51:55.719Z</time></trkpt><trkpt lat="42.809485" lon="11.71213"><ele>506.0</ele><time>2026-05-02T14:51:56.72Z</time></trkpt><trkpt lat="42.8093967" lon="11.7120267"><ele>507.0</ele><time>2026-05-02T14:51:57.719Z</time></trkpt><trkpt lat="42.809305" lon="11.711935"><ele>508.0</ele><time>2026-05-02T14:51:58.719Z</time></trkpt><trkpt lat="42.80921" lon="11.711855"><ele>509.0</ele><time>2026-05-02T14:51:59.722Z</time></trkpt><trkpt lat="42.8091083" lon="11.7118017"><ele>510.0</ele><time>2026-05-02T14:52:00.719Z</time></trkpt><trkpt lat="42.8090017" lon="11.7117767"><ele>511.0</ele><time>2026-05-02T14:52:01.722Z</time></trkpt><trkpt lat="42.8088917" lon="11.7117683"><ele>513.0</ele><time>2026-05-02T14:52:02.723Z</time></trkpt><trkpt lat="42.8087833" lon="11.7117533"><ele>515.0</ele><time>2026-05-02T14:52:03.722Z</time></trkpt><trkpt lat="42.8086867" lon="11.711715"><ele>517.0</ele><time>2026-05-02T14:52:04.722Z</time></trkpt><trkpt lat="42.8086" lon="11.711645"><ele>519.0</ele><time>2026-05-02T14:52:05.722Z</time></trkpt><trkpt lat="42.80853" lon="11.7115383"><ele>521.0</ele><time>2026-05-02T14:52:06.719Z</time></trkpt><trkpt lat="42.808475" lon="11.7114083"><ele>521.0</ele><time>2026-05-02T14:52:07.722Z</time></trkpt><trkpt lat="42.80843" lon="11.7112633"><ele>521.0</ele><time>2026-05-02T14:52:08.722Z</time></trkpt><trkpt lat="42.8083933" lon="11.711105"><ele>521.0</ele><time>2026-05-02T14:52:09.722Z</time></trkpt><trkpt lat="42.8083633" lon="11.710935"><ele>521.0</ele><time>2026-05-02T14:52:10.722Z</time></trkpt><trkpt lat="42.80834" lon="11.71076"><ele>523.5</ele><time>2026-05-02T14:52:11.722Z</time></trkpt><trkpt lat="42.8083283" lon="11.7105783"><ele>526.0</ele><time>2026-05-02T14:52:12.722Z</time></trkpt><trkpt lat="42.8083267" lon="11.7103933"><ele>528.5</ele><time>2026-05-02T14:52:13.722Z</time></trkpt><trkpt lat="42.8083183" lon="11.7102217"><ele>531.0</ele><time>2026-05-02T14:52:14.722Z</time></trkpt><trkpt lat="42.80829" lon="11.71006"><ele>532.75</ele><time>2026-05-02T14:52:15.722Z</time></trkpt><trkpt lat="42.80824" lon="11.709905"><ele>534.5</ele><time>2026-05-02T14:52:16.722Z</time></trkpt><trkpt lat="42.8081733" lon="11.7097467"><ele>536.25</ele><time>2026-05-02T14:52:17.722Z</time></trkpt><trkpt lat="42.8081033" lon="11.7095917"><ele>538.0</ele><time>2026-05-02T14:52:18.719Z</time></trkpt><trkpt lat="42.8080317" lon="11.7094333"><ele>538.25</ele><time>2026-05-02T14:52:19.718Z</time></trkpt><trkpt lat="42.8079617" lon="11.7092733"><ele>538.5</ele><time>2026-05-02T14:52:20.718Z</time></trkpt><trkpt lat="42.80789" lon="11.7091133"><ele>538.75</ele><time>2026-05-02T14:52:21.718Z</time></trkpt><trkpt lat="42.8078133" lon="11.70895"><ele>539.0</ele><time>2026-05-02T14:52:22.718Z</time></trkpt><trkpt lat="42.8077267" lon="11.7087833"><ele>538.6666666666666</ele><time>2026-05-02T14:52:23.718Z</time></trkpt><trkpt lat="42.8076333" lon="11.7086167"><ele>538.3333333333334</ele><time>2026-05-02T14:52:24.719Z</time></trkpt><trkpt lat="42.80753" lon="11.708445"><ele>538.0</ele><time>2026-05-02T14:52:25.719Z</time></trkpt><trkpt lat="42.807425" lon="11.708275"><ele>541.6666666666667</ele><time>2026-05-02T14:52:26.719Z</time></trkpt><trkpt lat="42.8073217" lon="11.708115"><ele>545.3333333333334</ele><time>2026-05-02T14:52:27.719Z</time></trkpt><trkpt lat="42.8072167" lon="11.707965"><ele>549.0</ele><time>2026-05-02T14:52:28.719Z</time></trkpt><trkpt lat="42.8071117" lon="11.7078283"><ele>549.0</ele><time>2026-05-02T14:52:29.722Z</time></trkpt><trkpt lat="42.8070067" lon="11.7077017"><ele>549.0</ele><time>2026-05-02T14:52:30.721Z</time></trkpt><trkpt lat="42.8069067" lon="11.707575"><ele>549.0</ele><time>2026-05-02T14:52:31.721Z</time></trkpt><trkpt lat="42.8068133" lon="11.7074467"><ele>549.0</ele><time>2026-05-02T14:52:32.722Z</time></trkpt><trkpt lat="42.8067233" lon="11.7073183"><ele>549.0</ele><time>2026-05-02T14:52:33.721Z</time></trkpt><trkpt lat="42.8066367" lon="11.7071917"><ele>549.0</ele><time>2026-05-02T14:52:34.723Z</time></trkpt><trkpt lat="42.8065517" lon="11.7070767"><ele>549.0</ele><time>2026-05-02T14:52:35.722Z</time></trkpt><trkpt lat="42.80646" lon="11.7069817"><ele>549.0</ele><time>2026-05-02T14:52:36.721Z</time></trkpt><trkpt lat="42.8063533" lon="11.7069117"><ele>550.5</ele><time>2026-05-02T14:52:37.721Z</time></trkpt><trkpt lat="42.806235" lon="11.7068433"><ele>552.0</ele><time>2026-05-02T14:52:38.721Z</time></trkpt><trkpt lat="42.806115" lon="11.7067667"><ele>553.5</ele><time>2026-05-02T14:52:39.721Z</time></trkpt><trkpt lat="42.8059983" lon="11.7066933"><ele>555.0</ele><time>2026-05-02T14:52:40.721Z</time></trkpt><trkpt lat="42.80588" lon="11.70662"><ele>555.0</ele><time>2026-05-02T14:52:41.722Z</time></trkpt><trkpt lat="42.8057633" lon="11.7065517"><ele>555.0</ele><time>2026-05-02T14:52:42.722Z</time></trkpt><trkpt lat="42.8056467" lon="11.706485"><ele>555.0</ele><time>2026-05-02T14:52:43.722Z</time></trkpt><trkpt lat="42.8055283" lon="11.7064267"><ele>555.0</ele><time>2026-05-02T14:52:44.721Z</time></trkpt><trkpt lat="42.8054067" lon="11.7063867"><ele>555.0</ele><time>2026-05-02T14:52:45.722Z</time></trkpt><trkpt lat="42.8052833" lon="11.70638"><ele>555.0</ele><time>2026-05-02T14:52:46.721Z</time></trkpt><trkpt lat="42.8051683" lon="11.706405"><ele>555.0</ele><time>2026-05-02T14:52:47.718Z</time></trkpt><trkpt lat="42.8050617" lon="11.706475"><ele>555.0</ele><time>2026-05-02T14:52:48.718Z</time></trkpt><trkpt lat="42.8049617" lon="11.706565"><ele>555.6</ele><time>2026-05-02T14:52:49.719Z</time></trkpt><trkpt lat="42.8048667" lon="11.7066533"><ele>556.2</ele><time>2026-05-02T14:52:50.719Z</time></trkpt><trkpt lat="42.80477" lon="11.7067217"><ele>556.8</ele><time>2026-05-02T14:52:51.719Z</time></trkpt><trkpt lat="42.8046817" lon="11.7067683"><ele>557.4</ele><time>2026-05-02T14:52:52.719Z</time></trkpt><trkpt lat="42.8045867" lon="11.7067783"><ele>558.0</ele><time>2026-05-02T14:52:53.719Z</time></trkpt><trkpt lat="42.8044917" lon="11.7067633"><ele>558.0</ele><time>2026-05-02T14:52:54.721Z</time></trkpt><trkpt lat="42.8043983" lon="11.7067233"><ele>558.0</ele><time>2026-05-02T14:52:55.719Z</time></trkpt><trkpt lat="42.80431" lon="11.7066517"><ele>558.0</ele><time>2026-05-02T14:52:56.719Z</time></trkpt><trkpt lat="42.80424" lon="11.7065667"><ele>558.0</ele><time>2026-05-02T14:52:57.72Z</time></trkpt><trkpt lat="42.8041917" lon="11.706485"><ele>558.0</ele><time>2026-05-02T14:52:58.721Z</time></trkpt><trkpt lat="42.804165" lon="11.706405"><ele>558.0</ele><time>2026-05-02T14:52:59.721Z</time></trkpt><trkpt lat="42.8041767" lon="11.706255"><ele>558.0</ele><time>2026-05-02T14:53:01.718Z</time></trkpt><trkpt lat="42.8042867" lon="11.706155"><ele>558.0</ele><time>2026-05-02T14:53:03.719Z</time></trkpt><trkpt lat="42.8043667" lon="11.7061217"><ele>558.0</ele><time>2026-05-02T14:53:04.719Z</time></trkpt><trkpt lat="42.8044583" lon="11.7060833"><ele>558.0</ele><time>2026-05-02T14:53:05.719Z</time></trkpt><trkpt lat="42.8045483" lon="11.7060233"><ele>558.0</ele><time>2026-05-02T14:53:06.721Z</time></trkpt><trkpt lat="42.8046367" lon="11.7059433"><ele>560.0</ele><time>2026-05-02T14:53:07.722Z</time></trkpt><trkpt lat="42.8047217" lon="11.7058433"><ele>562.0</ele><time>2026-05-02T14:53:08.721Z</time></trkpt><trkpt lat="42.8047983" lon="11.7057367"><ele>564.0</ele><time>2026-05-02T14:53:09.721Z</time></trkpt><trkpt lat="42.8048617" lon="11.7056233"><ele>566.0</ele><time>2026-05-02T14:53:10.718Z</time></trkpt><trkpt lat="42.8049067" lon="11.7055067"><ele>568.0</ele><time>2026-05-02T14:53:11.721Z</time></trkpt><trkpt lat="42.804935" lon="11.7053883"><ele>568.0</ele><time>2026-05-02T14:53:12.721Z</time></trkpt><trkpt lat="42.8049367" lon="11.7052667"><ele>568.0</ele><time>2026-05-02T14:53:13.721Z</time></trkpt><trkpt lat="42.804925" lon="11.70514"><ele>568.0</ele><time>2026-05-02T14:53:14.721Z</time></trkpt><trkpt lat="42.8049033" lon="11.7050133"><ele>568.0</ele><time>2026-05-02T14:53:15.721Z</time></trkpt><trkpt lat="42.8048667" lon="11.7048883"><ele>568.0</ele><time>2026-05-02T14:53:16.721Z</time></trkpt><trkpt lat="42.8048183" lon="11.7047667"><ele>568.0</ele><time>2026-05-02T14:53:17.718Z</time></trkpt><trkpt lat="42.8047583" lon="11.7046433"><ele>568.0</ele><time>2026-05-02T14:53:18.718Z</time></trkpt><trkpt lat="42.8046917" lon="11.7045233"><ele>568.0</ele><time>2026-05-02T14:53:19.718Z</time></trkpt><trkpt lat="42.80462" lon="11.7044033"><ele>568.0</ele><time>2026-05-02T14:53:20.718Z</time></trkpt><trkpt lat="42.80455" lon="11.7042733"><ele>568.0</ele><time>2026-05-02T14:53:21.719Z</time></trkpt><trkpt lat="42.80448" lon="11.7041417"><ele>568.0</ele><time>2026-05-02T14:53:22.718Z</time></trkpt><trkpt lat="42.8044117" lon="11.7040067"><ele>568.0</ele><time>2026-05-02T14:53:23.718Z</time></trkpt><trkpt lat="42.8043433" lon="11.70388"><ele>568.0</ele><time>2026-05-02T14:53:24.718Z</time></trkpt><trkpt lat="42.8042767" lon="11.7037567"><ele>570.8</ele><time>2026-05-02T14:53:25.719Z</time></trkpt><trkpt lat="42.8042117" lon="11.70363"><ele>573.5999999999999</ele><time>2026-05-02T14:53:26.721Z</time></trkpt><trkpt lat="42.8041467" lon="11.7035017"><ele>576.4000000000001</ele><time>2026-05-02T14:53:27.721Z</time></trkpt><trkpt lat="42.8040917" lon="11.7033733"><ele>579.2</ele><time>2026-05-02T14:53:28.721Z</time></trkpt><trkpt lat="42.8040433" lon="11.70324"><ele>582.0</ele><time>2026-05-02T14:53:29.722Z</time></trkpt><trkpt lat="42.8039917" lon="11.7031"><ele>582.0</ele><time>2026-05-02T14:53:30.721Z</time></trkpt><trkpt lat="42.8039467" lon="11.7029517"><ele>582.0</ele><time>2026-05-02T14:53:31.721Z</time></trkpt><trkpt lat="42.8039" lon="11.7027983"><ele>582.0</ele><time>2026-05-02T14:53:32.721Z</time></trkpt><trkpt lat="42.8038567" lon="11.7026433"><ele>582.0</ele><time>2026-05-02T14:53:33.721Z</time></trkpt><trkpt lat="42.8038133" lon="11.702485"><ele>581.5</ele><time>2026-05-02T14:53:34.721Z</time></trkpt><trkpt lat="42.80377" lon="11.7023283"><ele>581.0</ele><time>2026-05-02T14:53:35.721Z</time></trkpt><trkpt lat="42.80373" lon="11.70217"><ele>580.5</ele><time>2026-05-02T14:53:36.721Z</time></trkpt><trkpt lat="42.8036917" lon="11.7020083"><ele>580.0</ele><time>2026-05-02T14:53:37.722Z</time></trkpt><trkpt lat="42.8036617" lon="11.7018483"><ele>579.5</ele><time>2026-05-02T14:53:38.721Z</time></trkpt><trkpt lat="42.8036417" lon="11.7016933"><ele>579.0</ele><time>2026-05-02T14:53:39.721Z</time></trkpt><trkpt lat="42.8036317" lon="11.7015383"><ele>578.5</ele><time>2026-05-02T14:53:40.718Z</time></trkpt><trkpt lat="42.80363" lon="11.7013783"><ele>578.0</ele><time>2026-05-02T14:53:41.718Z</time></trkpt><trkpt lat="42.80363" lon="11.70122"><ele>577.5</ele><time>2026-05-02T14:53:42.721Z</time></trkpt><trkpt lat="42.803635" lon="11.70106"><ele>577.0</ele><time>2026-05-02T14:53:43.721Z</time></trkpt><trkpt lat="42.8036417" lon="11.700895"><ele>576.5</ele><time>2026-05-02T14:53:44.721Z</time></trkpt><trkpt lat="42.80365" lon="11.7007267"><ele>576.0</ele><time>2026-05-02T14:53:45.721Z</time></trkpt><trkpt lat="42.8036567" lon="11.7005583"><ele>576.0</ele><time>2026-05-02T14:53:46.722Z</time></trkpt><trkpt lat="42.80366" lon="11.7003917"><ele>576.0</ele><time>2026-05-02T14:53:47.718Z</time></trkpt><trkpt lat="42.8036617" lon="11.7002333"><ele>576.0</ele><time>2026-05-02T14:53:48.718Z</time></trkpt><trkpt lat="42.8036633" lon="11.7000833"><ele>576.0</ele><time>2026-05-02T14:53:49.718Z</time></trkpt><trkpt lat="42.8036617" lon="11.6999367"><ele>575.6</ele><time>2026-05-02T14:53:50.719Z</time></trkpt><trkpt lat="42.8036583" lon="11.69979"><ele>575.2</ele><time>2026-05-02T14:53:51.719Z</time></trkpt><trkpt lat="42.803655" lon="11.6996417"><ele>574.8</ele><time>2026-05-02T14:53:52.719Z</time></trkpt><trkpt lat="42.8036633" lon="11.6994883"><ele>574.4</ele><time>2026-05-02T14:53:53.72Z</time></trkpt><trkpt lat="42.8036783" lon="11.69933"><ele>574.0</ele><time>2026-05-02T14:53:54.722Z</time></trkpt><trkpt lat="42.8036967" lon="11.699165"><ele>575.75</ele><time>2026-05-02T14:53:55.721Z</time></trkpt><trkpt lat="42.8037183" lon="11.6989933"><ele>577.5</ele><time>2026-05-02T14:53:56.721Z</time></trkpt><trkpt lat="42.80374" lon="11.69882"><ele>579.25</ele><time>2026-05-02T14:53:57.721Z</time></trkpt><trkpt lat="42.8037633" lon="11.69865"><ele>581.0</ele><time>2026-05-02T14:53:58.721Z</time></trkpt><trkpt lat="42.8037783" lon="11.6984767"><ele>583.0</ele><time>2026-05-02T14:53:59.722Z</time></trkpt><trkpt lat="42.803785" lon="11.6983033"><ele>585.0</ele><time>2026-05-02T14:54:00.722Z</time></trkpt><trkpt lat="42.8037883" lon="11.6981267"><ele>587.0</ele><time>2026-05-02T14:54:01.722Z</time></trkpt><trkpt lat="42.8037933" lon="11.69795"><ele>589.0</ele><time>2026-05-02T14:54:02.719Z</time></trkpt><trkpt lat="42.8037983" lon="11.6977767"><ele>591.25</ele><time>2026-05-02T14:54:03.718Z</time></trkpt><trkpt lat="42.8038017" lon="11.6976067"><ele>593.5</ele><time>2026-05-02T14:54:04.718Z</time></trkpt><trkpt lat="42.8038033" lon="11.69743"><ele>595.75</ele><time>2026-05-02T14:54:05.718Z</time></trkpt><trkpt lat="42.8038" lon="11.697255"><ele>598.0</ele><time>2026-05-02T14:54:06.718Z</time></trkpt><trkpt lat="42.8037933" lon="11.6970783"><ele>598.0</ele><time>2026-05-02T14:54:07.719Z</time></trkpt><trkpt lat="42.803785" lon="11.6969033"><ele>598.0</ele><time>2026-05-02T14:54:08.72Z</time></trkpt><trkpt lat="42.8037817" lon="11.6967283"><ele>598.0</ele><time>2026-05-02T14:54:09.718Z</time></trkpt><trkpt lat="42.8037817" lon="11.69656"><ele>598.0</ele><time>2026-05-02T14:54:10.718Z</time></trkpt><trkpt lat="42.8037767" lon="11.6964017"><ele>598.0</ele><time>2026-05-02T14:54:11.721Z</time></trkpt><trkpt lat="42.8037733" lon="11.696255"><ele>598.0</ele><time>2026-05-02T14:54:12.721Z</time></trkpt><trkpt lat="42.80377" lon="11.6961133"><ele>598.0</ele><time>2026-05-02T14:54:13.721Z</time></trkpt><trkpt lat="42.803765" lon="11.6959783"><ele>598.0</ele><time>2026-05-02T14:54:14.721Z</time></trkpt><trkpt lat="42.803765" lon="11.69585"><ele>598.0</ele><time>2026-05-02T14:54:15.721Z</time></trkpt><trkpt lat="42.80378" lon="11.6957233"><ele>599.0</ele><time>2026-05-02T14:54:16.721Z</time></trkpt><trkpt lat="42.8038117" lon="11.6956067"><ele>600.0</ele><time>2026-05-02T14:54:17.721Z</time></trkpt><trkpt lat="42.803865" lon="11.695495"><ele>601.0</ele><time>2026-05-02T14:54:18.721Z</time></trkpt><trkpt lat="42.8039333" lon="11.6953933"><ele>602.0</ele><time>2026-05-02T14:54:19.721Z</time></trkpt><trkpt lat="42.80402" lon="11.6953067"><ele>603.0</ele><time>2026-05-02T14:54:20.721Z</time></trkpt><trkpt lat="42.8041117" lon="11.695225"><ele>605.25</ele><time>2026-05-02T14:54:21.721Z</time></trkpt><trkpt lat="42.8042033" lon="11.6951383"><ele>607.5</ele><time>2026-05-02T14:54:22.718Z</time></trkpt><trkpt lat="42.8043017" lon="11.695045"><ele>609.75</ele><time>2026-05-02T14:54:23.719Z</time></trkpt><trkpt lat="42.8043983" lon="11.6949483"><ele>612.0</ele><time>2026-05-02T14:54:24.721Z</time></trkpt><trkpt lat="42.804495" lon="11.694845"><ele>612.0</ele><time>2026-05-02T14:54:25.722Z</time></trkpt><trkpt lat="42.8045933" lon="11.694745"><ele>612.0</ele><time>2026-05-02T14:54:26.722Z</time></trkpt><trkpt lat="42.8046867" lon="11.694645"><ele>612.0</ele><time>2026-05-02T14:54:27.718Z</time></trkpt><trkpt lat="42.80478" lon="11.694545"><ele>612.0</ele><time>2026-05-02T14:54:28.718Z</time></trkpt><trkpt lat="42.8048733" lon="11.69445"><ele>612.5</ele><time>2026-05-02T14:54:29.719Z</time></trkpt><trkpt lat="42.80496" lon="11.6943617"><ele>613.0</ele><time>2026-05-02T14:54:30.722Z</time></trkpt><trkpt lat="42.8050333" lon="11.6942783"><ele>613.5</ele><time>2026-05-02T14:54:31.722Z</time></trkpt><trkpt lat="42.8050883" lon="11.694195"><ele>614.0</ele><time>2026-05-02T14:54:32.722Z</time></trkpt><trkpt lat="42.8051317" lon="11.694105"><ele>614.5</ele><time>2026-05-02T14:54:33.721Z</time></trkpt><trkpt lat="42.8051667" lon="11.6940017"><ele>615.0</ele><time>2026-05-02T14:54:34.721Z</time></trkpt><trkpt lat="42.8052067" lon="11.6939033"><ele>615.0</ele><time>2026-05-02T14:54:35.721Z</time></trkpt><trkpt lat="42.8052533" lon="11.693815"><ele>615.0</ele><time>2026-05-02T14:54:36.722Z</time></trkpt><trkpt lat="42.805305" lon="11.69373"><ele>615.0</ele><time>2026-05-02T14:54:37.721Z</time></trkpt><trkpt lat="42.8053533" lon="11.6936317"><ele>615.0</ele><time>2026-05-02T14:54:38.721Z</time></trkpt><trkpt lat="42.805385" lon="11.69352"><ele>615.0</ele><time>2026-05-02T14:54:39.721Z</time></trkpt><trkpt lat="42.8054033" lon="11.6933983"><ele>615.0</ele><time>2026-05-02T14:54:40.721Z</time></trkpt><trkpt lat="42.8054283" lon="11.693275"><ele>617.0</ele><time>2026-05-02T14:54:41.722Z</time></trkpt><trkpt lat="42.805455" lon="11.6931533"><ele>619.0</ele><time>2026-05-02T14:54:42.721Z</time></trkpt><trkpt lat="42.80548" lon="11.6930333"><ele>621.0</ele><time>2026-05-02T14:54:43.722Z</time></trkpt><trkpt lat="42.805505" lon="11.6929083"><ele>623.0</ele><time>2026-05-02T14:54:44.721Z</time></trkpt><trkpt lat="42.80552" lon="11.692785"><ele>625.0</ele><time>2026-05-02T14:54:45.722Z</time></trkpt><trkpt lat="42.80553" lon="11.6926567"><ele>626.4</ele><time>2026-05-02T14:54:46.721Z</time></trkpt><trkpt lat="42.8055333" lon="11.692525"><ele>627.8</ele><time>2026-05-02T14:54:47.721Z</time></trkpt><trkpt lat="42.8055317" lon="11.6923967"><ele>629.2</ele><time>2026-05-02T14:54:48.721Z</time></trkpt><trkpt lat="42.80551" lon="11.6922783"><ele>630.6</ele><time>2026-05-02T14:54:49.721Z</time></trkpt><trkpt lat="42.8054683" lon="11.6921683"><ele>632.0</ele><time>2026-05-02T14:54:50.721Z</time></trkpt><trkpt lat="42.8054117" lon="11.692065"><ele>632.0</ele><time>2026-05-02T14:54:51.722Z</time></trkpt><trkpt lat="42.805345" lon="11.6919783"><ele>632.0</ele><time>2026-05-02T14:54:52.722Z</time></trkpt><trkpt lat="42.8052683" lon="11.6918917"><ele>632.0</ele><time>2026-05-02T14:54:53.721Z</time></trkpt><trkpt lat="42.805185" lon="11.6918067"><ele>632.0</ele><time>2026-05-02T14:54:54.721Z</time></trkpt><trkpt lat="42.805095" lon="11.6917167"><ele>632.0</ele><time>2026-05-02T14:54:55.721Z</time></trkpt><trkpt lat="42.8050083" lon="11.6916267"><ele>637.75</ele><time>2026-05-02T14:54:56.721Z</time></trkpt><trkpt lat="42.8049167" lon="11.691535"><ele>643.5</ele><time>2026-05-02T14:54:57.722Z</time></trkpt><trkpt lat="42.80482" lon="11.6914417"><ele>649.25</ele><time>2026-05-02T14:54:58.723Z</time></trkpt><trkpt lat="42.804725" lon="11.6913383"><ele>655.0</ele><time>2026-05-02T14:54:59.722Z</time></trkpt><trkpt lat="42.8046367" lon="11.6912233"><ele>655.0</ele><time>2026-05-02T14:55:00.721Z</time></trkpt><trkpt lat="42.804555" lon="11.6910967"><ele>655.0</ele><time>2026-05-02T14:55:01.721Z</time></trkpt><trkpt lat="42.80448" lon="11.6909633"><ele>655.0</ele><time>2026-05-02T14:55:02.721Z</time></trkpt><trkpt lat="42.8044117" lon="11.69082"><ele>655.0</ele><time>2026-05-02T14:55:03.721Z</time></trkpt><trkpt lat="42.8043483" lon="11.6906683"><ele>657.5</ele><time>2026-05-02T14:55:04.722Z</time></trkpt><trkpt lat="42.8042817" lon="11.690515"><ele>660.0</ele><time>2026-05-02T14:55:05.721Z</time></trkpt><trkpt lat="42.8042167" lon="11.6903617"><ele>662.5</ele><time>2026-05-02T14:55:06.722Z</time></trkpt><trkpt lat="42.8041583" lon="11.6902117"><ele>665.0</ele><time>2026-05-02T14:55:07.721Z</time></trkpt><trkpt lat="42.8040967" lon="11.6900717"><ele>665.0</ele><time>2026-05-02T14:55:08.721Z</time></trkpt><trkpt lat="42.804035" lon="11.689935"><ele>665.0</ele><time>2026-05-02T14:55:09.722Z</time></trkpt><trkpt lat="42.8039733" lon="11.689805"><ele>665.0</ele><time>2026-05-02T14:55:10.721Z</time></trkpt><trkpt lat="42.8039133" lon="11.6896783"><ele>665.0</ele><time>2026-05-02T14:55:11.721Z</time></trkpt><trkpt lat="42.8038517" lon="11.6895517"><ele>667.0</ele><time>2026-05-02T14:55:12.722Z</time></trkpt><trkpt lat="42.8037933" lon="11.6894233"><ele>669.0</ele><time>2026-05-02T14:55:13.721Z</time></trkpt><trkpt lat="42.8037367" lon="11.689295"><ele>671.0</ele><time>2026-05-02T14:55:14.721Z</time></trkpt><trkpt lat="42.8036817" lon="11.6891717"><ele>673.0</ele><time>2026-05-02T14:55:15.721Z</time></trkpt><trkpt lat="42.8036267" lon="11.6890467"><ele>675.0</ele><time>2026-05-02T14:55:16.721Z</time></trkpt><trkpt lat="42.8035717" lon="11.6889367"><ele>675.0</ele><time>2026-05-02T14:55:17.722Z</time></trkpt><trkpt lat="42.80352" lon="11.6888367"><ele>675.0</ele><time>2026-05-02T14:55:18.721Z</time></trkpt><trkpt lat="42.80347" lon="11.6887383"><ele>675.0</ele><time>2026-05-02T14:55:19.723Z</time></trkpt><trkpt lat="42.8034233" lon="11.6886433"><ele>675.0</ele><time>2026-05-02T14:55:20.721Z</time></trkpt><trkpt lat="42.8033767" lon="11.68855"><ele>675.0</ele><time>2026-05-02T14:55:21.721Z</time></trkpt><trkpt lat="42.80334" lon="11.688455"><ele>675.0</ele><time>2026-05-02T14:55:22.721Z</time></trkpt><trkpt lat="42.8033117" lon="11.6883583"><ele>677.0</ele><time>2026-05-02T14:55:23.721Z</time></trkpt><trkpt lat="42.8032933" lon="11.6882567"><ele>679.0</ele><time>2026-05-02T14:55:24.722Z</time></trkpt><trkpt lat="42.803285" lon="11.68815"><ele>681.0</ele><time>2026-05-02T14:55:25.721Z</time></trkpt><trkpt lat="42.8032833" lon="11.6880383"><ele>683.0</ele><time>2026-05-02T14:55:26.721Z</time></trkpt><trkpt lat="42.8032767" lon="11.6879217"><ele>685.0</ele><time>2026-05-02T14:55:27.727Z</time></trkpt><trkpt lat="42.8032683" lon="11.6877933"><ele>687.0</ele><time>2026-05-02T14:55:28.719Z</time></trkpt><trkpt lat="42.8032583" lon="11.6876567"><ele>687.5</ele><time>2026-05-02T14:55:29.722Z</time></trkpt><trkpt lat="42.8032517" lon="11.6875083"><ele>688.0</ele><time>2026-05-02T14:55:30.718Z</time></trkpt><trkpt lat="42.80324" lon="11.6873617"><ele>688.5</ele><time>2026-05-02T14:55:31.721Z</time></trkpt><trkpt lat="42.8032283" lon="11.6872033"><ele>689.0</ele><time>2026-05-02T14:55:32.724Z</time></trkpt><trkpt lat="42.80321" lon="11.6870417"><ele>690.0</ele><time>2026-05-02T14:55:33.722Z</time></trkpt><trkpt lat="42.803195" lon="11.6868683"><ele>691.0</ele><time>2026-05-02T14:55:34.719Z</time></trkpt><trkpt lat="42.8031783" lon="11.6866917"><ele>692.0</ele><time>2026-05-02T14:55:35.722Z</time></trkpt><trkpt lat="42.8031567" lon="11.6865217"><ele>693.0</ele><time>2026-05-02T14:55:36.722Z</time></trkpt><trkpt lat="42.803135" lon="11.6863567"><ele>693.0</ele><time>2026-05-02T14:55:37.721Z</time></trkpt><trkpt lat="42.8031117" lon="11.686205"><ele>693.0</ele><time>2026-05-02T14:55:38.721Z</time></trkpt><trkpt lat="42.8030817" lon="11.6860633"><ele>693.0</ele><time>2026-05-02T14:55:39.721Z</time></trkpt><trkpt lat="42.8030483" lon="11.6859267"><ele>693.0</ele><time>2026-05-02T14:55:40.723Z</time></trkpt><trkpt lat="42.8030183" lon="11.6857883"><ele>693.0</ele><time>2026-05-02T14:55:41.721Z</time></trkpt><trkpt lat="42.8029933" lon="11.6856433"><ele>694.8</ele><time>2026-05-02T14:55:42.721Z</time></trkpt><trkpt lat="42.8029817" lon="11.6854967"><ele>696.5999999999999</ele><time>2026-05-02T14:55:43.718Z</time></trkpt><trkpt lat="42.8029883" lon="11.685345"><ele>698.4000000000001</ele><time>2026-05-02T14:55:44.722Z</time></trkpt><trkpt lat="42.8030117" lon="11.6852017"><ele>700.2</ele><time>2026-05-02T14:55:45.722Z</time></trkpt><trkpt lat="42.8030467" lon="11.68506"><ele>702.0</ele><time>2026-05-02T14:55:46.719Z</time></trkpt><trkpt lat="42.8030817" lon="11.684925"><ele>703.6</ele><time>2026-05-02T14:55:47.722Z</time></trkpt><trkpt lat="42.8031283" lon="11.6848017"><ele>705.2</ele><time>2026-05-02T14:55:48.721Z</time></trkpt><trkpt lat="42.80318" lon="11.684685"><ele>706.8</ele><time>2026-05-02T14:55:49.719Z</time></trkpt><trkpt lat="42.8032283" lon="11.684575"><ele>708.4</ele><time>2026-05-02T14:55:50.721Z</time></trkpt><trkpt lat="42.8032717" lon="11.6844717"><ele>710.0</ele><time>2026-05-02T14:55:51.725Z</time></trkpt><trkpt lat="42.8033033" lon="11.6843683"><ele>712.0</ele><time>2026-05-02T14:55:52.722Z</time></trkpt><trkpt lat="42.8033233" lon="11.6842567"><ele>714.0</ele><time>2026-05-02T14:55:53.721Z</time></trkpt><trkpt lat="42.8033417" lon="11.68414"><ele>716.0</ele><time>2026-05-02T14:55:54.722Z</time></trkpt><trkpt lat="42.8033633" lon="11.6840133"><ele>718.0</ele><time>2026-05-02T14:55:55.723Z</time></trkpt><trkpt lat="42.803395" lon="11.6838867"><ele>720.0</ele><time>2026-05-02T14:55:56.721Z</time></trkpt><trkpt lat="42.8034433" lon="11.683765"><ele>718.8</ele><time>2026-05-02T14:55:57.724Z</time></trkpt><trkpt lat="42.8034983" lon="11.683645"><ele>717.6</ele><time>2026-05-02T14:55:58.723Z</time></trkpt><trkpt lat="42.8035567" lon="11.683525"><ele>716.4000000000001</ele><time>2026-05-02T14:55:59.722Z</time></trkpt><trkpt lat="42.80361" lon="11.6834017"><ele>715.2</ele><time>2026-05-02T14:56:00.718Z</time></trkpt><trkpt lat="42.803665" lon="11.6832833"><ele>714.0</ele><time>2026-05-02T14:56:01.722Z</time></trkpt><trkpt lat="42.8037217" lon="11.6831767"><ele>714.0</ele><time>2026-05-02T14:56:02.721Z</time></trkpt><trkpt lat="42.803785" lon="11.6830767"><ele>714.0</ele><time>2026-05-02T14:56:03.721Z</time></trkpt><trkpt lat="42.8038483" lon="11.6829933"><ele>714.0</ele><time>2026-05-02T14:56:04.722Z</time></trkpt><trkpt lat="42.80391" lon="11.6829167"><ele>714.0</ele><time>2026-05-02T14:56:05.722Z</time></trkpt><trkpt lat="42.803975" lon="11.682835"><ele>714.0</ele><time>2026-05-02T14:56:06.722Z</time></trkpt><trkpt lat="42.80404" lon="11.682745"><ele>714.0</ele><time>2026-05-02T14:56:07.721Z</time></trkpt><trkpt lat="42.8041017" lon="11.6826467"><ele>714.6</ele><time>2026-05-02T14:56:08.721Z</time></trkpt><trkpt lat="42.8041617" lon="11.6825417"><ele>715.2</ele><time>2026-05-02T14:56:09.721Z</time></trkpt><trkpt lat="42.804215" lon="11.6824333"><ele>715.8000000000001</ele><time>2026-05-02T14:56:10.722Z</time></trkpt><trkpt lat="42.8042617" lon="11.6823217"><ele>716.4000000000001</ele><time>2026-05-02T14:56:11.721Z</time></trkpt><trkpt lat="42.8043017" lon="11.6822067"><ele>717.0</ele><time>2026-05-02T14:56:12.722Z</time></trkpt><trkpt lat="42.80434" lon="11.68209"><ele>717.0</ele><time>2026-05-02T14:56:13.722Z</time></trkpt><trkpt lat="42.804375" lon="11.6819733"><ele>717.0</ele><time>2026-05-02T14:56:14.722Z</time></trkpt><trkpt lat="42.80441" lon="11.68186"><ele>717.0</ele><time>2026-05-02T14:56:15.721Z</time></trkpt><trkpt lat="42.8044483" lon="11.6817567"><ele>717.0</ele><time>2026-05-02T14:56:16.725Z</time></trkpt><trkpt lat="42.8044933" lon="11.6816683"><ele>717.0</ele><time>2026-05-02T14:56:17.721Z</time></trkpt><trkpt lat="42.8045433" lon="11.681585"><ele>717.0</ele><time>2026-05-02T14:56:18.722Z</time></trkpt><trkpt lat="42.8045983" lon="11.681505"><ele>718.5</ele><time>2026-05-02T14:56:19.718Z</time></trkpt><trkpt lat="42.8046467" lon="11.6814283"><ele>720.0</ele><time>2026-05-02T14:56:20.722Z</time></trkpt><trkpt lat="42.8046933" lon="11.6813533"><ele>721.5</ele><time>2026-05-02T14:56:21.722Z</time></trkpt><trkpt lat="42.8047317" lon="11.681265"><ele>723.0</ele><time>2026-05-02T14:56:22.718Z</time></trkpt><trkpt lat="42.8047583" lon="11.6811567"><ele>724.5</ele><time>2026-05-02T14:56:23.719Z</time></trkpt><trkpt lat="42.8047867" lon="11.6810467"><ele>726.0</ele><time>2026-05-02T14:56:24.718Z</time></trkpt><trkpt lat="42.8048183" lon="11.6809383"><ele>727.5</ele><time>2026-05-02T14:56:25.721Z</time></trkpt><trkpt lat="42.8048567" lon="11.68084"><ele>729.0</ele><time>2026-05-02T14:56:26.721Z</time></trkpt><trkpt lat="42.8048983" lon="11.6807517"><ele>730.5</ele><time>2026-05-02T14:56:27.718Z</time></trkpt><trkpt lat="42.8049383" lon="11.68066"><ele>732.0</ele><time>2026-05-02T14:56:28.722Z</time></trkpt><trkpt lat="42.8049833" lon="11.6805767"><ele>733.5</ele><time>2026-05-02T14:56:29.72Z</time></trkpt><trkpt lat="42.80503" lon="11.6804917"><ele>735.0</ele><time>2026-05-02T14:56:30.718Z</time></trkpt><trkpt lat="42.8050817" lon="11.6804067"><ele>735.0</ele><time>2026-05-02T14:56:31.718Z</time></trkpt><trkpt lat="42.80513" lon="11.6803233"><ele>735.0</ele><time>2026-05-02T14:56:32.72Z</time></trkpt><trkpt lat="42.8051817" lon="11.6802517"><ele>735.0</ele><time>2026-05-02T14:56:33.718Z</time></trkpt><trkpt lat="42.805255" lon="11.6801517"><ele>735.0</ele><time>2026-05-02T14:56:35.718Z</time></trkpt><trkpt lat="42.805325" lon="11.6801"><ele>735.0</ele><time>2026-05-02T14:56:37.719Z</time></trkpt><trkpt lat="42.8054067" lon="11.68004"><ele>735.0</ele><time>2026-05-02T14:56:39.719Z</time></trkpt><trkpt lat="42.805465" lon="11.680005"><ele>735.8333333333334</ele><time>2026-05-02T14:56:40.718Z</time></trkpt><trkpt lat="42.8055783" lon="11.67992"><ele>736.6666666666666</ele><time>2026-05-02T14:56:42.72Z</time></trkpt><trkpt lat="42.80563" lon="11.6798667"><ele>737.5</ele><time>2026-05-02T14:56:43.722Z</time></trkpt><trkpt lat="42.80568" lon="11.6798017"><ele>738.3333333333333</ele><time>2026-05-02T14:56:44.722Z</time></trkpt><trkpt lat="42.8057217" lon="11.6797267"><ele>739.1666666666666</ele><time>2026-05-02T14:56:45.721Z</time></trkpt><trkpt lat="42.8057767" lon="11.679655"><ele>740.0</ele><time>2026-05-02T14:56:46.722Z</time></trkpt><trkpt lat="42.805835" lon="11.67958"><ele>739.9999999999999</ele><time>2026-05-02T14:56:47.721Z</time></trkpt><trkpt lat="42.8058883" lon="11.6794983"><ele>740.0</ele><time>2026-05-02T14:56:48.721Z</time></trkpt><trkpt lat="42.8059383" lon="11.6794167"><ele>740.0</ele><time>2026-05-02T14:56:49.723Z</time></trkpt><trkpt lat="42.805985" lon="11.6793367"><ele>740.0</ele><time>2026-05-02T14:56:50.719Z</time></trkpt><trkpt lat="42.806025" lon="11.67925"><ele>740.0</ele><time>2026-05-02T14:56:51.722Z</time></trkpt><trkpt lat="42.8060667" lon="11.6791733"><ele>739.9999999999999</ele><time>2026-05-02T14:56:52.721Z</time></trkpt><trkpt lat="42.8061117" lon="11.67911"><ele>740.0</ele><time>2026-05-02T14:56:53.722Z</time></trkpt><trkpt lat="42.8061483" lon="11.67903"><ele>740.2857142857142</ele><time>2026-05-02T14:56:54.719Z</time></trkpt><trkpt lat="42.8061983" lon="11.67896"><ele>740.5714285714286</ele><time>2026-05-02T14:56:55.722Z</time></trkpt><trkpt lat="42.8062467" lon="11.67889"><ele>740.8571428571429</ele><time>2026-05-02T14:56:56.722Z</time></trkpt><trkpt lat="42.8063017" lon="11.6788333"><ele>741.1428571428571</ele><time>2026-05-02T14:56:57.721Z</time></trkpt><trkpt lat="42.806365" lon="11.6787817"><ele>741.4285714285714</ele><time>2026-05-02T14:56:58.72Z</time></trkpt><trkpt lat="42.8064233" lon="11.6787383"><ele>741.7142857142857</ele><time>2026-05-02T14:56:59.719Z</time></trkpt><trkpt lat="42.8064883" lon="11.6786967"><ele>742.0</ele><time>2026-05-02T14:57:00.721Z</time></trkpt><trkpt lat="42.8065533" lon="11.67865"><ele>742.8333333333334</ele><time>2026-05-02T14:57:01.722Z</time></trkpt><trkpt lat="42.8066267" lon="11.6786"><ele>743.6666666666667</ele><time>2026-05-02T14:57:02.719Z</time></trkpt><trkpt lat="42.8067067" lon="11.67855"><ele>744.5</ele><time>2026-05-02T14:57:03.718Z</time></trkpt><trkpt lat="42.8067883" lon="11.6785067"><ele>745.3333333333334</ele><time>2026-05-02T14:57:04.719Z</time></trkpt><trkpt lat="42.8068717" lon="11.6784667"><ele>746.1666666666666</ele><time>2026-05-02T14:57:05.72Z</time></trkpt><trkpt lat="42.8069583" lon="11.6784267"><ele>747.0</ele><time>2026-05-02T14:57:06.719Z</time></trkpt><trkpt lat="42.807045" lon="11.6783867"><ele>747.0</ele><time>2026-05-02T14:57:07.719Z</time></trkpt><trkpt lat="42.8071317" lon="11.6783467"><ele>747.0</ele><time>2026-05-02T14:57:08.719Z</time></trkpt><trkpt lat="42.8072133" lon="11.6783017"><ele>747.0</ele><time>2026-05-02T14:57:09.72Z</time></trkpt><trkpt lat="42.807295" lon="11.6782583"><ele>747.0</ele><time>2026-05-02T14:57:10.718Z</time></trkpt><trkpt lat="42.8073767" lon="11.678215"><ele>747.0</ele><time>2026-05-02T14:57:11.72Z</time></trkpt><trkpt lat="42.8074567" lon="11.6781717"><ele>747.0</ele><time>2026-05-02T14:57:12.72Z</time></trkpt><trkpt lat="42.807535" lon="11.678125"><ele>747.0</ele><time>2026-05-02T14:57:13.719Z</time></trkpt><trkpt lat="42.8076117" lon="11.67807"><ele>747.0</ele><time>2026-05-02T14:57:14.719Z</time></trkpt><trkpt lat="42.80768" lon="11.67801"><ele>747.0</ele><time>2026-05-02T14:57:15.721Z</time></trkpt><trkpt lat="42.8077533" lon="11.6779467"><ele>747.0</ele><time>2026-05-02T14:57:16.721Z</time></trkpt><trkpt lat="42.8078233" lon="11.6778917"><ele>747.0</ele><time>2026-05-02T14:57:17.723Z</time></trkpt><trkpt lat="42.8078917" lon="11.6778367"><ele>747.0</ele><time>2026-05-02T14:57:18.722Z</time></trkpt><trkpt lat="42.8079583" lon="11.677785"><ele>746.1428571428571</ele><time>2026-05-02T14:57:19.721Z</time></trkpt><trkpt lat="42.8080167" lon="11.677725"><ele>745.2857142857142</ele><time>2026-05-02T14:57:20.722Z</time></trkpt><trkpt lat="42.80807" lon="11.677655"><ele>744.4285714285713</ele><time>2026-05-02T14:57:21.721Z</time></trkpt><trkpt lat="42.808115" lon="11.6775733"><ele>743.5714285714286</ele><time>2026-05-02T14:57:22.722Z</time></trkpt><trkpt lat="42.8081383" lon="11.6774783"><ele>742.7142857142858</ele><time>2026-05-02T14:57:23.721Z</time></trkpt><trkpt lat="42.8081533" lon="11.677385"><ele>741.8571428571428</ele><time>2026-05-02T14:57:24.722Z</time></trkpt><trkpt lat="42.8081517" lon="11.6772917"><ele>741.0</ele><time>2026-05-02T14:57:25.722Z</time></trkpt><trkpt lat="42.8081283" lon="11.6772"><ele>741.0</ele><time>2026-05-02T14:57:26.719Z</time></trkpt><trkpt lat="42.808085" lon="11.6771167"><ele>741.0</ele><time>2026-05-02T14:57:27.719Z</time></trkpt><trkpt lat="42.8080417" lon="11.6770417"><ele>741.0</ele><time>2026-05-02T14:57:28.722Z</time></trkpt><trkpt lat="42.8080033" lon="11.67697"><ele>741.0</ele><time>2026-05-02T14:57:29.721Z</time></trkpt><trkpt lat="42.807985" lon="11.6768117"><ele>741.0</ele><time>2026-05-02T14:57:31.721Z</time></trkpt><trkpt lat="42.8080583" lon="11.676675"><ele>739.8333333333334</ele><time>2026-05-02T14:57:33.722Z</time></trkpt><trkpt lat="42.8081217" lon="11.67663"><ele>738.6666666666666</ele><time>2026-05-02T14:57:34.722Z</time></trkpt><trkpt lat="42.80819" lon="11.6765883"><ele>737.5</ele><time>2026-05-02T14:57:35.722Z</time></trkpt><trkpt lat="42.808265" lon="11.6765617"><ele>736.3333333333333</ele><time>2026-05-02T14:57:36.722Z</time></trkpt><trkpt lat="42.8083433" lon="11.676555"><ele>735.1666666666666</ele><time>2026-05-02T14:57:37.722Z</time></trkpt><trkpt lat="42.808425" lon="11.6765783"><ele>734.0</ele><time>2026-05-02T14:57:38.722Z</time></trkpt><trkpt lat="42.8085017" lon="11.6766133"><ele>732.0</ele><time>2026-05-02T14:57:39.722Z</time></trkpt><trkpt lat="42.8085717" lon="11.676655"><ele>730.0</ele><time>2026-05-02T14:57:40.722Z</time></trkpt><trkpt lat="42.8086383" lon="11.6766967"><ele>728.0</ele><time>2026-05-02T14:57:41.721Z</time></trkpt><trkpt lat="42.8087033" lon="11.6767333"><ele>726.0</ele><time>2026-05-02T14:57:42.722Z</time></trkpt><trkpt lat="42.8087667" lon="11.6767683"><ele>724.0</ele><time>2026-05-02T14:57:43.722Z</time></trkpt><trkpt lat="42.80883" lon="11.6768017"><ele>722.0</ele><time>2026-05-02T14:57:44.723Z</time></trkpt><trkpt lat="42.8088917" lon="11.67683"><ele>720.0</ele><time>2026-05-02T14:57:45.721Z</time></trkpt><trkpt lat="42.8089533" lon="11.6768633"><ele>720.0</ele><time>2026-05-02T14:57:46.722Z</time></trkpt><trkpt lat="42.8090167" lon="11.67689"><ele>720.0</ele><time>2026-05-02T14:57:47.719Z</time></trkpt><trkpt lat="42.8090783" lon="11.67692"><ele>720.0</ele><time>2026-05-02T14:57:48.722Z</time></trkpt><trkpt lat="42.8091433" lon="11.676955"><ele>720.0</ele><time>2026-05-02T14:57:49.719Z</time></trkpt><trkpt lat="42.809205" lon="11.6769817"><ele>720.0</ele><time>2026-05-02T14:57:50.722Z</time></trkpt><trkpt lat="42.8092667" lon="11.6770083"><ele>720.0</ele><time>2026-05-02T14:57:51.723Z</time></trkpt><trkpt lat="42.8093267" lon="11.6770383"><ele>720.0</ele><time>2026-05-02T14:57:52.718Z</time></trkpt><trkpt lat="42.8093867" lon="11.6770733"><ele>717.8</ele><time>2026-05-02T14:57:53.718Z</time></trkpt><trkpt lat="42.8094967" lon="11.67713"><ele>715.6</ele><time>2026-05-02T14:57:55.722Z</time></trkpt><trkpt lat="42.8095983" lon="11.6771967"><ele>713.4000000000001</ele><time>2026-05-02T14:57:57.722Z</time></trkpt><trkpt lat="42.8096717" lon="11.677255"><ele>711.2</ele><time>2026-05-02T14:57:59.722Z</time></trkpt><trkpt lat="42.80975" lon="11.6772367"><ele>709.0</ele><time>2026-05-02T14:58:02.722Z</time></trkpt><trkpt lat="42.8097517" lon="11.677115"><ele>709.0</ele><time>2026-05-02T14:58:04.722Z</time></trkpt><trkpt lat="42.8097033" lon="11.6769817"><ele>709.0</ele><time>2026-05-02T14:58:06.722Z</time></trkpt><trkpt lat="42.8096417" lon="11.676845"><ele>709.0</ele><time>2026-05-02T14:58:08.721Z</time></trkpt><trkpt lat="42.80961" lon="11.676765"><ele>709.0</ele><time>2026-05-02T14:58:09.722Z</time></trkpt><trkpt lat="42.8095783" lon="11.6766833"><ele>709.0</ele><time>2026-05-02T14:58:10.722Z</time></trkpt><trkpt lat="42.8095483" lon="11.6765983"><ele>709.0</ele><time>2026-05-02T14:58:11.722Z</time></trkpt><trkpt lat="42.8095233" lon="11.6765083"><ele>708.2857142857143</ele><time>2026-05-02T14:58:12.718Z</time></trkpt><trkpt lat="42.8094983" lon="11.6764133"><ele>707.5714285714286</ele><time>2026-05-02T14:58:13.722Z</time></trkpt><trkpt lat="42.8094767" lon="11.6763217"><ele>706.8571428571429</ele><time>2026-05-02T14:58:14.722Z</time></trkpt><trkpt lat="42.80946" lon="11.6762333"><ele>706.1428571428571</ele><time>2026-05-02T14:58:15.722Z</time></trkpt><trkpt lat="42.8094567" lon="11.6761467"><ele>705.4285714285714</ele><time>2026-05-02T14:58:16.72Z</time></trkpt><trkpt lat="42.809455" lon="11.6760533"><ele>704.7142857142858</ele><time>2026-05-02T14:58:17.722Z</time></trkpt><trkpt lat="42.80946" lon="11.67596"><ele>704.0</ele><time>2026-05-02T14:58:18.722Z</time></trkpt><trkpt lat="42.8094733" lon="11.67586"><ele>703.5</ele><time>2026-05-02T14:58:19.719Z</time></trkpt><trkpt lat="42.809485" lon="11.6757533"><ele>703.0</ele><time>2026-05-02T14:58:20.719Z</time></trkpt><trkpt lat="42.8094983" lon="11.6756433"><ele>702.5</ele><time>2026-05-02T14:58:21.719Z</time></trkpt><trkpt lat="42.8094983" lon="11.6755233"><ele>702.0</ele><time>2026-05-02T14:58:22.72Z</time></trkpt><trkpt lat="42.809495" lon="11.675405"><ele>701.5</ele><time>2026-05-02T14:58:23.72Z</time></trkpt><trkpt lat="42.8094983" lon="11.675275"><ele>701.0</ele><time>2026-05-02T14:58:24.724Z</time></trkpt><trkpt lat="42.8095017" lon="11.675145"><ele>701.0</ele><time>2026-05-02T14:58:25.722Z</time></trkpt><trkpt lat="42.809505" lon="11.6750167"><ele>701.0</ele><time>2026-05-02T14:58:26.722Z</time></trkpt><trkpt lat="42.8095083" lon="11.6748917"><ele>701.0</ele><time>2026-05-02T14:58:27.719Z</time></trkpt><trkpt lat="42.8095133" lon="11.674775"><ele>701.0</ele><time>2026-05-02T14:58:28.721Z</time></trkpt><trkpt lat="42.8095183" lon="11.6746683"><ele>701.0</ele><time>2026-05-02T14:58:29.722Z</time></trkpt><trkpt lat="42.8095283" lon="11.67456"><ele>701.0</ele><time>2026-05-02T14:58:30.718Z</time></trkpt><trkpt lat="42.80955" lon="11.6744533"><ele>701.8333333333333</ele><time>2026-05-02T14:58:31.719Z</time></trkpt><trkpt lat="42.8095833" lon="11.6743533"><ele>702.6666666666666</ele><time>2026-05-02T14:58:32.719Z</time></trkpt><trkpt lat="42.809625" lon="11.6742617"><ele>703.5</ele><time>2026-05-02T14:58:33.722Z</time></trkpt><trkpt lat="42.8096717" lon="11.67417"><ele>704.3333333333334</ele><time>2026-05-02T14:58:34.722Z</time></trkpt><trkpt lat="42.809715" lon="11.6740817"><ele>705.1666666666667</ele><time>2026-05-02T14:58:35.722Z</time></trkpt><trkpt lat="42.809765" lon="11.6739967"><ele>706.0</ele><time>2026-05-02T14:58:36.722Z</time></trkpt><trkpt lat="42.8098183" lon="11.6739183"><ele>706.0</ele><time>2026-05-02T14:58:37.722Z</time></trkpt><trkpt lat="42.8098783" lon="11.6738483"><ele>706.0</ele><time>2026-05-02T14:58:38.719Z</time></trkpt><trkpt lat="42.8099433" lon="11.67378"><ele>706.0</ele><time>2026-05-02T14:58:39.719Z</time></trkpt><trkpt lat="42.8100133" lon="11.6737133"><ele>706.0</ele><time>2026-05-02T14:58:40.719Z</time></trkpt><trkpt lat="42.8100917" lon="11.6736517"><ele>706.0</ele><time>2026-05-02T14:58:41.722Z</time></trkpt><trkpt lat="42.810175" lon="11.6735867"><ele>706.0</ele><time>2026-05-02T14:58:42.722Z</time></trkpt><trkpt lat="42.8102617" lon="11.673515"><ele>705.8</ele><time>2026-05-02T14:58:43.722Z</time></trkpt><trkpt lat="42.8103467" lon="11.673445"><ele>705.5999999999999</ele><time>2026-05-02T14:58:44.719Z</time></trkpt><trkpt lat="42.810435" lon="11.6733633"><ele>705.4</ele><time>2026-05-02T14:58:45.722Z</time></trkpt><trkpt lat="42.8105183" lon="11.6732767"><ele>705.2</ele><time>2026-05-02T14:58:46.722Z</time></trkpt><trkpt lat="42.8105967" lon="11.6732"><ele>705.0</ele><time>2026-05-02T14:58:47.719Z</time></trkpt><trkpt lat="42.8106733" lon="11.6731367"><ele>705.0</ele><time>2026-05-02T14:58:48.719Z</time></trkpt><trkpt lat="42.8107533" lon="11.6730867"><ele>705.0</ele><time>2026-05-02T14:58:49.719Z</time></trkpt><trkpt lat="42.810825" lon="11.67306"><ele>705.0</ele><time>2026-05-02T14:58:50.72Z</time></trkpt><trkpt lat="42.8109033" lon="11.6730717"><ele>705.0</ele><time>2026-05-02T14:58:51.719Z</time></trkpt><trkpt lat="42.81099" lon="11.6731"><ele>705.0</ele><time>2026-05-02T14:58:52.719Z</time></trkpt><trkpt lat="42.81108" lon="11.6731183"><ele>705.0</ele><time>2026-05-02T14:58:53.719Z</time></trkpt><trkpt lat="42.8111617" lon="11.6731067"><ele>704.8333333333334</ele><time>2026-05-02T14:58:54.722Z</time></trkpt><trkpt lat="42.811235" lon="11.6730767"><ele>704.6666666666666</ele><time>2026-05-02T14:58:55.719Z</time></trkpt><trkpt lat="42.8113" lon="11.6730233"><ele>704.5</ele><time>2026-05-02T14:58:56.719Z</time></trkpt><trkpt lat="42.8113533" lon="11.672955"><ele>704.3333333333333</ele><time>2026-05-02T14:58:57.718Z</time></trkpt><trkpt lat="42.8114167" lon="11.6728767"><ele>704.1666666666666</ele><time>2026-05-02T14:58:58.72Z</time></trkpt><trkpt lat="42.8114767" lon="11.6727983"><ele>704.0</ele><time>2026-05-02T14:58:59.72Z</time></trkpt><trkpt lat="42.8115417" lon="11.6727217"><ele>706.6666666666666</ele><time>2026-05-02T14:59:00.721Z</time></trkpt><trkpt lat="42.8116083" lon="11.6726467"><ele>709.3333333333333</ele><time>2026-05-02T14:59:01.719Z</time></trkpt><trkpt lat="42.81167" lon="11.672575"><ele>712.0</ele><time>2026-05-02T14:59:02.72Z</time></trkpt><trkpt lat="42.81172" lon="11.6725"><ele>714.6666666666666</ele><time>2026-05-02T14:59:03.72Z</time></trkpt><trkpt lat="42.8117633" lon="11.6724167"><ele>717.3333333333334</ele><time>2026-05-02T14:59:04.719Z</time></trkpt><trkpt lat="42.8117933" lon="11.6723333"><ele>720.0</ele><time>2026-05-02T14:59:05.719Z</time></trkpt><trkpt lat="42.8118167" lon="11.67224"><ele>719.3333333333334</ele><time>2026-05-02T14:59:06.721Z</time></trkpt><trkpt lat="42.8118333" lon="11.6721367"><ele>718.6666666666666</ele><time>2026-05-02T14:59:07.72Z</time></trkpt><trkpt lat="42.8118333" lon="11.6720383"><ele>718.0</ele><time>2026-05-02T14:59:08.72Z</time></trkpt><trkpt lat="42.8118383" lon="11.6719333"><ele>717.3333333333333</ele><time>2026-05-02T14:59:09.72Z</time></trkpt><trkpt lat="42.8118417" lon="11.6718283"><ele>716.6666666666666</ele><time>2026-05-02T14:59:10.718Z</time></trkpt><trkpt lat="42.8118583" lon="11.67172"><ele>716.0</ele><time>2026-05-02T14:59:11.722Z</time></trkpt><trkpt lat="42.8118817" lon="11.671615"><ele>716.0</ele><time>2026-05-02T14:59:12.719Z</time></trkpt><trkpt lat="42.8119083" lon="11.6715167"><ele>716.0</ele><time>2026-05-02T14:59:13.719Z</time></trkpt><trkpt lat="42.81194" lon="11.6714283"><ele>716.0</ele><time>2026-05-02T14:59:14.719Z</time></trkpt><trkpt lat="42.8119733" lon="11.6713433"><ele>716.0</ele><time>2026-05-02T14:59:15.719Z</time></trkpt><trkpt lat="42.8120083" lon="11.6712617"><ele>716.0</ele><time>2026-05-02T14:59:16.719Z</time></trkpt><trkpt lat="42.8120317" lon="11.671095"><ele>716.0</ele><time>2026-05-02T14:59:18.721Z</time></trkpt><trkpt lat="42.8120217" lon="11.6709517"><ele>718.5999999999999</ele><time>2026-05-02T14:59:20.719Z</time></trkpt><trkpt lat="42.8119483" lon="11.67089"><ele>721.2</ele><time>2026-05-02T14:59:22.719Z</time></trkpt><trkpt lat="42.8118183" lon="11.6709183"><ele>723.8</ele><time>2026-05-02T14:59:24.719Z</time></trkpt><trkpt lat="42.8116917" lon="11.6709033"><ele>726.4000000000001</ele><time>2026-05-02T14:59:26.722Z</time></trkpt><trkpt lat="42.8116267" lon="11.67087"><ele>729.0</ele><time>2026-05-02T14:59:27.722Z</time></trkpt><trkpt lat="42.81156" lon="11.670825"><ele>731.3333333333334</ele><time>2026-05-02T14:59:28.722Z</time></trkpt><trkpt lat="42.8114933" lon="11.6707667"><ele>733.6666666666666</ele><time>2026-05-02T14:59:29.722Z</time></trkpt><trkpt lat="42.8114367" lon="11.6707"><ele>736.0</ele><time>2026-05-02T14:59:30.722Z</time></trkpt><trkpt lat="42.8113967" lon="11.67063"><ele>738.3333333333333</ele><time>2026-05-02T14:59:31.722Z</time></trkpt><trkpt lat="42.8113667" lon="11.67048"><ele>740.6666666666666</ele><time>2026-05-02T14:59:33.719Z</time></trkpt><trkpt lat="42.811365" lon="11.6703783"><ele>743.0</ele><time>2026-05-02T14:59:34.719Z</time></trkpt><trkpt lat="42.8113667" lon="11.670275"><ele>744.3333333333333</ele><time>2026-05-02T14:59:35.72Z</time></trkpt><trkpt lat="42.811355" lon="11.6701683"><ele>745.6666666666666</ele><time>2026-05-02T14:59:36.719Z</time></trkpt><trkpt lat="42.81134" lon="11.6700667"><ele>747.0</ele><time>2026-05-02T14:59:37.72Z</time></trkpt><trkpt lat="42.8113133" lon="11.6699717"><ele>748.3333333333334</ele><time>2026-05-02T14:59:38.719Z</time></trkpt><trkpt lat="42.8112867" lon="11.6698683"><ele>749.6666666666667</ele><time>2026-05-02T14:59:39.722Z</time></trkpt><trkpt lat="42.811265" lon="11.66977"><ele>751.0</ele><time>2026-05-02T14:59:40.722Z</time></trkpt><trkpt lat="42.8112517" lon="11.66967"><ele>751.0</ele><time>2026-05-02T14:59:41.72Z</time></trkpt><trkpt lat="42.8112517" lon="11.669575"><ele>751.0</ele><time>2026-05-02T14:59:42.722Z</time></trkpt><trkpt lat="42.8112733" lon="11.6694817"><ele>751.0</ele><time>2026-05-02T14:59:43.719Z</time></trkpt><trkpt lat="42.811305" lon="11.66939"><ele>751.0</ele><time>2026-05-02T14:59:44.722Z</time></trkpt><trkpt lat="42.8113433" lon="11.66931"><ele>751.0</ele><time>2026-05-02T14:59:45.722Z</time></trkpt><trkpt lat="42.8113767" lon="11.6692333"><ele>751.0</ele><time>2026-05-02T14:59:46.722Z</time></trkpt><trkpt lat="42.811405" lon="11.6690833"><ele>752.6666666666667</ele><time>2026-05-02T14:59:48.721Z</time></trkpt><trkpt lat="42.8113233" lon="11.66894"><ele>754.3333333333334</ele><time>2026-05-02T14:59:50.722Z</time></trkpt><trkpt lat="42.8112783" lon="11.668865"><ele>756.0</ele><time>2026-05-02T14:59:51.722Z</time></trkpt><trkpt lat="42.8112433" lon="11.6687817"><ele>757.6666666666666</ele><time>2026-05-02T14:59:52.719Z</time></trkpt><trkpt lat="42.8112183" lon="11.66869"><ele>759.3333333333333</ele><time>2026-05-02T14:59:53.719Z</time></trkpt><trkpt lat="42.8112067" lon="11.668585"><ele>761.0</ele><time>2026-05-02T14:59:54.722Z</time></trkpt><trkpt lat="42.8112033" lon="11.6684833"><ele>762.6666666666666</ele><time>2026-05-02T14:59:55.721Z</time></trkpt><trkpt lat="42.811205" lon="11.66838"><ele>764.3333333333333</ele><time>2026-05-02T14:59:56.719Z</time></trkpt><trkpt lat="42.8112083" lon="11.668275"><ele>766.0</ele><time>2026-05-02T14:59:57.721Z</time></trkpt><trkpt lat="42.8112183" lon="11.6681567"><ele>767.6666666666666</ele><time>2026-05-02T14:59:58.722Z</time></trkpt><trkpt lat="42.811235" lon="11.6680333"><ele>769.3333333333334</ele><time>2026-05-02T14:59:59.719Z</time></trkpt><trkpt lat="42.8112583" lon="11.6679117"><ele>771.0</ele><time>2026-05-02T15:00:00.719Z</time></trkpt><trkpt lat="42.8112817" lon="11.6677933"><ele>772.8333333333334</ele><time>2026-05-02T15:00:01.719Z</time></trkpt><trkpt lat="42.811305" lon="11.6676817"><ele>774.6666666666667</ele><time>2026-05-02T15:00:02.719Z</time></trkpt><trkpt lat="42.8113283" lon="11.6675767"><ele>776.5</ele><time>2026-05-02T15:00:03.718Z</time></trkpt><trkpt lat="42.811325" lon="11.6674817"><ele>778.3333333333334</ele><time>2026-05-02T15:00:04.72Z</time></trkpt><trkpt lat="42.811305" lon="11.66739"><ele>780.1666666666667</ele><time>2026-05-02T15:00:05.719Z</time></trkpt><trkpt lat="42.8112767" lon="11.66729"><ele>782.0</ele><time>2026-05-02T15:00:06.72Z</time></trkpt><trkpt lat="42.81125" lon="11.6671933"><ele>782.0000000000001</ele><time>2026-05-02T15:00:07.719Z</time></trkpt><trkpt lat="42.811235" lon="11.6670833"><ele>782.0</ele><time>2026-05-02T15:00:08.719Z</time></trkpt><trkpt lat="42.8112283" lon="11.66697"><ele>782.0</ele><time>2026-05-02T15:00:09.719Z</time></trkpt><trkpt lat="42.8112283" lon="11.6668533"><ele>782.0</ele><time>2026-05-02T15:00:10.719Z</time></trkpt><trkpt lat="42.811235" lon="11.6667433"><ele>782.0000000000001</ele><time>2026-05-02T15:00:11.719Z</time></trkpt><trkpt lat="42.811245" lon="11.6666233"><ele>782.0</ele><time>2026-05-02T15:00:12.724Z</time></trkpt><trkpt lat="42.811245" lon="11.6664917"><ele>783.6</ele><time>2026-05-02T15:00:13.722Z</time></trkpt><trkpt lat="42.8112367" lon="11.66635"><ele>785.2</ele><time>2026-05-02T15:00:14.719Z</time></trkpt><trkpt lat="42.8112233" lon="11.6662133"><ele>786.8</ele><time>2026-05-02T15:00:15.719Z</time></trkpt><trkpt lat="42.811205" lon="11.6660783"><ele>788.4</ele><time>2026-05-02T15:00:16.718Z</time></trkpt><trkpt lat="42.8111817" lon="11.6659533"><ele>790.0</ele><time>2026-05-02T15:00:17.719Z</time></trkpt><trkpt lat="42.8111517" lon="11.66585"><ele>790.4999999999999</ele><time>2026-05-02T15:00:18.719Z</time></trkpt><trkpt lat="42.811115" lon="11.6657633"><ele>791.0</ele><time>2026-05-02T15:00:19.719Z</time></trkpt><trkpt lat="42.8110783" lon="11.665675"><ele>791.5</ele><time>2026-05-02T15:00:20.722Z</time></trkpt><trkpt lat="42.8110283" lon="11.6655817"><ele>792.0</ele><time>2026-05-02T15:00:21.722Z</time></trkpt><trkpt lat="42.8109683" lon="11.6655017"><ele>792.4999999999999</ele><time>2026-05-02T15:00:22.722Z</time></trkpt><trkpt lat="42.8109117" lon="11.665405"><ele>793.0</ele><time>2026-05-02T15:00:23.719Z</time></trkpt><trkpt lat="42.810855" lon="11.66532"><ele>794.8333333333333</ele><time>2026-05-02T15:00:24.719Z</time></trkpt><trkpt lat="42.8107967" lon="11.6652367"><ele>796.6666666666666</ele><time>2026-05-02T15:00:25.722Z</time></trkpt><trkpt lat="42.81074" lon="11.665155"><ele>798.5</ele><time>2026-05-02T15:00:26.723Z</time></trkpt><trkpt lat="42.8106783" lon="11.6650767"><ele>800.3333333333333</ele><time>2026-05-02T15:00:27.722Z</time></trkpt><trkpt lat="42.8106267" lon="11.6649933"><ele>802.1666666666666</ele><time>2026-05-02T15:00:28.721Z</time></trkpt><trkpt lat="42.8105783" lon="11.6649"><ele>804.0</ele><time>2026-05-02T15:00:29.719Z</time></trkpt><trkpt lat="42.8105533" lon="11.66481"><ele>804.0</ele><time>2026-05-02T15:00:30.719Z</time></trkpt><trkpt lat="42.810545" lon="11.66471"><ele>804.0</ele><time>2026-05-02T15:00:31.719Z</time></trkpt><trkpt lat="42.8105483" lon="11.6646133"><ele>804.0</ele><time>2026-05-02T15:00:32.719Z</time></trkpt><trkpt lat="42.810555" lon="11.6645133"><ele>804.0</ele><time>2026-05-02T15:00:33.72Z</time></trkpt><trkpt lat="42.810575" lon="11.6644083"><ele>804.0</ele><time>2026-05-02T15:00:34.719Z</time></trkpt><trkpt lat="42.8105883" lon="11.66429"><ele>804.0</ele><time>2026-05-02T15:00:35.719Z</time></trkpt><trkpt lat="42.8105867" lon="11.664175"><ele>805.3333333333334</ele><time>2026-05-02T15:00:36.719Z</time></trkpt><trkpt lat="42.81058" lon="11.6640583"><ele>806.6666666666667</ele><time>2026-05-02T15:00:37.719Z</time></trkpt><trkpt lat="42.8105717" lon="11.6639317"><ele>808.0</ele><time>2026-05-02T15:00:38.72Z</time></trkpt><trkpt lat="42.8105633" lon="11.663805"><ele>809.3333333333334</ele><time>2026-05-02T15:00:39.719Z</time></trkpt><trkpt lat="42.8105517" lon="11.6636833"><ele>810.6666666666667</ele><time>2026-05-02T15:00:40.719Z</time></trkpt><trkpt lat="42.81054" lon="11.663585"><ele>812.0</ele><time>2026-05-02T15:00:41.72Z</time></trkpt><trkpt lat="42.8105167" lon="11.66348"><ele>813.5000000000001</ele><time>2026-05-02T15:00:42.72Z</time></trkpt><trkpt lat="42.810485" lon="11.6633817"><ele>815.0</ele><time>2026-05-02T15:00:43.719Z</time></trkpt><trkpt lat="42.8104433" lon="11.6632817"><ele>816.5</ele><time>2026-05-02T15:00:44.719Z</time></trkpt><trkpt lat="42.8103967" lon="11.6631767"><ele>818.0</ele><time>2026-05-02T15:00:45.719Z</time></trkpt><trkpt lat="42.81036" lon="11.6630633"><ele>819.5000000000001</ele><time>2026-05-02T15:00:46.719Z</time></trkpt><trkpt lat="42.810325" lon="11.662945"><ele>821.0</ele><time>2026-05-02T15:00:47.719Z</time></trkpt><trkpt lat="42.810285" lon="11.6628233"><ele>821.5999999999999</ele><time>2026-05-02T15:00:48.72Z</time></trkpt><trkpt lat="42.8102517" lon="11.6626933"><ele>822.2</ele><time>2026-05-02T15:00:49.719Z</time></trkpt><trkpt lat="42.8102167" lon="11.6625533"><ele>822.8</ele><time>2026-05-02T15:00:50.719Z</time></trkpt><trkpt lat="42.8101717" lon="11.6624233"><ele>823.4000000000001</ele><time>2026-05-02T15:00:51.719Z</time></trkpt><trkpt lat="42.8101333" lon="11.6622717"><ele>824.0</ele><time>2026-05-02T15:00:52.721Z</time></trkpt><trkpt lat="42.810095" lon="11.66214"><ele>827.4000000000001</ele><time>2026-05-02T15:00:53.719Z</time></trkpt><trkpt lat="42.8100617" lon="11.662005"><ele>830.8</ele><time>2026-05-02T15:00:54.719Z</time></trkpt><trkpt lat="42.81004" lon="11.6618767"><ele>834.2</ele><time>2026-05-02T15:00:55.72Z</time></trkpt><trkpt lat="42.81001" lon="11.6617617"><ele>837.5999999999999</ele><time>2026-05-02T15:00:56.719Z</time></trkpt><trkpt lat="42.8099833" lon="11.66165"><ele>841.0</ele><time>2026-05-02T15:00:57.719Z</time></trkpt><trkpt lat="42.8099567" lon="11.6615433"><ele>841.0</ele><time>2026-05-02T15:00:58.719Z</time></trkpt><trkpt lat="42.8099317" lon="11.661445"><ele>841.0</ele><time>2026-05-02T15:00:59.72Z</time></trkpt><trkpt lat="42.80991" lon="11.6613467"><ele>841.0</ele><time>2026-05-02T15:01:00.721Z</time></trkpt><trkpt lat="42.80989" lon="11.6612517"><ele>841.0</ele><time>2026-05-02T15:01:01.72Z</time></trkpt><trkpt lat="42.8098683" lon="11.6611567"><ele>841.0</ele><time>2026-05-02T15:01:02.719Z</time></trkpt><trkpt lat="42.8098517" lon="11.6610717"><ele>841.0</ele><time>2026-05-02T15:01:03.719Z</time></trkpt><trkpt lat="42.8098283" lon="11.6609867"><ele>841.0</ele><time>2026-05-02T15:01:04.719Z</time></trkpt><trkpt lat="42.8098133" lon="11.6608983"><ele>840.9999999999999</ele><time>2026-05-02T15:01:05.719Z</time></trkpt><trkpt lat="42.8098017" lon="11.660745"><ele>841.0</ele><time>2026-05-02T15:01:07.719Z</time></trkpt><trkpt lat="42.8098517" lon="11.6606233"><ele>841.0</ele><time>2026-05-02T15:01:09.719Z</time></trkpt><trkpt lat="42.809905" lon="11.6605633"><ele>841.0</ele><time>2026-05-02T15:01:10.72Z</time></trkpt><trkpt lat="42.8099683" lon="11.6605"><ele>840.9999999999999</ele><time>2026-05-02T15:01:11.719Z</time></trkpt><trkpt lat="42.81003" lon="11.6604383"><ele>841.0</ele><time>2026-05-02T15:01:12.719Z</time></trkpt><trkpt lat="42.810085" lon="11.6603683"><ele>840.9999999999999</ele><time>2026-05-02T15:01:13.719Z</time></trkpt><trkpt lat="42.8101367" lon="11.660295"><ele>841.0</ele><time>2026-05-02T15:01:14.719Z</time></trkpt><trkpt lat="42.81018" lon="11.6602233"><ele>841.0</ele><time>2026-05-02T15:01:15.719Z</time></trkpt><trkpt lat="42.810225" lon="11.6601483"><ele>841.0</ele><time>2026-05-02T15:01:16.719Z</time></trkpt><trkpt lat="42.810255" lon="11.6600717"><ele>840.9999999999999</ele><time>2026-05-02T15:01:17.719Z</time></trkpt><trkpt lat="42.81028" lon="11.6599917"><ele>841.0</ele><time>2026-05-02T15:01:18.719Z</time></trkpt><trkpt lat="42.8102883" lon="11.6598217"><ele>839.1666666666666</ele><time>2026-05-02T15:01:20.719Z</time></trkpt><trkpt lat="42.8102667" lon="11.65967"><ele>837.3333333333333</ele><time>2026-05-02T15:01:22.719Z</time></trkpt><trkpt lat="42.810235" lon="11.6595833"><ele>835.5</ele><time>2026-05-02T15:01:23.72Z</time></trkpt><trkpt lat="42.8102117" lon="11.6595033"><ele>833.6666666666667</ele><time>2026-05-02T15:01:24.719Z</time></trkpt><trkpt lat="42.81018" lon="11.65942"><ele>831.8333333333334</ele><time>2026-05-02T15:01:25.719Z</time></trkpt><trkpt lat="42.8101467" lon="11.6593367"><ele>830.0</ele><time>2026-05-02T15:01:26.719Z</time></trkpt><trkpt lat="42.8101117" lon="11.65926"><ele>830.0000000000001</ele><time>2026-05-02T15:01:27.72Z</time></trkpt><trkpt lat="42.810075" lon="11.65919"><ele>830.0</ele><time>2026-05-02T15:01:28.72Z</time></trkpt><trkpt lat="42.8100367" lon="11.65912"><ele>830.0</ele><time>2026-05-02T15:01:29.721Z</time></trkpt><trkpt lat="42.8099583" lon="11.6589983"><ele>830.0</ele><time>2026-05-02T15:01:31.72Z</time></trkpt><trkpt lat="42.8099117" lon="11.6588433"><ele>830.0000000000001</ele><time>2026-05-02T15:01:33.72Z</time></trkpt><trkpt lat="42.80991" lon="11.65875"><ele>830.0</ele><time>2026-05-02T15:01:34.72Z</time></trkpt><trkpt lat="42.8099133" lon="11.6586517"><ele>829.1666666666667</ele><time>2026-05-02T15:01:35.72Z</time></trkpt><trkpt lat="42.8099267" lon="11.6585533"><ele>828.3333333333334</ele><time>2026-05-02T15:01:36.721Z</time></trkpt><trkpt lat="42.8099567" lon="11.65845"><ele>827.5</ele><time>2026-05-02T15:01:37.72Z</time></trkpt><trkpt lat="42.8099883" lon="11.65835"><ele>826.6666666666667</ele><time>2026-05-02T15:01:38.72Z</time></trkpt><trkpt lat="42.8100217" lon="11.65825"><ele>825.8333333333334</ele><time>2026-05-02T15:01:39.719Z</time></trkpt><trkpt lat="42.8100433" lon="11.6581467"><ele>825.0</ele><time>2026-05-02T15:01:40.719Z</time></trkpt><trkpt lat="42.810075" lon="11.65805"><ele>825.0</ele><time>2026-05-02T15:01:41.72Z</time></trkpt><trkpt lat="42.8101017" lon="11.657955"><ele>825.0</ele><time>2026-05-02T15:01:42.721Z</time></trkpt><trkpt lat="42.8101183" lon="11.6578583"><ele>825.0</ele><time>2026-05-02T15:01:43.72Z</time></trkpt><trkpt lat="42.8101267" lon="11.6577567"><ele>825.0</ele><time>2026-05-02T15:01:44.72Z</time></trkpt><trkpt lat="42.810125" lon="11.657655"><ele>825.0</ele><time>2026-05-02T15:01:45.72Z</time></trkpt><trkpt lat="42.8101017" lon="11.6574667"><ele>825.0</ele><time>2026-05-02T15:01:47.72Z</time></trkpt><trkpt lat="42.8101033" lon="11.657365"><ele>825.0</ele><time>2026-05-02T15:01:48.72Z</time></trkpt><trkpt lat="42.8101167" lon="11.6572733"><ele>825.0</ele><time>2026-05-02T15:01:49.72Z</time></trkpt><trkpt lat="42.8101417" lon="11.6571767"><ele>825.0</ele><time>2026-05-02T15:01:50.72Z</time></trkpt><trkpt lat="42.810165" lon="11.6570967"><ele>825.0</ele><time>2026-05-02T15:01:51.721Z</time></trkpt><trkpt lat="42.8101983" lon="11.6570133"><ele>825.0</ele><time>2026-05-02T15:01:52.722Z</time></trkpt><trkpt lat="42.81024" lon="11.656935"><ele>825.0</ele><time>2026-05-02T15:01:53.72Z</time></trkpt><trkpt lat="42.8102833" lon="11.6568483"><ele>825.0</ele><time>2026-05-02T15:01:54.719Z</time></trkpt><trkpt lat="42.8103233" lon="11.6567633"><ele>826.6</ele><time>2026-05-02T15:01:55.72Z</time></trkpt><trkpt lat="42.810375" lon="11.656675"><ele>828.2</ele><time>2026-05-02T15:01:56.721Z</time></trkpt><trkpt lat="42.8104233" lon="11.6565667"><ele>829.8</ele><time>2026-05-02T15:01:57.72Z</time></trkpt><trkpt lat="42.8104683" lon="11.6564617"><ele>831.4</ele><time>2026-05-02T15:01:58.721Z</time></trkpt><trkpt lat="42.8105167" lon="11.6563483"><ele>833.0</ele><time>2026-05-02T15:01:59.72Z</time></trkpt><trkpt lat="42.8105567" lon="11.6562367"><ele>833.0000000000001</ele><time>2026-05-02T15:02:00.72Z</time></trkpt><trkpt lat="42.8106" lon="11.6561233"><ele>833.0</ele><time>2026-05-02T15:02:01.72Z</time></trkpt><trkpt lat="42.8106467" lon="11.656015"><ele>833.0</ele><time>2026-05-02T15:02:02.72Z</time></trkpt><trkpt lat="42.81069" lon="11.655895"><ele>833.0</ele><time>2026-05-02T15:02:03.72Z</time></trkpt><trkpt lat="42.810735" lon="11.6557933"><ele>833.0000000000001</ele><time>2026-05-02T15:02:04.722Z</time></trkpt><trkpt lat="42.81077" lon="11.6557033"><ele>833.0</ele><time>2026-05-02T15:02:05.72Z</time></trkpt><trkpt lat="42.8108067" lon="11.65562"><ele>834.3333333333334</ele><time>2026-05-02T15:02:06.72Z</time></trkpt><trkpt lat="42.8108433" lon="11.65554"><ele>835.6666666666667</ele><time>2026-05-02T15:02:07.72Z</time></trkpt><trkpt lat="42.8109283" lon="11.6554067"><ele>837.0</ele><time>2026-05-02T15:02:09.72Z</time></trkpt><trkpt lat="42.8109767" lon="11.6553417"><ele>838.3333333333333</ele><time>2026-05-02T15:02:10.719Z</time></trkpt><trkpt lat="42.8110183" lon="11.655275"><ele>839.6666666666666</ele><time>2026-05-02T15:02:11.72Z</time></trkpt><trkpt lat="42.8110633" lon="11.6552083"><ele>841.0</ele><time>2026-05-02T15:02:12.721Z</time></trkpt><trkpt lat="42.8111017" lon="11.6551367"><ele>840.9999999999999</ele><time>2026-05-02T15:02:13.72Z</time></trkpt><trkpt lat="42.8111567" lon="11.65498"><ele>841.0</ele><time>2026-05-02T15:02:15.721Z</time></trkpt><trkpt lat="42.8111817" lon="11.6548933"><ele>841.0</ele><time>2026-05-02T15:02:16.72Z</time></trkpt><trkpt lat="42.8111983" lon="11.6547967"><ele>841.0</ele><time>2026-05-02T15:02:17.72Z</time></trkpt><trkpt lat="42.8112217" lon="11.6546933"><ele>840.9999999999999</ele><time>2026-05-02T15:02:18.72Z</time></trkpt><trkpt lat="42.8112483" lon="11.6545883"><ele>841.0</ele><time>2026-05-02T15:02:19.72Z</time></trkpt><trkpt lat="42.811275" lon="11.654495"><ele>841.3333333333333</ele><time>2026-05-02T15:02:20.721Z</time></trkpt><trkpt lat="42.811315" lon="11.6543967"><ele>841.6666666666666</ele><time>2026-05-02T15:02:21.72Z</time></trkpt><trkpt lat="42.81135" lon="11.6543067"><ele>842.0</ele><time>2026-05-02T15:02:22.72Z</time></trkpt><trkpt lat="42.8113883" lon="11.6542267"><ele>842.3333333333333</ele><time>2026-05-02T15:02:23.72Z</time></trkpt><trkpt lat="42.81143" lon="11.6541383"><ele>842.6666666666666</ele><time>2026-05-02T15:02:24.72Z</time></trkpt><trkpt lat="42.811475" lon="11.654055"><ele>843.0</ele><time>2026-05-02T15:02:25.72Z</time></trkpt><trkpt lat="42.8115183" lon="11.653965"><ele>843.0</ele><time>2026-05-02T15:02:26.72Z</time></trkpt><trkpt lat="42.8115667" lon="11.65389"><ele>843.0</ele><time>2026-05-02T15:02:27.72Z</time></trkpt><trkpt lat="42.8116183" lon="11.653815"><ele>843.0</ele><time>2026-05-02T15:02:28.719Z</time></trkpt><trkpt lat="42.811675" lon="11.65375"><ele>843.0</ele><time>2026-05-02T15:02:29.72Z</time></trkpt><trkpt lat="42.8117333" lon="11.6536867"><ele>843.0</ele><time>2026-05-02T15:02:30.72Z</time></trkpt><trkpt lat="42.81179" lon="11.6536333"><ele>843.0</ele><time>2026-05-02T15:02:31.721Z</time></trkpt><trkpt lat="42.811855" lon="11.6535883"><ele>843.0</ele><time>2026-05-02T15:02:32.72Z</time></trkpt><trkpt lat="42.8119283" lon="11.6535417"><ele>842.8333333333334</ele><time>2026-05-02T15:02:33.72Z</time></trkpt><trkpt lat="42.81199" lon="11.6535133"><ele>842.6666666666667</ele><time>2026-05-02T15:02:34.72Z</time></trkpt><trkpt lat="42.8120633" lon="11.6534883"><ele>842.5</ele><time>2026-05-02T15:02:35.72Z</time></trkpt><trkpt lat="42.8121317" lon="11.6534733"><ele>842.3333333333334</ele><time>2026-05-02T15:02:36.72Z</time></trkpt><trkpt lat="42.8121983" lon="11.653445"><ele>842.1666666666667</ele><time>2026-05-02T15:02:37.72Z</time></trkpt><trkpt lat="42.812265" lon="11.6534333"><ele>842.0</ele><time>2026-05-02T15:02:38.72Z</time></trkpt><trkpt lat="42.8123683" lon="11.65336"><ele>842.0</ele><time>2026-05-02T15:02:40.719Z</time></trkpt><trkpt lat="42.8124333" lon="11.6532517"><ele>842.0</ele><time>2026-05-02T15:02:42.721Z</time></trkpt><trkpt lat="42.812455" lon="11.65311"><ele>842.0</ele><time>2026-05-02T15:02:44.72Z</time></trkpt><trkpt lat="42.81247" lon="11.6529317"><ele>842.0</ele><time>2026-05-02T15:02:46.72Z</time></trkpt><trkpt lat="42.8124717" lon="11.6528383"><ele>842.0</ele><time>2026-05-02T15:02:47.72Z</time></trkpt><trkpt lat="42.8124733" lon="11.65274"><ele>841.5714285714287</ele><time>2026-05-02T15:02:48.72Z</time></trkpt><trkpt lat="42.812475" lon="11.6526533"><ele>841.1428571428571</ele><time>2026-05-02T15:02:49.72Z</time></trkpt><trkpt lat="42.8124783" lon="11.6525667"><ele>840.7142857142858</ele><time>2026-05-02T15:02:50.721Z</time></trkpt><trkpt lat="42.8124817" lon="11.6524717"><ele>840.2857142857143</ele><time>2026-05-02T15:02:51.72Z</time></trkpt><trkpt lat="42.812485" lon="11.6523733"><ele>839.8571428571429</ele><time>2026-05-02T15:02:52.72Z</time></trkpt><trkpt lat="42.812485" lon="11.652275"><ele>839.4285714285714</ele><time>2026-05-02T15:02:53.72Z</time></trkpt><trkpt lat="42.8124817" lon="11.6521767"><ele>839.0</ele><time>2026-05-02T15:02:54.72Z</time></trkpt><trkpt lat="42.8124767" lon="11.6520767"><ele>839.0</ele><time>2026-05-02T15:02:55.72Z</time></trkpt><trkpt lat="42.812465" lon="11.651985"><ele>839.0</ele><time>2026-05-02T15:02:56.72Z</time></trkpt><trkpt lat="42.8124467" lon="11.6518967"><ele>839.0</ele><time>2026-05-02T15:02:57.719Z</time></trkpt><trkpt lat="42.8124183" lon="11.6518083"><ele>839.0</ele><time>2026-05-02T15:02:58.72Z</time></trkpt><trkpt lat="42.81238" lon="11.65172"><ele>839.0</ele><time>2026-05-02T15:02:59.72Z</time></trkpt><trkpt lat="42.8123367" lon="11.6516317"><ele>839.0</ele><time>2026-05-02T15:03:00.72Z</time></trkpt><trkpt lat="42.8122917" lon="11.65154"><ele>839.0</ele><time>2026-05-02T15:03:01.72Z</time></trkpt><trkpt lat="42.8122383" lon="11.6514333"><ele>837.2</ele><time>2026-05-02T15:03:02.72Z</time></trkpt><trkpt lat="42.81219" lon="11.6513233"><ele>835.4000000000001</ele><time>2026-05-02T15:03:03.72Z</time></trkpt><trkpt lat="42.812145" lon="11.651205"><ele>833.6</ele><time>2026-05-02T15:03:04.72Z</time></trkpt><trkpt lat="42.81211" lon="11.65108"><ele>831.8</ele><time>2026-05-02T15:03:05.721Z</time></trkpt><trkpt lat="42.8120883" lon="11.6509467"><ele>830.0</ele><time>2026-05-02T15:03:06.72Z</time></trkpt><trkpt lat="42.8120733" lon="11.6508083"><ele>829.6</ele><time>2026-05-02T15:03:07.72Z</time></trkpt><trkpt lat="42.8120633" lon="11.650665"><ele>829.2</ele><time>2026-05-02T15:03:08.72Z</time></trkpt><trkpt lat="42.81205" lon="11.65052"><ele>828.8</ele><time>2026-05-02T15:03:09.72Z</time></trkpt><trkpt lat="42.8120367" lon="11.6503783"><ele>828.4</ele><time>2026-05-02T15:03:10.722Z</time></trkpt><trkpt lat="42.8120233" lon="11.6502417"><ele>828.0</ele><time>2026-05-02T15:03:11.719Z</time></trkpt><trkpt lat="42.8120067" lon="11.65011"><ele>828.0</ele><time>2026-05-02T15:03:12.72Z</time></trkpt><trkpt lat="42.812" lon="11.6499767"><ele>828.0</ele><time>2026-05-02T15:03:13.719Z</time></trkpt><trkpt lat="42.812" lon="11.6498483"><ele>828.0</ele><time>2026-05-02T15:03:14.72Z</time></trkpt><trkpt lat="42.81201" lon="11.6497217"><ele>828.0</ele><time>2026-05-02T15:03:15.72Z</time></trkpt><trkpt lat="42.8120217" lon="11.649595"><ele>828.0</ele><time>2026-05-02T15:03:16.72Z</time></trkpt><trkpt lat="42.8120467" lon="11.6494767"><ele>828.0</ele><time>2026-05-02T15:03:17.721Z</time></trkpt><trkpt lat="42.8120767" lon="11.6493617"><ele>828.0</ele><time>2026-05-02T15:03:18.72Z</time></trkpt><trkpt lat="42.8121233" lon="11.6492467"><ele>828.0</ele><time>2026-05-02T15:03:19.719Z</time></trkpt><trkpt lat="42.8121683" lon="11.6491367"><ele>828.0</ele><time>2026-05-02T15:03:20.72Z</time></trkpt><trkpt lat="42.81222" lon="11.6490233"><ele>828.0</ele><time>2026-05-02T15:03:21.72Z</time></trkpt><trkpt lat="42.812275" lon="11.6489183"><ele>828.0</ele><time>2026-05-02T15:03:22.719Z</time></trkpt><trkpt lat="42.8123383" lon="11.648815"><ele>828.0</ele><time>2026-05-02T15:03:23.721Z</time></trkpt><trkpt lat="42.812395" lon="11.64872"><ele>828.0</ele><time>2026-05-02T15:03:24.72Z</time></trkpt><trkpt lat="42.8124517" lon="11.6486283"><ele>828.0</ele><time>2026-05-02T15:03:25.72Z</time></trkpt><trkpt lat="42.812495" lon="11.648535"><ele>828.0</ele><time>2026-05-02T15:03:26.72Z</time></trkpt><trkpt lat="42.8125417" lon="11.6484417"><ele>828.0</ele><time>2026-05-02T15:03:27.72Z</time></trkpt><trkpt lat="42.81259" lon="11.648355"><ele>828.1666666666666</ele><time>2026-05-02T15:03:28.719Z</time></trkpt><trkpt lat="42.812635" lon="11.648275"><ele>828.3333333333333</ele><time>2026-05-02T15:03:29.72Z</time></trkpt><trkpt lat="42.8126817" lon="11.6481967"><ele>828.5</ele><time>2026-05-02T15:03:30.72Z</time></trkpt><trkpt lat="42.8127267" lon="11.6481333"><ele>828.6666666666666</ele><time>2026-05-02T15:03:31.721Z</time></trkpt><trkpt lat="42.8128183" lon="11.6480483"><ele>828.8333333333333</ele><time>2026-05-02T15:03:33.72Z</time></trkpt><trkpt lat="42.81291" lon="11.6479833"><ele>829.0</ele><time>2026-05-02T15:03:35.72Z</time></trkpt><trkpt lat="42.81299" lon="11.647925"><ele>827.9999999999999</ele><time>2026-05-02T15:03:37.722Z</time></trkpt><trkpt lat="42.813065" lon="11.6478733"><ele>827.0</ele><time>2026-05-02T15:03:39.72Z</time></trkpt><trkpt lat="42.8131383" lon="11.6477817"><ele>826.0</ele><time>2026-05-02T15:03:41.718Z</time></trkpt><trkpt lat="42.8131733" lon="11.6477067"><ele>825.0</ele><time>2026-05-02T15:03:42.722Z</time></trkpt><trkpt lat="42.8132067" lon="11.647625"><ele>823.9999999999999</ele><time>2026-05-02T15:03:43.722Z</time></trkpt><trkpt lat="42.8132367" lon="11.6475417"><ele>823.0</ele><time>2026-05-02T15:03:44.718Z</time></trkpt><trkpt lat="42.813265" lon="11.6474617"><ele>822.4</ele><time>2026-05-02T15:03:45.718Z</time></trkpt><trkpt lat="42.8133267" lon="11.647335"><ele>821.8</ele><time>2026-05-02T15:03:47.72Z</time></trkpt><trkpt lat="42.813365" lon="11.64724"><ele>821.2</ele><time>2026-05-02T15:03:49.718Z</time></trkpt><trkpt lat="42.81338" lon="11.64712"><ele>820.6</ele><time>2026-05-02T15:06:45.724Z</time></trkpt><trkpt lat="42.8133083" lon="11.6470817"><ele>820.0</ele><time>2026-05-02T15:06:47.72Z</time></trkpt><trkpt lat="42.8131833" lon="11.6470333"><ele>819.9999999999999</ele><time>2026-05-02T15:06:49.72Z</time></trkpt><trkpt lat="42.81311" lon="11.6470083"><ele>820.0</ele><time>2026-05-02T15:06:50.718Z</time></trkpt><trkpt lat="42.813035" lon="11.6469883"><ele>820.0</ele><time>2026-05-02T15:06:51.721Z</time></trkpt><trkpt lat="42.8129533" lon="11.6469833"><ele>820.0</ele><time>2026-05-02T15:06:52.721Z</time></trkpt><trkpt lat="42.8128633" lon="11.6469883"><ele>819.9999999999999</ele><time>2026-05-02T15:06:53.719Z</time></trkpt><trkpt lat="42.8127667" lon="11.6470183"><ele>820.0</ele><time>2026-05-02T15:06:54.718Z</time></trkpt><trkpt lat="42.8126717" lon="11.64705"><ele>819.6666666666666</ele><time>2026-05-02T15:06:55.719Z</time></trkpt><trkpt lat="42.8125817" lon="11.6470633"><ele>819.3333333333333</ele><time>2026-05-02T15:06:56.721Z</time></trkpt><trkpt lat="42.8124967" lon="11.64707"><ele>819.0</ele><time>2026-05-02T15:06:57.721Z</time></trkpt><trkpt lat="42.812415" lon="11.647055"><ele>818.6666666666667</ele><time>2026-05-02T15:06:58.718Z</time></trkpt><trkpt lat="42.8123267" lon="11.6470167"><ele>818.3333333333334</ele><time>2026-05-02T15:06:59.718Z</time></trkpt><trkpt lat="42.8122433" lon="11.6469633"><ele>818.0</ele><time>2026-05-02T15:07:00.718Z</time></trkpt><trkpt lat="42.8121567" lon="11.6468933"><ele>818.0</ele><time>2026-05-02T15:07:01.718Z</time></trkpt><trkpt lat="42.81207" lon="11.6468167"><ele>818.0</ele><time>2026-05-02T15:07:02.718Z</time></trkpt><trkpt lat="42.81198" lon="11.6467317"><ele>818.0</ele><time>2026-05-02T15:07:03.721Z</time></trkpt><trkpt lat="42.8118867" lon="11.646645"><ele>818.0</ele><time>2026-05-02T15:07:04.718Z</time></trkpt><trkpt lat="42.8117933" lon="11.6465467"><ele>818.0</ele><time>2026-05-02T15:07:05.718Z</time></trkpt><trkpt lat="42.8117017" lon="11.6464417"><ele>817.75</ele><time>2026-05-02T15:07:06.72Z</time></trkpt><trkpt lat="42.81161" lon="11.6463267"><ele>817.5</ele><time>2026-05-02T15:07:07.718Z</time></trkpt><trkpt lat="42.8115133" lon="11.646205"><ele>817.25</ele><time>2026-05-02T15:07:08.722Z</time></trkpt><trkpt lat="42.811415" lon="11.646085"><ele>817.0</ele><time>2026-05-02T15:07:09.721Z</time></trkpt><trkpt lat="42.8113183" lon="11.6459617"><ele>817.0</ele><time>2026-05-02T15:07:10.72Z</time></trkpt><trkpt lat="42.8112067" lon="11.6458633"><ele>817.0</ele><time>2026-05-02T15:07:11.719Z</time></trkpt><trkpt lat="42.81109" lon="11.6458033"><ele>817.0</ele><time>2026-05-02T15:07:12.722Z</time></trkpt><trkpt lat="42.8109683" lon="11.645785"><ele>817.0</ele><time>2026-05-02T15:07:13.718Z</time></trkpt><trkpt lat="42.8108483" lon="11.6458017"><ele>818.25</ele><time>2026-05-02T15:07:14.718Z</time></trkpt><trkpt lat="42.8107383" lon="11.6458517"><ele>819.5</ele><time>2026-05-02T15:07:15.719Z</time></trkpt><trkpt lat="42.810635" lon="11.6459433"><ele>820.75</ele><time>2026-05-02T15:07:16.719Z</time></trkpt><trkpt lat="42.8105517" lon="11.6460683"><ele>822.0</ele><time>2026-05-02T15:07:17.718Z</time></trkpt><trkpt lat="42.810475" lon="11.6462033"><ele>825.0</ele><time>2026-05-02T15:07:18.718Z</time></trkpt><trkpt lat="42.8104" lon="11.6463433"><ele>828.0</ele><time>2026-05-02T15:07:19.718Z</time></trkpt><trkpt lat="42.8103283" lon="11.646475"><ele>831.0</ele><time>2026-05-02T15:07:20.721Z</time></trkpt><trkpt lat="42.8102417" lon="11.6465917"><ele>834.0</ele><time>2026-05-02T15:07:21.718Z</time></trkpt><trkpt lat="42.8101433" lon="11.6466767"><ele>834.0</ele><time>2026-05-02T15:07:22.718Z</time></trkpt><trkpt lat="42.81003" lon="11.6467217"><ele>834.0</ele><time>2026-05-02T15:07:23.721Z</time></trkpt><trkpt lat="42.8099133" lon="11.64674"><ele>834.0</ele><time>2026-05-02T15:07:24.719Z</time></trkpt><trkpt lat="42.8097933" lon="11.6467167"><ele>834.0</ele><time>2026-05-02T15:07:25.719Z</time></trkpt><trkpt lat="42.8096717" lon="11.6466533"><ele>834.0</ele><time>2026-05-02T15:07:26.718Z</time></trkpt><trkpt lat="42.8095583" lon="11.6465667"><ele>834.0</ele><time>2026-05-02T15:07:27.718Z</time></trkpt><trkpt lat="42.8094467" lon="11.6464617"><ele>834.0</ele><time>2026-05-02T15:07:28.718Z</time></trkpt><trkpt lat="42.8093417" lon="11.6463667"><ele>834.0</ele><time>2026-05-02T15:07:29.721Z</time></trkpt><trkpt lat="42.8092367" lon="11.6462733"><ele>835.5</ele><time>2026-05-02T15:07:30.719Z</time></trkpt><trkpt lat="42.80913" lon="11.6461767"><ele>837.0</ele><time>2026-05-02T15:07:31.721Z</time></trkpt><trkpt lat="42.8090233" lon="11.646095"><ele>838.5</ele><time>2026-05-02T15:07:32.718Z</time></trkpt><trkpt lat="42.808915" lon="11.6460367"><ele>840.0</ele><time>2026-05-02T15:07:33.722Z</time></trkpt><trkpt lat="42.8088033" lon="11.6460117"><ele>838.5</ele><time>2026-05-02T15:07:34.719Z</time></trkpt><trkpt lat="42.8086883" lon="11.6460217"><ele>837.0</ele><time>2026-05-02T15:07:35.723Z</time></trkpt><trkpt lat="42.8085833" lon="11.6460783"><ele>835.5</ele><time>2026-05-02T15:07:36.721Z</time></trkpt><trkpt lat="42.8084833" lon="11.6461717"><ele>834.0</ele><time>2026-05-02T15:07:37.721Z</time></trkpt><trkpt lat="42.8083967" lon="11.6463083"><ele>834.0</ele><time>2026-05-02T15:07:38.722Z</time></trkpt><trkpt lat="42.8083117" lon="11.6464467"><ele>834.0</ele><time>2026-05-02T15:07:39.721Z</time></trkpt><trkpt lat="42.8082267" lon="11.6465783"><ele>834.0</ele><time>2026-05-02T15:07:40.721Z</time></trkpt><trkpt lat="42.80814" lon="11.6467067"><ele>834.0</ele><time>2026-05-02T15:07:41.719Z</time></trkpt><trkpt lat="42.80806" lon="11.6468317"><ele>834.0</ele><time>2026-05-02T15:07:42.72Z</time></trkpt><trkpt lat="42.8079783" lon="11.646945"><ele>834.0</ele><time>2026-05-02T15:07:43.721Z</time></trkpt><trkpt lat="42.8078867" lon="11.64705"><ele>834.0</ele><time>2026-05-02T15:07:44.722Z</time></trkpt><trkpt lat="42.807785" lon="11.6471417"><ele>834.0</ele><time>2026-05-02T15:07:45.721Z</time></trkpt><trkpt lat="42.807675" lon="11.6472233"><ele>832.0</ele><time>2026-05-02T15:07:46.721Z</time></trkpt><trkpt lat="42.80757" lon="11.647305"><ele>830.0</ele><time>2026-05-02T15:07:47.721Z</time></trkpt><trkpt lat="42.8074733" lon="11.647395"><ele>828.0</ele><time>2026-05-02T15:07:48.718Z</time></trkpt><trkpt lat="42.8073867" lon="11.647505"><ele>826.0</ele><time>2026-05-02T15:07:49.718Z</time></trkpt><trkpt lat="42.8073183" lon="11.647635"><ele>826.0</ele><time>2026-05-02T15:07:50.721Z</time></trkpt><trkpt lat="42.8072617" lon="11.64776"><ele>826.0</ele><time>2026-05-02T15:07:51.719Z</time></trkpt><trkpt lat="42.80722" lon="11.6478767"><ele>826.0</ele><time>2026-05-02T15:07:52.718Z</time></trkpt><trkpt lat="42.8071917" lon="11.6479733"><ele>826.0</ele><time>2026-05-02T15:07:53.718Z</time></trkpt><trkpt lat="42.80716" lon="11.6480917"><ele>826.0</ele><time>2026-05-02T15:07:55.721Z</time></trkpt><trkpt lat="42.807145" lon="11.6479867"><ele>825.9999999999999</ele><time>2026-05-02T15:08:09.721Z</time></trkpt><trkpt lat="42.8071517" lon="11.6478833"><ele>826.0</ele><time>2026-05-02T15:08:11.718Z</time></trkpt><trkpt lat="42.8071483" lon="11.6477283"><ele>826.0</ele><time>2026-05-02T15:08:13.718Z</time></trkpt><trkpt lat="42.8071467" lon="11.6476317"><ele>826.0</ele><time>2026-05-02T15:08:14.719Z</time></trkpt><trkpt lat="42.8071517" lon="11.6475333"><ele>825.9999999999999</ele><time>2026-05-02T15:08:15.719Z</time></trkpt><trkpt lat="42.8071633" lon="11.6474433"><ele>826.0</ele><time>2026-05-02T15:08:16.718Z</time></trkpt><trkpt lat="42.8071917" lon="11.6472817"><ele>826.0</ele><time>2026-05-02T15:08:18.719Z</time></trkpt><trkpt lat="42.8072167" lon="11.6471267"><ele>826.0</ele><time>2026-05-02T15:08:20.718Z</time></trkpt><trkpt lat="42.8072767" lon="11.6469867"><ele>826.0</ele><time>2026-05-02T15:08:22.721Z</time></trkpt><trkpt lat="42.8073217" lon="11.64685"><ele>826.0</ele><time>2026-05-02T15:08:24.718Z</time></trkpt><trkpt lat="42.80734" lon="11.64671"><ele>824.0</ele><time>2026-05-02T15:08:26.72Z</time></trkpt><trkpt lat="42.8073333" lon="11.6465583"><ele>822.0</ele><time>2026-05-02T15:08:28.718Z</time></trkpt><trkpt lat="42.8073283" lon="11.646405"><ele>820.0</ele><time>2026-05-02T15:08:30.718Z</time></trkpt><trkpt lat="42.80735" lon="11.6462233"><ele>818.0</ele><time>2026-05-02T15:08:32.718Z</time></trkpt><trkpt lat="42.80737" lon="11.6461333"><ele>816.0</ele><time>2026-05-02T15:08:33.718Z</time></trkpt><trkpt lat="42.8073917" lon="11.6460433"><ele>813.8333333333334</ele><time>2026-05-02T15:08:34.719Z</time></trkpt><trkpt lat="42.807415" lon="11.6459517"><ele>811.6666666666667</ele><time>2026-05-02T15:08:35.718Z</time></trkpt><trkpt lat="42.8074217" lon="11.6458633"><ele>809.5</ele><time>2026-05-02T15:08:36.718Z</time></trkpt><trkpt lat="42.8074617" lon="11.6457117"><ele>807.3333333333334</ele><time>2026-05-02T15:08:38.718Z</time></trkpt><trkpt lat="42.8074783" lon="11.6456233"><ele>805.1666666666667</ele><time>2026-05-02T15:08:39.722Z</time></trkpt><trkpt lat="42.8074883" lon="11.6455367"><ele>803.0</ele><time>2026-05-02T15:08:40.718Z</time></trkpt><trkpt lat="42.8074983" lon="11.64537"><ele>801.5000000000001</ele><time>2026-05-02T15:08:42.719Z</time></trkpt><trkpt lat="42.8074933" lon="11.6452183"><ele>800.0</ele><time>2026-05-02T15:08:44.719Z</time></trkpt><trkpt lat="42.8074833" lon="11.6450617"><ele>798.5</ele><time>2026-05-02T15:08:46.718Z</time></trkpt><trkpt lat="42.8074667" lon="11.644975"><ele>797.0</ele><time>2026-05-02T15:08:47.718Z</time></trkpt><trkpt lat="42.80745" lon="11.644875"><ele>795.5000000000001</ele><time>2026-05-02T15:08:48.719Z</time></trkpt><trkpt lat="42.8074333" lon="11.6447667"><ele>794.0</ele><time>2026-05-02T15:08:49.719Z</time></trkpt><trkpt lat="42.80741" lon="11.64466"><ele>794.0</ele><time>2026-05-02T15:08:50.718Z</time></trkpt><trkpt lat="42.8073883" lon="11.6445583"><ele>794.0</ele><time>2026-05-02T15:08:51.72Z</time></trkpt><trkpt lat="42.8073667" lon="11.64446"><ele>794.0</ele><time>2026-05-02T15:08:52.718Z</time></trkpt><trkpt lat="42.8073517" lon="11.6443633"><ele>794.0</ele><time>2026-05-02T15:08:53.719Z</time></trkpt><trkpt lat="42.8073417" lon="11.6442683"><ele>794.0</ele><time>2026-05-02T15:08:54.719Z</time></trkpt><trkpt lat="42.8073383" lon="11.6441783"><ele>794.0</ele><time>2026-05-02T15:08:55.719Z</time></trkpt><trkpt lat="42.8073633" lon="11.6440867"><ele>794.0</ele><time>2026-05-02T15:08:56.721Z</time></trkpt><trkpt lat="42.8073917" lon="11.6439933"><ele>793.5000000000001</ele><time>2026-05-02T15:08:57.721Z</time></trkpt><trkpt lat="42.8074267" lon="11.6438933"><ele>793.0</ele><time>2026-05-02T15:08:58.719Z</time></trkpt><trkpt lat="42.8074733" lon="11.643795"><ele>792.5</ele><time>2026-05-02T15:08:59.718Z</time></trkpt><trkpt lat="42.8075167" lon="11.6437017"><ele>792.0</ele><time>2026-05-02T15:09:00.726Z</time></trkpt><trkpt lat="42.80757" lon="11.6436117"><ele>791.5000000000001</ele><time>2026-05-02T15:09:01.723Z</time></trkpt><trkpt lat="42.8076233" lon="11.6435233"><ele>791.0</ele><time>2026-05-02T15:09:02.719Z</time></trkpt><trkpt lat="42.8076767" lon="11.64344"><ele>790.4285714285714</ele><time>2026-05-02T15:09:03.722Z</time></trkpt><trkpt lat="42.8077267" lon="11.643365"><ele>789.8571428571429</ele><time>2026-05-02T15:09:04.721Z</time></trkpt><trkpt lat="42.8077783" lon="11.643285"><ele>789.2857142857142</ele><time>2026-05-02T15:09:05.719Z</time></trkpt><trkpt lat="42.8078333" lon="11.64321"><ele>788.7142857142858</ele><time>2026-05-02T15:09:06.721Z</time></trkpt><trkpt lat="42.8078917" lon="11.6431483"><ele>788.1428571428571</ele><time>2026-05-02T15:09:07.718Z</time></trkpt><trkpt lat="42.8079517" lon="11.6430917"><ele>787.5714285714286</ele><time>2026-05-02T15:09:08.718Z</time></trkpt><trkpt lat="42.8080083" lon="11.6430383"><ele>787.0</ele><time>2026-05-02T15:09:09.718Z</time></trkpt><trkpt lat="42.8080583" lon="11.6429833"><ele>787.0</ele><time>2026-05-02T15:09:10.719Z</time></trkpt><trkpt lat="42.8081483" lon="11.64286"><ele>787.0</ele><time>2026-05-02T15:09:12.722Z</time></trkpt><trkpt lat="42.80821" lon="11.642715"><ele>787.0</ele><time>2026-05-02T15:09:14.722Z</time></trkpt><trkpt lat="42.808235" lon="11.642635"><ele>787.0</ele><time>2026-05-02T15:09:15.721Z</time></trkpt><trkpt lat="42.8082783" lon="11.6424817"><ele>787.0</ele><time>2026-05-02T15:09:17.718Z</time></trkpt><trkpt lat="42.8082967" lon="11.64232"><ele>784.8</ele><time>2026-05-02T15:09:19.718Z</time></trkpt><trkpt lat="42.80828" lon="11.6421717"><ele>782.6</ele><time>2026-05-02T15:09:21.722Z</time></trkpt><trkpt lat="42.808265" lon="11.6420233"><ele>780.4</ele><time>2026-05-02T15:09:23.718Z</time></trkpt><trkpt lat="42.808285" lon="11.64189"><ele>778.1999999999999</ele><time>2026-05-02T15:09:25.718Z</time></trkpt><trkpt lat="42.8083367" lon="11.6417683"><ele>776.0</ele><time>2026-05-02T15:09:27.718Z</time></trkpt><trkpt lat="42.80842" lon="11.6416833"><ele>774.8</ele><time>2026-05-02T15:09:29.719Z</time></trkpt><trkpt lat="42.8085133" lon="11.6416283"><ele>773.5999999999999</ele><time>2026-05-02T15:09:31.719Z</time></trkpt><trkpt lat="42.8086233" lon="11.6416"><ele>772.4</ele><time>2026-05-02T15:09:33.718Z</time></trkpt><trkpt lat="42.808735" lon="11.64158"><ele>771.2</ele><time>2026-05-02T15:09:35.718Z</time></trkpt><trkpt lat="42.8087983" lon="11.6415733"><ele>770.0</ele><time>2026-05-02T15:09:36.718Z</time></trkpt><trkpt lat="42.8088617" lon="11.64157"><ele>770.0</ele><time>2026-05-02T15:09:37.72Z</time></trkpt><trkpt lat="42.808975" lon="11.6415683"><ele>770.0</ele><time>2026-05-02T15:09:39.719Z</time></trkpt><trkpt lat="42.8090817" lon="11.6415717"><ele>770.0</ele><time>2026-05-02T15:09:41.719Z</time></trkpt><trkpt lat="42.8091767" lon="11.6415483"><ele>770.0</ele><time>2026-05-02T15:09:43.718Z</time></trkpt><trkpt lat="42.8092667" lon="11.6414833"><ele>770.0</ele><time>2026-05-02T15:09:45.718Z</time></trkpt><trkpt lat="42.8093467" lon="11.6413933"><ele>770.8</ele><time>2026-05-02T15:09:47.718Z</time></trkpt><trkpt lat="42.8094367" lon="11.6413233"><ele>771.6</ele><time>2026-05-02T15:09:49.719Z</time></trkpt><trkpt lat="42.8095083" lon="11.64126"><ele>772.4000000000001</ele><time>2026-05-02T15:09:51.719Z</time></trkpt><trkpt lat="42.80958" lon="11.6411817"><ele>773.2</ele><time>2026-05-02T15:09:53.719Z</time></trkpt><trkpt lat="42.8096367" lon="11.641075"><ele>774.0</ele><time>2026-05-02T15:09:55.72Z</time></trkpt><trkpt lat="42.8096917" lon="11.6409433"><ele>772.0</ele><time>2026-05-02T15:09:57.719Z</time></trkpt><trkpt lat="42.8097517" lon="11.640815"><ele>770.0</ele><time>2026-05-02T15:09:59.718Z</time></trkpt><trkpt lat="42.8098333" lon="11.6407117"><ele>768.0</ele><time>2026-05-02T15:10:01.719Z</time></trkpt><trkpt lat="42.809925" lon="11.6406417"><ele>766.0</ele><time>2026-05-02T15:10:03.719Z</time></trkpt><trkpt lat="42.8100383" lon="11.6406017"><ele>764.0</ele><time>2026-05-02T15:10:05.721Z</time></trkpt><trkpt lat="42.810155" lon="11.640565"><ele>763.5</ele><time>2026-05-02T15:10:07.718Z</time></trkpt><trkpt lat="42.8102817" lon="11.6405267"><ele>763.0</ele><time>2026-05-02T15:10:09.718Z</time></trkpt><trkpt lat="42.810405" lon="11.6404867"><ele>762.5</ele><time>2026-05-02T15:10:11.721Z</time></trkpt><trkpt lat="42.810465" lon="11.6404583"><ele>762.0</ele><time>2026-05-02T15:10:12.721Z</time></trkpt><trkpt lat="42.8105233" lon="11.6404233"><ele>761.5</ele><time>2026-05-02T15:10:13.722Z</time></trkpt><trkpt lat="42.8105833" lon="11.6403867"><ele>761.0</ele><time>2026-05-02T15:10:14.719Z</time></trkpt><trkpt lat="42.8106467" lon="11.6403517"><ele>761.0</ele><time>2026-05-02T15:10:15.719Z</time></trkpt><trkpt lat="42.8107083" lon="11.6403167"><ele>761.0</ele><time>2026-05-02T15:10:16.722Z</time></trkpt><trkpt lat="42.81077" lon="11.6402933"><ele>761.0</ele><time>2026-05-02T15:10:17.721Z</time></trkpt><trkpt lat="42.810885" lon="11.6402467"><ele>761.0</ele><time>2026-05-02T15:10:19.718Z</time></trkpt><trkpt lat="42.8109983" lon="11.6402017"><ele>761.0</ele><time>2026-05-02T15:10:21.719Z</time></trkpt><trkpt lat="42.81106" lon="11.64018"><ele>761.0</ele><time>2026-05-02T15:10:22.719Z</time></trkpt><trkpt lat="42.8111217" lon="11.6401583"><ele>756.0</ele><time>2026-05-02T15:10:23.719Z</time></trkpt><trkpt lat="42.8112433" lon="11.6401167"><ele>751.0</ele><time>2026-05-02T15:10:25.719Z</time></trkpt><trkpt lat="42.81136" lon="11.6401267"><ele>746.0</ele><time>2026-05-02T15:10:27.718Z</time></trkpt><trkpt lat="42.8114867" lon="11.6401883"><ele>741.0</ele><time>2026-05-02T15:10:29.718Z</time></trkpt><trkpt lat="42.8115533" lon="11.64023"><ele>741.0</ele><time>2026-05-02T15:10:30.719Z</time></trkpt><trkpt lat="42.8116117" lon="11.6402717"><ele>741.0</ele><time>2026-05-02T15:10:31.718Z</time></trkpt><trkpt lat="42.8116717" lon="11.6403217"><ele>741.0</ele><time>2026-05-02T15:10:32.719Z</time></trkpt><trkpt lat="42.8117333" lon="11.6403733"><ele>741.0</ele><time>2026-05-02T15:10:33.718Z</time></trkpt><trkpt lat="42.8117917" lon="11.6404217"><ele>741.0</ele><time>2026-05-02T15:10:34.719Z</time></trkpt><trkpt lat="42.8118483" lon="11.6404733"><ele>741.0</ele><time>2026-05-02T15:10:35.718Z</time></trkpt><trkpt lat="42.8119033" lon="11.64052"><ele>741.0</ele><time>2026-05-02T15:10:36.719Z</time></trkpt><trkpt lat="42.8119617" lon="11.6405583"><ele>742.4</ele><time>2026-05-02T15:10:37.718Z</time></trkpt><trkpt lat="42.8120767" lon="11.6405833"><ele>743.8</ele><time>2026-05-02T15:10:39.719Z</time></trkpt><trkpt lat="42.8121767" lon="11.6405483"><ele>745.1999999999999</ele><time>2026-05-02T15:10:41.719Z</time></trkpt><trkpt lat="42.8122483" lon="11.6404717"><ele>746.5999999999999</ele><time>2026-05-02T15:10:43.719Z</time></trkpt><trkpt lat="42.8123" lon="11.6403417"><ele>748.0</ele><time>2026-05-02T15:10:45.719Z</time></trkpt><trkpt lat="42.812325" lon="11.6401817"><ele>748.0</ele><time>2026-05-02T15:10:47.719Z</time></trkpt><trkpt lat="42.8123233" lon="11.6400917"><ele>748.0</ele><time>2026-05-02T15:10:48.719Z</time></trkpt><trkpt lat="42.812305" lon="11.639925"><ele>748.0</ele><time>2026-05-02T15:10:50.719Z</time></trkpt><trkpt lat="42.812285" lon="11.6397567"><ele>748.0</ele><time>2026-05-02T15:10:52.718Z</time></trkpt><trkpt lat="42.81228" lon="11.6396667"><ele>748.0</ele><time>2026-05-02T15:10:53.718Z</time></trkpt><trkpt lat="42.812295" lon="11.6395"><ele>748.0</ele><time>2026-05-02T15:10:55.719Z</time></trkpt><trkpt lat="42.812315" lon="11.63941"><ele>748.0</ele><time>2026-05-02T15:10:56.719Z</time></trkpt><trkpt lat="42.81235" lon="11.639315"><ele>748.0</ele><time>2026-05-02T15:10:57.718Z</time></trkpt><trkpt lat="42.8123867" lon="11.6392267"><ele>748.0</ele><time>2026-05-02T15:10:58.719Z</time></trkpt><trkpt lat="42.8124217" lon="11.6391433"><ele>748.0</ele><time>2026-05-02T15:10:59.719Z</time></trkpt><trkpt lat="42.812455" lon="11.639055"><ele>748.0</ele><time>2026-05-02T15:11:00.719Z</time></trkpt><trkpt lat="42.8124883" lon="11.638975"><ele>748.0</ele><time>2026-05-02T15:11:01.719Z</time></trkpt><trkpt lat="42.812525" lon="11.6389033"><ele>748.0</ele><time>2026-05-02T15:11:02.72Z</time></trkpt><trkpt lat="42.8125617" lon="11.6388267"><ele>748.0</ele><time>2026-05-02T15:11:03.721Z</time></trkpt><trkpt lat="42.8126117" lon="11.6386867"><ele>748.0</ele><time>2026-05-02T15:11:05.721Z</time></trkpt><trkpt lat="42.8126183" lon="11.638535"><ele>748.0</ele><time>2026-05-02T15:11:07.721Z</time></trkpt><trkpt lat="42.8125617" lon="11.63838"><ele>748.0</ele><time>2026-05-02T15:11:09.721Z</time></trkpt><trkpt lat="42.8125367" lon="11.63829"><ele>748.0</ele><time>2026-05-02T15:11:10.721Z</time></trkpt><trkpt lat="42.8125083" lon="11.638205"><ele>748.0</ele><time>2026-05-02T15:11:11.721Z</time></trkpt><trkpt lat="42.8124833" lon="11.6381117"><ele>748.0</ele><time>2026-05-02T15:11:12.718Z</time></trkpt><trkpt lat="42.812465" lon="11.6380183"><ele>748.0</ele><time>2026-05-02T15:11:13.72Z</time></trkpt><trkpt lat="42.81245" lon="11.6379283"><ele>748.0</ele><time>2026-05-02T15:11:14.722Z</time></trkpt><trkpt lat="42.8124283" lon="11.6378367"><ele>748.0</ele><time>2026-05-02T15:11:15.719Z</time></trkpt><trkpt lat="42.8124" lon="11.6377533"><ele>748.0</ele><time>2026-05-02T15:11:16.722Z</time></trkpt><trkpt lat="42.8123717" lon="11.6376667"><ele>749.4285714285714</ele><time>2026-05-02T15:11:17.719Z</time></trkpt><trkpt lat="42.8123367" lon="11.6375883"><ele>750.8571428571429</ele><time>2026-05-02T15:11:18.719Z</time></trkpt><trkpt lat="42.8122933" lon="11.6375167"><ele>752.2857142857143</ele><time>2026-05-02T15:11:19.718Z</time></trkpt><trkpt lat="42.8122433" lon="11.6374567"><ele>753.7142857142858</ele><time>2026-05-02T15:11:20.719Z</time></trkpt><trkpt lat="42.8121783" lon="11.6374117"><ele>755.1428571428571</ele><time>2026-05-02T15:11:21.719Z</time></trkpt><trkpt lat="42.81211" lon="11.6373783"><ele>756.5714285714287</ele><time>2026-05-02T15:11:22.718Z</time></trkpt><trkpt lat="42.812035" lon="11.6373583"><ele>758.0</ele><time>2026-05-02T15:11:23.719Z</time></trkpt><trkpt lat="42.8119617" lon="11.6373467"><ele>758.0</ele><time>2026-05-02T15:11:24.719Z</time></trkpt><trkpt lat="42.8118933" lon="11.6373317"><ele>758.0</ele><time>2026-05-02T15:11:25.722Z</time></trkpt><trkpt lat="42.811825" lon="11.637325"><ele>758.0</ele><time>2026-05-02T15:11:26.722Z</time></trkpt><trkpt lat="42.811755" lon="11.6373083"><ele>758.0</ele><time>2026-05-02T15:11:27.722Z</time></trkpt><trkpt lat="42.8116333" lon="11.637245"><ele>758.0</ele><time>2026-05-02T15:11:29.722Z</time></trkpt><trkpt lat="42.8115733" lon="11.6371883"><ele>758.0</ele><time>2026-05-02T15:11:30.722Z</time></trkpt><trkpt lat="42.811515" lon="11.637125"><ele>758.8333333333333</ele><time>2026-05-02T15:11:31.718Z</time></trkpt><trkpt lat="42.8114567" lon="11.6370633"><ele>759.6666666666666</ele><time>2026-05-02T15:11:32.719Z</time></trkpt><trkpt lat="42.8113983" lon="11.6370033"><ele>760.5</ele><time>2026-05-02T15:11:33.718Z</time></trkpt><trkpt lat="42.8113433" lon="11.636945"><ele>761.3333333333334</ele><time>2026-05-02T15:11:34.719Z</time></trkpt><trkpt lat="42.8112933" lon="11.636885"><ele>762.1666666666667</ele><time>2026-05-02T15:11:35.72Z</time></trkpt><trkpt lat="42.8112117" lon="11.63675"><ele>763.0</ele><time>2026-05-02T15:11:37.719Z</time></trkpt><trkpt lat="42.81117" lon="11.6366733"><ele>763.0</ele><time>2026-05-02T15:11:38.719Z</time></trkpt><trkpt lat="42.81113" lon="11.636585"><ele>763.0</ele><time>2026-05-02T15:11:39.719Z</time></trkpt><trkpt lat="42.8110867" lon="11.6364933"><ele>763.0</ele><time>2026-05-02T15:11:40.718Z</time></trkpt><trkpt lat="42.8110433" lon="11.6363967"><ele>763.0</ele><time>2026-05-02T15:11:41.722Z</time></trkpt><trkpt lat="42.8109967" lon="11.636305"><ele>763.0</ele><time>2026-05-02T15:11:42.722Z</time></trkpt><trkpt lat="42.8109417" lon="11.6362217"><ele>763.0</ele><time>2026-05-02T15:11:43.719Z</time></trkpt><trkpt lat="42.8108867" lon="11.6361433"><ele>762.5714285714286</ele><time>2026-05-02T15:11:44.719Z</time></trkpt><trkpt lat="42.8108333" lon="11.63607"><ele>762.1428571428571</ele><time>2026-05-02T15:11:45.722Z</time></trkpt><trkpt lat="42.8107733" lon="11.6360067"><ele>761.7142857142858</ele><time>2026-05-02T15:11:46.719Z</time></trkpt><trkpt lat="42.8107117" lon="11.6359567"><ele>761.2857142857142</ele><time>2026-05-02T15:11:47.722Z</time></trkpt><trkpt lat="42.8106567" lon="11.6359083"><ele>760.8571428571429</ele><time>2026-05-02T15:11:48.719Z</time></trkpt><trkpt lat="42.810605" lon="11.6358583"><ele>760.4285714285714</ele><time>2026-05-02T15:11:49.719Z</time></trkpt><trkpt lat="42.8105567" lon="11.6357967"><ele>760.0</ele><time>2026-05-02T15:11:50.722Z</time></trkpt><trkpt lat="42.81051" lon="11.6357233"><ele>760.0</ele><time>2026-05-02T15:11:51.723Z</time></trkpt><trkpt lat="42.8104667" lon="11.63565"><ele>760.0</ele><time>2026-05-02T15:11:52.722Z</time></trkpt><trkpt lat="42.8104333" lon="11.6355733"><ele>760.0</ele><time>2026-05-02T15:11:53.722Z</time></trkpt><trkpt lat="42.81042" lon="11.6354867"><ele>760.0</ele><time>2026-05-02T15:11:54.722Z</time></trkpt><trkpt lat="42.8103933" lon="11.635325"><ele>760.0</ele><time>2026-05-02T15:11:56.722Z</time></trkpt><trkpt lat="42.8103167" lon="11.6352267"><ele>760.0</ele><time>2026-05-02T15:11:58.722Z</time></trkpt><trkpt lat="42.8102" lon="11.6351833"><ele>758.1666666666667</ele><time>2026-05-02T15:12:00.722Z</time></trkpt><trkpt lat="42.81013" lon="11.6351767"><ele>756.3333333333334</ele><time>2026-05-02T15:12:01.722Z</time></trkpt><trkpt lat="42.810065" lon="11.6351583"><ele>754.5</ele><time>2026-05-02T15:12:02.721Z</time></trkpt><trkpt lat="42.8100033" lon="11.6351333"><ele>752.6666666666666</ele><time>2026-05-02T15:12:03.719Z</time></trkpt><trkpt lat="42.8099083" lon="11.6350717"><ele>750.8333333333333</ele><time>2026-05-02T15:12:05.718Z</time></trkpt><trkpt lat="42.8098367" lon="11.63495"><ele>749.0</ele><time>2026-05-02T15:12:07.719Z</time></trkpt><trkpt lat="42.8098167" lon="11.6348667"><ele>749.0</ele><time>2026-05-02T15:12:08.719Z</time></trkpt><trkpt lat="42.8097683" lon="11.6347117"><ele>749.0</ele><time>2026-05-02T15:12:10.722Z</time></trkpt><trkpt lat="42.80971" lon="11.634555"><ele>749.0</ele><time>2026-05-02T15:12:12.722Z</time></trkpt><trkpt lat="42.8096517" lon="11.6344183"><ele>749.0</ele><time>2026-05-02T15:12:14.722Z</time></trkpt><trkpt lat="42.8096367" lon="11.6342833"><ele>748.8000000000001</ele><time>2026-05-02T15:12:16.718Z</time></trkpt><trkpt lat="42.809665" lon="11.6341483"><ele>748.6</ele><time>2026-05-02T15:12:18.721Z</time></trkpt><trkpt lat="42.8097183" lon="11.634085"><ele>748.4</ele><time>2026-05-02T15:12:19.722Z</time></trkpt><trkpt lat="42.8098033" lon="11.63397"><ele>748.2</ele><time>2026-05-02T15:12:21.721Z</time></trkpt><trkpt lat="42.8098567" lon="11.6338433"><ele>748.0</ele><time>2026-05-02T15:12:23.721Z</time></trkpt><trkpt lat="42.8098617" lon="11.6337033"><ele>748.4</ele><time>2026-05-02T15:12:25.719Z</time></trkpt><trkpt lat="42.809815" lon="11.63357"><ele>748.8</ele><time>2026-05-02T15:12:27.722Z</time></trkpt><trkpt lat="42.8097533" lon="11.6334217"><ele>749.2</ele><time>2026-05-02T15:12:29.719Z</time></trkpt><trkpt lat="42.8096933" lon="11.63332"><ele>749.6</ele><time>2026-05-02T15:12:31.719Z</time></trkpt><trkpt lat="42.809635" lon="11.63327"><ele>750.0</ele><time>2026-05-02T15:12:33.722Z</time></trkpt><trkpt lat="42.8095667" lon="11.6332017"><ele>750.0</ele><time>2026-05-02T15:12:36.723Z</time></trkpt><trkpt lat="42.8095267" lon="11.6331317"><ele>750.0</ele><time>2026-05-02T15:12:39.722Z</time></trkpt><trkpt lat="42.8094467" lon="11.6330533"><ele>750.0</ele><time>2026-05-02T15:12:41.723Z</time></trkpt><trkpt lat="42.8093483" lon="11.63297"><ele>750.0</ele><time>2026-05-02T15:12:43.722Z</time></trkpt><trkpt lat="42.80927" lon="11.63288"><ele>750.0</ele><time>2026-05-02T15:12:45.722Z</time></trkpt><trkpt lat="42.8092383" lon="11.632755"><ele>745.6</ele><time>2026-05-02T15:12:47.722Z</time></trkpt><trkpt lat="42.80922" lon="11.63261"><ele>741.2</ele><time>2026-05-02T15:12:49.723Z</time></trkpt><trkpt lat="42.8092167" lon="11.6324533"><ele>736.8</ele><time>2026-05-02T15:12:51.719Z</time></trkpt><trkpt lat="42.8092083" lon="11.6322983"><ele>732.4</ele><time>2026-05-02T15:12:53.718Z</time></trkpt><trkpt lat="42.8092033" lon="11.63215"><ele>728.0</ele><time>2026-05-02T15:12:55.722Z</time></trkpt><trkpt lat="42.8092117" lon="11.632015"><ele>726.5999999999999</ele><time>2026-05-02T15:12:57.722Z</time></trkpt><trkpt lat="42.809265" lon="11.63189"><ele>725.1999999999999</ele><time>2026-05-02T15:12:59.722Z</time></trkpt><trkpt lat="42.80934" lon="11.631785"><ele>723.8</ele><time>2026-05-02T15:13:01.722Z</time></trkpt><trkpt lat="42.8094217" lon="11.631685"><ele>722.4</ele><time>2026-05-02T15:13:03.72Z</time></trkpt><trkpt lat="42.8094933" lon="11.6315933"><ele>721.0</ele><time>2026-05-02T15:13:05.722Z</time></trkpt><trkpt lat="42.80952" lon="11.6314667"><ele>723.1999999999999</ele><time>2026-05-02T15:13:07.72Z</time></trkpt><trkpt lat="42.8095083" lon="11.6313283"><ele>725.4</ele><time>2026-05-02T15:13:09.722Z</time></trkpt><trkpt lat="42.8094833" lon="11.6311983"><ele>727.6</ele><time>2026-05-02T15:13:11.719Z</time></trkpt><trkpt lat="42.8094567" lon="11.6310567"><ele>729.8</ele><time>2026-05-02T15:13:13.722Z</time></trkpt><trkpt lat="42.8094483" lon="11.6309067"><ele>732.0</ele><time>2026-05-02T15:13:15.722Z</time></trkpt><trkpt lat="42.8095" lon="11.6307667"><ele>732.0</ele><time>2026-05-02T15:13:17.723Z</time></trkpt><trkpt lat="42.8095583" lon="11.630645"><ele>732.0</ele><time>2026-05-02T15:13:19.719Z</time></trkpt><trkpt lat="42.809625" lon="11.6305167"><ele>732.0</ele><time>2026-05-02T15:13:21.719Z</time></trkpt><trkpt lat="42.8097033" lon="11.6304083"><ele>732.0</ele><time>2026-05-02T15:13:23.719Z</time></trkpt><trkpt lat="42.8097717" lon="11.6303033"><ele>732.0</ele><time>2026-05-02T15:13:25.723Z</time></trkpt><trkpt lat="42.8098317" lon="11.6302233"><ele>729.2</ele><time>2026-05-02T15:13:27.722Z</time></trkpt><trkpt lat="42.80988" lon="11.63014"><ele>726.4000000000001</ele><time>2026-05-02T15:13:29.722Z</time></trkpt><trkpt lat="42.80991" lon="11.63002"><ele>723.5999999999999</ele><time>2026-05-02T15:13:31.719Z</time></trkpt><trkpt lat="42.8099233" lon="11.6298917"><ele>720.8</ele><time>2026-05-02T15:13:33.719Z</time></trkpt><trkpt lat="42.8099333" lon="11.629765"><ele>718.0</ele><time>2026-05-02T15:13:35.72Z</time></trkpt><trkpt lat="42.80995" lon="11.6296117"><ele>716.75</ele><time>2026-05-02T15:13:37.719Z</time></trkpt><trkpt lat="42.809985" lon="11.6294567"><ele>715.5</ele><time>2026-05-02T15:13:39.719Z</time></trkpt><trkpt lat="42.8100333" lon="11.62931"><ele>714.25</ele><time>2026-05-02T15:13:41.719Z</time></trkpt><trkpt lat="42.810045" lon="11.6291617"><ele>713.0</ele><time>2026-05-02T15:13:43.721Z</time></trkpt><trkpt lat="42.8100117" lon="11.6289967"><ele>713.0</ele><time>2026-05-02T15:13:45.722Z</time></trkpt><trkpt lat="42.8099783" lon="11.6288467"><ele>713.0</ele><time>2026-05-02T15:13:47.722Z</time></trkpt><trkpt lat="42.8099533" lon="11.6286967"><ele>713.0</ele><time>2026-05-02T15:13:49.719Z</time></trkpt><trkpt lat="42.8099483" lon="11.6285567"><ele>713.0</ele><time>2026-05-02T15:13:51.719Z</time></trkpt><trkpt lat="42.8100017" lon="11.6284217"><ele>713.0</ele><time>2026-05-02T15:13:53.722Z</time></trkpt><trkpt lat="42.810095" lon="11.6283167"><ele>712.7142857142857</ele><time>2026-05-02T15:13:55.722Z</time></trkpt><trkpt lat="42.8101467" lon="11.6282667"><ele>712.4285714285714</ele><time>2026-05-02T15:13:56.725Z</time></trkpt><trkpt lat="42.8102017" lon="11.62822"><ele>712.1428571428571</ele><time>2026-05-02T15:13:57.722Z</time></trkpt><trkpt lat="42.8102583" lon="11.6281783"><ele>711.8571428571429</ele><time>2026-05-02T15:13:58.722Z</time></trkpt><trkpt lat="42.810315" lon="11.6281383"><ele>711.5714285714286</ele><time>2026-05-02T15:13:59.722Z</time></trkpt><trkpt lat="42.8104033" lon="11.6280633"><ele>711.2857142857143</ele><time>2026-05-02T15:14:01.722Z</time></trkpt><trkpt lat="42.8104633" lon="11.628005"><ele>711.0</ele><time>2026-05-02T15:14:03.719Z</time></trkpt><trkpt lat="42.810515" lon="11.627915"><ele>710.5</ele><time>2026-05-02T15:14:05.72Z</time></trkpt><trkpt lat="42.8105533" lon="11.6278383"><ele>710.0</ele><time>2026-05-02T15:14:07.721Z</time></trkpt><trkpt lat="42.8105617" lon="11.6277067"><ele>709.5</ele><time>2026-05-02T15:15:24.72Z</time></trkpt><trkpt lat="42.8105833" lon="11.627565"><ele>709.0</ele><time>2026-05-02T15:15:26.719Z</time></trkpt><trkpt lat="42.8106133" lon="11.6274433"><ele>708.5</ele><time>2026-05-02T15:15:28.72Z</time></trkpt><trkpt lat="42.810645" lon="11.6273517"><ele>708.0</ele><time>2026-05-02T15:15:30.722Z</time></trkpt><trkpt lat="42.81066" lon="11.62725"><ele>708.0</ele><time>2026-05-02T15:15:32.723Z</time></trkpt><trkpt lat="42.8106717" lon="11.627165"><ele>708.0</ele><time>2026-05-02T15:15:34.722Z</time></trkpt><trkpt lat="42.8106983" lon="11.6270567"><ele>708.0</ele><time>2026-05-02T15:15:37.719Z</time></trkpt><trkpt lat="42.81074" lon="11.62697"><ele>708.0</ele><time>2026-05-02T15:15:41.722Z</time></trkpt><trkpt lat="42.8107083" lon="11.6270583"><ele>708.0</ele><time>2026-05-02T15:17:34.726Z</time></trkpt><trkpt lat="42.810665" lon="11.6271983"><ele>708.0</ele><time>2026-05-02T15:17:36.722Z</time></trkpt><trkpt lat="42.8106267" lon="11.62736"><ele>708.0</ele><time>2026-05-02T15:17:38.721Z</time></trkpt><trkpt lat="42.8106" lon="11.627505"><ele>708.0</ele><time>2026-05-02T15:17:40.721Z</time></trkpt><trkpt lat="42.8105833" lon="11.6276483"><ele>708.0</ele><time>2026-05-02T15:17:42.721Z</time></trkpt><trkpt lat="42.810575" lon="11.6277833"><ele>708.0</ele><time>2026-05-02T15:17:44.721Z</time></trkpt><trkpt lat="42.81064" lon="11.62785"><ele>708.0</ele><time>2026-05-02T15:17:47.718Z</time></trkpt><trkpt lat="42.810755" lon="11.6278083"><ele>708.0</ele><time>2026-05-02T15:17:49.718Z</time></trkpt><trkpt lat="42.810825" lon="11.627785"><ele>708.0</ele><time>2026-05-02T15:17:50.718Z</time></trkpt><trkpt lat="42.810895" lon="11.62777"><ele>708.0</ele><time>2026-05-02T15:17:51.718Z</time></trkpt><trkpt lat="42.8109683" lon="11.6277567"><ele>708.0</ele><time>2026-05-02T15:17:52.719Z</time></trkpt><trkpt lat="42.8110383" lon="11.6277383"><ele>708.0</ele><time>2026-05-02T15:17:53.719Z</time></trkpt><trkpt lat="42.8111017" lon="11.62772"><ele>708.0</ele><time>2026-05-02T15:17:54.721Z</time></trkpt><trkpt lat="42.81122" lon="11.6276767"><ele>710.0</ele><time>2026-05-02T15:17:56.721Z</time></trkpt><trkpt lat="42.811335" lon="11.6276483"><ele>712.0</ele><time>2026-05-02T15:17:58.721Z</time></trkpt><trkpt lat="42.8113983" lon="11.6276417"><ele>714.0</ele><time>2026-05-02T15:17:59.722Z</time></trkpt><trkpt lat="42.8114617" lon="11.62763"><ele>716.0</ele><time>2026-05-02T15:18:00.722Z</time></trkpt><trkpt lat="42.8115267" lon="11.627625"><ele>718.0</ele><time>2026-05-02T15:18:01.721Z</time></trkpt><trkpt lat="42.8116517" lon="11.6276"><ele>720.0</ele><time>2026-05-02T15:18:03.722Z</time></trkpt><trkpt lat="42.811775" lon="11.6275567"><ele>723.4</ele><time>2026-05-02T15:18:05.721Z</time></trkpt><trkpt lat="42.8118933" lon="11.627505"><ele>726.8</ele><time>2026-05-02T15:18:07.721Z</time></trkpt><trkpt lat="42.8120117" lon="11.6274567"><ele>730.2</ele><time>2026-05-02T15:18:09.723Z</time></trkpt><trkpt lat="42.8120717" lon="11.627425"><ele>733.6</ele><time>2026-05-02T15:18:10.721Z</time></trkpt><trkpt lat="42.812175" lon="11.62734"><ele>737.0</ele><time>2026-05-02T15:18:12.722Z</time></trkpt><trkpt lat="42.8122483" lon="11.6272"><ele>737.0</ele><time>2026-05-02T15:18:14.721Z</time></trkpt><trkpt lat="42.8122817" lon="11.627115"><ele>737.0</ele><time>2026-05-02T15:18:15.721Z</time></trkpt><trkpt lat="42.8123167" lon="11.627035"><ele>737.0</ele><time>2026-05-02T15:18:16.721Z</time></trkpt><trkpt lat="42.812355" lon="11.626965"><ele>737.0</ele><time>2026-05-02T15:18:17.722Z</time></trkpt><trkpt lat="42.81241" lon="11.626865"><ele>737.0</ele><time>2026-05-02T15:18:19.721Z</time></trkpt><trkpt lat="42.8124967" lon="11.6268567"><ele>737.0</ele><time>2026-05-02T15:18:22.722Z</time></trkpt><trkpt lat="42.8125817" lon="11.6268967"><ele>735.6</ele><time>2026-05-02T15:18:24.721Z</time></trkpt><trkpt lat="42.8126783" lon="11.626905"><ele>734.2</ele><time>2026-05-02T15:18:26.721Z</time></trkpt><trkpt lat="42.8127833" lon="11.6268617"><ele>732.8</ele><time>2026-05-02T15:18:28.721Z</time></trkpt><trkpt lat="42.8128933" lon="11.6268033"><ele>731.4</ele><time>2026-05-02T15:18:30.722Z</time></trkpt><trkpt lat="42.81299" lon="11.62676"><ele>730.0</ele><time>2026-05-02T15:18:32.721Z</time></trkpt><trkpt lat="42.8130817" lon="11.6267283"><ele>730.0</ele><time>2026-05-02T15:18:34.721Z</time></trkpt><trkpt lat="42.8131867" lon="11.6266533"><ele>730.0</ele><time>2026-05-02T15:18:36.722Z</time></trkpt><trkpt lat="42.8132833" lon="11.6265733"><ele>730.0</ele><time>2026-05-02T15:18:38.721Z</time></trkpt><trkpt lat="42.8133867" lon="11.6264883"><ele>730.0</ele><time>2026-05-02T15:18:40.721Z</time></trkpt><trkpt lat="42.813445" lon="11.6264383"><ele>730.0</ele><time>2026-05-02T15:18:41.722Z</time></trkpt><trkpt lat="42.8135067" lon="11.6263833"><ele>731.2857142857143</ele><time>2026-05-02T15:18:42.721Z</time></trkpt><trkpt lat="42.8135717" lon="11.6263333"><ele>732.5714285714286</ele><time>2026-05-02T15:18:43.721Z</time></trkpt><trkpt lat="42.81364" lon="11.6262883"><ele>733.8571428571429</ele><time>2026-05-02T15:18:44.721Z</time></trkpt><trkpt lat="42.8137" lon="11.62624"><ele>735.1428571428571</ele><time>2026-05-02T15:18:45.721Z</time></trkpt><trkpt lat="42.8137517" lon="11.6261767"><ele>736.4285714285714</ele><time>2026-05-02T15:18:46.721Z</time></trkpt><trkpt lat="42.8138033" lon="11.6261083"><ele>737.7142857142858</ele><time>2026-05-02T15:18:47.718Z</time></trkpt><trkpt lat="42.81386" lon="11.6260333"><ele>739.0</ele><time>2026-05-02T15:18:48.721Z</time></trkpt><trkpt lat="42.813915" lon="11.625955"><ele>739.0</ele><time>2026-05-02T15:18:49.723Z</time></trkpt><trkpt lat="42.8139633" lon="11.6258833"><ele>739.0</ele><time>2026-05-02T15:18:50.721Z</time></trkpt><trkpt lat="42.814" lon="11.6258133"><ele>739.0</ele><time>2026-05-02T15:18:51.722Z</time></trkpt><trkpt lat="42.8140617" lon="11.6256783"><ele>739.0</ele><time>2026-05-02T15:18:53.722Z</time></trkpt><trkpt lat="42.81411" lon="11.62557"><ele>739.0</ele><time>2026-05-02T15:18:55.721Z</time></trkpt><trkpt lat="42.81416" lon="11.6254583"><ele>739.0</ele><time>2026-05-02T15:18:57.723Z</time></trkpt><trkpt lat="42.8142133" lon="11.62533"><ele>737.2</ele><time>2026-05-02T15:18:59.722Z</time></trkpt><trkpt lat="42.8142483" lon="11.625195"><ele>735.4000000000001</ele><time>2026-05-02T15:19:01.719Z</time></trkpt><trkpt lat="42.8142683" lon="11.625065"><ele>733.6</ele><time>2026-05-02T15:19:03.718Z</time></trkpt><trkpt lat="42.81427" lon="11.62493"><ele>731.8</ele><time>2026-05-02T15:19:05.718Z</time></trkpt><trkpt lat="42.81429" lon="11.6248083"><ele>730.0</ele><time>2026-05-02T15:19:07.718Z</time></trkpt><trkpt lat="42.814365" lon="11.6247283"><ele>728.6</ele><time>2026-05-02T15:19:09.719Z</time></trkpt><trkpt lat="42.8144683" lon="11.6246717"><ele>727.2</ele><time>2026-05-02T15:19:11.722Z</time></trkpt><trkpt lat="42.8145933" lon="11.6245933"><ele>725.8</ele><time>2026-05-02T15:19:13.718Z</time></trkpt><trkpt lat="42.81467" lon="11.624555"><ele>724.4</ele><time>2026-05-02T15:19:14.722Z</time></trkpt><trkpt lat="42.8147417" lon="11.6245183"><ele>723.0</ele><time>2026-05-02T15:19:15.719Z</time></trkpt><trkpt lat="42.814805" lon="11.624475"><ele>723.0</ele><time>2026-05-02T15:19:16.721Z</time></trkpt><trkpt lat="42.814865" lon="11.6244417"><ele>723.0</ele><time>2026-05-02T15:19:17.721Z</time></trkpt><trkpt lat="42.814965" lon="11.6243667"><ele>723.0</ele><time>2026-05-02T15:19:19.721Z</time></trkpt><trkpt lat="42.8150767" lon="11.624315"><ele>723.0</ele><time>2026-05-02T15:19:21.718Z</time></trkpt><trkpt lat="42.8151917" lon="11.624285"><ele>723.0</ele><time>2026-05-02T15:19:23.721Z</time></trkpt><trkpt lat="42.8152817" lon="11.62427"><ele>726.2</ele><time>2026-05-02T15:19:25.721Z</time></trkpt><trkpt lat="42.8153567" lon="11.624235"><ele>729.4</ele><time>2026-05-02T15:19:27.718Z</time></trkpt><trkpt lat="42.8154417" lon="11.6241817"><ele>732.6</ele><time>2026-05-02T15:19:29.721Z</time></trkpt><trkpt lat="42.81554" lon="11.62412"><ele>735.8000000000001</ele><time>2026-05-02T15:19:31.721Z</time></trkpt><trkpt lat="42.81563" lon="11.6240167"><ele>739.0</ele><time>2026-05-02T15:19:33.721Z</time></trkpt><trkpt lat="42.81567" lon="11.6239467"><ele>739.0</ele><time>2026-05-02T15:19:34.721Z</time></trkpt><trkpt lat="42.8157033" lon="11.6238667"><ele>739.0</ele><time>2026-05-02T15:19:35.721Z</time></trkpt><trkpt lat="42.8157317" lon="11.6237883"><ele>739.0</ele><time>2026-05-02T15:19:36.721Z</time></trkpt><trkpt lat="42.8157883" lon="11.6236417"><ele>739.0</ele><time>2026-05-02T15:19:38.721Z</time></trkpt><trkpt lat="42.8158633" lon="11.62351"><ele>739.0</ele><time>2026-05-02T15:19:40.721Z</time></trkpt><trkpt lat="42.8159117" lon="11.62345"><ele>739.0</ele><time>2026-05-02T15:19:41.721Z</time></trkpt><trkpt lat="42.8159667" lon="11.6233983"><ele>737.8333333333334</ele><time>2026-05-02T15:19:42.722Z</time></trkpt><trkpt lat="42.8160183" lon="11.6233467"><ele>736.6666666666667</ele><time>2026-05-02T15:19:43.722Z</time></trkpt><trkpt lat="42.8161167" lon="11.62325"><ele>735.5</ele><time>2026-05-02T15:19:45.721Z</time></trkpt><trkpt lat="42.8162133" lon="11.6231517"><ele>734.3333333333334</ele><time>2026-05-02T15:19:47.721Z</time></trkpt><trkpt lat="42.8162683" lon="11.6231067"><ele>733.1666666666666</ele><time>2026-05-02T15:19:48.723Z</time></trkpt><trkpt lat="42.816325" lon="11.6230617"><ele>732.0</ele><time>2026-05-02T15:19:49.721Z</time></trkpt><trkpt lat="42.8163867" lon="11.6230217"><ele>732.0</ele><time>2026-05-02T15:19:50.718Z</time></trkpt><trkpt lat="42.8164467" lon="11.6229833"><ele>732.0</ele><time>2026-05-02T15:19:51.722Z</time></trkpt><trkpt lat="42.8165067" lon="11.622945"><ele>732.0</ele><time>2026-05-02T15:19:52.718Z</time></trkpt><trkpt lat="42.8165717" lon="11.622915"><ele>732.0</ele><time>2026-05-02T15:19:53.721Z</time></trkpt><trkpt lat="42.8166317" lon="11.622885"><ele>732.0</ele><time>2026-05-02T15:19:54.722Z</time></trkpt><trkpt lat="42.816695" lon="11.6228567"><ele>732.0</ele><time>2026-05-02T15:19:55.722Z</time></trkpt><trkpt lat="42.8168" lon="11.622785"><ele>732.0</ele><time>2026-05-02T15:19:57.723Z</time></trkpt><trkpt lat="42.81686" lon="11.62269"><ele>732.0</ele><time>2026-05-02T15:19:59.718Z</time></trkpt><trkpt lat="42.816895" lon="11.6225233"><ele>732.0</ele><time>2026-05-02T15:20:01.722Z</time></trkpt><trkpt lat="42.8169117" lon="11.622425"><ele>732.0</ele><time>2026-05-02T15:20:02.721Z</time></trkpt><trkpt lat="42.8169267" lon="11.622325"><ele>732.0</ele><time>2026-05-02T15:20:03.722Z</time></trkpt><trkpt lat="42.8169433" lon="11.6222317"><ele>732.0</ele><time>2026-05-02T15:20:04.722Z</time></trkpt><trkpt lat="42.8169667" lon="11.6221367"><ele>732.0</ele><time>2026-05-02T15:20:05.722Z</time></trkpt><trkpt lat="42.8169933" lon="11.6220467"><ele>731.6666666666666</ele><time>2026-05-02T15:20:06.721Z</time></trkpt><trkpt lat="42.817015" lon="11.6219583"><ele>731.3333333333334</ele><time>2026-05-02T15:20:07.722Z</time></trkpt><trkpt lat="42.8170667" lon="11.6218"><ele>731.0</ele><time>2026-05-02T15:20:09.722Z</time></trkpt><trkpt lat="42.817095" lon="11.6217217"><ele>730.6666666666667</ele><time>2026-05-02T15:20:10.722Z</time></trkpt><trkpt lat="42.8171233" lon="11.6216367"><ele>730.3333333333334</ele><time>2026-05-02T15:20:11.722Z</time></trkpt><trkpt lat="42.8171533" lon="11.6215483"><ele>730.0</ele><time>2026-05-02T15:20:12.722Z</time></trkpt><trkpt lat="42.8171867" lon="11.621465"><ele>730.0000000000001</ele><time>2026-05-02T15:20:13.722Z</time></trkpt><trkpt lat="42.8172183" lon="11.6213817"><ele>730.0</ele><time>2026-05-02T15:20:14.719Z</time></trkpt><trkpt lat="42.8172483" lon="11.621305"><ele>730.0</ele><time>2026-05-02T15:20:15.722Z</time></trkpt><trkpt lat="42.8172883" lon="11.6212383"><ele>730.0</ele><time>2026-05-02T15:20:16.718Z</time></trkpt><trkpt lat="42.8173417" lon="11.6211817"><ele>730.0</ele><time>2026-05-02T15:20:17.718Z</time></trkpt><trkpt lat="42.8173967" lon="11.6211233"><ele>730.0000000000001</ele><time>2026-05-02T15:20:18.722Z</time></trkpt><trkpt lat="42.81745" lon="11.62105"><ele>730.0</ele><time>2026-05-02T15:20:19.722Z</time></trkpt><trkpt lat="42.8175033" lon="11.6209783"><ele>729.0</ele><time>2026-05-02T15:20:20.722Z</time></trkpt><trkpt lat="42.8175517" lon="11.62091"><ele>728.0</ele><time>2026-05-02T15:20:21.721Z</time></trkpt><trkpt lat="42.8176017" lon="11.620845"><ele>727.0</ele><time>2026-05-02T15:20:22.718Z</time></trkpt><trkpt lat="42.8176467" lon="11.6207817"><ele>726.0</ele><time>2026-05-02T15:20:23.722Z</time></trkpt><trkpt lat="42.817735" lon="11.6206733"><ele>725.0</ele><time>2026-05-02T15:20:25.722Z</time></trkpt><trkpt lat="42.817845" lon="11.62059"><ele>724.0</ele><time>2026-05-02T15:20:27.722Z</time></trkpt><trkpt lat="42.8179583" lon="11.6205317"><ele>724.0</ele><time>2026-05-02T15:20:29.722Z</time></trkpt><trkpt lat="42.818025" lon="11.62051"><ele>724.0</ele><time>2026-05-02T15:20:30.722Z</time></trkpt><trkpt lat="42.81809" lon="11.620485"><ele>724.0</ele><time>2026-05-02T15:20:31.723Z</time></trkpt><trkpt lat="42.8181583" lon="11.6204683"><ele>724.0</ele><time>2026-05-02T15:20:32.722Z</time></trkpt><trkpt lat="42.8182267" lon="11.6204483"><ele>724.0</ele><time>2026-05-02T15:20:33.722Z</time></trkpt><trkpt lat="42.81829" lon="11.6204333"><ele>724.0</ele><time>2026-05-02T15:20:34.722Z</time></trkpt><trkpt lat="42.8183533" lon="11.6204233"><ele>724.0</ele><time>2026-05-02T15:20:35.722Z</time></trkpt><trkpt lat="42.8184167" lon="11.62042"><ele>724.0</ele><time>2026-05-02T15:20:36.718Z</time></trkpt><trkpt lat="42.81848" lon="11.6204067"><ele>724.0</ele><time>2026-05-02T15:20:37.723Z</time></trkpt><trkpt lat="42.818605" lon="11.62037"><ele>724.0</ele><time>2026-05-02T15:20:39.719Z</time></trkpt><trkpt lat="42.81867" lon="11.6203417"><ele>724.0</ele><time>2026-05-02T15:20:40.722Z</time></trkpt><trkpt lat="42.8187333" lon="11.620305"><ele>724.0</ele><time>2026-05-02T15:20:41.723Z</time></trkpt><trkpt lat="42.8187967" lon="11.620265"><ele>724.0</ele><time>2026-05-02T15:20:42.722Z</time></trkpt><trkpt lat="42.818865" lon="11.6202217"><ele>724.6666666666667</ele><time>2026-05-02T15:20:43.722Z</time></trkpt><trkpt lat="42.8189267" lon="11.6201617"><ele>725.3333333333334</ele><time>2026-05-02T15:20:44.72Z</time></trkpt><trkpt lat="42.819025" lon="11.62005"><ele>726.0</ele><time>2026-05-02T15:20:46.722Z</time></trkpt><trkpt lat="42.8190617" lon="11.6199683"><ele>726.6666666666666</ele><time>2026-05-02T15:20:47.722Z</time></trkpt><trkpt lat="42.8190967" lon="11.6198783"><ele>727.3333333333333</ele><time>2026-05-02T15:20:48.718Z</time></trkpt><trkpt lat="42.8191383" lon="11.61979"><ele>728.0</ele><time>2026-05-02T15:20:49.72Z</time></trkpt><trkpt lat="42.8191683" lon="11.61971"><ele>728.0</ele><time>2026-05-02T15:20:50.719Z</time></trkpt><trkpt lat="42.819205" lon="11.6196383"><ele>728.0</ele><time>2026-05-02T15:20:51.722Z</time></trkpt><trkpt lat="42.819315" lon="11.6195517"><ele>728.0</ele><time>2026-05-02T15:20:53.722Z</time></trkpt><trkpt lat="42.819385" lon="11.6195117"><ele>728.0</ele><time>2026-05-02T15:20:54.722Z</time></trkpt><trkpt lat="42.819465" lon="11.61948"><ele>728.0</ele><time>2026-05-02T15:20:55.722Z</time></trkpt><trkpt lat="42.819545" lon="11.6194383"><ele>728.0</ele><time>2026-05-02T15:20:56.722Z</time></trkpt><trkpt lat="42.819625" lon="11.6193933"><ele>727.0</ele><time>2026-05-02T15:20:57.722Z</time></trkpt><trkpt lat="42.8197033" lon="11.61935"><ele>726.0</ele><time>2026-05-02T15:20:58.722Z</time></trkpt><trkpt lat="42.8197733" lon="11.6193017"><ele>725.0</ele><time>2026-05-02T15:20:59.722Z</time></trkpt><trkpt lat="42.8198467" lon="11.6192483"><ele>724.0</ele><time>2026-05-02T15:21:00.722Z</time></trkpt><trkpt lat="42.8199233" lon="11.6191867"><ele>723.0</ele><time>2026-05-02T15:21:01.722Z</time></trkpt><trkpt lat="42.8200033" lon="11.61913"><ele>722.0</ele><time>2026-05-02T15:21:02.722Z</time></trkpt><trkpt lat="42.8200833" lon="11.61908"><ele>722.0</ele><time>2026-05-02T15:21:03.722Z</time></trkpt><trkpt lat="42.8201617" lon="11.61903"><ele>722.0</ele><time>2026-05-02T15:21:04.722Z</time></trkpt><trkpt lat="42.8202433" lon="11.6189933"><ele>722.0</ele><time>2026-05-02T15:21:05.722Z</time></trkpt><trkpt lat="42.8203267" lon="11.6189617"><ele>722.0</ele><time>2026-05-02T15:21:06.721Z</time></trkpt><trkpt lat="42.8204117" lon="11.6189383"><ele>722.0</ele><time>2026-05-02T15:21:07.722Z</time></trkpt><trkpt lat="42.820495" lon="11.618925"><ele>722.0</ele><time>2026-05-02T15:21:08.722Z</time></trkpt><trkpt lat="42.820575" lon="11.6189067"><ele>722.0</ele><time>2026-05-02T15:21:09.722Z</time></trkpt><trkpt lat="42.8206583" lon="11.6189"><ele>722.0</ele><time>2026-05-02T15:21:10.722Z</time></trkpt><trkpt lat="42.82074" lon="11.618905"><ele>722.0</ele><time>2026-05-02T15:21:11.722Z</time></trkpt><trkpt lat="42.8208183" lon="11.61892"><ele>722.0</ele><time>2026-05-02T15:21:12.722Z</time></trkpt><trkpt lat="42.8208917" lon="11.61895"><ele>722.0</ele><time>2026-05-02T15:21:13.722Z</time></trkpt><trkpt lat="42.8209583" lon="11.6189983"><ele>722.0</ele><time>2026-05-02T15:21:14.722Z</time></trkpt><trkpt lat="42.821025" lon="11.61905"><ele>721.5</ele><time>2026-05-02T15:21:15.722Z</time></trkpt><trkpt lat="42.82109" lon="11.6191217"><ele>721.0</ele><time>2026-05-02T15:21:16.722Z</time></trkpt><trkpt lat="42.8211567" lon="11.61921"><ele>720.5</ele><time>2026-05-02T15:21:17.719Z</time></trkpt><trkpt lat="42.8212217" lon="11.6192933"><ele>720.0</ele><time>2026-05-02T15:21:18.722Z</time></trkpt><trkpt lat="42.8212833" lon="11.619375"><ele>719.5</ele><time>2026-05-02T15:21:19.721Z</time></trkpt><trkpt lat="42.8213433" lon="11.6194433"><ele>719.0</ele><time>2026-05-02T15:21:20.719Z</time></trkpt><trkpt lat="42.821405" lon="11.6194883"><ele>719.0</ele><time>2026-05-02T15:21:21.721Z</time></trkpt><trkpt lat="42.8214717" lon="11.619515"><ele>719.0</ele><time>2026-05-02T15:21:22.722Z</time></trkpt><trkpt lat="42.821535" lon="11.6195217"><ele>719.0</ele><time>2026-05-02T15:21:23.722Z</time></trkpt><trkpt lat="42.8216633" lon="11.61949"><ele>719.0</ele><time>2026-05-02T15:21:25.719Z</time></trkpt><trkpt lat="42.821735" lon="11.6194633"><ele>719.0</ele><time>2026-05-02T15:21:26.72Z</time></trkpt><trkpt lat="42.8218133" lon="11.6194467"><ele>719.0</ele><time>2026-05-02T15:21:27.719Z</time></trkpt><trkpt lat="42.8218967" lon="11.6194433"><ele>719.8000000000001</ele><time>2026-05-02T15:21:28.722Z</time></trkpt><trkpt lat="42.8219833" lon="11.6194617"><ele>720.6</ele><time>2026-05-02T15:21:29.722Z</time></trkpt><trkpt lat="42.8220667" lon="11.6194683"><ele>721.4</ele><time>2026-05-02T15:21:30.722Z</time></trkpt><trkpt lat="42.8221583" lon="11.61947"><ele>722.2</ele><time>2026-05-02T15:21:31.722Z</time></trkpt><trkpt lat="42.8222567" lon="11.61947"><ele>723.0</ele><time>2026-05-02T15:21:32.719Z</time></trkpt><trkpt lat="42.822355" lon="11.6194667"><ele>723.0</ele><time>2026-05-02T15:21:33.719Z</time></trkpt><trkpt lat="42.8224483" lon="11.6194583"><ele>723.0</ele><time>2026-05-02T15:21:34.719Z</time></trkpt><trkpt lat="42.822535" lon="11.6194517"><ele>723.0</ele><time>2026-05-02T15:21:35.719Z</time></trkpt><trkpt lat="42.8226267" lon="11.6194517"><ele>723.0</ele><time>2026-05-02T15:21:36.722Z</time></trkpt><trkpt lat="42.8227317" lon="11.61948"><ele>723.0</ele><time>2026-05-02T15:21:37.719Z</time></trkpt><trkpt lat="42.8228367" lon="11.6195117"><ele>728.0</ele><time>2026-05-02T15:21:38.719Z</time></trkpt><trkpt lat="42.8229517" lon="11.6195517"><ele>733.0</ele><time>2026-05-02T15:21:39.719Z</time></trkpt><trkpt lat="42.82307" lon="11.619595"><ele>738.0</ele><time>2026-05-02T15:21:40.719Z</time></trkpt><trkpt lat="42.823185" lon="11.6196383"><ele>743.0</ele><time>2026-05-02T15:21:41.723Z</time></trkpt><trkpt lat="42.8232867" lon="11.6196767"><ele>743.0</ele><time>2026-05-02T15:21:42.722Z</time></trkpt><trkpt lat="42.8233717" lon="11.61973"><ele>743.0</ele><time>2026-05-02T15:21:43.722Z</time></trkpt><trkpt lat="42.8234483" lon="11.61979"><ele>743.0</ele><time>2026-05-02T15:21:44.722Z</time></trkpt><trkpt lat="42.823525" lon="11.619855"><ele>743.0</ele><time>2026-05-02T15:21:45.721Z</time></trkpt><trkpt lat="42.8236167" lon="11.6199217"><ele>743.0</ele><time>2026-05-02T15:21:46.722Z</time></trkpt><trkpt lat="42.823715" lon="11.6199717"><ele>742.2</ele><time>2026-05-02T15:21:47.721Z</time></trkpt><trkpt lat="42.823815" lon="11.6199983"><ele>741.4</ele><time>2026-05-02T15:21:48.722Z</time></trkpt><trkpt lat="42.8239083" lon="11.6200317"><ele>740.6</ele><time>2026-05-02T15:21:49.719Z</time></trkpt><trkpt lat="42.823995" lon="11.6200717"><ele>739.8000000000001</ele><time>2026-05-02T15:21:50.719Z</time></trkpt><trkpt lat="42.8240833" lon="11.6201283"><ele>739.0</ele><time>2026-05-02T15:21:51.719Z</time></trkpt><trkpt lat="42.8241783" lon="11.6201933"><ele>739.0</ele><time>2026-05-02T15:21:52.722Z</time></trkpt><trkpt lat="42.8242817" lon="11.6202483"><ele>739.0</ele><time>2026-05-02T15:21:53.719Z</time></trkpt><trkpt lat="42.8244017" lon="11.6202967"><ele>739.0</ele><time>2026-05-02T15:21:54.722Z</time></trkpt><trkpt lat="42.8245333" lon="11.6203317"><ele>739.0</ele><time>2026-05-02T15:21:55.718Z</time></trkpt><trkpt lat="42.8246667" lon="11.62036"><ele>739.75</ele><time>2026-05-02T15:21:56.722Z</time></trkpt><trkpt lat="42.8247967" lon="11.6203817"><ele>740.5</ele><time>2026-05-02T15:21:57.72Z</time></trkpt><trkpt lat="42.82492" lon="11.6204183"><ele>741.25</ele><time>2026-05-02T15:21:58.719Z</time></trkpt><trkpt lat="42.8250333" lon="11.6204583"><ele>742.0</ele><time>2026-05-02T15:21:59.72Z</time></trkpt><trkpt lat="42.82514" lon="11.6204967"><ele>741.6</ele><time>2026-05-02T15:22:00.719Z</time></trkpt><trkpt lat="42.82523" lon="11.6205433"><ele>741.2</ele><time>2026-05-02T15:22:01.719Z</time></trkpt><trkpt lat="42.82532" lon="11.6205933"><ele>740.8</ele><time>2026-05-02T15:22:02.719Z</time></trkpt><trkpt lat="42.8254133" lon="11.620625"><ele>740.4</ele><time>2026-05-02T15:22:03.719Z</time></trkpt><trkpt lat="42.8255067" lon="11.6206533"><ele>740.0</ele><time>2026-05-02T15:22:04.719Z</time></trkpt><trkpt lat="42.8256033" lon="11.620675"><ele>740.0</ele><time>2026-05-02T15:22:05.72Z</time></trkpt><trkpt lat="42.8257067" lon="11.6206983"><ele>740.0</ele><time>2026-05-02T15:22:06.719Z</time></trkpt><trkpt lat="42.8258117" lon="11.6207233"><ele>740.0</ele><time>2026-05-02T15:22:07.72Z</time></trkpt><trkpt lat="42.8259117" lon="11.62074"><ele>740.0</ele><time>2026-05-02T15:22:08.721Z</time></trkpt><trkpt lat="42.8260083" lon="11.62075"><ele>740.0</ele><time>2026-05-02T15:22:09.719Z</time></trkpt><trkpt lat="42.8260967" lon="11.6207417"><ele>740.6</ele><time>2026-05-02T15:22:10.719Z</time></trkpt><trkpt lat="42.8261883" lon="11.6207233"><ele>741.2</ele><time>2026-05-02T15:22:11.719Z</time></trkpt><trkpt lat="42.826285" lon="11.6206967"><ele>741.8</ele><time>2026-05-02T15:22:12.72Z</time></trkpt><trkpt lat="42.8263833" lon="11.6206617"><ele>742.4</ele><time>2026-05-02T15:22:13.719Z</time></trkpt><trkpt lat="42.826485" lon="11.6206233"><ele>743.0</ele><time>2026-05-02T15:22:14.719Z</time></trkpt><trkpt lat="42.82659" lon="11.6205817"><ele>743.0</ele><time>2026-05-02T15:22:15.722Z</time></trkpt><trkpt lat="42.826695" lon="11.6205417"><ele>743.0</ele><time>2026-05-02T15:22:16.723Z</time></trkpt><trkpt lat="42.8268" lon="11.6205033"><ele>743.0</ele><time>2026-05-02T15:22:17.721Z</time></trkpt><trkpt lat="42.8269083" lon="11.6204683"><ele>743.0</ele><time>2026-05-02T15:22:18.721Z</time></trkpt><trkpt lat="42.82702" lon="11.620435"><ele>743.0</ele><time>2026-05-02T15:22:19.721Z</time></trkpt><trkpt lat="42.82713" lon="11.6203917"><ele>743.4</ele><time>2026-05-02T15:22:20.722Z</time></trkpt><trkpt lat="42.827235" lon="11.6203367"><ele>743.8</ele><time>2026-05-02T15:22:21.721Z</time></trkpt><trkpt lat="42.8273317" lon="11.6202683"><ele>744.2</ele><time>2026-05-02T15:22:22.721Z</time></trkpt><trkpt lat="42.8274267" lon="11.620195"><ele>744.6</ele><time>2026-05-02T15:22:23.721Z</time></trkpt><trkpt lat="42.82752" lon="11.6201167"><ele>745.0</ele><time>2026-05-02T15:22:24.723Z</time></trkpt><trkpt lat="42.82762" lon="11.6200367"><ele>748.75</ele><time>2026-05-02T15:22:25.723Z</time></trkpt><trkpt lat="42.8277217" lon="11.6199567"><ele>752.5</ele><time>2026-05-02T15:22:26.722Z</time></trkpt><trkpt lat="42.8278317" lon="11.619875"><ele>756.25</ele><time>2026-05-02T15:22:27.722Z</time></trkpt><trkpt lat="42.827945" lon="11.6197933"><ele>760.0</ele><time>2026-05-02T15:22:28.722Z</time></trkpt><trkpt lat="42.8280533" lon="11.6197117"><ele>760.0</ele><time>2026-05-02T15:22:29.722Z</time></trkpt><trkpt lat="42.8281633" lon="11.6196317"><ele>760.0</ele><time>2026-05-02T15:22:30.723Z</time></trkpt><trkpt lat="42.82827" lon="11.6195517"><ele>760.0</ele><time>2026-05-02T15:22:31.722Z</time></trkpt><trkpt lat="42.82837" lon="11.6194733"><ele>760.0</ele><time>2026-05-02T15:22:32.722Z</time></trkpt><trkpt lat="42.82847" lon="11.619395"><ele>760.6</ele><time>2026-05-02T15:22:33.722Z</time></trkpt><trkpt lat="42.8285683" lon="11.6193217"><ele>761.2</ele><time>2026-05-02T15:22:34.723Z</time></trkpt><trkpt lat="42.828665" lon="11.6192533"><ele>761.8</ele><time>2026-05-02T15:22:35.722Z</time></trkpt><trkpt lat="42.8287617" lon="11.6191967"><ele>762.4</ele><time>2026-05-02T15:22:36.724Z</time></trkpt><trkpt lat="42.8288533" lon="11.6191483"><ele>763.0</ele><time>2026-05-02T15:22:37.722Z</time></trkpt><trkpt lat="42.8289383" lon="11.6191083"><ele>763.0</ele><time>2026-05-02T15:22:38.722Z</time></trkpt><trkpt lat="42.829015" lon="11.619075"><ele>763.0</ele><time>2026-05-02T15:22:39.722Z</time></trkpt><trkpt lat="42.8290817" lon="11.6190483"><ele>763.0</ele><time>2026-05-02T15:22:40.722Z</time></trkpt><trkpt lat="42.8291533" lon="11.61904"><ele>763.0</ele><time>2026-05-02T15:22:41.722Z</time></trkpt><trkpt lat="42.8292317" lon="11.6190383"><ele>763.0</ele><time>2026-05-02T15:22:42.722Z</time></trkpt><trkpt lat="42.8293183" lon="11.6190467"><ele>763.0</ele><time>2026-05-02T15:22:43.722Z</time></trkpt><trkpt lat="42.8294083" lon="11.6190533"><ele>763.5999999999999</ele><time>2026-05-02T15:22:44.722Z</time></trkpt><trkpt lat="42.8295" lon="11.6190633"><ele>764.1999999999999</ele><time>2026-05-02T15:22:45.722Z</time></trkpt><trkpt lat="42.8295967" lon="11.6190833"><ele>764.8</ele><time>2026-05-02T15:22:46.722Z</time></trkpt><trkpt lat="42.8296983" lon="11.61911"><ele>765.4</ele><time>2026-05-02T15:22:47.72Z</time></trkpt><trkpt lat="42.8298067" lon="11.61915"><ele>766.0</ele><time>2026-05-02T15:22:48.719Z</time></trkpt><trkpt lat="42.829915" lon="11.6192"><ele>766.0</ele><time>2026-05-02T15:22:49.722Z</time></trkpt><trkpt lat="42.8300167" lon="11.6192483"><ele>766.0</ele><time>2026-05-02T15:22:50.719Z</time></trkpt><trkpt lat="42.83011" lon="11.6193"><ele>766.0</ele><time>2026-05-02T15:22:51.722Z</time></trkpt><trkpt lat="42.8301967" lon="11.6193467"><ele>766.0</ele><time>2026-05-02T15:22:52.718Z</time></trkpt><trkpt lat="42.830275" lon="11.6194017"><ele>766.0</ele><time>2026-05-02T15:22:53.719Z</time></trkpt><trkpt lat="42.830345" lon="11.6194633"><ele>765.8</ele><time>2026-05-02T15:22:54.722Z</time></trkpt><trkpt lat="42.8304133" lon="11.6195367"><ele>765.5999999999999</ele><time>2026-05-02T15:22:55.722Z</time></trkpt><trkpt lat="42.8304883" lon="11.6196133"><ele>765.4</ele><time>2026-05-02T15:22:56.722Z</time></trkpt><trkpt lat="42.830565" lon="11.6197067"><ele>765.2</ele><time>2026-05-02T15:22:57.722Z</time></trkpt><trkpt lat="42.83064" lon="11.619805"><ele>765.0</ele><time>2026-05-02T15:22:58.722Z</time></trkpt><trkpt lat="42.8307117" lon="11.61989"><ele>765.0</ele><time>2026-05-02T15:22:59.723Z</time></trkpt><trkpt lat="42.8307917" lon="11.61996"><ele>765.0</ele><time>2026-05-02T15:23:00.722Z</time></trkpt><trkpt lat="42.83088" lon="11.6200067"><ele>765.0</ele><time>2026-05-02T15:23:01.722Z</time></trkpt><trkpt lat="42.83098" lon="11.62002"><ele>765.0</ele><time>2026-05-02T15:23:02.722Z</time></trkpt><trkpt lat="42.83108" lon="11.620025"><ele>765.0</ele><time>2026-05-02T15:23:03.722Z</time></trkpt><trkpt lat="42.8311767" lon="11.620035"><ele>764.4</ele><time>2026-05-02T15:23:04.722Z</time></trkpt><trkpt lat="42.831265" lon="11.62007"><ele>763.8</ele><time>2026-05-02T15:23:05.722Z</time></trkpt><trkpt lat="42.8313483" lon="11.6201267"><ele>763.2</ele><time>2026-05-02T15:23:06.722Z</time></trkpt><trkpt lat="42.831425" lon="11.6202133"><ele>762.6</ele><time>2026-05-02T15:23:07.722Z</time></trkpt><trkpt lat="42.8315" lon="11.620315"><ele>762.0</ele><time>2026-05-02T15:23:08.722Z</time></trkpt><trkpt lat="42.8315783" lon="11.6204083"><ele>762.0</ele><time>2026-05-02T15:23:09.725Z</time></trkpt><trkpt lat="42.83167" lon="11.6204833"><ele>762.0</ele><time>2026-05-02T15:23:10.722Z</time></trkpt><trkpt lat="42.8317767" lon="11.6205383"><ele>762.0</ele><time>2026-05-02T15:23:11.723Z</time></trkpt><trkpt lat="42.831895" lon="11.6205783"><ele>762.0</ele><time>2026-05-02T15:23:12.722Z</time></trkpt><trkpt lat="42.8320183" lon="11.62061"><ele>758.75</ele><time>2026-05-02T15:23:13.719Z</time></trkpt><trkpt lat="42.83214" lon="11.6206467"><ele>755.5</ele><time>2026-05-02T15:23:14.722Z</time></trkpt><trkpt lat="42.832255" lon="11.6207067"><ele>752.25</ele><time>2026-05-02T15:23:15.723Z</time></trkpt><trkpt lat="42.8323667" lon="11.6207817"><ele>749.0</ele><time>2026-05-02T15:23:16.722Z</time></trkpt><trkpt lat="42.832475" lon="11.6208567"><ele>749.0</ele><time>2026-05-02T15:23:17.72Z</time></trkpt><trkpt lat="42.8325867" lon="11.6209217"><ele>749.0</ele><time>2026-05-02T15:23:18.72Z</time></trkpt><trkpt lat="42.8327067" lon="11.6209683"><ele>749.0</ele><time>2026-05-02T15:23:19.719Z</time></trkpt><trkpt lat="42.8328283" lon="11.621"><ele>749.0</ele><time>2026-05-02T15:23:20.722Z</time></trkpt><trkpt lat="42.8329567" lon="11.6210217"><ele>747.75</ele><time>2026-05-02T15:23:21.719Z</time></trkpt><trkpt lat="42.8330867" lon="11.621045"><ele>746.5</ele><time>2026-05-02T15:23:22.719Z</time></trkpt><trkpt lat="42.8332133" lon="11.6210783"><ele>745.25</ele><time>2026-05-02T15:23:23.719Z</time></trkpt><trkpt lat="42.8333317" lon="11.6211183"><ele>744.0</ele><time>2026-05-02T15:23:24.722Z</time></trkpt><trkpt lat="42.83344" lon="11.6211617"><ele>745.3333333333334</ele><time>2026-05-02T15:23:25.722Z</time></trkpt><trkpt lat="42.833535" lon="11.6212033"><ele>746.6666666666666</ele><time>2026-05-02T15:23:26.719Z</time></trkpt><trkpt lat="42.8336183" lon="11.6212433"><ele>748.0</ele><time>2026-05-02T15:23:27.722Z</time></trkpt><trkpt lat="42.8336933" lon="11.62129"><ele>749.3333333333333</ele><time>2026-05-02T15:23:28.723Z</time></trkpt><trkpt lat="42.8337567" lon="11.6213417"><ele>750.6666666666666</ele><time>2026-05-02T15:23:29.726Z</time></trkpt><trkpt lat="42.833815" lon="11.6214133"><ele>752.0</ele><time>2026-05-02T15:23:30.722Z</time></trkpt><trkpt lat="42.83387" lon="11.6215117"><ele>752.0</ele><time>2026-05-02T15:23:31.722Z</time></trkpt><trkpt lat="42.8339283" lon="11.62162"><ele>752.0</ele><time>2026-05-02T15:23:32.722Z</time></trkpt><trkpt lat="42.8339867" lon="11.6217267"><ele>752.0</ele><time>2026-05-02T15:23:33.719Z</time></trkpt><trkpt lat="42.8340467" lon="11.6218183"><ele>752.0</ele><time>2026-05-02T15:23:34.719Z</time></trkpt><trkpt lat="42.8341067" lon="11.621885"><ele>752.0</ele><time>2026-05-02T15:23:35.722Z</time></trkpt><trkpt lat="42.8341667" lon="11.6219317"><ele>752.0</ele><time>2026-05-02T15:23:36.722Z</time></trkpt><trkpt lat="42.8342267" lon="11.6219633"><ele>754.25</ele><time>2026-05-02T15:23:37.722Z</time></trkpt><trkpt lat="42.8343433" lon="11.6219517"><ele>756.5</ele><time>2026-05-02T15:23:39.722Z</time></trkpt><trkpt lat="42.834445" lon="11.6218717"><ele>758.75</ele><time>2026-05-02T15:23:41.72Z</time></trkpt><trkpt lat="42.83453" lon="11.6217317"><ele>761.0</ele><time>2026-05-02T15:23:43.722Z</time></trkpt><trkpt lat="42.8345683" lon="11.6216283"><ele>761.0</ele><time>2026-05-02T15:23:44.722Z</time></trkpt><trkpt lat="42.8346067" lon="11.6215383"><ele>761.0</ele><time>2026-05-02T15:23:45.723Z</time></trkpt><trkpt lat="42.83465" lon="11.6214533"><ele>761.0</ele><time>2026-05-02T15:23:46.722Z</time></trkpt><trkpt lat="42.8347067" lon="11.6213733"><ele>761.0</ele><time>2026-05-02T15:23:47.723Z</time></trkpt><trkpt lat="42.8347667" lon="11.6212917"><ele>761.0</ele><time>2026-05-02T15:23:48.722Z</time></trkpt><trkpt lat="42.8348183" lon="11.6212083"><ele>761.0</ele><time>2026-05-02T15:23:49.722Z</time></trkpt><trkpt lat="42.8348567" lon="11.6211217"><ele>760.3333333333333</ele><time>2026-05-02T15:23:50.722Z</time></trkpt><trkpt lat="42.83488" lon="11.6210267"><ele>759.6666666666666</ele><time>2026-05-02T15:23:51.722Z</time></trkpt><trkpt lat="42.8349" lon="11.6209233"><ele>759.0</ele><time>2026-05-02T15:23:52.722Z</time></trkpt><trkpt lat="42.8349183" lon="11.62081"><ele>758.3333333333334</ele><time>2026-05-02T15:23:53.722Z</time></trkpt><trkpt lat="42.8349317" lon="11.620695"><ele>757.6666666666667</ele><time>2026-05-02T15:23:54.722Z</time></trkpt><trkpt lat="42.834935" lon="11.6205817"><ele>757.0</ele><time>2026-05-02T15:23:55.719Z</time></trkpt><trkpt lat="42.8349567" lon="11.620465"><ele>757.0</ele><time>2026-05-02T15:23:56.723Z</time></trkpt><trkpt lat="42.8349867" lon="11.6203517"><ele>757.0</ele><time>2026-05-02T15:23:57.722Z</time></trkpt><trkpt lat="42.8350233" lon="11.6202367"><ele>757.0</ele><time>2026-05-02T15:23:58.722Z</time></trkpt><trkpt lat="42.835065" lon="11.6201283"><ele>757.0</ele><time>2026-05-02T15:23:59.722Z</time></trkpt><trkpt lat="42.835115" lon="11.6200183"><ele>757.0</ele><time>2026-05-02T15:24:00.722Z</time></trkpt><trkpt lat="42.83517" lon="11.6199083"><ele>756.8333333333334</ele><time>2026-05-02T15:24:01.722Z</time></trkpt><trkpt lat="42.8352233" lon="11.6198"><ele>756.6666666666667</ele><time>2026-05-02T15:24:02.719Z</time></trkpt><trkpt lat="42.83527" lon="11.61969"><ele>756.5</ele><time>2026-05-02T15:24:03.719Z</time></trkpt><trkpt lat="42.8353067" lon="11.61958"><ele>756.3333333333334</ele><time>2026-05-02T15:24:04.719Z</time></trkpt><trkpt lat="42.8353433" lon="11.619475"><ele>756.1666666666666</ele><time>2026-05-02T15:24:05.72Z</time></trkpt><trkpt lat="42.8353817" lon="11.6193733"><ele>756.0</ele><time>2026-05-02T15:24:06.72Z</time></trkpt><trkpt lat="42.8354233" lon="11.6192767"><ele>756.0</ele><time>2026-05-02T15:24:07.721Z</time></trkpt><trkpt lat="42.8354767" lon="11.61918"><ele>756.0</ele><time>2026-05-02T15:24:08.72Z</time></trkpt><trkpt lat="42.8355433" lon="11.6190983"><ele>756.0</ele><time>2026-05-02T15:24:09.719Z</time></trkpt><trkpt lat="42.8356117" lon="11.6190283"><ele>756.0</ele><time>2026-05-02T15:24:10.719Z</time></trkpt><trkpt lat="42.8356833" lon="11.61897"><ele>756.0</ele><time>2026-05-02T15:24:11.721Z</time></trkpt><trkpt lat="42.8357567" lon="11.61893"><ele>756.0</ele><time>2026-05-02T15:24:12.725Z</time></trkpt><trkpt lat="42.835835" lon="11.61892"><ele>756.0</ele><time>2026-05-02T15:24:13.721Z</time></trkpt><trkpt lat="42.8359083" lon="11.6189267"><ele>756.0</ele><time>2026-05-02T15:24:14.721Z</time></trkpt><trkpt lat="42.835975" lon="11.61892"><ele>756.0</ele><time>2026-05-02T15:24:15.721Z</time></trkpt><trkpt lat="42.836085" lon="11.61886"><ele>756.0</ele><time>2026-05-02T15:24:17.721Z</time></trkpt><trkpt lat="42.8361183" lon="11.6186983"><ele>756.0</ele><time>2026-05-02T15:24:19.721Z</time></trkpt><trkpt lat="42.8361133" lon="11.6185833"><ele>761.1999999999999</ele><time>2026-05-02T15:24:20.721Z</time></trkpt><trkpt lat="42.8361033" lon="11.6184467"><ele>766.4</ele><time>2026-05-02T15:24:21.721Z</time></trkpt><trkpt lat="42.8360983" lon="11.618315"><ele>771.6</ele><time>2026-05-02T15:24:22.721Z</time></trkpt><trkpt lat="42.8360917" lon="11.6181867"><ele>776.8</ele><time>2026-05-02T15:24:23.722Z</time></trkpt><trkpt lat="42.8360867" lon="11.6180733"><ele>782.0</ele><time>2026-05-02T15:24:24.721Z</time></trkpt><trkpt lat="42.8360917" lon="11.6179667"><ele>782.0000000000001</ele><time>2026-05-02T15:24:25.721Z</time></trkpt><trkpt lat="42.8361117" lon="11.6178583"><ele>782.0</ele><time>2026-05-02T15:24:26.721Z</time></trkpt><trkpt lat="42.8361417" lon="11.6177517"><ele>782.0</ele><time>2026-05-02T15:24:27.719Z</time></trkpt><trkpt lat="42.8361817" lon="11.6176583"><ele>782.0</ele><time>2026-05-02T15:24:28.719Z</time></trkpt><trkpt lat="42.8362333" lon="11.6175817"><ele>782.0000000000001</ele><time>2026-05-02T15:24:29.722Z</time></trkpt><trkpt lat="42.83629" lon="11.617515"><ele>782.0</ele><time>2026-05-02T15:24:30.721Z</time></trkpt><trkpt lat="42.8363517" lon="11.6174517"><ele>781.5000000000001</ele><time>2026-05-02T15:24:31.719Z</time></trkpt><trkpt lat="42.8364167" lon="11.6174017"><ele>781.0</ele><time>2026-05-02T15:24:32.721Z</time></trkpt><trkpt lat="42.8364917" lon="11.6173733"><ele>780.5</ele><time>2026-05-02T15:24:33.722Z</time></trkpt><trkpt lat="42.8365583" lon="11.617325"><ele>780.0</ele><time>2026-05-02T15:24:34.721Z</time></trkpt><trkpt lat="42.8366233" lon="11.6172583"><ele>779.5000000000001</ele><time>2026-05-02T15:24:35.722Z</time></trkpt><trkpt lat="42.8366783" lon="11.6171783"><ele>779.0</ele><time>2026-05-02T15:24:36.721Z</time></trkpt><trkpt lat="42.8367233" lon="11.617095"><ele>779.0000000000001</ele><time>2026-05-02T15:24:37.721Z</time></trkpt><trkpt lat="42.8367733" lon="11.6170233"><ele>779.0</ele><time>2026-05-02T15:24:38.721Z</time></trkpt><trkpt lat="42.836835" lon="11.61696"><ele>779.0</ele><time>2026-05-02T15:24:39.721Z</time></trkpt><trkpt lat="42.8369117" lon="11.6169067"><ele>779.0</ele><time>2026-05-02T15:24:40.721Z</time></trkpt><trkpt lat="42.8369883" lon="11.6168533"><ele>779.0000000000001</ele><time>2026-05-02T15:24:41.721Z</time></trkpt><trkpt lat="42.837065" lon="11.6167983"><ele>779.0</ele><time>2026-05-02T15:24:42.721Z</time></trkpt><trkpt lat="42.8371333" lon="11.61675"><ele>782.2</ele><time>2026-05-02T15:24:43.722Z</time></trkpt><trkpt lat="42.8371917" lon="11.6167033"><ele>785.4000000000001</ele><time>2026-05-02T15:24:44.721Z</time></trkpt><trkpt lat="42.8372767" lon="11.6166217"><ele>788.6</ele><time>2026-05-02T15:24:46.721Z</time></trkpt><trkpt lat="42.8373567" lon="11.616545"><ele>791.8</ele><time>2026-05-02T15:24:48.719Z</time></trkpt><trkpt lat="42.8374467" lon="11.6164833"><ele>795.0</ele><time>2026-05-02T15:24:50.719Z</time></trkpt><trkpt lat="42.8375267" lon="11.6164217"><ele>795.0</ele><time>2026-05-02T15:24:52.721Z</time></trkpt><trkpt lat="42.83757" lon="11.616305"><ele>795.0</ele><time>2026-05-02T15:24:54.721Z</time></trkpt><trkpt lat="42.8375683" lon="11.6162183"><ele>795.0</ele><time>2026-05-02T15:24:57.721Z</time></trkpt><trkpt lat="42.8375233" lon="11.6161517"><ele>795.0</ele><time>2026-05-02T15:25:13.721Z</time></trkpt><trkpt lat="42.837505" lon="11.6160533"><ele>795.0</ele><time>2026-05-02T15:25:14.722Z</time></trkpt><trkpt lat="42.8375017" lon="11.6159567"><ele>795.0</ele><time>2026-05-02T15:25:15.721Z</time></trkpt><trkpt lat="42.8375233" lon="11.6158417"><ele>794.8333333333334</ele><time>2026-05-02T15:25:16.721Z</time></trkpt><trkpt lat="42.837555" lon="11.6157217"><ele>794.6666666666667</ele><time>2026-05-02T15:25:17.721Z</time></trkpt><trkpt lat="42.8375883" lon="11.6156033"><ele>794.5</ele><time>2026-05-02T15:25:18.718Z</time></trkpt><trkpt lat="42.8376217" lon="11.6154883"><ele>794.3333333333334</ele><time>2026-05-02T15:25:19.718Z</time></trkpt><trkpt lat="42.8376667" lon="11.6153983"><ele>794.1666666666667</ele><time>2026-05-02T15:25:20.718Z</time></trkpt><trkpt lat="42.8377267" lon="11.6153317"><ele>794.0</ele><time>2026-05-02T15:25:21.718Z</time></trkpt><trkpt lat="42.837805" lon="11.61528"><ele>794.0</ele><time>2026-05-02T15:25:22.718Z</time></trkpt><trkpt lat="42.8378917" lon="11.6152317"><ele>794.0</ele><time>2026-05-02T15:25:23.718Z</time></trkpt><trkpt lat="42.83798" lon="11.6151783"><ele>794.0</ele><time>2026-05-02T15:25:24.718Z</time></trkpt><trkpt lat="42.8380583" lon="11.6151167"><ele>794.0</ele><time>2026-05-02T15:25:25.721Z</time></trkpt><trkpt lat="42.8381267" lon="11.6150383"><ele>794.0</ele><time>2026-05-02T15:25:26.721Z</time></trkpt><trkpt lat="42.8381817" lon="11.614945"><ele>794.0</ele><time>2026-05-02T15:25:27.722Z</time></trkpt><trkpt lat="42.8382117" lon="11.6148417"><ele>794.0</ele><time>2026-05-02T15:25:28.721Z</time></trkpt><trkpt lat="42.8382383" lon="11.61473"><ele>794.0</ele><time>2026-05-02T15:25:29.721Z</time></trkpt><trkpt lat="42.8382717" lon="11.6146233"><ele>794.0</ele><time>2026-05-02T15:25:30.721Z</time></trkpt><trkpt lat="42.838315" lon="11.6145033"><ele>794.0</ele><time>2026-05-02T15:25:31.722Z</time></trkpt><trkpt lat="42.8383483" lon="11.6143717"><ele>792.8000000000001</ele><time>2026-05-02T15:25:32.721Z</time></trkpt><trkpt lat="42.8383733" lon="11.6142333"><ele>791.6</ele><time>2026-05-02T15:25:33.721Z</time></trkpt><trkpt lat="42.8383933" lon="11.61409"><ele>790.4</ele><time>2026-05-02T15:25:34.721Z</time></trkpt><trkpt lat="42.838415" lon="11.6139467"><ele>789.2</ele><time>2026-05-02T15:25:35.721Z</time></trkpt><trkpt lat="42.83843" lon="11.6138033"><ele>788.0</ele><time>2026-05-02T15:25:36.721Z</time></trkpt><trkpt lat="42.838445" lon="11.61366"><ele>787.0</ele><time>2026-05-02T15:25:37.721Z</time></trkpt><trkpt lat="42.8384617" lon="11.613515"><ele>786.0</ele><time>2026-05-02T15:25:38.722Z</time></trkpt><trkpt lat="42.8384833" lon="11.6133683"><ele>785.0</ele><time>2026-05-02T15:25:39.721Z</time></trkpt><trkpt lat="42.8385033" lon="11.613215"><ele>784.0</ele><time>2026-05-02T15:25:40.721Z</time></trkpt><trkpt lat="42.83853" lon="11.613065"><ele>783.0</ele><time>2026-05-02T15:25:41.721Z</time></trkpt><trkpt lat="42.8385567" lon="11.6129067"><ele>788.5</ele><time>2026-05-02T15:25:42.721Z</time></trkpt><trkpt lat="42.8385767" lon="11.612745"><ele>794.0</ele><time>2026-05-02T15:25:43.721Z</time></trkpt><trkpt lat="42.8385917" lon="11.61258"><ele>799.5</ele><time>2026-05-02T15:25:44.721Z</time></trkpt><trkpt lat="42.8386017" lon="11.61242"><ele>805.0</ele><time>2026-05-02T15:25:45.721Z</time></trkpt><trkpt lat="42.8386133" lon="11.6122583"><ele>805.0</ele><time>2026-05-02T15:25:46.722Z</time></trkpt><trkpt lat="42.8386283" lon="11.6121067"><ele>805.0</ele><time>2026-05-02T15:25:47.721Z</time></trkpt><trkpt lat="42.8386467" lon="11.6119733"><ele>805.0</ele><time>2026-05-02T15:25:48.721Z</time></trkpt><trkpt lat="42.83867" lon="11.611855"><ele>805.0</ele><time>2026-05-02T15:25:49.721Z</time></trkpt><trkpt lat="42.838705" lon="11.6117567"><ele>805.0</ele><time>2026-05-02T15:25:50.721Z</time></trkpt><trkpt lat="42.83876" lon="11.6116617"><ele>803.2</ele><time>2026-05-02T15:25:51.722Z</time></trkpt><trkpt lat="42.8388133" lon="11.6115583"><ele>801.4</ele><time>2026-05-02T15:25:52.721Z</time></trkpt><trkpt lat="42.838865" lon="11.6114433"><ele>799.5999999999999</ele><time>2026-05-02T15:25:53.721Z</time></trkpt><trkpt lat="42.838905" lon="11.6113283"><ele>797.8</ele><time>2026-05-02T15:25:54.722Z</time></trkpt><trkpt lat="42.83894" lon="11.611215"><ele>796.0</ele><time>2026-05-02T15:25:55.721Z</time></trkpt><trkpt lat="42.838975" lon="11.6111033"><ele>794.6666666666666</ele><time>2026-05-02T15:25:56.718Z</time></trkpt><trkpt lat="42.839015" lon="11.6110083"><ele>793.3333333333333</ele><time>2026-05-02T15:25:57.721Z</time></trkpt><trkpt lat="42.8390633" lon="11.6109133"><ele>792.0</ele><time>2026-05-02T15:25:58.721Z</time></trkpt><trkpt lat="42.8391117" lon="11.6108117"><ele>790.6666666666667</ele><time>2026-05-02T15:25:59.721Z</time></trkpt><trkpt lat="42.8391517" lon="11.6107333"><ele>789.3333333333334</ele><time>2026-05-02T15:26:00.721Z</time></trkpt><trkpt lat="42.8391983" lon="11.610675"><ele>788.0</ele><time>2026-05-02T15:26:01.721Z</time></trkpt><trkpt lat="42.8392983" lon="11.6106517"><ele>791.4</ele><time>2026-05-02T15:26:03.718Z</time></trkpt><trkpt lat="42.8393567" lon="11.6106933"><ele>794.8</ele><time>2026-05-02T15:26:04.718Z</time></trkpt><trkpt lat="42.8394533" lon="11.6107967"><ele>798.2</ele><time>2026-05-02T15:26:06.722Z</time></trkpt><trkpt lat="42.8395067" lon="11.6108433"><ele>801.6</ele><time>2026-05-02T15:26:07.721Z</time></trkpt><trkpt lat="42.8396083" lon="11.610915"><ele>805.0</ele><time>2026-05-02T15:26:09.718Z</time></trkpt><trkpt lat="42.83969" lon="11.610955"><ele>804.9999999999999</ele><time>2026-05-02T15:26:11.722Z</time></trkpt><trkpt lat="42.8397617" lon="11.611"><ele>805.0</ele><time>2026-05-02T15:26:13.718Z</time></trkpt><trkpt lat="42.83983" lon="11.6110817"><ele>805.0</ele><time>2026-05-02T15:26:15.718Z</time></trkpt><trkpt lat="42.83985" lon="11.611165"><ele>805.0</ele><time>2026-05-02T15:26:17.721Z</time></trkpt><trkpt lat="42.83982" lon="11.61128"><ele>804.9999999999999</ele><time>2026-05-02T15:26:19.718Z</time></trkpt><trkpt lat="42.8398467" lon="11.611435"><ele>805.0</ele><time>2026-05-02T15:26:21.721Z</time></trkpt><trkpt lat="42.8398833" lon="11.6115283"><ele>806.2857142857143</ele><time>2026-05-02T15:26:22.722Z</time></trkpt><trkpt lat="42.8399183" lon="11.61162"><ele>807.5714285714286</ele><time>2026-05-02T15:26:23.718Z</time></trkpt><trkpt lat="42.8399567" lon="11.6117067"><ele>808.8571428571429</ele><time>2026-05-02T15:26:24.718Z</time></trkpt><trkpt lat="42.84" lon="11.61179"><ele>810.1428571428571</ele><time>2026-05-02T15:26:25.718Z</time></trkpt><trkpt lat="42.84004" lon="11.6118633"><ele>811.4285714285714</ele><time>2026-05-02T15:26:26.719Z</time></trkpt><trkpt lat="42.8400783" lon="11.611935"><ele>812.7142857142858</ele><time>2026-05-02T15:26:27.719Z</time></trkpt><trkpt lat="42.8401117" lon="11.6120167"><ele>814.0</ele><time>2026-05-02T15:26:28.718Z</time></trkpt><trkpt lat="42.8401383" lon="11.612105"><ele>816.6666666666666</ele><time>2026-05-02T15:26:29.718Z</time></trkpt><trkpt lat="42.840165" lon="11.6122"><ele>819.3333333333333</ele><time>2026-05-02T15:26:30.718Z</time></trkpt><trkpt lat="42.8401917" lon="11.6123083"><ele>822.0</ele><time>2026-05-02T15:26:31.721Z</time></trkpt><trkpt lat="42.8402167" lon="11.61243"><ele>824.6666666666667</ele><time>2026-05-02T15:26:32.718Z</time></trkpt><trkpt lat="42.8402417" lon="11.6125467"><ele>827.3333333333334</ele><time>2026-05-02T15:26:33.718Z</time></trkpt><trkpt lat="42.8402633" lon="11.6126683"><ele>830.0</ele><time>2026-05-02T15:26:34.718Z</time></trkpt><trkpt lat="42.8402833" lon="11.61279"><ele>829.5000000000001</ele><time>2026-05-02T15:26:35.719Z</time></trkpt><trkpt lat="42.840305" lon="11.61291"><ele>829.0</ele><time>2026-05-02T15:26:36.718Z</time></trkpt><trkpt lat="42.840325" lon="11.6130217"><ele>828.5</ele><time>2026-05-02T15:26:37.718Z</time></trkpt><trkpt lat="42.8403367" lon="11.6131417"><ele>828.0</ele><time>2026-05-02T15:26:38.72Z</time></trkpt><trkpt lat="42.840335" lon="11.613255"><ele>827.5000000000001</ele><time>2026-05-02T15:26:39.719Z</time></trkpt><trkpt lat="42.8403167" lon="11.61337"><ele>827.0</ele><time>2026-05-02T15:26:40.718Z</time></trkpt><trkpt lat="42.8402867" lon="11.6134767"><ele>827.0000000000001</ele><time>2026-05-02T15:26:41.721Z</time></trkpt><trkpt lat="42.84026" lon="11.6135783"><ele>827.0</ele><time>2026-05-02T15:26:42.721Z</time></trkpt><trkpt lat="42.8402383" lon="11.6136783"><ele>827.0</ele><time>2026-05-02T15:26:43.718Z</time></trkpt><trkpt lat="42.8402183" lon="11.613785"><ele>827.0</ele><time>2026-05-02T15:26:44.723Z</time></trkpt><trkpt lat="42.8401983" lon="11.6138933"><ele>827.0000000000001</ele><time>2026-05-02T15:26:45.718Z</time></trkpt><trkpt lat="42.840185" lon="11.6140083"><ele>827.0</ele><time>2026-05-02T15:26:46.721Z</time></trkpt><trkpt lat="42.8401767" lon="11.61413"><ele>827.2</ele><time>2026-05-02T15:26:47.718Z</time></trkpt><trkpt lat="42.84017" lon="11.614255"><ele>827.4000000000001</ele><time>2026-05-02T15:26:48.721Z</time></trkpt><trkpt lat="42.8401583" lon="11.614385"><ele>827.5999999999999</ele><time>2026-05-02T15:26:49.721Z</time></trkpt><trkpt lat="42.8401533" lon="11.614515"><ele>827.8</ele><time>2026-05-02T15:26:50.721Z</time></trkpt><trkpt lat="42.8401467" lon="11.614645"><ele>828.0</ele><time>2026-05-02T15:26:51.721Z</time></trkpt><trkpt lat="42.84014" lon="11.61478"><ele>828.0</ele><time>2026-05-02T15:26:52.721Z</time></trkpt><trkpt lat="42.84013" lon="11.6149133"><ele>828.0</ele><time>2026-05-02T15:26:53.721Z</time></trkpt><trkpt lat="42.8401233" lon="11.61504"><ele>828.0</ele><time>2026-05-02T15:26:54.721Z</time></trkpt><trkpt lat="42.840115" lon="11.61516"><ele>828.0</ele><time>2026-05-02T15:26:55.721Z</time></trkpt><trkpt lat="42.8401033" lon="11.615265"><ele>828.0</ele><time>2026-05-02T15:26:56.721Z</time></trkpt><trkpt lat="42.840095" lon="11.6153617"><ele>828.0</ele><time>2026-05-02T15:26:57.723Z</time></trkpt><trkpt lat="42.840085" lon="11.61545"><ele>828.6666666666666</ele><time>2026-05-02T15:26:58.721Z</time></trkpt><trkpt lat="42.8400683" lon="11.6156267"><ele>829.3333333333333</ele><time>2026-05-02T15:27:00.721Z</time></trkpt><trkpt lat="42.840055" lon="11.61573"><ele>830.0</ele><time>2026-05-02T15:27:01.718Z</time></trkpt><trkpt lat="42.8400367" lon="11.6158367"><ele>830.6666666666666</ele><time>2026-05-02T15:27:02.72Z</time></trkpt><trkpt lat="42.84002" lon="11.61594"><ele>831.3333333333333</ele><time>2026-05-02T15:27:03.721Z</time></trkpt><trkpt lat="42.8400183" lon="11.6160367"><ele>832.0</ele><time>2026-05-02T15:27:04.721Z</time></trkpt><trkpt lat="42.8400483" lon="11.616185"><ele>833.0</ele><time>2026-05-02T15:27:06.721Z</time></trkpt><trkpt lat="42.8400667" lon="11.61631"><ele>833.0</ele><time>2026-05-02T15:27:08.721Z</time></trkpt><trkpt lat="42.8401033" lon="11.6164067"><ele>833.0</ele><time>2026-05-02T15:27:10.718Z</time></trkpt><trkpt lat="42.8400717" lon="11.6162767"><ele>833.0</ele><time>2026-05-02T15:27:15.721Z</time></trkpt></trkseg></trk></gpx>